<?xml version='1.0' encoding='UTF-8'?><gpx version="1.1" creator="JPX - https://github.com/jenetics/jpx" xmlns="http://www.topografix.com/GPX/1/1"><trk><trkseg><trkpt lat="43.1082734" lon="12.4420256"><ele>241.2</ele><time>2026-04-26T08:02:23.245Z</time></trkpt><trkpt lat="43.1082011" lon="12.4421393"><ele>239.4</ele><time>2026-04-26T08:02:25.301Z</time></trkpt><trkpt lat="43.1081486" lon="12.4422144"><ele>237.59999999999997</ele><time>2026-04-26T08:02:26.292Z</time></trkpt><trkpt lat="43.1080852" lon="12.4422949"><ele>235.79999999999998</ele><time>2026-04-26T08:02:27.28Z</time></trkpt><trkpt lat="43.1080106" lon="12.4423753"><ele>234.0</ele><time>2026-04-26T08:02:28.294Z</time></trkpt><trkpt lat="43.1079289" lon="12.4424624"><ele>234.0</ele><time>2026-04-26T08:02:29.309Z</time></trkpt><trkpt lat="43.1078452" lon="12.4425654"><ele>234.0</ele><time>2026-04-26T08:02:30.331Z</time></trkpt><trkpt lat="43.1077585" lon="12.4426674"><ele>234.0</ele><time>2026-04-26T08:02:31.28Z</time></trkpt><trkpt lat="43.1076739" lon="12.4427901"><ele>234.0</ele><time>2026-04-26T08:02:32.273Z</time></trkpt><trkpt lat="43.1075907" lon="12.442922"><ele>230.25</ele><time>2026-04-26T08:02:33.285Z</time></trkpt><trkpt lat="43.1075214" lon="12.4430852"><ele>226.5</ele><time>2026-04-26T08:02:34.295Z</time></trkpt><trkpt lat="43.1075074" lon="12.4432805"><ele>222.75</ele><time>2026-04-26T08:02:35.286Z</time></trkpt><trkpt lat="43.1075235" lon="12.4434749"><ele>219.0</ele><time>2026-04-26T08:02:36.262Z</time></trkpt><trkpt lat="43.107546" lon="12.443654"><ele>219.0</ele><time>2026-04-26T08:02:37.266Z</time></trkpt><trkpt lat="43.1075525" lon="12.443777"><ele>219.0</ele><time>2026-04-26T08:02:38.273Z</time></trkpt><trkpt lat="43.1075641" lon="12.4438657"><ele>219.0</ele><time>2026-04-26T08:02:39.251Z</time></trkpt><trkpt lat="43.1075741" lon="12.4439616"><ele>219.0</ele><time>2026-04-26T08:02:40.318Z</time></trkpt><trkpt lat="43.1075861" lon="12.4440627"><ele>219.0</ele><time>2026-04-26T08:02:41.304Z</time></trkpt><trkpt lat="43.1076028" lon="12.4442161"><ele>219.0</ele><time>2026-04-26T08:02:43.275Z</time></trkpt><trkpt lat="43.1076024" lon="12.4443215"><ele>217.0</ele><time>2026-04-26T08:02:45.284Z</time></trkpt><trkpt lat="43.1076316" lon="12.4444146"><ele>215.0</ele><time>2026-04-26T08:02:51.288Z</time></trkpt><trkpt lat="43.1076957" lon="12.4444333"><ele>213.0</ele><time>2026-04-26T08:02:53.307Z</time></trkpt><trkpt lat="43.1077626" lon="12.4444614"><ele>211.0</ele><time>2026-04-26T08:02:55.299Z</time></trkpt><trkpt lat="43.1078385" lon="12.4445096"><ele>209.0</ele><time>2026-04-26T08:02:57.299Z</time></trkpt><trkpt lat="43.1079096" lon="12.4445716"><ele>207.0</ele><time>2026-04-26T08:02:59.299Z</time></trkpt><trkpt lat="43.1079917" lon="12.4446359"><ele>205.2</ele><time>2026-04-26T08:03:01.453Z</time></trkpt><trkpt lat="43.1080645" lon="12.444697"><ele>203.39999999999998</ele><time>2026-04-26T08:03:03.292Z</time></trkpt><trkpt lat="43.108147" lon="12.4447796"><ele>201.60000000000002</ele><time>2026-04-26T08:03:05.333Z</time></trkpt><trkpt lat="43.1082336" lon="12.4448512"><ele>199.8</ele><time>2026-04-26T08:03:07.292Z</time></trkpt><trkpt lat="43.1083245" lon="12.4449321"><ele>198.0</ele><time>2026-04-26T08:03:09.341Z</time></trkpt><trkpt lat="43.1084142" lon="12.4450135"><ele>196.8</ele><time>2026-04-26T08:03:11.324Z</time></trkpt><trkpt lat="43.1085159" lon="12.445095"><ele>195.60000000000002</ele><time>2026-04-26T08:03:13.452Z</time></trkpt><trkpt lat="43.1086077" lon="12.4451722"><ele>194.39999999999998</ele><time>2026-04-26T08:03:15.315Z</time></trkpt><trkpt lat="43.1087147" lon="12.4452676"><ele>193.2</ele><time>2026-04-26T08:03:17.313Z</time></trkpt><trkpt lat="43.1087716" lon="12.4453118"><ele>192.0</ele><time>2026-04-26T08:03:18.298Z</time></trkpt><trkpt lat="43.1088322" lon="12.4453619"><ele>192.0</ele><time>2026-04-26T08:03:19.293Z</time></trkpt><trkpt lat="43.108902" lon="12.4454198"><ele>192.0</ele><time>2026-04-26T08:03:20.433Z</time></trkpt><trkpt lat="43.1089597" lon="12.445466"><ele>192.0</ele><time>2026-04-26T08:03:21.342Z</time></trkpt><trkpt lat="43.1090239" lon="12.445519"><ele>192.0</ele><time>2026-04-26T08:03:22.347Z</time></trkpt><trkpt lat="43.1090855" lon="12.4455736"><ele>192.0</ele><time>2026-04-26T08:03:23.316Z</time></trkpt><trkpt lat="43.1091532" lon="12.4456324"><ele>192.0</ele><time>2026-04-26T08:03:24.345Z</time></trkpt><trkpt lat="43.1092199" lon="12.4456887"><ele>192.16666666666666</ele><time>2026-04-26T08:03:25.342Z</time></trkpt><trkpt lat="43.1092901" lon="12.4457481"><ele>192.33333333333331</ele><time>2026-04-26T08:03:26.365Z</time></trkpt><trkpt lat="43.1093557" lon="12.4458096"><ele>192.5</ele><time>2026-04-26T08:03:27.344Z</time></trkpt><trkpt lat="43.1094264" lon="12.4458682"><ele>192.66666666666666</ele><time>2026-04-26T08:03:28.329Z</time></trkpt><trkpt lat="43.1094916" lon="12.4459392"><ele>192.83333333333331</ele><time>2026-04-26T08:03:29.318Z</time></trkpt><trkpt lat="43.1095568" lon="12.4460143"><ele>193.0</ele><time>2026-04-26T08:03:30.308Z</time></trkpt><trkpt lat="43.1096231" lon="12.4461002"><ele>192.99999999999997</ele><time>2026-04-26T08:03:31.336Z</time></trkpt><trkpt lat="43.1096742" lon="12.446179"><ele>193.0</ele><time>2026-04-26T08:03:32.298Z</time></trkpt><trkpt lat="43.1097242" lon="12.4462709"><ele>193.0</ele><time>2026-04-26T08:03:33.349Z</time></trkpt><trkpt lat="43.1097644" lon="12.44636"><ele>193.0</ele><time>2026-04-26T08:03:34.325Z</time></trkpt><trkpt lat="43.1098122" lon="12.4464451"><ele>192.99999999999997</ele><time>2026-04-26T08:03:35.346Z</time></trkpt><trkpt lat="43.1098565" lon="12.4465245"><ele>193.0</ele><time>2026-04-26T08:03:36.31Z</time></trkpt><trkpt lat="43.1098993" lon="12.4466082"><ele>193.14285714285717</ele><time>2026-04-26T08:03:37.32Z</time></trkpt><trkpt lat="43.1099402" lon="12.4466964"><ele>193.28571428571428</ele><time>2026-04-26T08:03:38.326Z</time></trkpt><trkpt lat="43.1099765" lon="12.4467763"><ele>193.42857142857144</ele><time>2026-04-26T08:03:39.292Z</time></trkpt><trkpt lat="43.1100153" lon="12.4468553"><ele>193.57142857142858</ele><time>2026-04-26T08:03:40.292Z</time></trkpt><trkpt lat="43.1100571" lon="12.4469317"><ele>193.71428571428572</ele><time>2026-04-26T08:03:41.3Z</time></trkpt><trkpt lat="43.110097" lon="12.4470118"><ele>193.85714285714286</ele><time>2026-04-26T08:03:42.322Z</time></trkpt><trkpt lat="43.1101273" lon="12.4470958"><ele>194.0</ele><time>2026-04-26T08:03:43.295Z</time></trkpt><trkpt lat="43.1101679" lon="12.4471755"><ele>194.14285714285714</ele><time>2026-04-26T08:03:44.335Z</time></trkpt><trkpt lat="43.1102049" lon="12.4472517"><ele>194.2857142857143</ele><time>2026-04-26T08:03:45.323Z</time></trkpt><trkpt lat="43.1102444" lon="12.447329"><ele>194.42857142857144</ele><time>2026-04-26T08:03:46.322Z</time></trkpt><trkpt lat="43.1102811" lon="12.447404"><ele>194.57142857142856</ele><time>2026-04-26T08:03:47.312Z</time></trkpt><trkpt lat="43.1103196" lon="12.4474751"><ele>194.71428571428572</ele><time>2026-04-26T08:03:48.289Z</time></trkpt><trkpt lat="43.110351" lon="12.4475524"><ele>194.85714285714286</ele><time>2026-04-26T08:03:49.307Z</time></trkpt><trkpt lat="43.1103905" lon="12.4476317"><ele>195.0</ele><time>2026-04-26T08:03:50.372Z</time></trkpt><trkpt lat="43.1104298" lon="12.4477043"><ele>195.0</ele><time>2026-04-26T08:03:51.361Z</time></trkpt><trkpt lat="43.1105053" lon="12.4478437"><ele>195.0</ele><time>2026-04-26T08:03:53.321Z</time></trkpt><trkpt lat="43.1105423" lon="12.4479198"><ele>195.0</ele><time>2026-04-26T08:03:54.338Z</time></trkpt><trkpt lat="43.1106177" lon="12.4480569"><ele>195.0</ele><time>2026-04-26T08:03:56.288Z</time></trkpt><trkpt lat="43.1106522" lon="12.4481339"><ele>195.0</ele><time>2026-04-26T08:03:57.312Z</time></trkpt><trkpt lat="43.1106912" lon="12.4482044"><ele>195.0</ele><time>2026-04-26T08:03:58.311Z</time></trkpt><trkpt lat="43.1107266" lon="12.4482818"><ele>195.0</ele><time>2026-04-26T08:03:59.345Z</time></trkpt><trkpt lat="43.1107683" lon="12.4483623"><ele>195.0</ele><time>2026-04-26T08:04:00.441Z</time></trkpt><trkpt lat="43.1108421" lon="12.4485019"><ele>195.0</ele><time>2026-04-26T08:04:02.324Z</time></trkpt><trkpt lat="43.1108811" lon="12.4485715"><ele>195.0</ele><time>2026-04-26T08:04:03.306Z</time></trkpt><trkpt lat="43.1109189" lon="12.4486438"><ele>195.0</ele><time>2026-04-26T08:04:04.285Z</time></trkpt><trkpt lat="43.1109513" lon="12.4487289"><ele>195.0</ele><time>2026-04-26T08:04:05.336Z</time></trkpt><trkpt lat="43.1110277" lon="12.4488716"><ele>195.0</ele><time>2026-04-26T08:04:07.29Z</time></trkpt><trkpt lat="43.1110653" lon="12.4489507"><ele>195.0</ele><time>2026-04-26T08:04:08.312Z</time></trkpt><trkpt lat="43.111104" lon="12.4490299"><ele>195.0</ele><time>2026-04-26T08:04:09.363Z</time></trkpt><trkpt lat="43.1111464" lon="12.4491082"><ele>195.0</ele><time>2026-04-26T08:04:10.411Z</time></trkpt><trkpt lat="43.1112121" lon="12.4492605"><ele>195.0</ele><time>2026-04-26T08:04:12.354Z</time></trkpt><trkpt lat="43.1112884" lon="12.4494084"><ele>195.0</ele><time>2026-04-26T08:04:14.347Z</time></trkpt><trkpt lat="43.1113641" lon="12.4495521"><ele>195.0</ele><time>2026-04-26T08:04:16.308Z</time></trkpt><trkpt lat="43.1114023" lon="12.4496264"><ele>195.0</ele><time>2026-04-26T08:04:17.311Z</time></trkpt><trkpt lat="43.1114431" lon="12.4497006"><ele>195.0</ele><time>2026-04-26T08:04:18.343Z</time></trkpt><trkpt lat="43.1114838" lon="12.4497672"><ele>195.0</ele><time>2026-04-26T08:04:19.349Z</time></trkpt><trkpt lat="43.1115262" lon="12.449836"><ele>195.0</ele><time>2026-04-26T08:04:20.353Z</time></trkpt><trkpt lat="43.1115574" lon="12.4499135"><ele>194.57142857142856</ele><time>2026-04-26T08:04:21.356Z</time></trkpt><trkpt lat="43.1115947" lon="12.4499879"><ele>194.14285714285714</ele><time>2026-04-26T08:04:22.368Z</time></trkpt><trkpt lat="43.1116356" lon="12.4500552"><ele>193.71428571428572</ele><time>2026-04-26T08:04:23.329Z</time></trkpt><trkpt lat="43.1116814" lon="12.4501193"><ele>193.28571428571428</ele><time>2026-04-26T08:04:24.336Z</time></trkpt><trkpt lat="43.1117283" lon="12.4501821"><ele>192.85714285714286</ele><time>2026-04-26T08:04:25.351Z</time></trkpt><trkpt lat="43.1117703" lon="12.4502473"><ele>192.42857142857142</ele><time>2026-04-26T08:04:26.34Z</time></trkpt><trkpt lat="43.1118245" lon="12.4503047"><ele>192.0</ele><time>2026-04-26T08:04:27.421Z</time></trkpt><trkpt lat="43.1119199" lon="12.4503988"><ele>192.0</ele><time>2026-04-26T08:04:29.323Z</time></trkpt><trkpt lat="43.1119813" lon="12.4504426"><ele>192.0</ele><time>2026-04-26T08:04:30.407Z</time></trkpt><trkpt lat="43.1120759" lon="12.4505307"><ele>192.0</ele><time>2026-04-26T08:04:32.352Z</time></trkpt><trkpt lat="43.1121805" lon="12.4506132"><ele>192.0</ele><time>2026-04-26T08:04:34.32Z</time></trkpt><trkpt lat="43.1122356" lon="12.4506552"><ele>192.0</ele><time>2026-04-26T08:04:35.325Z</time></trkpt><trkpt lat="43.1123364" lon="12.4507394"><ele>192.2</ele><time>2026-04-26T08:04:37.316Z</time></trkpt><trkpt lat="43.1123896" lon="12.4507872"><ele>192.39999999999998</ele><time>2026-04-26T08:04:38.323Z</time></trkpt><trkpt lat="43.1124921" lon="12.4508859"><ele>192.60000000000002</ele><time>2026-04-26T08:04:40.313Z</time></trkpt><trkpt lat="43.1126026" lon="12.4509766"><ele>192.8</ele><time>2026-04-26T08:04:42.415Z</time></trkpt><trkpt lat="43.1126915" lon="12.4510621"><ele>193.0</ele><time>2026-04-26T08:04:44.319Z</time></trkpt><trkpt lat="43.1127934" lon="12.4511422"><ele>193.0</ele><time>2026-04-26T08:04:46.335Z</time></trkpt><trkpt lat="43.1128491" lon="12.4512706"><ele>193.0</ele><time>2026-04-26T08:04:48.328Z</time></trkpt><trkpt lat="43.1128122" lon="12.4514196"><ele>193.0</ele><time>2026-04-26T08:04:50.321Z</time></trkpt><trkpt lat="43.1127146" lon="12.4515089"><ele>193.0</ele><time>2026-04-26T08:04:52.296Z</time></trkpt><trkpt lat="43.1126138" lon="12.4515988"><ele>192.8</ele><time>2026-04-26T08:04:54.295Z</time></trkpt><trkpt lat="43.112566" lon="12.4516554"><ele>192.60000000000002</ele><time>2026-04-26T08:04:55.338Z</time></trkpt><trkpt lat="43.1124792" lon="12.4517537"><ele>192.39999999999998</ele><time>2026-04-26T08:04:57.322Z</time></trkpt><trkpt lat="43.1123937" lon="12.4518443"><ele>192.2</ele><time>2026-04-26T08:04:59.321Z</time></trkpt><trkpt lat="43.1123081" lon="12.4519378"><ele>192.0</ele><time>2026-04-26T08:05:01.343Z</time></trkpt><trkpt lat="43.1122201" lon="12.4520283"><ele>192.2</ele><time>2026-04-26T08:05:03.315Z</time></trkpt><trkpt lat="43.1121382" lon="12.4521384"><ele>192.39999999999998</ele><time>2026-04-26T08:05:05.304Z</time></trkpt><trkpt lat="43.1120532" lon="12.4522429"><ele>192.60000000000002</ele><time>2026-04-26T08:05:07.353Z</time></trkpt><trkpt lat="43.1119681" lon="12.4523344"><ele>192.8</ele><time>2026-04-26T08:05:09.327Z</time></trkpt><trkpt lat="43.1119137" lon="12.4523807"><ele>193.0</ele><time>2026-04-26T08:05:10.446Z</time></trkpt><trkpt lat="43.1118348" lon="12.452467"><ele>193.0</ele><time>2026-04-26T08:05:12.321Z</time></trkpt><trkpt lat="43.1117471" lon="12.4525679"><ele>193.0</ele><time>2026-04-26T08:05:14.31Z</time></trkpt><trkpt lat="43.1116527" lon="12.4526528"><ele>193.0</ele><time>2026-04-26T08:05:16.308Z</time></trkpt><trkpt lat="43.11156" lon="12.4527538"><ele>193.0</ele><time>2026-04-26T08:05:18.315Z</time></trkpt><trkpt lat="43.1114557" lon="12.4528352"><ele>193.25</ele><time>2026-04-26T08:05:20.318Z</time></trkpt><trkpt lat="43.1113594" lon="12.4529266"><ele>193.5</ele><time>2026-04-26T08:05:22.317Z</time></trkpt><trkpt lat="43.1112635" lon="12.4530199"><ele>193.75</ele><time>2026-04-26T08:05:24.326Z</time></trkpt><trkpt lat="43.1111684" lon="12.4531093"><ele>194.0</ele><time>2026-04-26T08:05:26.344Z</time></trkpt><trkpt lat="43.1110625" lon="12.4531848"><ele>193.5</ele><time>2026-04-26T08:05:28.338Z</time></trkpt><trkpt lat="43.1109534" lon="12.4532463"><ele>193.0</ele><time>2026-04-26T08:05:30.319Z</time></trkpt><trkpt lat="43.1108301" lon="12.453286"><ele>192.5</ele><time>2026-04-26T08:05:32.322Z</time></trkpt><trkpt lat="43.1107097" lon="12.4533258"><ele>192.0</ele><time>2026-04-26T08:05:34.352Z</time></trkpt><trkpt lat="43.110593" lon="12.4533463"><ele>191.8</ele><time>2026-04-26T08:05:36.31Z</time></trkpt><trkpt lat="43.1104696" lon="12.4533718"><ele>191.6</ele><time>2026-04-26T08:05:38.345Z</time></trkpt><trkpt lat="43.1104025" lon="12.4533742"><ele>191.4</ele><time>2026-04-26T08:05:39.438Z</time></trkpt><trkpt lat="43.1102859" lon="12.4533801"><ele>191.20000000000002</ele><time>2026-04-26T08:05:41.361Z</time></trkpt><trkpt lat="43.1101683" lon="12.45339"><ele>191.0</ele><time>2026-04-26T08:05:43.32Z</time></trkpt><trkpt lat="43.1100494" lon="12.4534078"><ele>191.0</ele><time>2026-04-26T08:05:45.3Z</time></trkpt><trkpt lat="43.1099861" lon="12.453411"><ele>191.0</ele><time>2026-04-26T08:05:46.345Z</time></trkpt><trkpt lat="43.109868" lon="12.4534249"><ele>191.0</ele><time>2026-04-26T08:05:48.35Z</time></trkpt><trkpt lat="43.1097493" lon="12.4534223"><ele>191.0</ele><time>2026-04-26T08:05:50.348Z</time></trkpt><trkpt lat="43.1096328" lon="12.4534351"><ele>191.0</ele><time>2026-04-26T08:05:52.339Z</time></trkpt><trkpt lat="43.1095159" lon="12.453449"><ele>190.8</ele><time>2026-04-26T08:05:54.345Z</time></trkpt><trkpt lat="43.1094055" lon="12.4534558"><ele>190.60000000000002</ele><time>2026-04-26T08:05:56.346Z</time></trkpt><trkpt lat="43.1092962" lon="12.4534602"><ele>190.4</ele><time>2026-04-26T08:05:58.316Z</time></trkpt><trkpt lat="43.1091889" lon="12.4534624"><ele>190.2</ele><time>2026-04-26T08:06:00.365Z</time></trkpt><trkpt lat="43.1090903" lon="12.4534631"><ele>190.0</ele><time>2026-04-26T08:06:02.43Z</time></trkpt><trkpt lat="43.1090453" lon="12.4535278"><ele>189.6</ele><time>2026-04-26T08:06:04.343Z</time></trkpt><trkpt lat="43.1090147" lon="12.4536229"><ele>189.2</ele><time>2026-04-26T08:06:06.364Z</time></trkpt><trkpt lat="43.1089535" lon="12.4537789"><ele>188.8</ele><time>2026-04-26T08:06:09.359Z</time></trkpt><trkpt lat="43.1089254" lon="12.4538985"><ele>188.4</ele><time>2026-04-26T08:06:11.352Z</time></trkpt><trkpt lat="43.1089024" lon="12.4540314"><ele>188.0</ele><time>2026-04-26T08:06:13.373Z</time></trkpt><trkpt lat="43.1088714" lon="12.45423"><ele>188.0</ele><time>2026-04-26T08:06:16.359Z</time></trkpt><trkpt lat="43.1088519" lon="12.4543699"><ele>188.0</ele><time>2026-04-26T08:06:18.36Z</time></trkpt><trkpt lat="43.1088299" lon="12.4545012"><ele>188.0</ele><time>2026-04-26T08:06:20.35Z</time></trkpt><trkpt lat="43.1088071" lon="12.4546364"><ele>188.0</ele><time>2026-04-26T08:06:22.339Z</time></trkpt><trkpt lat="43.1087828" lon="12.4547728"><ele>188.0</ele><time>2026-04-26T08:06:24.331Z</time></trkpt><trkpt lat="43.1087581" lon="12.454917"><ele>188.5</ele><time>2026-04-26T08:06:26.354Z</time></trkpt><trkpt lat="43.1087257" lon="12.4550556"><ele>189.0</ele><time>2026-04-26T08:06:28.343Z</time></trkpt><trkpt lat="43.1086927" lon="12.4552694"><ele>189.5</ele><time>2026-04-26T08:06:31.361Z</time></trkpt><trkpt lat="43.1086733" lon="12.4554066"><ele>190.0</ele><time>2026-04-26T08:06:33.3Z</time></trkpt><trkpt lat="43.1086462" lon="12.4555587"><ele>190.2</ele><time>2026-04-26T08:06:35.477Z</time></trkpt><trkpt lat="43.1086265" lon="12.4556921"><ele>190.4</ele><time>2026-04-26T08:06:37.311Z</time></trkpt><trkpt lat="43.108603" lon="12.4558387"><ele>190.60000000000002</ele><time>2026-04-26T08:06:39.338Z</time></trkpt><trkpt lat="43.1085772" lon="12.4559893"><ele>190.8</ele><time>2026-04-26T08:06:41.39Z</time></trkpt><trkpt lat="43.1085575" lon="12.4561291"><ele>191.0</ele><time>2026-04-26T08:06:43.316Z</time></trkpt><trkpt lat="43.1085368" lon="12.4562798"><ele>190.75</ele><time>2026-04-26T08:06:45.347Z</time></trkpt><trkpt lat="43.1085183" lon="12.4564267"><ele>190.5</ele><time>2026-04-26T08:06:47.306Z</time></trkpt><trkpt lat="43.1084903" lon="12.4565836"><ele>190.25</ele><time>2026-04-26T08:06:49.351Z</time></trkpt><trkpt lat="43.1084532" lon="12.4568089"><ele>190.0</ele><time>2026-04-26T08:06:52.382Z</time></trkpt><trkpt lat="43.108431" lon="12.4569535"><ele>190.0</ele><time>2026-04-26T08:06:54.328Z</time></trkpt><trkpt lat="43.1084038" lon="12.4571069"><ele>190.0</ele><time>2026-04-26T08:06:56.335Z</time></trkpt><trkpt lat="43.1083775" lon="12.4572559"><ele>190.0</ele><time>2026-04-26T08:06:58.342Z</time></trkpt><trkpt lat="43.1083554" lon="12.4574094"><ele>190.0</ele><time>2026-04-26T08:07:00.337Z</time></trkpt><trkpt lat="43.1083239" lon="12.457564"><ele>190.0</ele><time>2026-04-26T08:07:02.317Z</time></trkpt><trkpt lat="43.1082931" lon="12.4577201"><ele>190.0</ele><time>2026-04-26T08:07:04.312Z</time></trkpt><trkpt lat="43.1082754" lon="12.4578815"><ele>190.0</ele><time>2026-04-26T08:07:06.309Z</time></trkpt><trkpt lat="43.1082517" lon="12.4580398"><ele>190.0</ele><time>2026-04-26T08:07:08.297Z</time></trkpt><trkpt lat="43.1082334" lon="12.4581998"><ele>190.0</ele><time>2026-04-26T08:07:10.34Z</time></trkpt><trkpt lat="43.1082313" lon="12.4583571"><ele>190.0</ele><time>2026-04-26T08:07:12.296Z</time></trkpt><trkpt lat="43.1082508" lon="12.4585157"><ele>190.0</ele><time>2026-04-26T08:07:14.327Z</time></trkpt><trkpt lat="43.1082745" lon="12.458671"><ele>190.0</ele><time>2026-04-26T08:07:16.29Z</time></trkpt><trkpt lat="43.1082961" lon="12.4588373"><ele>190.2</ele><time>2026-04-26T08:07:18.37Z</time></trkpt><trkpt lat="43.108303" lon="12.4589826"><ele>190.4</ele><time>2026-04-26T08:07:20.334Z</time></trkpt><trkpt lat="43.1083073" lon="12.459134"><ele>190.60000000000002</ele><time>2026-04-26T08:07:22.304Z</time></trkpt><trkpt lat="43.1082888" lon="12.4592778"><ele>190.8</ele><time>2026-04-26T08:07:24.323Z</time></trkpt><trkpt lat="43.108255" lon="12.4594332"><ele>191.0</ele><time>2026-04-26T08:07:26.324Z</time></trkpt><trkpt lat="43.1082274" lon="12.4595845"><ele>191.20000000000002</ele><time>2026-04-26T08:07:28.363Z</time></trkpt><trkpt lat="43.1081957" lon="12.4597318"><ele>191.4</ele><time>2026-04-26T08:07:30.346Z</time></trkpt><trkpt lat="43.1081617" lon="12.4598756"><ele>191.6</ele><time>2026-04-26T08:07:32.349Z</time></trkpt><trkpt lat="43.1081304" lon="12.4600145"><ele>191.8</ele><time>2026-04-26T08:07:34.316Z</time></trkpt><trkpt lat="43.1080997" lon="12.4601525"><ele>192.0</ele><time>2026-04-26T08:07:36.332Z</time></trkpt><trkpt lat="43.1080716" lon="12.4602922"><ele>192.0</ele><time>2026-04-26T08:07:38.334Z</time></trkpt><trkpt lat="43.1080394" lon="12.4604299"><ele>192.0</ele><time>2026-04-26T08:07:40.345Z</time></trkpt><trkpt lat="43.1080136" lon="12.4605717"><ele>192.0</ele><time>2026-04-26T08:07:42.356Z</time></trkpt><trkpt lat="43.1079811" lon="12.4607041"><ele>192.0</ele><time>2026-04-26T08:07:44.33Z</time></trkpt><trkpt lat="43.1079461" lon="12.4608406"><ele>192.0</ele><time>2026-04-26T08:07:46.334Z</time></trkpt><trkpt lat="43.107919" lon="12.4609829"><ele>192.0</ele><time>2026-04-26T08:07:48.328Z</time></trkpt><trkpt lat="43.107885" lon="12.4611233"><ele>192.0</ele><time>2026-04-26T08:07:50.316Z</time></trkpt><trkpt lat="43.1078516" lon="12.4612721"><ele>192.0</ele><time>2026-04-26T08:07:52.446Z</time></trkpt><trkpt lat="43.1078205" lon="12.461404"><ele>192.0</ele><time>2026-04-26T08:07:54.331Z</time></trkpt><trkpt lat="43.1077839" lon="12.461553"><ele>192.0</ele><time>2026-04-26T08:07:56.427Z</time></trkpt><trkpt lat="43.1077499" lon="12.4616907"><ele>192.0</ele><time>2026-04-26T08:07:58.35Z</time></trkpt><trkpt lat="43.1077108" lon="12.4618295"><ele>192.0</ele><time>2026-04-26T08:08:00.345Z</time></trkpt><trkpt lat="43.107661" lon="12.4619627"><ele>192.0</ele><time>2026-04-26T08:08:02.326Z</time></trkpt><trkpt lat="43.107603" lon="12.4621041"><ele>192.0</ele><time>2026-04-26T08:08:04.458Z</time></trkpt><trkpt lat="43.107555" lon="12.4622275"><ele>192.0</ele><time>2026-04-26T08:08:06.31Z</time></trkpt><trkpt lat="43.1074927" lon="12.4623564"><ele>192.2</ele><time>2026-04-26T08:08:08.326Z</time></trkpt><trkpt lat="43.107437" lon="12.4624932"><ele>192.39999999999998</ele><time>2026-04-26T08:08:10.319Z</time></trkpt><trkpt lat="43.1073837" lon="12.4626373"><ele>192.60000000000002</ele><time>2026-04-26T08:08:12.344Z</time></trkpt><trkpt lat="43.107349" lon="12.46271"><ele>192.8</ele><time>2026-04-26T08:08:13.358Z</time></trkpt><trkpt lat="43.1072833" lon="12.4628555"><ele>193.0</ele><time>2026-04-26T08:08:15.331Z</time></trkpt><trkpt lat="43.1072171" lon="12.4630096"><ele>192.42857142857144</ele><time>2026-04-26T08:08:17.327Z</time></trkpt><trkpt lat="43.1071816" lon="12.4630848"><ele>191.85714285714286</ele><time>2026-04-26T08:08:18.303Z</time></trkpt><trkpt lat="43.1071436" lon="12.4631663"><ele>191.28571428571428</ele><time>2026-04-26T08:08:19.344Z</time></trkpt><trkpt lat="43.1071053" lon="12.4632437"><ele>190.71428571428572</ele><time>2026-04-26T08:08:20.37Z</time></trkpt><trkpt lat="43.1070704" lon="12.4633233"><ele>190.14285714285714</ele><time>2026-04-26T08:08:21.367Z</time></trkpt><trkpt lat="43.1070393" lon="12.4634026"><ele>189.57142857142858</ele><time>2026-04-26T08:08:22.341Z</time></trkpt><trkpt lat="43.1070054" lon="12.4634843"><ele>189.0</ele><time>2026-04-26T08:08:23.357Z</time></trkpt><trkpt lat="43.1069715" lon="12.4635623"><ele>189.0</ele><time>2026-04-26T08:08:24.322Z</time></trkpt><trkpt lat="43.1069344" lon="12.4636425"><ele>189.0</ele><time>2026-04-26T08:08:25.339Z</time></trkpt><trkpt lat="43.1068658" lon="12.4638141"><ele>189.0</ele><time>2026-04-26T08:08:27.437Z</time></trkpt><trkpt lat="43.1068099" lon="12.4639759"><ele>189.0</ele><time>2026-04-26T08:08:29.356Z</time></trkpt><trkpt lat="43.1067771" lon="12.4640589"><ele>189.0</ele><time>2026-04-26T08:08:30.296Z</time></trkpt><trkpt lat="43.1067542" lon="12.4641437"><ele>189.0</ele><time>2026-04-26T08:08:31.329Z</time></trkpt><trkpt lat="43.1067219" lon="12.4643122"><ele>189.0</ele><time>2026-04-26T08:08:33.417Z</time></trkpt><trkpt lat="43.1067157" lon="12.464462"><ele>189.0</ele><time>2026-04-26T08:08:35.303Z</time></trkpt><trkpt lat="43.1067306" lon="12.4646204"><ele>189.0</ele><time>2026-04-26T08:08:37.37Z</time></trkpt><trkpt lat="43.1067375" lon="12.4647733"><ele>188.5</ele><time>2026-04-26T08:08:39.359Z</time></trkpt><trkpt lat="43.1067435" lon="12.4649317"><ele>188.0</ele><time>2026-04-26T08:08:41.338Z</time></trkpt><trkpt lat="43.1067547" lon="12.4650907"><ele>187.5</ele><time>2026-04-26T08:08:43.349Z</time></trkpt><trkpt lat="43.1067708" lon="12.4652485"><ele>187.0</ele><time>2026-04-26T08:08:45.337Z</time></trkpt><trkpt lat="43.1067846" lon="12.4654048"><ele>186.75</ele><time>2026-04-26T08:08:47.367Z</time></trkpt><trkpt lat="43.1067977" lon="12.4655602"><ele>186.5</ele><time>2026-04-26T08:08:49.343Z</time></trkpt><trkpt lat="43.1068141" lon="12.4657211"><ele>186.25</ele><time>2026-04-26T08:08:51.324Z</time></trkpt><trkpt lat="43.1068389" lon="12.4658809"><ele>186.0</ele><time>2026-04-26T08:08:53.317Z</time></trkpt><trkpt lat="43.1068696" lon="12.4660437"><ele>186.0</ele><time>2026-04-26T08:08:55.305Z</time></trkpt><trkpt lat="43.1069008" lon="12.4662071"><ele>186.0</ele><time>2026-04-26T08:08:57.322Z</time></trkpt><trkpt lat="43.106932" lon="12.4663713"><ele>186.0</ele><time>2026-04-26T08:08:59.345Z</time></trkpt><trkpt lat="43.1069633" lon="12.4665401"><ele>186.0</ele><time>2026-04-26T08:09:01.435Z</time></trkpt><trkpt lat="43.1069919" lon="12.4666888"><ele>186.5</ele><time>2026-04-26T08:09:03.32Z</time></trkpt><trkpt lat="43.1070213" lon="12.4668434"><ele>187.0</ele><time>2026-04-26T08:09:05.316Z</time></trkpt><trkpt lat="43.1070405" lon="12.4669958"><ele>187.5</ele><time>2026-04-26T08:09:07.286Z</time></trkpt><trkpt lat="43.1070692" lon="12.4671539"><ele>188.0</ele><time>2026-04-26T08:09:09.336Z</time></trkpt><trkpt lat="43.1071043" lon="12.4673029"><ele>188.0</ele><time>2026-04-26T08:09:11.284Z</time></trkpt><trkpt lat="43.1071216" lon="12.4673872"><ele>188.0</ele><time>2026-04-26T08:09:12.367Z</time></trkpt><trkpt lat="43.1071574" lon="12.4675433"><ele>188.0</ele><time>2026-04-26T08:09:14.423Z</time></trkpt><trkpt lat="43.1071895" lon="12.4676927"><ele>188.0</ele><time>2026-04-26T08:09:16.419Z</time></trkpt><trkpt lat="43.1072217" lon="12.4678359"><ele>188.0</ele><time>2026-04-26T08:09:18.305Z</time></trkpt><trkpt lat="43.1072618" lon="12.4679913"><ele>188.0</ele><time>2026-04-26T08:09:20.346Z</time></trkpt><trkpt lat="43.1073049" lon="12.4681424"><ele>188.0</ele><time>2026-04-26T08:09:22.316Z</time></trkpt><trkpt lat="43.1073449" lon="12.4683117"><ele>188.0</ele><time>2026-04-26T08:09:24.56Z</time></trkpt><trkpt lat="43.1073776" lon="12.46845"><ele>188.0</ele><time>2026-04-26T08:09:26.351Z</time></trkpt><trkpt lat="43.1074061" lon="12.4686013"><ele>188.0</ele><time>2026-04-26T08:09:28.291Z</time></trkpt><trkpt lat="43.1074406" lon="12.4687626"><ele>188.0</ele><time>2026-04-26T08:09:30.332Z</time></trkpt><trkpt lat="43.1074715" lon="12.4689161"><ele>188.0</ele><time>2026-04-26T08:09:32.283Z</time></trkpt><trkpt lat="43.1074901" lon="12.4689997"><ele>188.0</ele><time>2026-04-26T08:09:33.352Z</time></trkpt><trkpt lat="43.1075192" lon="12.4691674"><ele>188.0</ele><time>2026-04-26T08:09:35.435Z</time></trkpt><trkpt lat="43.1075431" lon="12.4693229"><ele>188.0</ele><time>2026-04-26T08:09:37.37Z</time></trkpt><trkpt lat="43.1075642" lon="12.4694822"><ele>188.0</ele><time>2026-04-26T08:09:39.355Z</time></trkpt><trkpt lat="43.1075915" lon="12.4696579"><ele>188.0</ele><time>2026-04-26T08:09:41.584Z</time></trkpt><trkpt lat="43.1076108" lon="12.4698003"><ele>188.0</ele><time>2026-04-26T08:09:43.36Z</time></trkpt><trkpt lat="43.1076307" lon="12.469958"><ele>188.0</ele><time>2026-04-26T08:09:45.355Z</time></trkpt><trkpt lat="43.1076385" lon="12.4700529"><ele>188.0</ele><time>2026-04-26T08:09:46.571Z</time></trkpt><trkpt lat="43.1076524" lon="12.4701845"><ele>188.0</ele><time>2026-04-26T08:09:48.355Z</time></trkpt><trkpt lat="43.1076665" lon="12.4703231"><ele>188.0</ele><time>2026-04-26T08:09:50.342Z</time></trkpt><trkpt lat="43.1076685" lon="12.4704556"><ele>188.0</ele><time>2026-04-26T08:09:52.362Z</time></trkpt><trkpt lat="43.1076657" lon="12.4705746"><ele>188.16666666666666</ele><time>2026-04-26T08:09:54.348Z</time></trkpt><trkpt lat="43.107671" lon="12.4707356"><ele>188.33333333333331</ele><time>2026-04-26T08:09:57.315Z</time></trkpt><trkpt lat="43.1076738" lon="12.4708436"><ele>188.5</ele><time>2026-04-26T08:09:59.372Z</time></trkpt><trkpt lat="43.1076832" lon="12.4709297"><ele>188.66666666666666</ele><time>2026-04-26T08:10:01.313Z</time></trkpt><trkpt lat="43.1076871" lon="12.4710459"><ele>188.83333333333334</ele><time>2026-04-26T08:10:04.362Z</time></trkpt><trkpt lat="43.1077" lon="12.4711628"><ele>189.0</ele><time>2026-04-26T08:10:07.551Z</time></trkpt><trkpt lat="43.1077075" lon="12.4712758"><ele>190.0</ele><time>2026-04-26T08:10:10.376Z</time></trkpt><trkpt lat="43.1077141" lon="12.4713945"><ele>191.0</ele><time>2026-04-26T08:10:13.466Z</time></trkpt><trkpt lat="43.1077277" lon="12.4715026"><ele>192.0</ele><time>2026-04-26T08:10:16.367Z</time></trkpt><trkpt lat="43.1077417" lon="12.471617"><ele>193.0</ele><time>2026-04-26T08:10:19.357Z</time></trkpt><trkpt lat="43.1077549" lon="12.4717749"><ele>194.0</ele><time>2026-04-26T08:10:23.359Z</time></trkpt><trkpt lat="43.1077761" lon="12.471898"><ele>194.0</ele><time>2026-04-26T08:10:26.498Z</time></trkpt><trkpt lat="43.1077911" lon="12.4720181"><ele>194.0</ele><time>2026-04-26T08:10:29.346Z</time></trkpt><trkpt lat="43.1078108" lon="12.4721386"><ele>194.0</ele><time>2026-04-26T08:10:32.347Z</time></trkpt><trkpt lat="43.1078241" lon="12.4722232"><ele>194.0</ele><time>2026-04-26T08:10:34.352Z</time></trkpt><trkpt lat="43.1078407" lon="12.4723128"><ele>194.0</ele><time>2026-04-26T08:10:36.45Z</time></trkpt><trkpt lat="43.1078595" lon="12.4723965"><ele>194.0</ele><time>2026-04-26T08:10:38.353Z</time></trkpt><trkpt lat="43.1078735" lon="12.4724812"><ele>194.0</ele><time>2026-04-26T08:10:40.343Z</time></trkpt><trkpt lat="43.1079016" lon="12.4725961"><ele>194.16666666666669</ele><time>2026-04-26T08:10:43.344Z</time></trkpt><trkpt lat="43.1079336" lon="12.4727119"><ele>194.33333333333334</ele><time>2026-04-26T08:10:46.373Z</time></trkpt><trkpt lat="43.1079674" lon="12.47286"><ele>194.5</ele><time>2026-04-26T08:10:50.323Z</time></trkpt><trkpt lat="43.1079827" lon="12.4729689"><ele>194.66666666666669</ele><time>2026-04-26T08:10:53.347Z</time></trkpt><trkpt lat="43.1080074" lon="12.4730849"><ele>194.83333333333334</ele><time>2026-04-26T08:10:56.348Z</time></trkpt><trkpt lat="43.1080262" lon="12.473171"><ele>195.0</ele><time>2026-04-26T08:10:58.344Z</time></trkpt><trkpt lat="43.1080473" lon="12.4732584"><ele>194.83333333333334</ele><time>2026-04-26T08:11:00.354Z</time></trkpt><trkpt lat="43.1080661" lon="12.4733473"><ele>194.66666666666669</ele><time>2026-04-26T08:11:02.424Z</time></trkpt><trkpt lat="43.1080903" lon="12.473471"><ele>194.5</ele><time>2026-04-26T08:11:05.356Z</time></trkpt><trkpt lat="43.1081139" lon="12.4735871"><ele>194.33333333333334</ele><time>2026-04-26T08:11:08.32Z</time></trkpt><trkpt lat="43.1081349" lon="12.4737098"><ele>194.16666666666669</ele><time>2026-04-26T08:11:11.361Z</time></trkpt><trkpt lat="43.1081577" lon="12.473832"><ele>194.0</ele><time>2026-04-26T08:11:14.354Z</time></trkpt><trkpt lat="43.1081738" lon="12.4739167"><ele>194.00000000000003</ele><time>2026-04-26T08:11:16.361Z</time></trkpt><trkpt lat="43.1081796" lon="12.4740066"><ele>194.0</ele><time>2026-04-26T08:11:18.357Z</time></trkpt><trkpt lat="43.1081863" lon="12.4740979"><ele>194.0</ele><time>2026-04-26T08:11:20.316Z</time></trkpt><trkpt lat="43.1081722" lon="12.4741994"><ele>194.0</ele><time>2026-04-26T08:11:22.42Z</time></trkpt><trkpt lat="43.1081514" lon="12.4742931"><ele>194.00000000000003</ele><time>2026-04-26T08:11:24.346Z</time></trkpt><trkpt lat="43.1081119" lon="12.4743966"><ele>194.0</ele><time>2026-04-26T08:11:26.403Z</time></trkpt><trkpt lat="43.1080579" lon="12.4745098"><ele>194.0</ele><time>2026-04-26T08:11:28.459Z</time></trkpt><trkpt lat="43.107973" lon="12.4745911"><ele>194.0</ele><time>2026-04-26T08:11:30.321Z</time></trkpt><trkpt lat="43.1078591" lon="12.4746606"><ele>194.0</ele><time>2026-04-26T08:11:32.372Z</time></trkpt><trkpt lat="43.1076894" lon="12.4747354"><ele>194.0</ele><time>2026-04-26T08:11:34.999Z</time></trkpt><trkpt lat="43.1076272" lon="12.4747637"><ele>194.00000000000003</ele><time>2026-04-26T08:11:35.999Z</time></trkpt><trkpt lat="43.1075525" lon="12.4747846"><ele>194.0</ele><time>2026-04-26T08:11:36.999Z</time></trkpt><trkpt lat="43.107485" lon="12.4748122"><ele>194.0</ele><time>2026-04-26T08:11:37.999Z</time></trkpt><trkpt lat="43.1074075" lon="12.4748406"><ele>194.0</ele><time>2026-04-26T08:11:39.359Z</time></trkpt><trkpt lat="43.1073297" lon="12.4748679"><ele>194.00000000000003</ele><time>2026-04-26T08:11:40.344Z</time></trkpt><trkpt lat="43.107252" lon="12.474897"><ele>194.0</ele><time>2026-04-26T08:11:41.32Z</time></trkpt><trkpt lat="43.1071753" lon="12.4749221"><ele>194.00000000000003</ele><time>2026-04-26T08:11:42.32Z</time></trkpt><trkpt lat="43.1070993" lon="12.4749504"><ele>194.0</ele><time>2026-04-26T08:11:43.346Z</time></trkpt><trkpt lat="43.1070259" lon="12.4749781"><ele>194.0</ele><time>2026-04-26T08:11:44.336Z</time></trkpt><trkpt lat="43.1069515" lon="12.4750042"><ele>194.0</ele><time>2026-04-26T08:11:45.34Z</time></trkpt><trkpt lat="43.1068762" lon="12.4750366"><ele>194.00000000000003</ele><time>2026-04-26T08:11:46.344Z</time></trkpt><trkpt lat="43.106804" lon="12.4750762"><ele>194.0</ele><time>2026-04-26T08:11:47.333Z</time></trkpt><trkpt lat="43.1067356" lon="12.4751214"><ele>194.00000000000003</ele><time>2026-04-26T08:11:48.306Z</time></trkpt><trkpt lat="43.1066739" lon="12.4751723"><ele>194.0</ele><time>2026-04-26T08:11:49.297Z</time></trkpt><trkpt lat="43.1066122" lon="12.4752308"><ele>194.0</ele><time>2026-04-26T08:11:50.336Z</time></trkpt><trkpt lat="43.1065507" lon="12.4752915"><ele>194.0</ele><time>2026-04-26T08:11:51.355Z</time></trkpt><trkpt lat="43.1064916" lon="12.475355"><ele>194.00000000000003</ele><time>2026-04-26T08:11:52.401Z</time></trkpt><trkpt lat="43.1063887" lon="12.4754691"><ele>194.0</ele><time>2026-04-26T08:11:54.401Z</time></trkpt><trkpt lat="43.1062907" lon="12.4755704"><ele>193.25</ele><time>2026-04-26T08:11:56.363Z</time></trkpt><trkpt lat="43.1062033" lon="12.4756748"><ele>192.5</ele><time>2026-04-26T08:11:58.358Z</time></trkpt><trkpt lat="43.1060745" lon="12.4758067"><ele>191.75</ele><time>2026-04-26T08:12:01.338Z</time></trkpt><trkpt lat="43.1059866" lon="12.4759087"><ele>191.0</ele><time>2026-04-26T08:12:03.451Z</time></trkpt><trkpt lat="43.1059045" lon="12.4759922"><ele>191.0</ele><time>2026-04-26T08:12:05.341Z</time></trkpt><trkpt lat="43.1058163" lon="12.4760806"><ele>191.0</ele><time>2026-04-26T08:12:07.317Z</time></trkpt><trkpt lat="43.1057255" lon="12.4761695"><ele>191.0</ele><time>2026-04-26T08:12:09.323Z</time></trkpt><trkpt lat="43.1056265" lon="12.4762639"><ele>191.0</ele><time>2026-04-26T08:12:11.449Z</time></trkpt><trkpt lat="43.1055394" lon="12.4763458"><ele>191.0</ele><time>2026-04-26T08:12:13.318Z</time></trkpt><trkpt lat="43.1054423" lon="12.4764405"><ele>191.5</ele><time>2026-04-26T08:12:15.345Z</time></trkpt><trkpt lat="43.1053465" lon="12.4765316"><ele>192.0</ele><time>2026-04-26T08:12:17.322Z</time></trkpt><trkpt lat="43.1052547" lon="12.4766348"><ele>192.5</ele><time>2026-04-26T08:12:19.352Z</time></trkpt><trkpt lat="43.1051658" lon="12.4767405"><ele>193.0</ele><time>2026-04-26T08:12:21.386Z</time></trkpt><trkpt lat="43.1050963" lon="12.4768518"><ele>193.0</ele><time>2026-04-26T08:12:23.324Z</time></trkpt><trkpt lat="43.1050319" lon="12.4769701"><ele>193.0</ele><time>2026-04-26T08:12:25.356Z</time></trkpt><trkpt lat="43.1049741" lon="12.4770823"><ele>193.0</ele><time>2026-04-26T08:12:27.323Z</time></trkpt><trkpt lat="43.104927" lon="12.4772022"><ele>193.0</ele><time>2026-04-26T08:12:29.32Z</time></trkpt><trkpt lat="43.1048807" lon="12.4773811"><ele>193.0</ele><time>2026-04-26T08:12:32.365Z</time></trkpt><trkpt lat="43.1048535" lon="12.4774965"><ele>193.49999999999997</ele><time>2026-04-26T08:12:34.365Z</time></trkpt><trkpt lat="43.1048213" lon="12.4776067"><ele>194.0</ele><time>2026-04-26T08:12:36.329Z</time></trkpt><trkpt lat="43.1047954" lon="12.4777223"><ele>194.5</ele><time>2026-04-26T08:12:38.323Z</time></trkpt><trkpt lat="43.1047656" lon="12.4778385"><ele>195.0</ele><time>2026-04-26T08:12:40.358Z</time></trkpt><trkpt lat="43.1047375" lon="12.4779523"><ele>195.49999999999997</ele><time>2026-04-26T08:12:42.381Z</time></trkpt><trkpt lat="43.1047135" lon="12.4780641"><ele>196.0</ele><time>2026-04-26T08:12:44.329Z</time></trkpt><trkpt lat="43.1046837" lon="12.4781778"><ele>196.16666666666666</ele><time>2026-04-26T08:12:46.345Z</time></trkpt><trkpt lat="43.1046527" lon="12.4782912"><ele>196.33333333333331</ele><time>2026-04-26T08:12:48.363Z</time></trkpt><trkpt lat="43.1046293" lon="12.4784046"><ele>196.5</ele><time>2026-04-26T08:12:50.325Z</time></trkpt><trkpt lat="43.1046002" lon="12.4785315"><ele>196.66666666666669</ele><time>2026-04-26T08:12:52.547Z</time></trkpt><trkpt lat="43.1045742" lon="12.4786383"><ele>196.83333333333334</ele><time>2026-04-26T08:12:54.386Z</time></trkpt><trkpt lat="43.1045471" lon="12.4787556"><ele>197.0</ele><time>2026-04-26T08:12:56.314Z</time></trkpt><trkpt lat="43.1045248" lon="12.4788802"><ele>197.39999999999998</ele><time>2026-04-26T08:12:58.363Z</time></trkpt><trkpt lat="43.1044911" lon="12.4790033"><ele>197.79999999999998</ele><time>2026-04-26T08:13:00.339Z</time></trkpt><trkpt lat="43.1044615" lon="12.4791301"><ele>198.2</ele><time>2026-04-26T08:13:02.318Z</time></trkpt><trkpt lat="43.1044325" lon="12.4792645"><ele>198.6</ele><time>2026-04-26T08:13:04.347Z</time></trkpt><trkpt lat="43.104399" lon="12.4794129"><ele>199.0</ele><time>2026-04-26T08:13:06.574Z</time></trkpt><trkpt lat="43.1043829" lon="12.4795295"><ele>199.0</ele><time>2026-04-26T08:13:08.323Z</time></trkpt><trkpt lat="43.1043599" lon="12.4796694"><ele>199.0</ele><time>2026-04-26T08:13:10.361Z</time></trkpt><trkpt lat="43.1043534" lon="12.4798127"><ele>199.0</ele><time>2026-04-26T08:13:12.386Z</time></trkpt><trkpt lat="43.1043478" lon="12.4799515"><ele>199.0</ele><time>2026-04-26T08:13:14.342Z</time></trkpt><trkpt lat="43.1043459" lon="12.4800962"><ele>199.0</ele><time>2026-04-26T08:13:16.324Z</time></trkpt><trkpt lat="43.1043434" lon="12.4802429"><ele>199.0</ele><time>2026-04-26T08:13:18.359Z</time></trkpt><trkpt lat="43.1043409" lon="12.4803883"><ele>199.0</ele><time>2026-04-26T08:13:20.354Z</time></trkpt><trkpt lat="43.1043432" lon="12.4805322"><ele>199.0</ele><time>2026-04-26T08:13:22.346Z</time></trkpt><trkpt lat="43.1043456" lon="12.4806786"><ele>199.0</ele><time>2026-04-26T08:13:24.379Z</time></trkpt><trkpt lat="43.1043467" lon="12.4808165"><ele>199.0</ele><time>2026-04-26T08:13:26.369Z</time></trkpt><trkpt lat="43.1043479" lon="12.4809546"><ele>198.79999999999998</ele><time>2026-04-26T08:13:28.35Z</time></trkpt><trkpt lat="43.1043458" lon="12.4810945"><ele>198.6</ele><time>2026-04-26T08:13:30.372Z</time></trkpt><trkpt lat="43.1043413" lon="12.4812284"><ele>198.4</ele><time>2026-04-26T08:13:32.331Z</time></trkpt><trkpt lat="43.1043405" lon="12.4813681"><ele>198.2</ele><time>2026-04-26T08:13:34.321Z</time></trkpt><trkpt lat="43.1043409" lon="12.4815114"><ele>198.0</ele><time>2026-04-26T08:13:36.342Z</time></trkpt><trkpt lat="43.1043391" lon="12.4816543"><ele>197.8</ele><time>2026-04-26T08:13:38.347Z</time></trkpt><trkpt lat="43.104338" lon="12.4818002"><ele>197.60000000000002</ele><time>2026-04-26T08:13:40.337Z</time></trkpt><trkpt lat="43.1043345" lon="12.4819515"><ele>197.39999999999998</ele><time>2026-04-26T08:13:42.355Z</time></trkpt><trkpt lat="43.104334" lon="12.4820947"><ele>197.2</ele><time>2026-04-26T08:13:44.311Z</time></trkpt><trkpt lat="43.1043237" lon="12.4822485"><ele>197.0</ele><time>2026-04-26T08:13:46.378Z</time></trkpt><trkpt lat="43.1043065" lon="12.4823968"><ele>197.0</ele><time>2026-04-26T08:13:48.373Z</time></trkpt><trkpt lat="43.1042842" lon="12.4825532"><ele>197.0</ele><time>2026-04-26T08:13:50.404Z</time></trkpt><trkpt lat="43.1042532" lon="12.4827053"><ele>197.0</ele><time>2026-04-26T08:13:52.349Z</time></trkpt><trkpt lat="43.1042318" lon="12.4827884"><ele>197.0</ele><time>2026-04-26T08:13:53.356Z</time></trkpt><trkpt lat="43.1041983" lon="12.4829551"><ele>197.0</ele><time>2026-04-26T08:13:55.331Z</time></trkpt><trkpt lat="43.1041785" lon="12.4830545"><ele>197.16666666666669</ele><time>2026-04-26T08:13:56.459Z</time></trkpt><trkpt lat="43.1041425" lon="12.4832212"><ele>197.33333333333334</ele><time>2026-04-26T08:13:58.327Z</time></trkpt><trkpt lat="43.1041251" lon="12.4833121"><ele>197.5</ele><time>2026-04-26T08:13:59.33Z</time></trkpt><trkpt lat="43.1041043" lon="12.4834061"><ele>197.66666666666669</ele><time>2026-04-26T08:14:00.356Z</time></trkpt><trkpt lat="43.1040837" lon="12.483498"><ele>197.83333333333334</ele><time>2026-04-26T08:14:01.353Z</time></trkpt><trkpt lat="43.1040639" lon="12.4835947"><ele>198.0</ele><time>2026-04-26T08:14:02.376Z</time></trkpt><trkpt lat="43.1040489" lon="12.4836819"><ele>199.33333333333334</ele><time>2026-04-26T08:14:03.368Z</time></trkpt><trkpt lat="43.104016" lon="12.4838458"><ele>200.66666666666669</ele><time>2026-04-26T08:14:05.323Z</time></trkpt><trkpt lat="43.1040066" lon="12.4839393"><ele>202.0</ele><time>2026-04-26T08:14:06.46Z</time></trkpt><trkpt lat="43.103985" lon="12.4840715"><ele>203.33333333333334</ele><time>2026-04-26T08:14:08.325Z</time></trkpt><trkpt lat="43.1039728" lon="12.4841922"><ele>204.66666666666669</ele><time>2026-04-26T08:14:10.317Z</time></trkpt><trkpt lat="43.1039612" lon="12.4842846"><ele>206.0</ele><time>2026-04-26T08:14:12.311Z</time></trkpt><trkpt lat="43.1039588" lon="12.4844082"><ele>206.00000000000003</ele><time>2026-04-26T08:14:16.251Z</time></trkpt><trkpt lat="43.1039377" lon="12.4844961"><ele>206.0</ele><time>2026-04-26T08:14:18.206Z</time></trkpt><trkpt lat="43.1038728" lon="12.4845741"><ele>206.0</ele><time>2026-04-26T08:14:22.247Z</time></trkpt><trkpt lat="43.1039337" lon="12.4846544"><ele>206.0</ele><time>2026-04-26T08:14:26.227Z</time></trkpt><trkpt lat="43.103966" lon="12.4847718"><ele>206.00000000000003</ele><time>2026-04-26T08:14:29.275Z</time></trkpt><trkpt lat="43.1039541" lon="12.4848775"><ele>206.0</ele><time>2026-04-26T08:14:33.282Z</time></trkpt><trkpt lat="43.1039583" lon="12.4849706"><ele>206.85714285714283</ele><time>2026-04-26T08:14:37.293Z</time></trkpt><trkpt lat="43.1039644" lon="12.4850695"><ele>207.71428571428572</ele><time>2026-04-26T08:14:41.314Z</time></trkpt><trkpt lat="43.1039676" lon="12.4851701"><ele>208.57142857142856</ele><time>2026-04-26T08:14:45.327Z</time></trkpt><trkpt lat="43.1039805" lon="12.4852645"><ele>209.42857142857142</ele><time>2026-04-26T08:14:49.327Z</time></trkpt><trkpt lat="43.1039942" lon="12.4853593"><ele>210.28571428571428</ele><time>2026-04-26T08:14:53.305Z</time></trkpt><trkpt lat="43.1040079" lon="12.4854546"><ele>211.14285714285714</ele><time>2026-04-26T08:14:57.326Z</time></trkpt><trkpt lat="43.1040159" lon="12.4855515"><ele>212.0</ele><time>2026-04-26T08:15:01.306Z</time></trkpt><trkpt lat="43.104034" lon="12.4856453"><ele>211.85714285714286</ele><time>2026-04-26T08:15:05.342Z</time></trkpt><trkpt lat="43.1040527" lon="12.4857382"><ele>211.7142857142857</ele><time>2026-04-26T08:15:09.298Z</time></trkpt><trkpt lat="43.1040695" lon="12.4858398"><ele>211.57142857142856</ele><time>2026-04-26T08:15:13.319Z</time></trkpt><trkpt lat="43.1040863" lon="12.4859449"><ele>211.42857142857144</ele><time>2026-04-26T08:15:17.375Z</time></trkpt><trkpt lat="43.104109" lon="12.4860306"><ele>211.28571428571428</ele><time>2026-04-26T08:15:21.311Z</time></trkpt><trkpt lat="43.1041278" lon="12.4861307"><ele>211.14285714285714</ele><time>2026-04-26T08:15:25.429Z</time></trkpt><trkpt lat="43.1041504" lon="12.4862291"><ele>211.0</ele><time>2026-04-26T08:15:29.331Z</time></trkpt><trkpt lat="43.1041719" lon="12.4863219"><ele>212.0</ele><time>2026-04-26T08:15:33.323Z</time></trkpt><trkpt lat="43.1041949" lon="12.4864113"><ele>213.0</ele><time>2026-04-26T08:15:37.36Z</time></trkpt><trkpt lat="43.1042156" lon="12.4865033"><ele>214.0</ele><time>2026-04-26T08:15:41.358Z</time></trkpt><trkpt lat="43.1042342" lon="12.4865964"><ele>215.0</ele><time>2026-04-26T08:15:45.327Z</time></trkpt><trkpt lat="43.1042544" lon="12.4866944"><ele>216.0</ele><time>2026-04-26T08:15:49.331Z</time></trkpt><trkpt lat="43.1042814" lon="12.4867817"><ele>217.0</ele><time>2026-04-26T08:15:53.335Z</time></trkpt><trkpt lat="43.1043067" lon="12.4868769"><ele>218.0</ele><time>2026-04-26T08:15:59.29Z</time></trkpt><trkpt lat="43.1043313" lon="12.486957"><ele>218.0</ele><time>2026-04-26T08:16:04.312Z</time></trkpt><trkpt lat="43.1043467" lon="12.4870448"><ele>218.0</ele><time>2026-04-26T08:16:09.371Z</time></trkpt><trkpt lat="43.1043641" lon="12.4871322"><ele>218.0</ele><time>2026-04-26T08:16:14.348Z</time></trkpt><trkpt lat="43.1043882" lon="12.4872298"><ele>218.0</ele><time>2026-04-26T08:16:20.361Z</time></trkpt><trkpt lat="43.1044083" lon="12.4873144"><ele>218.0</ele><time>2026-04-26T08:16:25.332Z</time></trkpt><trkpt lat="43.1044306" lon="12.4873974"><ele>218.0</ele><time>2026-04-26T08:16:30.373Z</time></trkpt><trkpt lat="43.1044452" lon="12.4874824"><ele>218.0</ele><time>2026-04-26T08:16:35.299Z</time></trkpt><trkpt lat="43.1044534" lon="12.4875814"><ele>218.71428571428572</ele><time>2026-04-26T08:16:41.375Z</time></trkpt><trkpt lat="43.1044261" lon="12.4876915"><ele>219.42857142857144</ele><time>2026-04-26T08:16:48.356Z</time></trkpt><trkpt lat="43.1043746" lon="12.4877607"><ele>220.14285714285714</ele><time>2026-04-26T08:16:54.337Z</time></trkpt><trkpt lat="43.1043114" lon="12.4877852"><ele>220.85714285714286</ele><time>2026-04-26T08:16:59.367Z</time></trkpt><trkpt lat="43.1042488" lon="12.4878002"><ele>221.57142857142856</ele><time>2026-04-26T08:17:04.376Z</time></trkpt><trkpt lat="43.1041761" lon="12.4877993"><ele>222.28571428571428</ele><time>2026-04-26T08:17:10.349Z</time></trkpt><trkpt lat="43.1041019" lon="12.4878141"><ele>223.0</ele><time>2026-04-26T08:17:16.326Z</time></trkpt><trkpt lat="43.1040311" lon="12.4878256"><ele>224.42857142857142</ele><time>2026-04-26T08:17:22.361Z</time></trkpt><trkpt lat="43.1039559" lon="12.4878293"><ele>225.85714285714283</ele><time>2026-04-26T08:17:28.35Z</time></trkpt><trkpt lat="43.1038764" lon="12.4878491"><ele>227.28571428571428</ele><time>2026-04-26T08:17:34.325Z</time></trkpt><trkpt lat="43.1038099" lon="12.4878613"><ele>228.71428571428572</ele><time>2026-04-26T08:17:39.358Z</time></trkpt><trkpt lat="43.1037414" lon="12.4878617"><ele>230.14285714285714</ele><time>2026-04-26T08:17:44.34Z</time></trkpt><trkpt lat="43.1036742" lon="12.4878721"><ele>231.57142857142858</ele><time>2026-04-26T08:17:49.366Z</time></trkpt><trkpt lat="43.103608" lon="12.4878829"><ele>233.0</ele><time>2026-04-26T08:17:54.472Z</time></trkpt><trkpt lat="43.1035344" lon="12.48789"><ele>233.0</ele><time>2026-04-26T08:18:00.412Z</time></trkpt><trkpt lat="43.1034683" lon="12.4879043"><ele>233.0</ele><time>2026-04-26T08:18:05.341Z</time></trkpt><trkpt lat="43.1034042" lon="12.4879133"><ele>233.0</ele><time>2026-04-26T08:18:10.373Z</time></trkpt><trkpt lat="43.1033384" lon="12.487923"><ele>233.0</ele><time>2026-04-26T08:18:15.364Z</time></trkpt><trkpt lat="43.1032752" lon="12.4879256"><ele>233.0</ele><time>2026-04-26T08:18:20.367Z</time></trkpt><trkpt lat="43.1032058" lon="12.4879407"><ele>233.0</ele><time>2026-04-26T08:18:26.368Z</time></trkpt><trkpt lat="43.1031386" lon="12.4879414"><ele>233.0</ele><time>2026-04-26T08:18:30.338Z</time></trkpt><trkpt lat="43.103073" lon="12.4879536"><ele>234.42857142857144</ele><time>2026-04-26T08:18:34.341Z</time></trkpt><trkpt lat="43.1030017" lon="12.4879668"><ele>235.85714285714283</ele><time>2026-04-26T08:18:39.376Z</time></trkpt><trkpt lat="43.1029274" lon="12.4879928"><ele>237.28571428571428</ele><time>2026-04-26T08:18:44.464Z</time></trkpt><trkpt lat="43.1028659" lon="12.488031"><ele>238.71428571428572</ele><time>2026-04-26T08:18:49.378Z</time></trkpt><trkpt lat="43.1028196" lon="12.4880966"><ele>240.14285714285717</ele><time>2026-04-26T08:18:54.364Z</time></trkpt><trkpt lat="43.102809" lon="12.4881889"><ele>241.57142857142856</ele><time>2026-04-26T08:18:59.384Z</time></trkpt><trkpt lat="43.1028348" lon="12.4882766"><ele>243.0</ele><time>2026-04-26T08:19:03.342Z</time></trkpt><trkpt lat="43.10287" lon="12.4883704"><ele>243.0</ele><time>2026-04-26T08:19:07.313Z</time></trkpt><trkpt lat="43.1028907" lon="12.4884592"><ele>243.0</ele><time>2026-04-26T08:19:11.322Z</time></trkpt><trkpt lat="43.1029227" lon="12.4885355"><ele>243.0</ele><time>2026-04-26T08:19:15.364Z</time></trkpt><trkpt lat="43.1029598" lon="12.48861"><ele>243.0</ele><time>2026-04-26T08:19:19.336Z</time></trkpt><trkpt lat="43.1030008" lon="12.488704"><ele>243.0</ele><time>2026-04-26T08:19:24.321Z</time></trkpt><trkpt lat="43.1030351" lon="12.4887882"><ele>243.0</ele><time>2026-04-26T08:19:28.337Z</time></trkpt><trkpt lat="43.1030442" lon="12.4888927"><ele>243.0</ele><time>2026-04-26T08:19:32.318Z</time></trkpt><trkpt lat="43.1030706" lon="12.4889798"><ele>243.14285714285714</ele><time>2026-04-26T08:19:36.363Z</time></trkpt><trkpt lat="43.1030857" lon="12.4890676"><ele>243.28571428571428</ele><time>2026-04-26T08:19:40.371Z</time></trkpt><trkpt lat="43.1031068" lon="12.48916"><ele>243.42857142857142</ele><time>2026-04-26T08:19:44.355Z</time></trkpt><trkpt lat="43.1031202" lon="12.4892525"><ele>243.57142857142856</ele><time>2026-04-26T08:19:48.398Z</time></trkpt><trkpt lat="43.1031356" lon="12.4893574"><ele>243.71428571428572</ele><time>2026-04-26T08:19:53.369Z</time></trkpt><trkpt lat="43.1031491" lon="12.4894484"><ele>243.85714285714283</ele><time>2026-04-26T08:19:57.354Z</time></trkpt><trkpt lat="43.1031798" lon="12.4895339"><ele>243.99999999999997</ele><time>2026-04-26T08:20:01.428Z</time></trkpt><trkpt lat="43.1032307" lon="12.4896068"><ele>244.71428571428567</ele><time>2026-04-26T08:20:05.327Z</time></trkpt><trkpt lat="43.1033007" lon="12.489632"><ele>245.42857142857142</ele><time>2026-04-26T08:20:10.35Z</time></trkpt><trkpt lat="43.1033767" lon="12.4896243"><ele>246.1428571428571</ele><time>2026-04-26T08:20:15.36Z</time></trkpt><trkpt lat="43.1034488" lon="12.4896128"><ele>246.85714285714283</ele><time>2026-04-26T08:20:19.322Z</time></trkpt><trkpt lat="43.1035329" lon="12.4896491"><ele>247.57142857142856</ele><time>2026-04-26T08:20:23.322Z</time></trkpt><trkpt lat="43.1035913" lon="12.4897121"><ele>248.28571428571428</ele><time>2026-04-26T08:20:27.362Z</time></trkpt><trkpt lat="43.1036491" lon="12.4897484"><ele>249.0</ele><time>2026-04-26T08:20:31.36Z</time></trkpt><trkpt lat="43.1037059" lon="12.4898189"><ele>249.0</ele><time>2026-04-26T08:20:36.341Z</time></trkpt><trkpt lat="43.1037616" lon="12.4898605"><ele>248.99999999999997</ele><time>2026-04-26T08:20:40.369Z</time></trkpt><trkpt lat="43.1038072" lon="12.4899212"><ele>249.0</ele><time>2026-04-26T08:20:44.354Z</time></trkpt><trkpt lat="43.1038724" lon="12.4899825"><ele>249.0</ele><time>2026-04-26T08:20:49.354Z</time></trkpt><trkpt lat="43.1039295" lon="12.4900333"><ele>248.99999999999997</ele><time>2026-04-26T08:20:53.359Z</time></trkpt><trkpt lat="43.103987" lon="12.4900812"><ele>249.0</ele><time>2026-04-26T08:20:57.324Z</time></trkpt><trkpt lat="43.1040459" lon="12.4901445"><ele>249.0</ele><time>2026-04-26T08:21:02.35Z</time></trkpt><trkpt lat="43.1040833" lon="12.4902174"><ele>249.85714285714283</ele><time>2026-04-26T08:21:06.335Z</time></trkpt><trkpt lat="43.1041069" lon="12.4903006"><ele>250.7142857142857</ele><time>2026-04-26T08:21:10.349Z</time></trkpt><trkpt lat="43.1041193" lon="12.4903902"><ele>251.57142857142856</ele><time>2026-04-26T08:21:14.473Z</time></trkpt><trkpt lat="43.1041244" lon="12.4904861"><ele>252.42857142857144</ele><time>2026-04-26T08:21:18.374Z</time></trkpt><trkpt lat="43.1041278" lon="12.4905758"><ele>253.2857142857143</ele><time>2026-04-26T08:21:22.317Z</time></trkpt><trkpt lat="43.1041276" lon="12.4906702"><ele>254.14285714285717</ele><time>2026-04-26T08:21:26.328Z</time></trkpt><trkpt lat="43.1041377" lon="12.490766"><ele>255.0</ele><time>2026-04-26T08:21:30.344Z</time></trkpt><trkpt lat="43.1041567" lon="12.4908569"><ele>255.83333333333334</ele><time>2026-04-26T08:21:34.336Z</time></trkpt><trkpt lat="43.1041931" lon="12.4909511"><ele>256.6666666666667</ele><time>2026-04-26T08:21:39.33Z</time></trkpt><trkpt lat="43.1042297" lon="12.4910417"><ele>257.5</ele><time>2026-04-26T08:21:43.387Z</time></trkpt><trkpt lat="43.1042887" lon="12.4911083"><ele>258.33333333333337</ele><time>2026-04-26T08:21:48.341Z</time></trkpt><trkpt lat="43.1043584" lon="12.4911506"><ele>259.1666666666667</ele><time>2026-04-26T08:21:52.369Z</time></trkpt><trkpt lat="43.104429" lon="12.4912081"><ele>260.0</ele><time>2026-04-26T08:21:55.439Z</time></trkpt><trkpt lat="43.104492" lon="12.4912279"><ele>260.0</ele><time>2026-04-26T08:21:57.329Z</time></trkpt><trkpt lat="43.1045725" lon="12.4912554"><ele>260.0</ele><time>2026-04-26T08:21:59.373Z</time></trkpt><trkpt lat="43.104658" lon="12.4912799"><ele>260.0</ele><time>2026-04-26T08:22:01.353Z</time></trkpt><trkpt lat="43.1047517" lon="12.4913109"><ele>260.0</ele><time>2026-04-26T08:22:03.369Z</time></trkpt><trkpt lat="43.1048538" lon="12.4913298"><ele>260.0</ele><time>2026-04-26T08:22:05.325Z</time></trkpt><trkpt lat="43.1049562" lon="12.491369"><ele>258.25</ele><time>2026-04-26T08:22:07.35Z</time></trkpt><trkpt lat="43.1050713" lon="12.4913886"><ele>256.5</ele><time>2026-04-26T08:22:09.334Z</time></trkpt><trkpt lat="43.1051832" lon="12.4914229"><ele>254.75</ele><time>2026-04-26T08:22:11.337Z</time></trkpt><trkpt lat="43.1052937" lon="12.4914407"><ele>253.0</ele><time>2026-04-26T08:22:13.329Z</time></trkpt><trkpt lat="43.1054016" lon="12.4914751"><ele>253.0</ele><time>2026-04-26T08:22:15.372Z</time></trkpt><trkpt lat="43.1055062" lon="12.4915114"><ele>253.0</ele><time>2026-04-26T08:22:17.371Z</time></trkpt><trkpt lat="43.1056089" lon="12.4915437"><ele>253.0</ele><time>2026-04-26T08:22:19.338Z</time></trkpt><trkpt lat="43.1057006" lon="12.4915772"><ele>253.0</ele><time>2026-04-26T08:22:21.336Z</time></trkpt><trkpt lat="43.1057959" lon="12.4916353"><ele>253.0</ele><time>2026-04-26T08:22:23.342Z</time></trkpt><trkpt lat="43.1058881" lon="12.4917084"><ele>253.0</ele><time>2026-04-26T08:22:25.462Z</time></trkpt><trkpt lat="43.1059672" lon="12.4917816"><ele>253.0</ele><time>2026-04-26T08:22:27.474Z</time></trkpt><trkpt lat="43.1060397" lon="12.491859"><ele>253.0</ele><time>2026-04-26T08:22:29.345Z</time></trkpt><trkpt lat="43.1061112" lon="12.4919513"><ele>253.0</ele><time>2026-04-26T08:22:31.336Z</time></trkpt><trkpt lat="43.1061796" lon="12.4920448"><ele>253.0</ele><time>2026-04-26T08:22:33.366Z</time></trkpt><trkpt lat="43.1062459" lon="12.4921359"><ele>252.66666666666666</ele><time>2026-04-26T08:22:35.345Z</time></trkpt><trkpt lat="43.1063124" lon="12.4922162"><ele>252.33333333333331</ele><time>2026-04-26T08:22:37.348Z</time></trkpt><trkpt lat="43.1063759" lon="12.4922976"><ele>252.0</ele><time>2026-04-26T08:22:39.332Z</time></trkpt><trkpt lat="43.1064352" lon="12.492387"><ele>251.66666666666669</ele><time>2026-04-26T08:22:41.365Z</time></trkpt><trkpt lat="43.1064955" lon="12.4924693"><ele>251.33333333333334</ele><time>2026-04-26T08:22:43.383Z</time></trkpt><trkpt lat="43.106563" lon="12.4925614"><ele>251.0</ele><time>2026-04-26T08:22:45.425Z</time></trkpt><trkpt lat="43.1066283" lon="12.4926513"><ele>250.8</ele><time>2026-04-26T08:22:47.34Z</time></trkpt><trkpt lat="43.1066997" lon="12.4927435"><ele>250.60000000000002</ele><time>2026-04-26T08:22:49.326Z</time></trkpt><trkpt lat="43.1067727" lon="12.4928424"><ele>250.4</ele><time>2026-04-26T08:22:51.338Z</time></trkpt><trkpt lat="43.1068432" lon="12.4929411"><ele>250.2</ele><time>2026-04-26T08:22:53.366Z</time></trkpt><trkpt lat="43.1069108" lon="12.4930413"><ele>250.0</ele><time>2026-04-26T08:22:55.352Z</time></trkpt><trkpt lat="43.1069904" lon="12.4931311"><ele>250.0</ele><time>2026-04-26T08:22:57.331Z</time></trkpt><trkpt lat="43.107063" lon="12.4932297"><ele>250.0</ele><time>2026-04-26T08:22:59.34Z</time></trkpt><trkpt lat="43.1071375" lon="12.4933275"><ele>250.0</ele><time>2026-04-26T08:23:01.325Z</time></trkpt><trkpt lat="43.1072109" lon="12.493428"><ele>250.0</ele><time>2026-04-26T08:23:03.327Z</time></trkpt><trkpt lat="43.107284" lon="12.4935312"><ele>250.0</ele><time>2026-04-26T08:23:05.329Z</time></trkpt><trkpt lat="43.1073641" lon="12.4936292"><ele>249.5</ele><time>2026-04-26T08:23:07.34Z</time></trkpt><trkpt lat="43.1074507" lon="12.4937257"><ele>249.0</ele><time>2026-04-26T08:23:09.362Z</time></trkpt><trkpt lat="43.1075391" lon="12.4938206"><ele>248.5</ele><time>2026-04-26T08:23:11.448Z</time></trkpt><trkpt lat="43.1076678" lon="12.4939569"><ele>248.0</ele><time>2026-04-26T08:23:14.447Z</time></trkpt><trkpt lat="43.1077504" lon="12.4940353"><ele>248.0</ele><time>2026-04-26T08:23:16.329Z</time></trkpt><trkpt lat="43.1078394" lon="12.4941201"><ele>248.0</ele><time>2026-04-26T08:23:18.38Z</time></trkpt><trkpt lat="43.1079215" lon="12.4942015"><ele>248.0</ele><time>2026-04-26T08:23:20.364Z</time></trkpt><trkpt lat="43.1080025" lon="12.4942793"><ele>248.0</ele><time>2026-04-26T08:23:22.345Z</time></trkpt><trkpt lat="43.1080829" lon="12.4943533"><ele>248.0</ele><time>2026-04-26T08:23:24.338Z</time></trkpt><trkpt lat="43.1081604" lon="12.4944232"><ele>248.00000000000003</ele><time>2026-04-26T08:23:26.342Z</time></trkpt><trkpt lat="43.1082346" lon="12.4944876"><ele>248.0</ele><time>2026-04-26T08:23:28.348Z</time></trkpt><trkpt lat="43.1083094" lon="12.4945522"><ele>248.0</ele><time>2026-04-26T08:23:30.342Z</time></trkpt><trkpt lat="43.1083775" lon="12.494622"><ele>248.0</ele><time>2026-04-26T08:23:32.336Z</time></trkpt><trkpt lat="43.1084419" lon="12.4946956"><ele>248.00000000000003</ele><time>2026-04-26T08:23:34.36Z</time></trkpt><trkpt lat="43.1085012" lon="12.4947744"><ele>248.0</ele><time>2026-04-26T08:23:36.344Z</time></trkpt><trkpt lat="43.1085623" lon="12.4948536"><ele>249.0</ele><time>2026-04-26T08:23:38.344Z</time></trkpt><trkpt lat="43.1086245" lon="12.4949351"><ele>250.00000000000003</ele><time>2026-04-26T08:23:40.398Z</time></trkpt><trkpt lat="43.1086756" lon="12.4950163"><ele>251.0</ele><time>2026-04-26T08:23:42.359Z</time></trkpt><trkpt lat="43.1087297" lon="12.4950938"><ele>252.0</ele><time>2026-04-26T08:23:44.422Z</time></trkpt><trkpt lat="43.108771" lon="12.4951685"><ele>253.00000000000003</ele><time>2026-04-26T08:23:46.398Z</time></trkpt><trkpt lat="43.1088134" lon="12.495241"><ele>254.0</ele><time>2026-04-26T08:23:48.36Z</time></trkpt><trkpt lat="43.1088571" lon="12.495316"><ele>255.0</ele><time>2026-04-26T08:23:50.39Z</time></trkpt><trkpt lat="43.108901" lon="12.4953888"><ele>255.14285714285717</ele><time>2026-04-26T08:23:52.375Z</time></trkpt><trkpt lat="43.1089464" lon="12.4954648"><ele>255.2857142857143</ele><time>2026-04-26T08:23:54.363Z</time></trkpt><trkpt lat="43.1089918" lon="12.4955459"><ele>255.42857142857144</ele><time>2026-04-26T08:23:56.375Z</time></trkpt><trkpt lat="43.1090434" lon="12.4956244"><ele>255.57142857142856</ele><time>2026-04-26T08:23:58.404Z</time></trkpt><trkpt lat="43.1090866" lon="12.4957033"><ele>255.7142857142857</ele><time>2026-04-26T08:24:00.36Z</time></trkpt><trkpt lat="43.1091323" lon="12.4957885"><ele>255.85714285714283</ele><time>2026-04-26T08:24:02.389Z</time></trkpt><trkpt lat="43.1091824" lon="12.4958625"><ele>256.0</ele><time>2026-04-26T08:24:04.347Z</time></trkpt><trkpt lat="43.1092224" lon="12.4959443"><ele>256.0</ele><time>2026-04-26T08:24:06.361Z</time></trkpt><trkpt lat="43.1092731" lon="12.4960268"><ele>255.99999999999997</ele><time>2026-04-26T08:24:08.473Z</time></trkpt><trkpt lat="43.1093152" lon="12.4960998"><ele>256.0</ele><time>2026-04-26T08:24:10.343Z</time></trkpt><trkpt lat="43.1093656" lon="12.4961791"><ele>256.0</ele><time>2026-04-26T08:24:12.502Z</time></trkpt><trkpt lat="43.1094113" lon="12.4962443"><ele>255.99999999999997</ele><time>2026-04-26T08:24:14.38Z</time></trkpt><trkpt lat="43.1094467" lon="12.4963233"><ele>256.0</ele><time>2026-04-26T08:24:16.391Z</time></trkpt><trkpt lat="43.1094479" lon="12.4964117"><ele>256.0</ele><time>2026-04-26T08:24:18.383Z</time></trkpt><trkpt lat="43.1093998" lon="12.4965188"><ele>256.16666666666663</ele><time>2026-04-26T08:24:21.453Z</time></trkpt><trkpt lat="43.1093714" lon="12.4966002"><ele>256.3333333333333</ele><time>2026-04-26T08:24:23.371Z</time></trkpt><trkpt lat="43.1093291" lon="12.4967012"><ele>256.5</ele><time>2026-04-26T08:24:25.397Z</time></trkpt><trkpt lat="43.1092794" lon="12.4968275"><ele>256.6666666666667</ele><time>2026-04-26T08:24:27.412Z</time></trkpt><trkpt lat="43.1092191" lon="12.4969697"><ele>256.83333333333337</ele><time>2026-04-26T08:24:29.367Z</time></trkpt><trkpt lat="43.1091851" lon="12.4970473"><ele>257.0</ele><time>2026-04-26T08:24:30.361Z</time></trkpt><trkpt lat="43.1091476" lon="12.4971296"><ele>256.5</ele><time>2026-04-26T08:24:31.332Z</time></trkpt><trkpt lat="43.1091097" lon="12.4972253"><ele>256.0</ele><time>2026-04-26T08:24:32.362Z</time></trkpt><trkpt lat="43.1090699" lon="12.4973163"><ele>255.5</ele><time>2026-04-26T08:24:33.322Z</time></trkpt><trkpt lat="43.1090259" lon="12.497416"><ele>255.0</ele><time>2026-04-26T08:24:34.335Z</time></trkpt><trkpt lat="43.1089862" lon="12.4975205"><ele>254.50000000000003</ele><time>2026-04-26T08:24:35.308Z</time></trkpt><trkpt lat="43.108942" lon="12.4976377"><ele>254.0</ele><time>2026-04-26T08:24:36.364Z</time></trkpt><trkpt lat="43.1088864" lon="12.4977434"><ele>253.0</ele><time>2026-04-26T08:24:37.357Z</time></trkpt><trkpt lat="43.1088398" lon="12.4978659"><ele>251.99999999999997</ele><time>2026-04-26T08:24:38.36Z</time></trkpt><trkpt lat="43.108789" lon="12.4979879"><ele>250.99999999999997</ele><time>2026-04-26T08:24:39.346Z</time></trkpt><trkpt lat="43.1087356" lon="12.4981113"><ele>250.0</ele><time>2026-04-26T08:24:40.354Z</time></trkpt><trkpt lat="43.1086835" lon="12.4982393"><ele>249.0</ele><time>2026-04-26T08:24:41.344Z</time></trkpt><trkpt lat="43.1086277" lon="12.498373"><ele>247.75</ele><time>2026-04-26T08:24:42.349Z</time></trkpt><trkpt lat="43.1085717" lon="12.4985085"><ele>246.5</ele><time>2026-04-26T08:24:43.34Z</time></trkpt><trkpt lat="43.1085151" lon="12.4986495"><ele>245.25</ele><time>2026-04-26T08:24:44.352Z</time></trkpt><trkpt lat="43.1084627" lon="12.4987876"><ele>244.0</ele><time>2026-04-26T08:24:45.315Z</time></trkpt><trkpt lat="43.1084047" lon="12.4989298"><ele>242.5</ele><time>2026-04-26T08:24:46.333Z</time></trkpt><trkpt lat="43.1083486" lon="12.4990746"><ele>241.0</ele><time>2026-04-26T08:24:47.335Z</time></trkpt><trkpt lat="43.1082819" lon="12.49922"><ele>239.5</ele><time>2026-04-26T08:24:48.362Z</time></trkpt><trkpt lat="43.1082207" lon="12.4993629"><ele>238.0</ele><time>2026-04-26T08:24:49.36Z</time></trkpt><trkpt lat="43.108151" lon="12.4995019"><ele>235.5</ele><time>2026-04-26T08:24:50.352Z</time></trkpt><trkpt lat="43.1080858" lon="12.4996515"><ele>233.0</ele><time>2026-04-26T08:24:51.372Z</time></trkpt><trkpt lat="43.1080181" lon="12.4997951"><ele>230.5</ele><time>2026-04-26T08:24:52.368Z</time></trkpt><trkpt lat="43.1079558" lon="12.4999381"><ele>228.0</ele><time>2026-04-26T08:24:53.345Z</time></trkpt><trkpt lat="43.1078885" lon="12.5000963"><ele>228.0</ele><time>2026-04-26T08:24:54.402Z</time></trkpt><trkpt lat="43.1078221" lon="12.5002607"><ele>228.0</ele><time>2026-04-26T08:24:55.478Z</time></trkpt><trkpt lat="43.1077025" lon="12.5005486"><ele>228.0</ele><time>2026-04-26T08:24:57.359Z</time></trkpt><trkpt lat="43.1076422" lon="12.5007025"><ele>227.25</ele><time>2026-04-26T08:24:58.371Z</time></trkpt><trkpt lat="43.10758" lon="12.5008494"><ele>226.5</ele><time>2026-04-26T08:24:59.348Z</time></trkpt><trkpt lat="43.1075119" lon="12.5010151"><ele>225.75</ele><time>2026-04-26T08:25:00.444Z</time></trkpt><trkpt lat="43.1074541" lon="12.5011554"><ele>225.0</ele><time>2026-04-26T08:25:01.37Z</time></trkpt><trkpt lat="43.1073972" lon="12.5013022"><ele>223.5</ele><time>2026-04-26T08:25:02.343Z</time></trkpt><trkpt lat="43.1073321" lon="12.5014528"><ele>222.0</ele><time>2026-04-26T08:25:03.372Z</time></trkpt><trkpt lat="43.1072751" lon="12.5015971"><ele>220.5</ele><time>2026-04-26T08:25:04.355Z</time></trkpt><trkpt lat="43.107214" lon="12.501739"><ele>219.0</ele><time>2026-04-26T08:25:05.369Z</time></trkpt><trkpt lat="43.1071531" lon="12.5018784"><ele>219.0</ele><time>2026-04-26T08:25:06.358Z</time></trkpt><trkpt lat="43.1070945" lon="12.5020231"><ele>219.0</ele><time>2026-04-26T08:25:07.369Z</time></trkpt><trkpt lat="43.1070379" lon="12.5021684"><ele>219.0</ele><time>2026-04-26T08:25:08.369Z</time></trkpt><trkpt lat="43.1069836" lon="12.5023119"><ele>219.0</ele><time>2026-04-26T08:25:09.343Z</time></trkpt><trkpt lat="43.1069299" lon="12.5024581"><ele>218.79999999999998</ele><time>2026-04-26T08:25:10.337Z</time></trkpt><trkpt lat="43.1068798" lon="12.5026157"><ele>218.59999999999997</ele><time>2026-04-26T08:25:11.376Z</time></trkpt><trkpt lat="43.1068482" lon="12.5027477"><ele>218.4</ele><time>2026-04-26T08:25:12.326Z</time></trkpt><trkpt lat="43.1068252" lon="12.5028423"><ele>218.2</ele><time>2026-04-26T08:25:13.362Z</time></trkpt><trkpt lat="43.1068119" lon="12.5029778"><ele>218.0</ele><time>2026-04-26T08:25:15.362Z</time></trkpt><trkpt lat="43.1068819" lon="12.5030701"><ele>217.4</ele><time>2026-04-26T08:25:17.379Z</time></trkpt><trkpt lat="43.1069642" lon="12.5031491"><ele>216.8</ele><time>2026-04-26T08:25:19.33Z</time></trkpt><trkpt lat="43.1070592" lon="12.5031985"><ele>216.2</ele><time>2026-04-26T08:25:21.368Z</time></trkpt><trkpt lat="43.1071566" lon="12.5032559"><ele>215.6</ele><time>2026-04-26T08:25:23.372Z</time></trkpt><trkpt lat="43.1072545" lon="12.5033064"><ele>215.0</ele><time>2026-04-26T08:25:25.359Z</time></trkpt><trkpt lat="43.1073514" lon="12.5033592"><ele>215.2</ele><time>2026-04-26T08:25:27.377Z</time></trkpt><trkpt lat="43.1074433" lon="12.5033953"><ele>215.4</ele><time>2026-04-26T08:25:29.369Z</time></trkpt><trkpt lat="43.1075339" lon="12.5034459"><ele>215.60000000000002</ele><time>2026-04-26T08:25:31.371Z</time></trkpt><trkpt lat="43.1076201" lon="12.5034916"><ele>215.8</ele><time>2026-04-26T08:25:33.37Z</time></trkpt><trkpt lat="43.1077072" lon="12.503532"><ele>216.0</ele><time>2026-04-26T08:25:35.37Z</time></trkpt><trkpt lat="43.1077933" lon="12.5035702"><ele>216.0</ele><time>2026-04-26T08:25:37.366Z</time></trkpt><trkpt lat="43.1078791" lon="12.5036189"><ele>216.00000000000003</ele><time>2026-04-26T08:25:39.36Z</time></trkpt><trkpt lat="43.1079694" lon="12.5036631"><ele>216.00000000000003</ele><time>2026-04-26T08:25:41.368Z</time></trkpt><trkpt lat="43.1080614" lon="12.5036972"><ele>216.0</ele><time>2026-04-26T08:25:43.384Z</time></trkpt><trkpt lat="43.108148" lon="12.5037361"><ele>216.0</ele><time>2026-04-26T08:25:45.361Z</time></trkpt><trkpt lat="43.1082382" lon="12.50376"><ele>215.60000000000002</ele><time>2026-04-26T08:25:47.356Z</time></trkpt><trkpt lat="43.1083285" lon="12.5037953"><ele>215.20000000000002</ele><time>2026-04-26T08:25:49.361Z</time></trkpt><trkpt lat="43.1084213" lon="12.5038286"><ele>214.79999999999998</ele><time>2026-04-26T08:25:51.386Z</time></trkpt><trkpt lat="43.1085151" lon="12.503866"><ele>214.39999999999998</ele><time>2026-04-26T08:25:53.373Z</time></trkpt><trkpt lat="43.1086076" lon="12.5039051"><ele>214.0</ele><time>2026-04-26T08:25:55.386Z</time></trkpt><trkpt lat="43.1087008" lon="12.5039428"><ele>214.0</ele><time>2026-04-26T08:25:57.376Z</time></trkpt><trkpt lat="43.1087934" lon="12.5039817"><ele>213.99999999999997</ele><time>2026-04-26T08:25:59.338Z</time></trkpt><trkpt lat="43.1088921" lon="12.5040257"><ele>213.99999999999997</ele><time>2026-04-26T08:26:01.381Z</time></trkpt><trkpt lat="43.1090023" lon="12.5040707"><ele>214.0</ele><time>2026-04-26T08:26:03.575Z</time></trkpt><trkpt lat="43.1091006" lon="12.5041033"><ele>214.0</ele><time>2026-04-26T08:26:05.399Z</time></trkpt><trkpt lat="43.1092065" lon="12.5041425"><ele>214.0</ele><time>2026-04-26T08:26:07.376Z</time></trkpt><trkpt lat="43.1093182" lon="12.5041864"><ele>214.0</ele><time>2026-04-26T08:26:09.378Z</time></trkpt><trkpt lat="43.1094347" lon="12.5042245"><ele>214.0</ele><time>2026-04-26T08:26:11.398Z</time></trkpt><trkpt lat="43.1095485" lon="12.5042559"><ele>214.0</ele><time>2026-04-26T08:26:13.359Z</time></trkpt><trkpt lat="43.1096649" lon="12.5042971"><ele>214.0</ele><time>2026-04-26T08:26:15.374Z</time></trkpt><trkpt lat="43.1097788" lon="12.5043318"><ele>213.99999999999997</ele><time>2026-04-26T08:26:17.34Z</time></trkpt><trkpt lat="43.1098948" lon="12.5043704"><ele>213.99999999999997</ele><time>2026-04-26T08:26:19.368Z</time></trkpt><trkpt lat="43.1100108" lon="12.5044028"><ele>214.0</ele><time>2026-04-26T08:26:21.365Z</time></trkpt><trkpt lat="43.110072" lon="12.5044295"><ele>214.0</ele><time>2026-04-26T08:26:22.4Z</time></trkpt><trkpt lat="43.11019" lon="12.5044567"><ele>213.75</ele><time>2026-04-26T08:26:24.369Z</time></trkpt><trkpt lat="43.1103121" lon="12.5044992"><ele>213.5</ele><time>2026-04-26T08:26:26.392Z</time></trkpt><trkpt lat="43.1104239" lon="12.504561"><ele>213.25</ele><time>2026-04-26T08:26:28.362Z</time></trkpt><trkpt lat="43.1105218" lon="12.5046581"><ele>213.0</ele><time>2026-04-26T08:26:30.374Z</time></trkpt><trkpt lat="43.1106165" lon="12.5047728"><ele>213.0</ele><time>2026-04-26T08:26:32.456Z</time></trkpt><trkpt lat="43.1107094" lon="12.5048732"><ele>213.0</ele><time>2026-04-26T08:26:34.382Z</time></trkpt><trkpt lat="43.1107991" lon="12.5049776"><ele>213.0</ele><time>2026-04-26T08:26:36.374Z</time></trkpt><trkpt lat="43.1108523" lon="12.5050283"><ele>213.0</ele><time>2026-04-26T08:26:37.483Z</time></trkpt><trkpt lat="43.1109492" lon="12.5050968"><ele>213.0</ele><time>2026-04-26T08:26:39.372Z</time></trkpt><trkpt lat="43.1110511" lon="12.505154"><ele>212.8</ele><time>2026-04-26T08:26:41.364Z</time></trkpt><trkpt lat="43.1111457" lon="12.5052251"><ele>212.60000000000002</ele><time>2026-04-26T08:26:43.347Z</time></trkpt><trkpt lat="43.1112324" lon="12.5053168"><ele>212.39999999999998</ele><time>2026-04-26T08:26:45.356Z</time></trkpt><trkpt lat="43.111307" lon="12.5054374"><ele>212.2</ele><time>2026-04-26T08:26:47.389Z</time></trkpt><trkpt lat="43.1113897" lon="12.5055431"><ele>212.0</ele><time>2026-04-26T08:26:49.375Z</time></trkpt><trkpt lat="43.1114759" lon="12.505656"><ele>212.0</ele><time>2026-04-26T08:26:51.354Z</time></trkpt><trkpt lat="43.1115679" lon="12.5057652"><ele>212.0</ele><time>2026-04-26T08:26:53.371Z</time></trkpt><trkpt lat="43.1116594" lon="12.5058771"><ele>212.0</ele><time>2026-04-26T08:26:55.383Z</time></trkpt><trkpt lat="43.1117179" lon="12.505938"><ele>212.0</ele><time>2026-04-26T08:26:56.583Z</time></trkpt><trkpt lat="43.1117992" lon="12.5060451"><ele>212.0</ele><time>2026-04-26T08:26:58.398Z</time></trkpt><trkpt lat="43.1118972" lon="12.5061606"><ele>212.25</ele><time>2026-04-26T08:27:00.47Z</time></trkpt><trkpt lat="43.1119914" lon="12.5062604"><ele>212.5</ele><time>2026-04-26T08:27:02.377Z</time></trkpt><trkpt lat="43.1120883" lon="12.5063617"><ele>212.75</ele><time>2026-04-26T08:27:04.382Z</time></trkpt><trkpt lat="43.1121877" lon="12.506454"><ele>213.0</ele><time>2026-04-26T08:27:06.334Z</time></trkpt><trkpt lat="43.112289" lon="12.5065482"><ele>213.0</ele><time>2026-04-26T08:27:08.373Z</time></trkpt><trkpt lat="43.1123381" lon="12.5066028"><ele>213.0</ele><time>2026-04-26T08:27:09.449Z</time></trkpt><trkpt lat="43.1124354" lon="12.5066768"><ele>213.0</ele><time>2026-04-26T08:27:11.434Z</time></trkpt><trkpt lat="43.1125243" lon="12.5067525"><ele>213.0</ele><time>2026-04-26T08:27:13.356Z</time></trkpt><trkpt lat="43.112621" lon="12.506834"><ele>213.0</ele><time>2026-04-26T08:27:15.367Z</time></trkpt><trkpt lat="43.1127161" lon="12.5069219"><ele>213.2</ele><time>2026-04-26T08:27:17.375Z</time></trkpt><trkpt lat="43.1128094" lon="12.5070049"><ele>213.4</ele><time>2026-04-26T08:27:19.327Z</time></trkpt><trkpt lat="43.1129066" lon="12.5070781"><ele>213.59999999999997</ele><time>2026-04-26T08:27:21.367Z</time></trkpt><trkpt lat="43.1130046" lon="12.5071505"><ele>213.79999999999998</ele><time>2026-04-26T08:27:23.363Z</time></trkpt><trkpt lat="43.1130995" lon="12.5072294"><ele>214.0</ele><time>2026-04-26T08:27:25.386Z</time></trkpt><trkpt lat="43.1131937" lon="12.5072954"><ele>214.39999999999998</ele><time>2026-04-26T08:27:27.392Z</time></trkpt><trkpt lat="43.1132835" lon="12.5073689"><ele>214.79999999999998</ele><time>2026-04-26T08:27:29.378Z</time></trkpt><trkpt lat="43.1133725" lon="12.5074314"><ele>215.20000000000002</ele><time>2026-04-26T08:27:31.34Z</time></trkpt><trkpt lat="43.1134638" lon="12.5074999"><ele>215.60000000000002</ele><time>2026-04-26T08:27:33.382Z</time></trkpt><trkpt lat="43.1135539" lon="12.507563"><ele>216.0</ele><time>2026-04-26T08:27:35.377Z</time></trkpt><trkpt lat="43.1136436" lon="12.5076214"><ele>216.0</ele><time>2026-04-26T08:27:37.341Z</time></trkpt><trkpt lat="43.1137338" lon="12.5076965"><ele>216.00000000000003</ele><time>2026-04-26T08:27:39.372Z</time></trkpt><trkpt lat="43.113821" lon="12.5077646"><ele>216.00000000000003</ele><time>2026-04-26T08:27:41.358Z</time></trkpt><trkpt lat="43.1139006" lon="12.5078313"><ele>216.0</ele><time>2026-04-26T08:27:43.339Z</time></trkpt><trkpt lat="43.1139888" lon="12.5079042"><ele>216.0</ele><time>2026-04-26T08:27:45.343Z</time></trkpt><trkpt lat="43.1140938" lon="12.5079761"><ele>216.4</ele><time>2026-04-26T08:27:47.336Z</time></trkpt><trkpt lat="43.1141467" lon="12.5080328"><ele>216.8</ele><time>2026-04-26T08:27:48.372Z</time></trkpt><trkpt lat="43.1141999" lon="12.5080854"><ele>217.20000000000002</ele><time>2026-04-26T08:27:49.39Z</time></trkpt><trkpt lat="43.1142989" lon="12.5081791"><ele>217.60000000000002</ele><time>2026-04-26T08:27:51.368Z</time></trkpt><trkpt lat="43.1143985" lon="12.5082694"><ele>218.0</ele><time>2026-04-26T08:27:53.374Z</time></trkpt><trkpt lat="43.1144901" lon="12.5083655"><ele>218.0</ele><time>2026-04-26T08:27:55.372Z</time></trkpt><trkpt lat="43.1145747" lon="12.5084626"><ele>218.0</ele><time>2026-04-26T08:27:57.393Z</time></trkpt><trkpt lat="43.1146651" lon="12.5085543"><ele>218.0</ele><time>2026-04-26T08:27:59.367Z</time></trkpt><trkpt lat="43.1147499" lon="12.5086465"><ele>218.0</ele><time>2026-04-26T08:28:01.359Z</time></trkpt><trkpt lat="43.114832" lon="12.508741"><ele>218.0</ele><time>2026-04-26T08:28:03.367Z</time></trkpt><trkpt lat="43.114911" lon="12.508839"><ele>218.0</ele><time>2026-04-26T08:28:05.354Z</time></trkpt><trkpt lat="43.1149881" lon="12.5089406"><ele>218.0</ele><time>2026-04-26T08:28:07.369Z</time></trkpt><trkpt lat="43.1150661" lon="12.509037"><ele>218.0</ele><time>2026-04-26T08:28:09.348Z</time></trkpt><trkpt lat="43.1151324" lon="12.5091517"><ele>218.0</ele><time>2026-04-26T08:28:11.363Z</time></trkpt><trkpt lat="43.1151755" lon="12.5092813"><ele>218.0</ele><time>2026-04-26T08:28:13.402Z</time></trkpt><trkpt lat="43.115174" lon="12.5094063"><ele>218.00000000000003</ele><time>2026-04-26T08:28:15.351Z</time></trkpt><trkpt lat="43.1151147" lon="12.5095123"><ele>218.0</ele><time>2026-04-26T08:28:17.395Z</time></trkpt><trkpt lat="43.1150883" lon="12.5096046"><ele>218.0</ele><time>2026-04-26T08:28:19.389Z</time></trkpt><trkpt lat="43.1150557" lon="12.5097042"><ele>218.0</ele><time>2026-04-26T08:28:21.405Z</time></trkpt><trkpt lat="43.1150161" lon="12.5098155"><ele>218.00000000000003</ele><time>2026-04-26T08:28:23.337Z</time></trkpt><trkpt lat="43.114966" lon="12.5099434"><ele>218.0</ele><time>2026-04-26T08:28:25.375Z</time></trkpt><trkpt lat="43.1149171" lon="12.5100705"><ele>217.2</ele><time>2026-04-26T08:28:27.368Z</time></trkpt><trkpt lat="43.1148695" lon="12.5102053"><ele>216.4</ele><time>2026-04-26T08:28:29.385Z</time></trkpt><trkpt lat="43.1148243" lon="12.5103433"><ele>215.59999999999997</ele><time>2026-04-26T08:28:31.388Z</time></trkpt><trkpt lat="43.1147765" lon="12.5104791"><ele>214.79999999999998</ele><time>2026-04-26T08:28:33.385Z</time></trkpt><trkpt lat="43.1147298" lon="12.5106158"><ele>214.0</ele><time>2026-04-26T08:28:35.378Z</time></trkpt><trkpt lat="43.1146833" lon="12.5107499"><ele>214.0</ele><time>2026-04-26T08:28:37.337Z</time></trkpt><trkpt lat="43.1146398" lon="12.5108916"><ele>214.0</ele><time>2026-04-26T08:28:39.368Z</time></trkpt><trkpt lat="43.1145909" lon="12.5110296"><ele>214.0</ele><time>2026-04-26T08:28:41.348Z</time></trkpt><trkpt lat="43.114549" lon="12.5111808"><ele>214.0</ele><time>2026-04-26T08:28:43.392Z</time></trkpt><trkpt lat="43.1145129" lon="12.5113341"><ele>214.0</ele><time>2026-04-26T08:28:45.433Z</time></trkpt><trkpt lat="43.114476" lon="12.5114778"><ele>214.0</ele><time>2026-04-26T08:28:47.387Z</time></trkpt><trkpt lat="43.1144377" lon="12.5116241"><ele>214.0</ele><time>2026-04-26T08:28:49.382Z</time></trkpt><trkpt lat="43.1144093" lon="12.5117769"><ele>214.0</ele><time>2026-04-26T08:28:51.349Z</time></trkpt><trkpt lat="43.1143793" lon="12.5119322"><ele>214.39999999999998</ele><time>2026-04-26T08:28:53.38Z</time></trkpt><trkpt lat="43.1143516" lon="12.5120853"><ele>214.79999999999998</ele><time>2026-04-26T08:28:55.38Z</time></trkpt><trkpt lat="43.1143237" lon="12.512237"><ele>215.20000000000002</ele><time>2026-04-26T08:28:57.381Z</time></trkpt><trkpt lat="43.1142887" lon="12.5123861"><ele>215.60000000000002</ele><time>2026-04-26T08:28:59.364Z</time></trkpt><trkpt lat="43.1142711" lon="12.51247"><ele>216.0</ele><time>2026-04-26T08:29:00.491Z</time></trkpt><trkpt lat="43.1142458" lon="12.5126122"><ele>216.0</ele><time>2026-04-26T08:29:02.353Z</time></trkpt><trkpt lat="43.1142182" lon="12.5127598"><ele>216.0</ele><time>2026-04-26T08:29:04.356Z</time></trkpt><trkpt lat="43.1141905" lon="12.512907"><ele>216.0</ele><time>2026-04-26T08:29:06.372Z</time></trkpt><trkpt lat="43.1141674" lon="12.5130559"><ele>216.0</ele><time>2026-04-26T08:29:08.335Z</time></trkpt><trkpt lat="43.1141395" lon="12.5132136"><ele>216.25</ele><time>2026-04-26T08:29:10.349Z</time></trkpt><trkpt lat="43.1141134" lon="12.5133721"><ele>216.5</ele><time>2026-04-26T08:29:12.393Z</time></trkpt><trkpt lat="43.1140892" lon="12.5135272"><ele>216.75</ele><time>2026-04-26T08:29:14.381Z</time></trkpt><trkpt lat="43.1140636" lon="12.5136794"><ele>217.0</ele><time>2026-04-26T08:29:16.358Z</time></trkpt><trkpt lat="43.1140366" lon="12.5138322"><ele>216.39999999999998</ele><time>2026-04-26T08:29:18.35Z</time></trkpt><trkpt lat="43.1140167" lon="12.5139198"><ele>215.79999999999998</ele><time>2026-04-26T08:29:19.462Z</time></trkpt><trkpt lat="43.1139844" lon="12.5140742"><ele>215.2</ele><time>2026-04-26T08:29:21.375Z</time></trkpt><trkpt lat="43.1139479" lon="12.5142413"><ele>214.6</ele><time>2026-04-26T08:29:23.476Z</time></trkpt><trkpt lat="43.1139139" lon="12.5143973"><ele>214.0</ele><time>2026-04-26T08:29:25.446Z</time></trkpt><trkpt lat="43.1138765" lon="12.5145498"><ele>214.0</ele><time>2026-04-26T08:29:27.374Z</time></trkpt><trkpt lat="43.1138328" lon="12.514709"><ele>213.99999999999997</ele><time>2026-04-26T08:29:29.363Z</time></trkpt><trkpt lat="43.1137822" lon="12.51487"><ele>213.99999999999997</ele><time>2026-04-26T08:29:31.38Z</time></trkpt><trkpt lat="43.1137562" lon="12.5149491"><ele>214.0</ele><time>2026-04-26T08:29:32.388Z</time></trkpt><trkpt lat="43.1137266" lon="12.5150332"><ele>214.0</ele><time>2026-04-26T08:29:33.474Z</time></trkpt><trkpt lat="43.1136735" lon="12.5151808"><ele>214.0</ele><time>2026-04-26T08:29:35.381Z</time></trkpt><trkpt lat="43.113614" lon="12.515332"><ele>213.99999999999997</ele><time>2026-04-26T08:29:37.375Z</time></trkpt><trkpt lat="43.1135834" lon="12.5154079"><ele>213.99999999999997</ele><time>2026-04-26T08:29:38.388Z</time></trkpt><trkpt lat="43.1135264" lon="12.5155565"><ele>214.0</ele><time>2026-04-26T08:29:40.394Z</time></trkpt><trkpt lat="43.1134612" lon="12.515696"><ele>214.0</ele><time>2026-04-26T08:29:42.378Z</time></trkpt><trkpt lat="43.1134009" lon="12.5158422"><ele>213.75</ele><time>2026-04-26T08:29:44.393Z</time></trkpt><trkpt lat="43.1133551" lon="12.5159957"><ele>213.5</ele><time>2026-04-26T08:29:46.374Z</time></trkpt><trkpt lat="43.1133248" lon="12.5161516"><ele>213.25</ele><time>2026-04-26T08:29:48.357Z</time></trkpt><trkpt lat="43.1133046" lon="12.5163083"><ele>213.0</ele><time>2026-04-26T08:29:50.374Z</time></trkpt><trkpt lat="43.1132888" lon="12.5164699"><ele>213.0</ele><time>2026-04-26T08:29:52.401Z</time></trkpt><trkpt lat="43.1132723" lon="12.5166313"><ele>213.0</ele><time>2026-04-26T08:29:54.366Z</time></trkpt><trkpt lat="43.1132502" lon="12.5167968"><ele>213.0</ele><time>2026-04-26T08:29:56.387Z</time></trkpt><trkpt lat="43.1132323" lon="12.5169641"><ele>213.0</ele><time>2026-04-26T08:29:58.37Z</time></trkpt><trkpt lat="43.1132214" lon="12.5170587"><ele>213.0</ele><time>2026-04-26T08:29:59.506Z</time></trkpt><trkpt lat="43.1132073" lon="12.5172202"><ele>213.0</ele><time>2026-04-26T08:30:01.401Z</time></trkpt><trkpt lat="43.1131832" lon="12.5173836"><ele>213.0</ele><time>2026-04-26T08:30:03.371Z</time></trkpt><trkpt lat="43.1131764" lon="12.5174698"><ele>213.0</ele><time>2026-04-26T08:30:04.386Z</time></trkpt><trkpt lat="43.1131541" lon="12.5176344"><ele>213.0</ele><time>2026-04-26T08:30:06.39Z</time></trkpt><trkpt lat="43.1131416" lon="12.5177975"><ele>213.0</ele><time>2026-04-26T08:30:08.35Z</time></trkpt><trkpt lat="43.1131233" lon="12.5179703"><ele>212.8</ele><time>2026-04-26T08:30:10.47Z</time></trkpt><trkpt lat="43.113132" lon="12.5181332"><ele>212.60000000000002</ele><time>2026-04-26T08:30:12.461Z</time></trkpt><trkpt lat="43.1131467" lon="12.5182901"><ele>212.39999999999998</ele><time>2026-04-26T08:30:14.398Z</time></trkpt><trkpt lat="43.1131543" lon="12.5184516"><ele>212.2</ele><time>2026-04-26T08:30:16.352Z</time></trkpt><trkpt lat="43.1131534" lon="12.5185427"><ele>212.0</ele><time>2026-04-26T08:30:17.466Z</time></trkpt><trkpt lat="43.1131334" lon="12.5186969"><ele>211.75</ele><time>2026-04-26T08:30:19.397Z</time></trkpt><trkpt lat="43.1131143" lon="12.5188552"><ele>211.5</ele><time>2026-04-26T08:30:21.383Z</time></trkpt><trkpt lat="43.1130934" lon="12.5190156"><ele>211.25</ele><time>2026-04-26T08:30:23.379Z</time></trkpt><trkpt lat="43.113074" lon="12.519175"><ele>211.0</ele><time>2026-04-26T08:30:25.38Z</time></trkpt><trkpt lat="43.1130584" lon="12.5193283"><ele>211.0</ele><time>2026-04-26T08:30:27.353Z</time></trkpt><trkpt lat="43.1130437" lon="12.5194788"><ele>211.0</ele><time>2026-04-26T08:30:29.342Z</time></trkpt><trkpt lat="43.1130729" lon="12.5196293"><ele>211.0</ele><time>2026-04-26T08:30:31.383Z</time></trkpt><trkpt lat="43.1131029" lon="12.5197614"><ele>211.0</ele><time>2026-04-26T08:30:33.374Z</time></trkpt><trkpt lat="43.1130815" lon="12.5198983"><ele>211.0</ele><time>2026-04-26T08:30:35.348Z</time></trkpt><trkpt lat="43.1130597" lon="12.5200449"><ele>211.20000000000002</ele><time>2026-04-26T08:30:37.374Z</time></trkpt><trkpt lat="43.1130298" lon="12.5202022"><ele>211.4</ele><time>2026-04-26T08:30:39.505Z</time></trkpt><trkpt lat="43.1130087" lon="12.5203439"><ele>211.6</ele><time>2026-04-26T08:30:41.375Z</time></trkpt><trkpt lat="43.1129826" lon="12.5204936"><ele>211.8</ele><time>2026-04-26T08:30:43.374Z</time></trkpt><trkpt lat="43.1129528" lon="12.520638"><ele>212.0</ele><time>2026-04-26T08:30:45.343Z</time></trkpt><trkpt lat="43.1129288" lon="12.5207904"><ele>212.0</ele><time>2026-04-26T08:30:47.396Z</time></trkpt><trkpt lat="43.1129015" lon="12.5209465"><ele>212.0</ele><time>2026-04-26T08:30:49.498Z</time></trkpt><trkpt lat="43.1128789" lon="12.5210844"><ele>212.0</ele><time>2026-04-26T08:30:51.369Z</time></trkpt><trkpt lat="43.1128528" lon="12.5212313"><ele>212.0</ele><time>2026-04-26T08:30:53.37Z</time></trkpt><trkpt lat="43.1128289" lon="12.5213795"><ele>212.0</ele><time>2026-04-26T08:30:55.373Z</time></trkpt><trkpt lat="43.1128042" lon="12.5215257"><ele>212.0</ele><time>2026-04-26T08:30:57.399Z</time></trkpt><trkpt lat="43.1127811" lon="12.5216691"><ele>212.0</ele><time>2026-04-26T08:30:59.384Z</time></trkpt><trkpt lat="43.1127572" lon="12.5218141"><ele>212.0</ele><time>2026-04-26T08:31:01.374Z</time></trkpt><trkpt lat="43.1127386" lon="12.5219605"><ele>212.0</ele><time>2026-04-26T08:31:03.36Z</time></trkpt><trkpt lat="43.1127164" lon="12.5221067"><ele>212.0</ele><time>2026-04-26T08:31:05.382Z</time></trkpt><trkpt lat="43.1126994" lon="12.5222487"><ele>212.0</ele><time>2026-04-26T08:31:07.362Z</time></trkpt><trkpt lat="43.1126839" lon="12.5223969"><ele>212.0</ele><time>2026-04-26T08:31:09.399Z</time></trkpt><trkpt lat="43.1126693" lon="12.5225413"><ele>212.0</ele><time>2026-04-26T08:31:11.388Z</time></trkpt><trkpt lat="43.1126556" lon="12.5226836"><ele>212.0</ele><time>2026-04-26T08:31:13.354Z</time></trkpt><trkpt lat="43.1126461" lon="12.5228325"><ele>212.0</ele><time>2026-04-26T08:31:15.407Z</time></trkpt><trkpt lat="43.1126349" lon="12.522976"><ele>212.2</ele><time>2026-04-26T08:31:17.379Z</time></trkpt><trkpt lat="43.1126268" lon="12.5231208"><ele>212.39999999999998</ele><time>2026-04-26T08:31:19.371Z</time></trkpt><trkpt lat="43.1126207" lon="12.5232719"><ele>212.60000000000002</ele><time>2026-04-26T08:31:21.454Z</time></trkpt><trkpt lat="43.1126185" lon="12.5234173"><ele>212.8</ele><time>2026-04-26T08:31:23.417Z</time></trkpt><trkpt lat="43.1126179" lon="12.5235678"><ele>213.0</ele><time>2026-04-26T08:31:25.442Z</time></trkpt><trkpt lat="43.1126141" lon="12.5237129"><ele>213.0</ele><time>2026-04-26T08:31:27.405Z</time></trkpt><trkpt lat="43.1126103" lon="12.5238591"><ele>213.0</ele><time>2026-04-26T08:31:29.382Z</time></trkpt><trkpt lat="43.112606" lon="12.52408"><ele>213.0</ele><time>2026-04-26T08:31:32.39Z</time></trkpt><trkpt lat="43.1126082" lon="12.5242249"><ele>213.0</ele><time>2026-04-26T08:31:34.388Z</time></trkpt><trkpt lat="43.1126059" lon="12.5243689"><ele>213.0</ele><time>2026-04-26T08:31:36.392Z</time></trkpt><trkpt lat="43.1126083" lon="12.5245117"><ele>213.0</ele><time>2026-04-26T08:31:38.41Z</time></trkpt><trkpt lat="43.1126022" lon="12.5246495"><ele>213.0</ele><time>2026-04-26T08:31:40.385Z</time></trkpt><trkpt lat="43.112595" lon="12.5247866"><ele>213.0</ele><time>2026-04-26T08:31:42.353Z</time></trkpt><trkpt lat="43.1125495" lon="12.5249204"><ele>213.0</ele><time>2026-04-26T08:31:44.373Z</time></trkpt><trkpt lat="43.1124669" lon="12.5250185"><ele>212.60000000000002</ele><time>2026-04-26T08:31:46.403Z</time></trkpt><trkpt lat="43.1123901" lon="12.5251202"><ele>212.20000000000002</ele><time>2026-04-26T08:31:48.402Z</time></trkpt><trkpt lat="43.1123303" lon="12.5252493"><ele>211.8</ele><time>2026-04-26T08:31:50.414Z</time></trkpt><trkpt lat="43.1123075" lon="12.5254023"><ele>211.4</ele><time>2026-04-26T08:31:52.494Z</time></trkpt><trkpt lat="43.1123261" lon="12.5255512"><ele>211.0</ele><time>2026-04-26T08:31:54.487Z</time></trkpt><trkpt lat="43.1123746" lon="12.5256726"><ele>211.25</ele><time>2026-04-26T08:31:56.354Z</time></trkpt><trkpt lat="43.1124423" lon="12.5257928"><ele>211.5</ele><time>2026-04-26T08:31:58.355Z</time></trkpt><trkpt lat="43.1125281" lon="12.5258916"><ele>211.75</ele><time>2026-04-26T08:32:00.382Z</time></trkpt><trkpt lat="43.112571" lon="12.526037"><ele>212.0</ele><time>2026-04-26T08:32:02.374Z</time></trkpt><trkpt lat="43.112582" lon="12.5261923"><ele>212.5</ele><time>2026-04-26T08:32:04.4Z</time></trkpt><trkpt lat="43.1125802" lon="12.5263571"><ele>213.0</ele><time>2026-04-26T08:32:06.47Z</time></trkpt><trkpt lat="43.1125787" lon="12.526506"><ele>213.5</ele><time>2026-04-26T08:32:08.36Z</time></trkpt><trkpt lat="43.1125784" lon="12.5266617"><ele>214.0</ele><time>2026-04-26T08:32:10.356Z</time></trkpt><trkpt lat="43.1125756" lon="12.526817"><ele>214.0</ele><time>2026-04-26T08:32:12.348Z</time></trkpt><trkpt lat="43.1125765" lon="12.5269737"><ele>213.99999999999997</ele><time>2026-04-26T08:32:14.368Z</time></trkpt><trkpt lat="43.1125759" lon="12.5271293"><ele>213.99999999999997</ele><time>2026-04-26T08:32:16.395Z</time></trkpt><trkpt lat="43.1125734" lon="12.5272811"><ele>214.0</ele><time>2026-04-26T08:32:18.404Z</time></trkpt><trkpt lat="43.1125739" lon="12.5274286"><ele>214.0</ele><time>2026-04-26T08:32:20.377Z</time></trkpt><trkpt lat="43.1125722" lon="12.5275819"><ele>213.79999999999998</ele><time>2026-04-26T08:32:22.428Z</time></trkpt><trkpt lat="43.1125717" lon="12.5277252"><ele>213.59999999999997</ele><time>2026-04-26T08:32:24.379Z</time></trkpt><trkpt lat="43.1125681" lon="12.5278745"><ele>213.4</ele><time>2026-04-26T08:32:26.383Z</time></trkpt><trkpt lat="43.112566" lon="12.5280283"><ele>213.2</ele><time>2026-04-26T08:32:28.439Z</time></trkpt><trkpt lat="43.1125632" lon="12.5281774"><ele>213.0</ele><time>2026-04-26T08:32:30.421Z</time></trkpt><trkpt lat="43.1125614" lon="12.5283252"><ele>212.8</ele><time>2026-04-26T08:32:32.38Z</time></trkpt><trkpt lat="43.1125612" lon="12.5284721"><ele>212.60000000000002</ele><time>2026-04-26T08:32:34.352Z</time></trkpt><trkpt lat="43.1125593" lon="12.5286235"><ele>212.39999999999998</ele><time>2026-04-26T08:32:36.369Z</time></trkpt><trkpt lat="43.1125585" lon="12.5287761"><ele>212.2</ele><time>2026-04-26T08:32:38.368Z</time></trkpt><trkpt lat="43.1125556" lon="12.5289375"><ele>212.0</ele><time>2026-04-26T08:32:40.47Z</time></trkpt><trkpt lat="43.112555" lon="12.5290817"><ele>212.39999999999998</ele><time>2026-04-26T08:32:42.376Z</time></trkpt><trkpt lat="43.1125556" lon="12.529256"><ele>212.79999999999998</ele><time>2026-04-26T08:32:44.707Z</time></trkpt><trkpt lat="43.1125477" lon="12.5293852"><ele>213.2</ele><time>2026-04-26T08:32:46.409Z</time></trkpt><trkpt lat="43.1125499" lon="12.5295374"><ele>213.6</ele><time>2026-04-26T08:32:48.411Z</time></trkpt><trkpt lat="43.1125446" lon="12.5296863"><ele>214.0</ele><time>2026-04-26T08:32:50.373Z</time></trkpt><trkpt lat="43.1125442" lon="12.5298392"><ele>214.0</ele><time>2026-04-26T08:32:52.391Z</time></trkpt><trkpt lat="43.1125406" lon="12.5299925"><ele>213.99999999999997</ele><time>2026-04-26T08:32:54.395Z</time></trkpt><trkpt lat="43.1125374" lon="12.5301416"><ele>213.99999999999997</ele><time>2026-04-26T08:32:56.397Z</time></trkpt><trkpt lat="43.1125377" lon="12.5302926"><ele>214.0</ele><time>2026-04-26T08:32:58.432Z</time></trkpt><trkpt lat="43.1125375" lon="12.530435"><ele>214.0</ele><time>2026-04-26T08:33:00.353Z</time></trkpt><trkpt lat="43.1125327" lon="12.5305872"><ele>214.0</ele><time>2026-04-26T08:33:02.388Z</time></trkpt><trkpt lat="43.1125327" lon="12.5307352"><ele>213.99999999999997</ele><time>2026-04-26T08:33:04.353Z</time></trkpt><trkpt lat="43.1125291" lon="12.5308918"><ele>213.99999999999997</ele><time>2026-04-26T08:33:06.398Z</time></trkpt><trkpt lat="43.1125289" lon="12.5310395"><ele>214.0</ele><time>2026-04-26T08:33:08.372Z</time></trkpt><trkpt lat="43.1125249" lon="12.5311866"><ele>214.0</ele><time>2026-04-26T08:33:10.342Z</time></trkpt><trkpt lat="43.1125254" lon="12.5313401"><ele>214.0</ele><time>2026-04-26T08:33:12.411Z</time></trkpt><trkpt lat="43.1125192" lon="12.5314877"><ele>213.99999999999997</ele><time>2026-04-26T08:33:14.41Z</time></trkpt><trkpt lat="43.1125199" lon="12.5316342"><ele>213.99999999999997</ele><time>2026-04-26T08:33:16.359Z</time></trkpt><trkpt lat="43.112517" lon="12.5317879"><ele>214.0</ele><time>2026-04-26T08:33:18.365Z</time></trkpt><trkpt lat="43.1125147" lon="12.5319412"><ele>214.0</ele><time>2026-04-26T08:33:20.36Z</time></trkpt><trkpt lat="43.1125123" lon="12.532096"><ele>213.79999999999998</ele><time>2026-04-26T08:33:22.378Z</time></trkpt><trkpt lat="43.1125108" lon="12.5322597"><ele>213.59999999999997</ele><time>2026-04-26T08:33:24.498Z</time></trkpt><trkpt lat="43.1125099" lon="12.5324038"><ele>213.4</ele><time>2026-04-26T08:33:26.366Z</time></trkpt><trkpt lat="43.1125063" lon="12.532557"><ele>213.2</ele><time>2026-04-26T08:33:28.386Z</time></trkpt><trkpt lat="43.1125038" lon="12.5327078"><ele>213.0</ele><time>2026-04-26T08:33:30.387Z</time></trkpt><trkpt lat="43.1125048" lon="12.5328585"><ele>213.2</ele><time>2026-04-26T08:33:32.395Z</time></trkpt><trkpt lat="43.1125027" lon="12.5330079"><ele>213.4</ele><time>2026-04-26T08:33:34.395Z</time></trkpt><trkpt lat="43.1124993" lon="12.5331595"><ele>213.59999999999997</ele><time>2026-04-26T08:33:36.387Z</time></trkpt><trkpt lat="43.1125008" lon="12.5333126"><ele>213.79999999999998</ele><time>2026-04-26T08:33:38.401Z</time></trkpt><trkpt lat="43.1124982" lon="12.5334653"><ele>214.0</ele><time>2026-04-26T08:33:40.388Z</time></trkpt><trkpt lat="43.1124982" lon="12.5336153"><ele>214.39999999999998</ele><time>2026-04-26T08:33:42.375Z</time></trkpt><trkpt lat="43.1124922" lon="12.5337716"><ele>214.79999999999998</ele><time>2026-04-26T08:33:44.394Z</time></trkpt><trkpt lat="43.1124925" lon="12.5339244"><ele>215.20000000000002</ele><time>2026-04-26T08:33:46.378Z</time></trkpt><trkpt lat="43.112486" lon="12.5340783"><ele>215.60000000000002</ele><time>2026-04-26T08:33:48.402Z</time></trkpt><trkpt lat="43.112486" lon="12.5342299"><ele>216.0</ele><time>2026-04-26T08:33:50.401Z</time></trkpt><trkpt lat="43.1124764" lon="12.5343825"><ele>216.0</ele><time>2026-04-26T08:33:52.469Z</time></trkpt><trkpt lat="43.1124518" lon="12.5345219"><ele>216.00000000000003</ele><time>2026-04-26T08:33:54.398Z</time></trkpt><trkpt lat="43.1124147" lon="12.5346594"><ele>216.00000000000003</ele><time>2026-04-26T08:33:56.391Z</time></trkpt><trkpt lat="43.1123852" lon="12.5348026"><ele>216.0</ele><time>2026-04-26T08:33:58.395Z</time></trkpt><trkpt lat="43.1123596" lon="12.5349454"><ele>216.0</ele><time>2026-04-26T08:34:00.386Z</time></trkpt><trkpt lat="43.1123183" lon="12.5350885"><ele>215.8</ele><time>2026-04-26T08:34:02.408Z</time></trkpt><trkpt lat="43.1122358" lon="12.5351898"><ele>215.60000000000002</ele><time>2026-04-26T08:34:04.394Z</time></trkpt><trkpt lat="43.1121447" lon="12.5352743"><ele>215.4</ele><time>2026-04-26T08:34:06.379Z</time></trkpt><trkpt lat="43.1120497" lon="12.5353541"><ele>215.2</ele><time>2026-04-26T08:34:08.334Z</time></trkpt><trkpt lat="43.1119462" lon="12.5354266"><ele>215.0</ele><time>2026-04-26T08:34:10.373Z</time></trkpt><trkpt lat="43.111846" lon="12.5355001"><ele>215.0</ele><time>2026-04-26T08:34:12.376Z</time></trkpt><trkpt lat="43.1117407" lon="12.5355708"><ele>215.0</ele><time>2026-04-26T08:34:14.391Z</time></trkpt><trkpt lat="43.1116338" lon="12.5356366"><ele>215.0</ele><time>2026-04-26T08:34:16.406Z</time></trkpt><trkpt lat="43.1114791" lon="12.5357409"><ele>215.0</ele><time>2026-04-26T08:34:19.362Z</time></trkpt><trkpt lat="43.1113705" lon="12.5358059"><ele>215.25</ele><time>2026-04-26T08:34:21.349Z</time></trkpt><trkpt lat="43.1112617" lon="12.5358642"><ele>215.5</ele><time>2026-04-26T08:34:23.419Z</time></trkpt><trkpt lat="43.1111582" lon="12.5359114"><ele>215.75</ele><time>2026-04-26T08:34:25.354Z</time></trkpt><trkpt lat="43.1110479" lon="12.5359603"><ele>216.0</ele><time>2026-04-26T08:34:27.36Z</time></trkpt><trkpt lat="43.1109389" lon="12.5360087"><ele>216.0</ele><time>2026-04-26T08:34:29.383Z</time></trkpt><trkpt lat="43.1108288" lon="12.5360472"><ele>216.0</ele><time>2026-04-26T08:34:31.37Z</time></trkpt><trkpt lat="43.1107147" lon="12.5360886"><ele>216.0</ele><time>2026-04-26T08:34:33.348Z</time></trkpt><trkpt lat="43.1106008" lon="12.5361297"><ele>216.0</ele><time>2026-04-26T08:34:35.36Z</time></trkpt><trkpt lat="43.1104914" lon="12.5361687"><ele>216.4</ele><time>2026-04-26T08:34:37.384Z</time></trkpt><trkpt lat="43.1103674" lon="12.5362235"><ele>216.8</ele><time>2026-04-26T08:34:39.503Z</time></trkpt><trkpt lat="43.1102565" lon="12.5362566"><ele>217.20000000000002</ele><time>2026-04-26T08:34:41.394Z</time></trkpt><trkpt lat="43.1101931" lon="12.5362801"><ele>217.60000000000002</ele><time>2026-04-26T08:34:42.408Z</time></trkpt><trkpt lat="43.1100746" lon="12.5363332"><ele>218.0</ele><time>2026-04-26T08:34:44.371Z</time></trkpt><trkpt lat="43.1100128" lon="12.5363572"><ele>217.4</ele><time>2026-04-26T08:34:45.359Z</time></trkpt><trkpt lat="43.1098989" lon="12.5364064"><ele>216.8</ele><time>2026-04-26T08:34:47.355Z</time></trkpt><trkpt lat="43.1098349" lon="12.5364424"><ele>216.2</ele><time>2026-04-26T08:34:48.398Z</time></trkpt><trkpt lat="43.109718" lon="12.5364841"><ele>215.6</ele><time>2026-04-26T08:34:50.394Z</time></trkpt><trkpt lat="43.1095969" lon="12.5365209"><ele>215.0</ele><time>2026-04-26T08:34:52.368Z</time></trkpt><trkpt lat="43.1095358" lon="12.5365439"><ele>215.00000000000003</ele><time>2026-04-26T08:34:53.384Z</time></trkpt><trkpt lat="43.1094734" lon="12.5365636"><ele>215.0</ele><time>2026-04-26T08:34:54.374Z</time></trkpt><trkpt lat="43.1094094" lon="12.53658"><ele>215.0</ele><time>2026-04-26T08:34:55.387Z</time></trkpt><trkpt lat="43.1093457" lon="12.5365874"><ele>215.0</ele><time>2026-04-26T08:34:56.38Z</time></trkpt><trkpt lat="43.1092826" lon="12.5366007"><ele>215.00000000000003</ele><time>2026-04-26T08:34:57.385Z</time></trkpt><trkpt lat="43.1091586" lon="12.5366159"><ele>215.0</ele><time>2026-04-26T08:34:59.359Z</time></trkpt><trkpt lat="43.1090321" lon="12.5366203"><ele>215.0</ele><time>2026-04-26T08:35:01.373Z</time></trkpt><trkpt lat="43.1089055" lon="12.5366214"><ele>215.0</ele><time>2026-04-26T08:35:03.381Z</time></trkpt><trkpt lat="43.1088366" lon="12.5366181"><ele>215.0</ele><time>2026-04-26T08:35:04.471Z</time></trkpt><trkpt lat="43.1087184" lon="12.5366199"><ele>215.0</ele><time>2026-04-26T08:35:06.371Z</time></trkpt><trkpt lat="43.1086554" lon="12.5366158"><ele>215.0</ele><time>2026-04-26T08:35:07.38Z</time></trkpt><trkpt lat="43.1085323" lon="12.5366117"><ele>215.00000000000003</ele><time>2026-04-26T08:35:09.36Z</time></trkpt><trkpt lat="43.1084679" lon="12.5366118"><ele>215.0</ele><time>2026-04-26T08:35:10.384Z</time></trkpt><trkpt lat="43.1084041" lon="12.5366074"><ele>215.0</ele><time>2026-04-26T08:35:11.381Z</time></trkpt><trkpt lat="43.1082799" lon="12.5366032"><ele>215.0</ele><time>2026-04-26T08:35:13.35Z</time></trkpt><trkpt lat="43.1082066" lon="12.5365958"><ele>215.00000000000003</ele><time>2026-04-26T08:35:14.505Z</time></trkpt><trkpt lat="43.1080846" lon="12.5365881"><ele>215.0</ele><time>2026-04-26T08:35:16.387Z</time></trkpt><trkpt lat="43.1079559" lon="12.5365806"><ele>214.4</ele><time>2026-04-26T08:35:18.384Z</time></trkpt><trkpt lat="43.1078305" lon="12.5365705"><ele>213.8</ele><time>2026-04-26T08:35:20.374Z</time></trkpt><trkpt lat="43.1077647" lon="12.5365667"><ele>213.2</ele><time>2026-04-26T08:35:21.376Z</time></trkpt><trkpt lat="43.1076343" lon="12.536562"><ele>212.6</ele><time>2026-04-26T08:35:23.381Z</time></trkpt><trkpt lat="43.1075109" lon="12.5365547"><ele>212.0</ele><time>2026-04-26T08:35:25.359Z</time></trkpt><trkpt lat="43.1074315" lon="12.5365539"><ele>212.2</ele><time>2026-04-26T08:35:26.546Z</time></trkpt><trkpt lat="43.1073169" lon="12.5365427"><ele>212.39999999999998</ele><time>2026-04-26T08:35:28.372Z</time></trkpt><trkpt lat="43.1072539" lon="12.5365403"><ele>212.60000000000002</ele><time>2026-04-26T08:35:29.349Z</time></trkpt><trkpt lat="43.1071313" lon="12.5365333"><ele>212.8</ele><time>2026-04-26T08:35:31.359Z</time></trkpt><trkpt lat="43.1070547" lon="12.5365365"><ele>213.0</ele><time>2026-04-26T08:35:32.496Z</time></trkpt><trkpt lat="43.1069478" lon="12.5365301"><ele>213.0</ele><time>2026-04-26T08:35:34.369Z</time></trkpt><trkpt lat="43.106825" lon="12.5365245"><ele>213.0</ele><time>2026-04-26T08:35:36.382Z</time></trkpt><trkpt lat="43.1067608" lon="12.5365187"><ele>213.0</ele><time>2026-04-26T08:35:37.383Z</time></trkpt><trkpt lat="43.1066391" lon="12.5365118"><ele>213.0</ele><time>2026-04-26T08:35:39.346Z</time></trkpt><trkpt lat="43.1065172" lon="12.53649"><ele>213.0</ele><time>2026-04-26T08:35:41.473Z</time></trkpt><trkpt lat="43.1063972" lon="12.5364781"><ele>213.0</ele><time>2026-04-26T08:35:43.466Z</time></trkpt><trkpt lat="43.106278" lon="12.5364747"><ele>213.0</ele><time>2026-04-26T08:35:45.401Z</time></trkpt><trkpt lat="43.1061493" lon="12.5364878"><ele>213.0</ele><time>2026-04-26T08:35:47.373Z</time></trkpt><trkpt lat="43.1060256" lon="12.5364786"><ele>213.0</ele><time>2026-04-26T08:35:49.396Z</time></trkpt><trkpt lat="43.1059013" lon="12.5364748"><ele>213.0</ele><time>2026-04-26T08:35:51.398Z</time></trkpt><trkpt lat="43.1058267" lon="12.536478"><ele>213.0</ele><time>2026-04-26T08:35:52.472Z</time></trkpt><trkpt lat="43.1057089" lon="12.5364622"><ele>213.0</ele><time>2026-04-26T08:35:54.376Z</time></trkpt><trkpt lat="43.1056452" lon="12.5364602"><ele>213.0</ele><time>2026-04-26T08:35:55.453Z</time></trkpt><trkpt lat="43.1055755" lon="12.5364566"><ele>213.0</ele><time>2026-04-26T08:35:56.583Z</time></trkpt><trkpt lat="43.1054651" lon="12.5364574"><ele>213.0</ele><time>2026-04-26T08:35:58.392Z</time></trkpt><trkpt lat="43.1053465" lon="12.5364442"><ele>212.60000000000002</ele><time>2026-04-26T08:36:00.377Z</time></trkpt><trkpt lat="43.105223" lon="12.5364351"><ele>212.20000000000002</ele><time>2026-04-26T08:36:02.377Z</time></trkpt><trkpt lat="43.1050977" lon="12.5364229"><ele>211.8</ele><time>2026-04-26T08:36:04.386Z</time></trkpt><trkpt lat="43.1049737" lon="12.5364186"><ele>211.4</ele><time>2026-04-26T08:36:06.377Z</time></trkpt><trkpt lat="43.1049095" lon="12.5364174"><ele>211.0</ele><time>2026-04-26T08:36:07.386Z</time></trkpt><trkpt lat="43.1048423" lon="12.5364134"><ele>210.8</ele><time>2026-04-26T08:36:08.408Z</time></trkpt><trkpt lat="43.1047241" lon="12.5364178"><ele>210.60000000000002</ele><time>2026-04-26T08:36:10.384Z</time></trkpt><trkpt lat="43.1045998" lon="12.5364087"><ele>210.4</ele><time>2026-04-26T08:36:12.361Z</time></trkpt><trkpt lat="43.1045336" lon="12.5364053"><ele>210.2</ele><time>2026-04-26T08:36:13.346Z</time></trkpt><trkpt lat="43.1044672" lon="12.5364038"><ele>210.0</ele><time>2026-04-26T08:36:14.374Z</time></trkpt><trkpt lat="43.1043407" lon="12.5364055"><ele>210.0</ele><time>2026-04-26T08:36:16.344Z</time></trkpt><trkpt lat="43.1042742" lon="12.5364001"><ele>210.0</ele><time>2026-04-26T08:36:17.365Z</time></trkpt><trkpt lat="43.1041548" lon="12.5363838"><ele>210.0</ele><time>2026-04-26T08:36:19.348Z</time></trkpt><trkpt lat="43.1040887" lon="12.5363829"><ele>210.0</ele><time>2026-04-26T08:36:20.376Z</time></trkpt><trkpt lat="43.1039689" lon="12.5363854"><ele>210.0</ele><time>2026-04-26T08:36:22.351Z</time></trkpt><trkpt lat="43.1039012" lon="12.5363873"><ele>210.0</ele><time>2026-04-26T08:36:23.348Z</time></trkpt><trkpt lat="43.1038333" lon="12.5363762"><ele>210.16666666666666</ele><time>2026-04-26T08:36:24.405Z</time></trkpt><trkpt lat="43.103704" lon="12.5363572"><ele>210.33333333333331</ele><time>2026-04-26T08:36:26.344Z</time></trkpt><trkpt lat="43.1036379" lon="12.5363388"><ele>210.5</ele><time>2026-04-26T08:36:27.343Z</time></trkpt><trkpt lat="43.1035766" lon="12.536315"><ele>210.66666666666666</ele><time>2026-04-26T08:36:28.348Z</time></trkpt><trkpt lat="43.1034688" lon="12.5362649"><ele>210.83333333333331</ele><time>2026-04-26T08:36:30.353Z</time></trkpt><trkpt lat="43.1034053" lon="12.5362415"><ele>211.0</ele><time>2026-04-26T08:36:31.459Z</time></trkpt><trkpt lat="43.1033116" lon="12.5362181"><ele>211.0</ele><time>2026-04-26T08:36:33.338Z</time></trkpt><trkpt lat="43.1032225" lon="12.536168"><ele>211.0</ele><time>2026-04-26T08:36:35.327Z</time></trkpt><trkpt lat="43.1031367" lon="12.536152"><ele>211.0</ele><time>2026-04-26T08:36:37.364Z</time></trkpt><trkpt lat="43.1031059" lon="12.5362704"><ele>211.0</ele><time>2026-04-26T08:36:39.367Z</time></trkpt><trkpt lat="43.1030929" lon="12.5363886"><ele>211.0</ele><time>2026-04-26T08:36:41.388Z</time></trkpt><trkpt lat="43.103075" lon="12.53651"><ele>210.60000000000002</ele><time>2026-04-26T08:36:43.392Z</time></trkpt><trkpt lat="43.1030489" lon="12.5366242"><ele>210.2</ele><time>2026-04-26T08:36:45.367Z</time></trkpt><trkpt lat="43.1030257" lon="12.5367591"><ele>209.8</ele><time>2026-04-26T08:36:47.444Z</time></trkpt><trkpt lat="43.1029894" lon="12.5368763"><ele>209.39999999999998</ele><time>2026-04-26T08:36:49.362Z</time></trkpt><trkpt lat="43.1029509" lon="12.5370041"><ele>209.0</ele><time>2026-04-26T08:36:51.374Z</time></trkpt><trkpt lat="43.1029151" lon="12.537129"><ele>208.75</ele><time>2026-04-26T08:36:53.389Z</time></trkpt><trkpt lat="43.1028785" lon="12.5372504"><ele>208.5</ele><time>2026-04-26T08:36:55.38Z</time></trkpt><trkpt lat="43.102845" lon="12.5373731"><ele>208.25</ele><time>2026-04-26T08:36:57.366Z</time></trkpt><trkpt lat="43.1028132" lon="12.5375031"><ele>208.0</ele><time>2026-04-26T08:36:59.393Z</time></trkpt><trkpt lat="43.1027515" lon="12.5377037"><ele>207.99999999999997</ele><time>2026-04-26T08:37:02.377Z</time></trkpt><trkpt lat="43.1027084" lon="12.537857"><ele>208.0</ele><time>2026-04-26T08:37:04.374Z</time></trkpt><trkpt lat="43.1026825" lon="12.5379383"><ele>208.0</ele><time>2026-04-26T08:37:05.38Z</time></trkpt><trkpt lat="43.1026589" lon="12.5380225"><ele>208.0</ele><time>2026-04-26T08:37:06.383Z</time></trkpt><trkpt lat="43.1026333" lon="12.5381082"><ele>207.99999999999997</ele><time>2026-04-26T08:37:07.373Z</time></trkpt><trkpt lat="43.1026068" lon="12.5381926"><ele>208.0</ele><time>2026-04-26T08:37:08.339Z</time></trkpt><trkpt lat="43.1025816" lon="12.5382863"><ele>208.0</ele><time>2026-04-26T08:37:09.384Z</time></trkpt><trkpt lat="43.102553" lon="12.5383709"><ele>208.0</ele><time>2026-04-26T08:37:10.355Z</time></trkpt><trkpt lat="43.1025299" lon="12.538459"><ele>208.0</ele><time>2026-04-26T08:37:11.354Z</time></trkpt><trkpt lat="43.1025045" lon="12.538552"><ele>208.0</ele><time>2026-04-26T08:37:12.359Z</time></trkpt><trkpt lat="43.1024757" lon="12.5386453"><ele>208.0</ele><time>2026-04-26T08:37:13.395Z</time></trkpt><trkpt lat="43.1024521" lon="12.5387353"><ele>208.0</ele><time>2026-04-26T08:37:14.383Z</time></trkpt><trkpt lat="43.1024251" lon="12.5388234"><ele>208.0</ele><time>2026-04-26T08:37:15.361Z</time></trkpt><trkpt lat="43.1024008" lon="12.5389118"><ele>207.99999999999997</ele><time>2026-04-26T08:37:16.363Z</time></trkpt><trkpt lat="43.1023794" lon="12.5389991"><ele>208.0</ele><time>2026-04-26T08:37:17.359Z</time></trkpt><trkpt lat="43.102365" lon="12.5390933"><ele>208.0</ele><time>2026-04-26T08:37:18.389Z</time></trkpt><trkpt lat="43.1023521" lon="12.5391793"><ele>208.0</ele><time>2026-04-26T08:37:19.379Z</time></trkpt><trkpt lat="43.102343" lon="12.5392683"><ele>207.99999999999997</ele><time>2026-04-26T08:37:20.39Z</time></trkpt><trkpt lat="43.102331" lon="12.5393537"><ele>208.0</ele><time>2026-04-26T08:37:21.379Z</time></trkpt><trkpt lat="43.102317" lon="12.5395233"><ele>208.0</ele><time>2026-04-26T08:37:23.381Z</time></trkpt><trkpt lat="43.1023209" lon="12.5396899"><ele>208.0</ele><time>2026-04-26T08:37:25.365Z</time></trkpt><trkpt lat="43.1023383" lon="12.5398569"><ele>208.0</ele><time>2026-04-26T08:37:27.397Z</time></trkpt><trkpt lat="43.1023643" lon="12.540015"><ele>208.0</ele><time>2026-04-26T08:37:29.344Z</time></trkpt><trkpt lat="43.1023821" lon="12.5400999"><ele>208.0</ele><time>2026-04-26T08:37:30.381Z</time></trkpt><trkpt lat="43.1024204" lon="12.5402567"><ele>208.16666666666666</ele><time>2026-04-26T08:37:32.346Z</time></trkpt><trkpt lat="43.1024461" lon="12.5403392"><ele>208.33333333333331</ele><time>2026-04-26T08:37:33.405Z</time></trkpt><trkpt lat="43.1024977" lon="12.5404876"><ele>208.5</ele><time>2026-04-26T08:37:35.352Z</time></trkpt><trkpt lat="43.102534" lon="12.5405776"><ele>208.66666666666669</ele><time>2026-04-26T08:37:36.551Z</time></trkpt><trkpt lat="43.1025892" lon="12.540712"><ele>208.83333333333334</ele><time>2026-04-26T08:37:38.357Z</time></trkpt><trkpt lat="43.1026232" lon="12.5407874"><ele>209.0</ele><time>2026-04-26T08:37:39.378Z</time></trkpt><trkpt lat="43.1026574" lon="12.5408609"><ele>209.0</ele><time>2026-04-26T08:37:40.385Z</time></trkpt><trkpt lat="43.1027244" lon="12.5410078"><ele>209.0</ele><time>2026-04-26T08:37:42.37Z</time></trkpt><trkpt lat="43.1027576" lon="12.5410841"><ele>209.0</ele><time>2026-04-26T08:37:43.379Z</time></trkpt><trkpt lat="43.1027954" lon="12.541158"><ele>209.0</ele><time>2026-04-26T08:37:44.419Z</time></trkpt><trkpt lat="43.1028568" lon="12.5413042"><ele>209.0</ele><time>2026-04-26T08:37:46.391Z</time></trkpt><trkpt lat="43.1029189" lon="12.5414504"><ele>208.79999999999998</ele><time>2026-04-26T08:37:48.359Z</time></trkpt><trkpt lat="43.1029529" lon="12.5415241"><ele>208.6</ele><time>2026-04-26T08:37:49.396Z</time></trkpt><trkpt lat="43.1030169" lon="12.5416676"><ele>208.4</ele><time>2026-04-26T08:37:51.394Z</time></trkpt><trkpt lat="43.103085" lon="12.5418084"><ele>208.2</ele><time>2026-04-26T08:37:53.43Z</time></trkpt><trkpt lat="43.1031445" lon="12.5419502"><ele>208.0</ele><time>2026-04-26T08:37:55.402Z</time></trkpt><trkpt lat="43.1032037" lon="12.5420921"><ele>208.4</ele><time>2026-04-26T08:37:57.368Z</time></trkpt><trkpt lat="43.1032405" lon="12.5421637"><ele>208.8</ele><time>2026-04-26T08:37:58.405Z</time></trkpt><trkpt lat="43.1033024" lon="12.5423043"><ele>209.2</ele><time>2026-04-26T08:38:00.361Z</time></trkpt><trkpt lat="43.103363" lon="12.542446"><ele>209.6</ele><time>2026-04-26T08:38:02.397Z</time></trkpt><trkpt lat="43.1034216" lon="12.5425813"><ele>210.0</ele><time>2026-04-26T08:38:04.374Z</time></trkpt><trkpt lat="43.10348" lon="12.5427165"><ele>210.4</ele><time>2026-04-26T08:38:06.391Z</time></trkpt><trkpt lat="43.1035356" lon="12.5428448"><ele>210.8</ele><time>2026-04-26T08:38:08.359Z</time></trkpt><trkpt lat="43.1035986" lon="12.5429658"><ele>211.2</ele><time>2026-04-26T08:38:10.399Z</time></trkpt><trkpt lat="43.1036486" lon="12.5430895"><ele>211.6</ele><time>2026-04-26T08:38:12.394Z</time></trkpt><trkpt lat="43.1037047" lon="12.5432068"><ele>212.0</ele><time>2026-04-26T08:38:14.395Z</time></trkpt><trkpt lat="43.1037556" lon="12.5433304"><ele>212.0</ele><time>2026-04-26T08:38:16.403Z</time></trkpt><trkpt lat="43.1038039" lon="12.5434509"><ele>212.0</ele><time>2026-04-26T08:38:18.379Z</time></trkpt><trkpt lat="43.1038529" lon="12.5435771"><ele>212.0</ele><time>2026-04-26T08:38:20.383Z</time></trkpt><trkpt lat="43.1039089" lon="12.5437128"><ele>212.0</ele><time>2026-04-26T08:38:22.59Z</time></trkpt><trkpt lat="43.103959" lon="12.5438238"><ele>212.0</ele><time>2026-04-26T08:38:24.406Z</time></trkpt><trkpt lat="43.1040177" lon="12.5439475"><ele>212.0</ele><time>2026-04-26T08:38:26.387Z</time></trkpt><trkpt lat="43.1040731" lon="12.5440781"><ele>212.0</ele><time>2026-04-26T08:38:28.39Z</time></trkpt><trkpt lat="43.1041328" lon="12.5442056"><ele>212.0</ele><time>2026-04-26T08:38:30.391Z</time></trkpt><trkpt lat="43.1041878" lon="12.5443378"><ele>212.0</ele><time>2026-04-26T08:38:32.382Z</time></trkpt><trkpt lat="43.1042446" lon="12.5444678"><ele>212.0</ele><time>2026-04-26T08:38:34.386Z</time></trkpt><trkpt lat="43.1042988" lon="12.5445939"><ele>212.39999999999998</ele><time>2026-04-26T08:38:36.337Z</time></trkpt><trkpt lat="43.1043541" lon="12.5447196"><ele>212.79999999999998</ele><time>2026-04-26T08:38:38.344Z</time></trkpt><trkpt lat="43.1044099" lon="12.54484"><ele>213.2</ele><time>2026-04-26T08:38:40.376Z</time></trkpt><trkpt lat="43.1044636" lon="12.5449582"><ele>213.6</ele><time>2026-04-26T08:38:42.396Z</time></trkpt><trkpt lat="43.1045144" lon="12.5450717"><ele>214.0</ele><time>2026-04-26T08:38:44.375Z</time></trkpt><trkpt lat="43.1045617" lon="12.5451867"><ele>214.0</ele><time>2026-04-26T08:38:46.344Z</time></trkpt><trkpt lat="43.1046067" lon="12.5453091"><ele>213.99999999999997</ele><time>2026-04-26T08:38:48.395Z</time></trkpt><trkpt lat="43.1046382" lon="12.5454308"><ele>213.99999999999997</ele><time>2026-04-26T08:38:50.362Z</time></trkpt><trkpt lat="43.1046569" lon="12.5455522"><ele>214.0</ele><time>2026-04-26T08:38:52.36Z</time></trkpt><trkpt lat="43.1046693" lon="12.5456808"><ele>214.0</ele><time>2026-04-26T08:38:54.525Z</time></trkpt><trkpt lat="43.1046789" lon="12.54579"><ele>213.83333333333331</ele><time>2026-04-26T08:38:56.354Z</time></trkpt><trkpt lat="43.1046827" lon="12.5459129"><ele>213.66666666666666</ele><time>2026-04-26T08:38:58.388Z</time></trkpt><trkpt lat="43.1046768" lon="12.5460359"><ele>213.5</ele><time>2026-04-26T08:39:00.462Z</time></trkpt><trkpt lat="43.104664" lon="12.5461464"><ele>213.33333333333331</ele><time>2026-04-26T08:39:02.363Z</time></trkpt><trkpt lat="43.104647" lon="12.5462643"><ele>213.16666666666666</ele><time>2026-04-26T08:39:04.392Z</time></trkpt><trkpt lat="43.1046182" lon="12.5463789"><ele>213.0</ele><time>2026-04-26T08:39:06.378Z</time></trkpt><trkpt lat="43.1045829" lon="12.5464989"><ele>212.8</ele><time>2026-04-26T08:39:08.454Z</time></trkpt><trkpt lat="43.104541" lon="12.5466019"><ele>212.60000000000002</ele><time>2026-04-26T08:39:10.355Z</time></trkpt><trkpt lat="43.1044908" lon="12.5467073"><ele>212.39999999999998</ele><time>2026-04-26T08:39:12.364Z</time></trkpt><trkpt lat="43.1044308" lon="12.5468022"><ele>212.2</ele><time>2026-04-26T08:39:14.37Z</time></trkpt><trkpt lat="43.1043667" lon="12.5468989"><ele>212.0</ele><time>2026-04-26T08:39:16.453Z</time></trkpt><trkpt lat="43.1043034" lon="12.5469799"><ele>212.50000000000003</ele><time>2026-04-26T08:39:18.354Z</time></trkpt><trkpt lat="43.1042372" lon="12.5470642"><ele>213.0</ele><time>2026-04-26T08:39:20.37Z</time></trkpt><trkpt lat="43.1041741" lon="12.5471461"><ele>213.5</ele><time>2026-04-26T08:39:22.362Z</time></trkpt><trkpt lat="43.1041071" lon="12.5472264"><ele>214.0</ele><time>2026-04-26T08:39:24.378Z</time></trkpt><trkpt lat="43.104043" lon="12.5473022"><ele>214.50000000000003</ele><time>2026-04-26T08:39:26.392Z</time></trkpt><trkpt lat="43.1039818" lon="12.5473805"><ele>215.0</ele><time>2026-04-26T08:39:28.388Z</time></trkpt><trkpt lat="43.1039244" lon="12.547463"><ele>215.00000000000003</ele><time>2026-04-26T08:39:30.379Z</time></trkpt><trkpt lat="43.1038603" lon="12.5475415"><ele>215.0</ele><time>2026-04-26T08:39:32.378Z</time></trkpt><trkpt lat="43.1037964" lon="12.5476182"><ele>215.0</ele><time>2026-04-26T08:39:34.372Z</time></trkpt><trkpt lat="43.1037314" lon="12.5476854"><ele>215.0</ele><time>2026-04-26T08:39:36.356Z</time></trkpt><trkpt lat="43.1036734" lon="12.5477657"><ele>215.00000000000003</ele><time>2026-04-26T08:39:38.39Z</time></trkpt><trkpt lat="43.1036115" lon="12.5478368"><ele>215.0</ele><time>2026-04-26T08:39:40.367Z</time></trkpt><trkpt lat="43.1035526" lon="12.5479183"><ele>215.0</ele><time>2026-04-26T08:39:42.381Z</time></trkpt><trkpt lat="43.1034916" lon="12.5479958"><ele>215.0</ele><time>2026-04-26T08:39:44.376Z</time></trkpt><trkpt lat="43.1034346" lon="12.5480788"><ele>215.0</ele><time>2026-04-26T08:39:46.362Z</time></trkpt><trkpt lat="43.1033491" lon="12.5482092"><ele>215.0</ele><time>2026-04-26T08:39:49.39Z</time></trkpt><trkpt lat="43.1032951" lon="12.5482935"><ele>215.0</ele><time>2026-04-26T08:39:51.353Z</time></trkpt><trkpt lat="43.1032451" lon="12.5483799"><ele>215.00000000000003</ele><time>2026-04-26T08:39:53.381Z</time></trkpt><trkpt lat="43.1032" lon="12.548469"><ele>215.0</ele><time>2026-04-26T08:39:55.364Z</time></trkpt><trkpt lat="43.1031552" lon="12.5485566"><ele>215.0</ele><time>2026-04-26T08:39:57.377Z</time></trkpt><trkpt lat="43.1031151" lon="12.5486519"><ele>215.0</ele><time>2026-04-26T08:39:59.394Z</time></trkpt><trkpt lat="43.1030744" lon="12.54875"><ele>215.00000000000003</ele><time>2026-04-26T08:40:01.365Z</time></trkpt><trkpt lat="43.1030396" lon="12.548854"><ele>215.0</ele><time>2026-04-26T08:40:03.358Z</time></trkpt><trkpt lat="43.103005" lon="12.5489588"><ele>215.6</ele><time>2026-04-26T08:40:05.339Z</time></trkpt><trkpt lat="43.1029532" lon="12.5491136"><ele>216.2</ele><time>2026-04-26T08:40:08.366Z</time></trkpt><trkpt lat="43.102919" lon="12.5492184"><ele>216.8</ele><time>2026-04-26T08:40:10.362Z</time></trkpt><trkpt lat="43.1028839" lon="12.5493231"><ele>217.4</ele><time>2026-04-26T08:40:12.343Z</time></trkpt><trkpt lat="43.1028487" lon="12.549432"><ele>218.0</ele><time>2026-04-26T08:40:14.396Z</time></trkpt><trkpt lat="43.1028115" lon="12.5495413"><ele>218.60000000000002</ele><time>2026-04-26T08:40:16.391Z</time></trkpt><trkpt lat="43.1027754" lon="12.5496512"><ele>219.20000000000002</ele><time>2026-04-26T08:40:18.368Z</time></trkpt><trkpt lat="43.1027396" lon="12.5497644"><ele>219.8</ele><time>2026-04-26T08:40:20.35Z</time></trkpt><trkpt lat="43.102701" lon="12.5498768"><ele>220.4</ele><time>2026-04-26T08:40:22.344Z</time></trkpt><trkpt lat="43.1026571" lon="12.5499911"><ele>221.0</ele><time>2026-04-26T08:40:24.365Z</time></trkpt><trkpt lat="43.1026169" lon="12.5501091"><ele>221.0</ele><time>2026-04-26T08:40:26.348Z</time></trkpt><trkpt lat="43.1025728" lon="12.5502245"><ele>221.00000000000003</ele><time>2026-04-26T08:40:28.342Z</time></trkpt><trkpt lat="43.10253" lon="12.5503421"><ele>221.00000000000003</ele><time>2026-04-26T08:40:30.342Z</time></trkpt><trkpt lat="43.1024848" lon="12.5504619"><ele>221.0</ele><time>2026-04-26T08:40:32.361Z</time></trkpt><trkpt lat="43.1024396" lon="12.5505793"><ele>221.0</ele><time>2026-04-26T08:40:34.366Z</time></trkpt><trkpt lat="43.102396" lon="12.5506962"><ele>220.8</ele><time>2026-04-26T08:40:36.353Z</time></trkpt><trkpt lat="43.1023507" lon="12.5508147"><ele>220.60000000000002</ele><time>2026-04-26T08:40:38.336Z</time></trkpt><trkpt lat="43.1023022" lon="12.5509293"><ele>220.4</ele><time>2026-04-26T08:40:40.348Z</time></trkpt><trkpt lat="43.1022592" lon="12.5510442"><ele>220.2</ele><time>2026-04-26T08:40:42.38Z</time></trkpt><trkpt lat="43.1022131" lon="12.5511505"><ele>220.0</ele><time>2026-04-26T08:40:44.364Z</time></trkpt><trkpt lat="43.1021667" lon="12.5512654"><ele>219.6</ele><time>2026-04-26T08:40:46.461Z</time></trkpt><trkpt lat="43.1021222" lon="12.5513735"><ele>219.2</ele><time>2026-04-26T08:40:48.358Z</time></trkpt><trkpt lat="43.1020744" lon="12.5514893"><ele>218.8</ele><time>2026-04-26T08:40:50.392Z</time></trkpt><trkpt lat="43.1020065" lon="12.5516677"><ele>218.4</ele><time>2026-04-26T08:40:53.38Z</time></trkpt><trkpt lat="43.1019591" lon="12.551785"><ele>218.0</ele><time>2026-04-26T08:40:55.343Z</time></trkpt><trkpt lat="43.1019093" lon="12.551904"><ele>218.0</ele><time>2026-04-26T08:40:57.365Z</time></trkpt><trkpt lat="43.1018612" lon="12.5520221"><ele>218.0</ele><time>2026-04-26T08:40:59.349Z</time></trkpt><trkpt lat="43.1018115" lon="12.552143"><ele>218.0</ele><time>2026-04-26T08:41:01.364Z</time></trkpt><trkpt lat="43.1017598" lon="12.5522624"><ele>218.0</ele><time>2026-04-26T08:41:03.433Z</time></trkpt><trkpt lat="43.1017153" lon="12.5523764"><ele>218.0</ele><time>2026-04-26T08:41:05.358Z</time></trkpt><trkpt lat="43.1016664" lon="12.5524908"><ele>218.0</ele><time>2026-04-26T08:41:07.356Z</time></trkpt><trkpt lat="43.1016198" lon="12.55262"><ele>218.0</ele><time>2026-04-26T08:41:09.459Z</time></trkpt><trkpt lat="43.1015758" lon="12.5527331"><ele>218.0</ele><time>2026-04-26T08:41:11.343Z</time></trkpt><trkpt lat="43.1015038" lon="12.5529143"><ele>218.0</ele><time>2026-04-26T08:41:14.352Z</time></trkpt><trkpt lat="43.1014519" lon="12.5530444"><ele>218.0</ele><time>2026-04-26T08:41:16.483Z</time></trkpt><trkpt lat="43.1014056" lon="12.5531573"><ele>218.0</ele><time>2026-04-26T08:41:18.385Z</time></trkpt><trkpt lat="43.1013583" lon="12.5532753"><ele>218.0</ele><time>2026-04-26T08:41:20.347Z</time></trkpt><trkpt lat="43.1013079" lon="12.5533952"><ele>218.0</ele><time>2026-04-26T08:41:22.362Z</time></trkpt><trkpt lat="43.1012594" lon="12.553517"><ele>218.0</ele><time>2026-04-26T08:41:24.356Z</time></trkpt><trkpt lat="43.1012078" lon="12.5536335"><ele>219.0</ele><time>2026-04-26T08:41:26.353Z</time></trkpt><trkpt lat="43.1011559" lon="12.5537487"><ele>220.0</ele><time>2026-04-26T08:41:28.354Z</time></trkpt><trkpt lat="43.1011021" lon="12.553859"><ele>221.0</ele><time>2026-04-26T08:41:30.35Z</time></trkpt><trkpt lat="43.1010473" lon="12.5539713"><ele>222.0</ele><time>2026-04-26T08:41:32.387Z</time></trkpt><trkpt lat="43.1009928" lon="12.5540813"><ele>223.0</ele><time>2026-04-26T08:41:34.37Z</time></trkpt><trkpt lat="43.1009277" lon="12.5541812"><ele>223.0</ele><time>2026-04-26T08:41:36.364Z</time></trkpt><trkpt lat="43.1008661" lon="12.5542844"><ele>223.0</ele><time>2026-04-26T08:41:38.368Z</time></trkpt><trkpt lat="43.1008063" lon="12.5543927"><ele>223.0</ele><time>2026-04-26T08:41:40.349Z</time></trkpt><trkpt lat="43.1007499" lon="12.5545007"><ele>223.0</ele><time>2026-04-26T08:41:42.322Z</time></trkpt><trkpt lat="43.1006916" lon="12.5546122"><ele>223.0</ele><time>2026-04-26T08:41:44.385Z</time></trkpt><trkpt lat="43.1006378" lon="12.5547176"><ele>222.2</ele><time>2026-04-26T08:41:46.33Z</time></trkpt><trkpt lat="43.1005796" lon="12.5548242"><ele>221.4</ele><time>2026-04-26T08:41:48.336Z</time></trkpt><trkpt lat="43.1005194" lon="12.5549396"><ele>220.59999999999997</ele><time>2026-04-26T08:41:50.375Z</time></trkpt><trkpt lat="43.100462" lon="12.5550469"><ele>219.79999999999998</ele><time>2026-04-26T08:41:52.36Z</time></trkpt><trkpt lat="43.1004093" lon="12.5551491"><ele>219.0</ele><time>2026-04-26T08:41:54.355Z</time></trkpt><trkpt lat="43.1003586" lon="12.5552553"><ele>219.0</ele><time>2026-04-26T08:41:56.368Z</time></trkpt><trkpt lat="43.1003064" lon="12.5553543"><ele>218.99999999999997</ele><time>2026-04-26T08:41:58.383Z</time></trkpt><trkpt lat="43.1002349" lon="12.5555283"><ele>218.99999999999997</ele><time>2026-04-26T08:42:01.409Z</time></trkpt><trkpt lat="43.1001925" lon="12.555652"><ele>219.0</ele><time>2026-04-26T08:42:03.477Z</time></trkpt><trkpt lat="43.1001559" lon="12.5557745"><ele>219.0</ele><time>2026-04-26T08:42:05.384Z</time></trkpt><trkpt lat="43.1001173" lon="12.5559044"><ele>219.6</ele><time>2026-04-26T08:42:07.37Z</time></trkpt><trkpt lat="43.1000835" lon="12.5560434"><ele>220.2</ele><time>2026-04-26T08:42:09.418Z</time></trkpt><trkpt lat="43.1000528" lon="12.5561775"><ele>220.79999999999998</ele><time>2026-04-26T08:42:11.357Z</time></trkpt><trkpt lat="43.1000225" lon="12.5563181"><ele>221.39999999999998</ele><time>2026-04-26T08:42:13.345Z</time></trkpt><trkpt lat="43.100002" lon="12.5564582"><ele>222.0</ele><time>2026-04-26T08:42:15.362Z</time></trkpt><trkpt lat="43.0999731" lon="12.556591"><ele>222.0</ele><time>2026-04-26T08:42:17.342Z</time></trkpt><trkpt lat="43.0999404" lon="12.5567199"><ele>222.0</ele><time>2026-04-26T08:42:19.355Z</time></trkpt><trkpt lat="43.099913" lon="12.556855"><ele>222.0</ele><time>2026-04-26T08:42:21.374Z</time></trkpt><trkpt lat="43.0998882" lon="12.5569873"><ele>222.0</ele><time>2026-04-26T08:42:23.344Z</time></trkpt><trkpt lat="43.0998631" lon="12.5571208"><ele>222.0</ele><time>2026-04-26T08:42:25.341Z</time></trkpt><trkpt lat="43.0998313" lon="12.5572512"><ele>222.39999999999998</ele><time>2026-04-26T08:42:27.373Z</time></trkpt><trkpt lat="43.0998065" lon="12.5573816"><ele>222.79999999999998</ele><time>2026-04-26T08:42:29.353Z</time></trkpt><trkpt lat="43.099776" lon="12.5575146"><ele>223.2</ele><time>2026-04-26T08:42:31.392Z</time></trkpt><trkpt lat="43.0997456" lon="12.5576445"><ele>223.6</ele><time>2026-04-26T08:42:33.383Z</time></trkpt><trkpt lat="43.0997167" lon="12.5577717"><ele>224.0</ele><time>2026-04-26T08:42:35.352Z</time></trkpt><trkpt lat="43.0996856" lon="12.5578987"><ele>224.0</ele><time>2026-04-26T08:42:37.34Z</time></trkpt><trkpt lat="43.0996589" lon="12.5580342"><ele>223.99999999999997</ele><time>2026-04-26T08:42:39.358Z</time></trkpt><trkpt lat="43.0996265" lon="12.5581593"><ele>223.99999999999997</ele><time>2026-04-26T08:42:41.336Z</time></trkpt><trkpt lat="43.0995965" lon="12.5582919"><ele>224.0</ele><time>2026-04-26T08:42:43.44Z</time></trkpt><trkpt lat="43.0995645" lon="12.5584111"><ele>224.0</ele><time>2026-04-26T08:42:45.338Z</time></trkpt><trkpt lat="43.099538" lon="12.5585449"><ele>224.0</ele><time>2026-04-26T08:42:47.487Z</time></trkpt><trkpt lat="43.0995091" lon="12.5586684"><ele>223.99999999999997</ele><time>2026-04-26T08:42:49.348Z</time></trkpt><trkpt lat="43.0994786" lon="12.5587994"><ele>223.99999999999997</ele><time>2026-04-26T08:42:51.358Z</time></trkpt><trkpt lat="43.0994475" lon="12.5589325"><ele>224.0</ele><time>2026-04-26T08:42:53.365Z</time></trkpt><trkpt lat="43.0994171" lon="12.5590697"><ele>224.0</ele><time>2026-04-26T08:42:55.357Z</time></trkpt><trkpt lat="43.0993845" lon="12.5592011"><ele>224.0</ele><time>2026-04-26T08:42:57.345Z</time></trkpt><trkpt lat="43.0993558" lon="12.5593314"><ele>223.99999999999997</ele><time>2026-04-26T08:42:59.342Z</time></trkpt><trkpt lat="43.0993312" lon="12.5594616"><ele>223.99999999999997</ele><time>2026-04-26T08:43:01.338Z</time></trkpt><trkpt lat="43.0993069" lon="12.559598"><ele>224.0</ele><time>2026-04-26T08:43:03.36Z</time></trkpt><trkpt lat="43.0992782" lon="12.5597314"><ele>224.0</ele><time>2026-04-26T08:43:05.334Z</time></trkpt><trkpt lat="43.0992515" lon="12.5598644"><ele>225.0</ele><time>2026-04-26T08:43:07.327Z</time></trkpt><trkpt lat="43.099221" lon="12.5599972"><ele>225.99999999999997</ele><time>2026-04-26T08:43:09.359Z</time></trkpt><trkpt lat="43.099192" lon="12.5601447"><ele>226.99999999999997</ele><time>2026-04-26T08:43:11.484Z</time></trkpt><trkpt lat="43.0991638" lon="12.5602645"><ele>228.0</ele><time>2026-04-26T08:43:13.347Z</time></trkpt><trkpt lat="43.0991302" lon="12.5603945"><ele>229.0</ele><time>2026-04-26T08:43:15.338Z</time></trkpt><trkpt lat="43.0990988" lon="12.5605283"><ele>228.6</ele><time>2026-04-26T08:43:17.352Z</time></trkpt><trkpt lat="43.0990614" lon="12.5606571"><ele>228.2</ele><time>2026-04-26T08:43:19.333Z</time></trkpt><trkpt lat="43.0990171" lon="12.5607897"><ele>227.79999999999998</ele><time>2026-04-26T08:43:21.367Z</time></trkpt><trkpt lat="43.098971" lon="12.5609358"><ele>227.39999999999998</ele><time>2026-04-26T08:43:23.504Z</time></trkpt><trkpt lat="43.098923" lon="12.5610528"><ele>227.0</ele><time>2026-04-26T08:43:25.368Z</time></trkpt><trkpt lat="43.0988688" lon="12.5611759"><ele>227.2</ele><time>2026-04-26T08:43:27.361Z</time></trkpt><trkpt lat="43.0988129" lon="12.5612978"><ele>227.39999999999998</ele><time>2026-04-26T08:43:29.355Z</time></trkpt><trkpt lat="43.0987498" lon="12.5614102"><ele>227.60000000000002</ele><time>2026-04-26T08:43:31.339Z</time></trkpt><trkpt lat="43.0986905" lon="12.5615295"><ele>227.8</ele><time>2026-04-26T08:43:33.372Z</time></trkpt><trkpt lat="43.0986301" lon="12.5616436"><ele>228.0</ele><time>2026-04-26T08:43:35.384Z</time></trkpt><trkpt lat="43.0985788" lon="12.5617589"><ele>228.0</ele><time>2026-04-26T08:43:37.342Z</time></trkpt><trkpt lat="43.0985196" lon="12.5618848"><ele>228.0</ele><time>2026-04-26T08:43:39.47Z</time></trkpt><trkpt lat="43.0984675" lon="12.5619932"><ele>228.0</ele><time>2026-04-26T08:43:41.351Z</time></trkpt><trkpt lat="43.09841" lon="12.5621144"><ele>228.0</ele><time>2026-04-26T08:43:43.374Z</time></trkpt><trkpt lat="43.0983534" lon="12.5622306"><ele>228.0</ele><time>2026-04-26T08:43:45.346Z</time></trkpt><trkpt lat="43.0982935" lon="12.5623489"><ele>227.8</ele><time>2026-04-26T08:43:47.318Z</time></trkpt><trkpt lat="43.098235" lon="12.5624694"><ele>227.60000000000002</ele><time>2026-04-26T08:43:49.343Z</time></trkpt><trkpt lat="43.0981749" lon="12.5625895"><ele>227.39999999999998</ele><time>2026-04-26T08:43:51.327Z</time></trkpt><trkpt lat="43.0981027" lon="12.5627048"><ele>227.2</ele><time>2026-04-26T08:43:53.342Z</time></trkpt><trkpt lat="43.0980449" lon="12.5628274"><ele>227.0</ele><time>2026-04-26T08:43:55.352Z</time></trkpt><trkpt lat="43.0979857" lon="12.5629453"><ele>227.8</ele><time>2026-04-26T08:43:57.357Z</time></trkpt><trkpt lat="43.0979183" lon="12.5630769"><ele>228.6</ele><time>2026-04-26T08:43:59.486Z</time></trkpt><trkpt lat="43.0978589" lon="12.5631896"><ele>229.40000000000003</ele><time>2026-04-26T08:44:01.37Z</time></trkpt><trkpt lat="43.0977985" lon="12.5633072"><ele>230.20000000000002</ele><time>2026-04-26T08:44:03.371Z</time></trkpt><trkpt lat="43.0977417" lon="12.5634183"><ele>231.0</ele><time>2026-04-26T08:44:05.361Z</time></trkpt><trkpt lat="43.0976841" lon="12.5635205"><ele>231.0</ele><time>2026-04-26T08:44:07.337Z</time></trkpt><trkpt lat="43.0976262" lon="12.5636191"><ele>231.0</ele><time>2026-04-26T08:44:09.346Z</time></trkpt><trkpt lat="43.0975667" lon="12.5637179"><ele>231.0</ele><time>2026-04-26T08:44:11.351Z</time></trkpt><trkpt lat="43.0975136" lon="12.5638117"><ele>231.0</ele><time>2026-04-26T08:44:13.377Z</time></trkpt><trkpt lat="43.0974624" lon="12.5639059"><ele>231.0</ele><time>2026-04-26T08:44:15.367Z</time></trkpt><trkpt lat="43.097415" lon="12.5639815"><ele>231.0</ele><time>2026-04-26T08:44:17.358Z</time></trkpt><trkpt lat="43.0973683" lon="12.5640526"><ele>231.42857142857144</ele><time>2026-04-26T08:44:19.341Z</time></trkpt><trkpt lat="43.0973171" lon="12.5641254"><ele>231.85714285714286</ele><time>2026-04-26T08:44:21.383Z</time></trkpt><trkpt lat="43.0972692" lon="12.5642037"><ele>232.28571428571428</ele><time>2026-04-26T08:44:23.406Z</time></trkpt><trkpt lat="43.0972226" lon="12.5642794"><ele>232.71428571428572</ele><time>2026-04-26T08:44:25.367Z</time></trkpt><trkpt lat="43.0971776" lon="12.5643541"><ele>233.14285714285717</ele><time>2026-04-26T08:44:27.368Z</time></trkpt><trkpt lat="43.0971221" lon="12.5644207"><ele>233.57142857142858</ele><time>2026-04-26T08:44:29.392Z</time></trkpt><trkpt lat="43.0970773" lon="12.5644949"><ele>234.0</ele><time>2026-04-26T08:44:31.341Z</time></trkpt><trkpt lat="43.097026" lon="12.564566"><ele>234.5</ele><time>2026-04-26T08:44:33.361Z</time></trkpt><trkpt lat="43.0969684" lon="12.5646288"><ele>235.0</ele><time>2026-04-26T08:44:35.352Z</time></trkpt><trkpt lat="43.0969205" lon="12.564705"><ele>235.5</ele><time>2026-04-26T08:44:37.359Z</time></trkpt><trkpt lat="43.0968739" lon="12.5647834"><ele>236.0</ele><time>2026-04-26T08:44:39.398Z</time></trkpt><trkpt lat="43.0968253" lon="12.5648654"><ele>236.5</ele><time>2026-04-26T08:44:41.358Z</time></trkpt><trkpt lat="43.0967762" lon="12.5649487"><ele>237.0</ele><time>2026-04-26T08:44:43.361Z</time></trkpt><trkpt lat="43.096733" lon="12.5650396"><ele>237.0</ele><time>2026-04-26T08:44:45.373Z</time></trkpt><trkpt lat="43.096683" lon="12.5651228"><ele>237.0</ele><time>2026-04-26T08:44:47.353Z</time></trkpt><trkpt lat="43.0966338" lon="12.565207"><ele>237.0</ele><time>2026-04-26T08:44:49.379Z</time></trkpt><trkpt lat="43.0965798" lon="12.5652809"><ele>237.0</ele><time>2026-04-26T08:44:51.342Z</time></trkpt><trkpt lat="43.0965282" lon="12.5653605"><ele>237.0</ele><time>2026-04-26T08:44:53.347Z</time></trkpt><trkpt lat="43.0964728" lon="12.5654393"><ele>237.0</ele><time>2026-04-26T08:44:55.416Z</time></trkpt><trkpt lat="43.0964204" lon="12.5655134"><ele>236.66666666666666</ele><time>2026-04-26T08:44:57.361Z</time></trkpt><trkpt lat="43.0963672" lon="12.565598"><ele>236.33333333333331</ele><time>2026-04-26T08:44:59.348Z</time></trkpt><trkpt lat="43.0963059" lon="12.5656896"><ele>236.0</ele><time>2026-04-26T08:45:01.404Z</time></trkpt><trkpt lat="43.0962614" lon="12.5657948"><ele>235.66666666666666</ele><time>2026-04-26T08:45:03.346Z</time></trkpt><trkpt lat="43.0962035" lon="12.5658966"><ele>235.33333333333331</ele><time>2026-04-26T08:45:05.348Z</time></trkpt><trkpt lat="43.0961449" lon="12.5659946"><ele>235.0</ele><time>2026-04-26T08:45:07.361Z</time></trkpt><trkpt lat="43.0960677" lon="12.5660786"><ele>235.0</ele><time>2026-04-26T08:45:09.368Z</time></trkpt><trkpt lat="43.0959797" lon="12.5661417"><ele>235.0</ele><time>2026-04-26T08:45:11.329Z</time></trkpt><trkpt lat="43.095885" lon="12.5662177"><ele>235.0</ele><time>2026-04-26T08:45:13.346Z</time></trkpt><trkpt lat="43.0957838" lon="12.5662975"><ele>235.0</ele><time>2026-04-26T08:45:15.491Z</time></trkpt><trkpt lat="43.0956941" lon="12.5663679"><ele>235.0</ele><time>2026-04-26T08:45:17.341Z</time></trkpt><trkpt lat="43.0955915" lon="12.5664377"><ele>234.6</ele><time>2026-04-26T08:45:19.348Z</time></trkpt><trkpt lat="43.0954943" lon="12.566486"><ele>234.2</ele><time>2026-04-26T08:45:21.358Z</time></trkpt><trkpt lat="43.0954023" lon="12.5665641"><ele>233.8</ele><time>2026-04-26T08:45:23.351Z</time></trkpt><trkpt lat="43.0953048" lon="12.5666277"><ele>233.4</ele><time>2026-04-26T08:45:25.379Z</time></trkpt><trkpt lat="43.0952193" lon="12.5667015"><ele>233.0</ele><time>2026-04-26T08:45:27.388Z</time></trkpt><trkpt lat="43.0951375" lon="12.5667828"><ele>233.0</ele><time>2026-04-26T08:45:29.351Z</time></trkpt><trkpt lat="43.0950497" lon="12.566862"><ele>233.0</ele><time>2026-04-26T08:45:31.348Z</time></trkpt><trkpt lat="43.0949629" lon="12.5669454"><ele>233.0</ele><time>2026-04-26T08:45:33.364Z</time></trkpt><trkpt lat="43.0948817" lon="12.5670263"><ele>233.0</ele><time>2026-04-26T08:45:35.351Z</time></trkpt><trkpt lat="43.0948" lon="12.567111"><ele>233.0</ele><time>2026-04-26T08:45:37.342Z</time></trkpt><trkpt lat="43.0947178" lon="12.5671921"><ele>232.60000000000002</ele><time>2026-04-26T08:45:39.356Z</time></trkpt><trkpt lat="43.0946392" lon="12.5672677"><ele>232.20000000000002</ele><time>2026-04-26T08:45:41.36Z</time></trkpt><trkpt lat="43.0945617" lon="12.5673502"><ele>231.8</ele><time>2026-04-26T08:45:43.344Z</time></trkpt><trkpt lat="43.0944825" lon="12.5674357"><ele>231.4</ele><time>2026-04-26T08:45:45.384Z</time></trkpt><trkpt lat="43.0944162" lon="12.5675317"><ele>231.0</ele><time>2026-04-26T08:45:47.387Z</time></trkpt><trkpt lat="43.0943428" lon="12.5676281"><ele>231.0</ele><time>2026-04-26T08:45:49.446Z</time></trkpt><trkpt lat="43.0942723" lon="12.5677175"><ele>231.00000000000003</ele><time>2026-04-26T08:45:51.367Z</time></trkpt><trkpt lat="43.0942038" lon="12.567818"><ele>231.00000000000003</ele><time>2026-04-26T08:45:53.342Z</time></trkpt><trkpt lat="43.0941381" lon="12.5679243"><ele>231.0</ele><time>2026-04-26T08:45:55.372Z</time></trkpt><trkpt lat="43.0940765" lon="12.5680342"><ele>231.0</ele><time>2026-04-26T08:45:57.362Z</time></trkpt><trkpt lat="43.0940136" lon="12.5681472"><ele>231.0</ele><time>2026-04-26T08:45:59.368Z</time></trkpt><trkpt lat="43.0939457" lon="12.56826"><ele>231.00000000000003</ele><time>2026-04-26T08:46:01.359Z</time></trkpt><trkpt lat="43.0938773" lon="12.5683794"><ele>231.00000000000003</ele><time>2026-04-26T08:46:03.466Z</time></trkpt><trkpt lat="43.093808" lon="12.5684782"><ele>231.0</ele><time>2026-04-26T08:46:05.351Z</time></trkpt><trkpt lat="43.0937496" lon="12.5685919"><ele>231.0</ele><time>2026-04-26T08:46:07.343Z</time></trkpt><trkpt lat="43.0936821" lon="12.5687018"><ele>231.0</ele><time>2026-04-26T08:46:09.361Z</time></trkpt><trkpt lat="43.0936203" lon="12.568821"><ele>231.00000000000003</ele><time>2026-04-26T08:46:11.361Z</time></trkpt><trkpt lat="43.0935537" lon="12.5689372"><ele>231.00000000000003</ele><time>2026-04-26T08:46:13.388Z</time></trkpt><trkpt lat="43.0934912" lon="12.5690579"><ele>231.0</ele><time>2026-04-26T08:46:15.355Z</time></trkpt><trkpt lat="43.0934301" lon="12.5691799"><ele>231.0</ele><time>2026-04-26T08:46:17.343Z</time></trkpt><trkpt lat="43.0933614" lon="12.5692965"><ele>231.0</ele><time>2026-04-26T08:46:19.382Z</time></trkpt><trkpt lat="43.0932936" lon="12.5694199"><ele>231.0</ele><time>2026-04-26T08:46:21.398Z</time></trkpt><trkpt lat="43.093219" lon="12.5695342"><ele>231.0</ele><time>2026-04-26T08:46:23.393Z</time></trkpt><trkpt lat="43.0931366" lon="12.5696455"><ele>231.0</ele><time>2026-04-26T08:46:25.355Z</time></trkpt><trkpt lat="43.0930489" lon="12.5697571"><ele>230.5</ele><time>2026-04-26T08:46:27.343Z</time></trkpt><trkpt lat="43.0929586" lon="12.5698729"><ele>230.0</ele><time>2026-04-26T08:46:29.398Z</time></trkpt><trkpt lat="43.0928639" lon="12.5699823"><ele>229.5</ele><time>2026-04-26T08:46:31.393Z</time></trkpt><trkpt lat="43.0927801" lon="12.5700934"><ele>229.0</ele><time>2026-04-26T08:46:33.369Z</time></trkpt><trkpt lat="43.0926914" lon="12.5701927"><ele>229.0</ele><time>2026-04-26T08:46:35.356Z</time></trkpt><trkpt lat="43.0926019" lon="12.5702953"><ele>228.99999999999997</ele><time>2026-04-26T08:46:37.367Z</time></trkpt><trkpt lat="43.0925213" lon="12.5703967"><ele>228.99999999999997</ele><time>2026-04-26T08:46:39.352Z</time></trkpt><trkpt lat="43.0924426" lon="12.5704876"><ele>229.0</ele><time>2026-04-26T08:46:41.363Z</time></trkpt><trkpt lat="43.0923638" lon="12.5705675"><ele>229.0</ele><time>2026-04-26T08:46:43.366Z</time></trkpt><trkpt lat="43.0922861" lon="12.5706392"><ele>229.39999999999998</ele><time>2026-04-26T08:46:45.347Z</time></trkpt><trkpt lat="43.0922056" lon="12.5707127"><ele>229.79999999999998</ele><time>2026-04-26T08:46:47.357Z</time></trkpt><trkpt lat="43.0921209" lon="12.5707906"><ele>230.20000000000002</ele><time>2026-04-26T08:46:49.389Z</time></trkpt><trkpt lat="43.0920358" lon="12.5708646"><ele>230.60000000000002</ele><time>2026-04-26T08:46:51.355Z</time></trkpt><trkpt lat="43.0919495" lon="12.5709427"><ele>231.0</ele><time>2026-04-26T08:46:53.368Z</time></trkpt><trkpt lat="43.0918612" lon="12.5710179"><ele>231.0</ele><time>2026-04-26T08:46:55.386Z</time></trkpt><trkpt lat="43.0917786" lon="12.5710957"><ele>231.00000000000003</ele><time>2026-04-26T08:46:57.392Z</time></trkpt><trkpt lat="43.0916971" lon="12.5711729"><ele>231.00000000000003</ele><time>2026-04-26T08:46:59.452Z</time></trkpt><trkpt lat="43.0916165" lon="12.5712392"><ele>231.0</ele><time>2026-04-26T08:47:01.358Z</time></trkpt><trkpt lat="43.0915358" lon="12.571315"><ele>231.0</ele><time>2026-04-26T08:47:03.335Z</time></trkpt><trkpt lat="43.0914518" lon="12.5713889"><ele>231.20000000000002</ele><time>2026-04-26T08:47:05.358Z</time></trkpt><trkpt lat="43.0913673" lon="12.5714605"><ele>231.40000000000003</ele><time>2026-04-26T08:47:07.354Z</time></trkpt><trkpt lat="43.0912851" lon="12.5715326"><ele>231.6</ele><time>2026-04-26T08:47:09.391Z</time></trkpt><trkpt lat="43.0912084" lon="12.5716124"><ele>231.8</ele><time>2026-04-26T08:47:11.371Z</time></trkpt><trkpt lat="43.0911268" lon="12.5716816"><ele>232.0</ele><time>2026-04-26T08:47:13.359Z</time></trkpt><trkpt lat="43.0910476" lon="12.5717528"><ele>232.0</ele><time>2026-04-26T08:47:15.356Z</time></trkpt><trkpt lat="43.0909695" lon="12.5718239"><ele>232.0</ele><time>2026-04-26T08:47:17.352Z</time></trkpt><trkpt lat="43.0908866" lon="12.5719056"><ele>232.0</ele><time>2026-04-26T08:47:19.447Z</time></trkpt><trkpt lat="43.0908176" lon="12.5719749"><ele>232.0</ele><time>2026-04-26T08:47:21.362Z</time></trkpt><trkpt lat="43.0907421" lon="12.5720531"><ele>232.0</ele><time>2026-04-26T08:47:23.33Z</time></trkpt><trkpt lat="43.0906656" lon="12.5721391"><ele>231.5</ele><time>2026-04-26T08:47:25.361Z</time></trkpt><trkpt lat="43.0905895" lon="12.5722266"><ele>231.0</ele><time>2026-04-26T08:47:27.354Z</time></trkpt><trkpt lat="43.0905113" lon="12.5723206"><ele>230.5</ele><time>2026-04-26T08:47:29.372Z</time></trkpt><trkpt lat="43.0904051" lon="12.5724625"><ele>230.0</ele><time>2026-04-26T08:47:32.366Z</time></trkpt><trkpt lat="43.090329" lon="12.5725656"><ele>230.0</ele><time>2026-04-26T08:47:34.467Z</time></trkpt><trkpt lat="43.0902608" lon="12.5726572"><ele>230.0</ele><time>2026-04-26T08:47:36.374Z</time></trkpt><trkpt lat="43.0901888" lon="12.5727537"><ele>230.0</ele><time>2026-04-26T08:47:38.359Z</time></trkpt><trkpt lat="43.0901166" lon="12.5728545"><ele>230.0</ele><time>2026-04-26T08:47:40.384Z</time></trkpt><trkpt lat="43.0900028" lon="12.5730016"><ele>230.4</ele><time>2026-04-26T08:47:43.388Z</time></trkpt><trkpt lat="43.0899253" lon="12.5730963"><ele>230.8</ele><time>2026-04-26T08:47:45.364Z</time></trkpt><trkpt lat="43.0898528" lon="12.5731924"><ele>231.2</ele><time>2026-04-26T08:47:47.372Z</time></trkpt><trkpt lat="43.0897815" lon="12.5732878"><ele>231.6</ele><time>2026-04-26T08:47:49.352Z</time></trkpt><trkpt lat="43.0897105" lon="12.5733944"><ele>232.0</ele><time>2026-04-26T08:47:51.453Z</time></trkpt><trkpt lat="43.089644" lon="12.5734894"><ele>232.0</ele><time>2026-04-26T08:47:53.352Z</time></trkpt><trkpt lat="43.0895734" lon="12.5735797"><ele>232.0</ele><time>2026-04-26T08:47:55.355Z</time></trkpt><trkpt lat="43.0895031" lon="12.5736782"><ele>232.0</ele><time>2026-04-26T08:47:57.36Z</time></trkpt><trkpt lat="43.0894317" lon="12.5737682"><ele>232.0</ele><time>2026-04-26T08:47:59.317Z</time></trkpt><trkpt lat="43.0893431" lon="12.5738525"><ele>232.0</ele><time>2026-04-26T08:48:01.439Z</time></trkpt><trkpt lat="43.0892708" lon="12.5739407"><ele>232.39999999999998</ele><time>2026-04-26T08:48:03.382Z</time></trkpt><trkpt lat="43.0891936" lon="12.5740237"><ele>232.79999999999998</ele><time>2026-04-26T08:48:05.373Z</time></trkpt><trkpt lat="43.0891215" lon="12.5741114"><ele>233.2</ele><time>2026-04-26T08:48:07.359Z</time></trkpt><trkpt lat="43.0890462" lon="12.5741877"><ele>233.6</ele><time>2026-04-26T08:48:09.361Z</time></trkpt><trkpt lat="43.0889605" lon="12.5742491"><ele>234.0</ele><time>2026-04-26T08:48:11.355Z</time></trkpt><trkpt lat="43.0888708" lon="12.5743156"><ele>234.0</ele><time>2026-04-26T08:48:13.342Z</time></trkpt><trkpt lat="43.0887753" lon="12.5743745"><ele>233.99999999999997</ele><time>2026-04-26T08:48:15.367Z</time></trkpt><trkpt lat="43.0886827" lon="12.5744337"><ele>233.99999999999997</ele><time>2026-04-26T08:48:17.329Z</time></trkpt><trkpt lat="43.0885844" lon="12.5744872"><ele>234.0</ele><time>2026-04-26T08:48:19.358Z</time></trkpt><trkpt lat="43.0884867" lon="12.574544"><ele>234.0</ele><time>2026-04-26T08:48:21.354Z</time></trkpt><trkpt lat="43.088389" lon="12.5746025"><ele>234.39999999999998</ele><time>2026-04-26T08:48:23.354Z</time></trkpt><trkpt lat="43.0882945" lon="12.5746552"><ele>234.79999999999998</ele><time>2026-04-26T08:48:25.357Z</time></trkpt><trkpt lat="43.088199" lon="12.5747099"><ele>235.20000000000002</ele><time>2026-04-26T08:48:27.357Z</time></trkpt><trkpt lat="43.0881019" lon="12.5747692"><ele>235.60000000000002</ele><time>2026-04-26T08:48:29.378Z</time></trkpt><trkpt lat="43.0880095" lon="12.5748236"><ele>236.0</ele><time>2026-04-26T08:48:31.342Z</time></trkpt><trkpt lat="43.0879144" lon="12.5748773"><ele>236.0</ele><time>2026-04-26T08:48:33.368Z</time></trkpt><trkpt lat="43.0878226" lon="12.5749334"><ele>236.00000000000003</ele><time>2026-04-26T08:48:35.348Z</time></trkpt><trkpt lat="43.087726" lon="12.5749864"><ele>236.00000000000003</ele><time>2026-04-26T08:48:37.368Z</time></trkpt><trkpt lat="43.0876326" lon="12.57504"><ele>236.0</ele><time>2026-04-26T08:48:39.38Z</time></trkpt><trkpt lat="43.0875413" lon="12.5750879"><ele>236.0</ele><time>2026-04-26T08:48:41.334Z</time></trkpt><trkpt lat="43.0874464" lon="12.5751415"><ele>236.0</ele><time>2026-04-26T08:48:43.346Z</time></trkpt><trkpt lat="43.0873469" lon="12.575203"><ele>236.00000000000003</ele><time>2026-04-26T08:48:45.37Z</time></trkpt><trkpt lat="43.0872507" lon="12.5752586"><ele>236.00000000000003</ele><time>2026-04-26T08:48:47.36Z</time></trkpt><trkpt lat="43.0871548" lon="12.5753157"><ele>236.0</ele><time>2026-04-26T08:48:49.365Z</time></trkpt><trkpt lat="43.0870528" lon="12.5753709"><ele>236.0</ele><time>2026-04-26T08:48:51.37Z</time></trkpt><trkpt lat="43.0869489" lon="12.5754321"><ele>236.0</ele><time>2026-04-26T08:48:53.374Z</time></trkpt><trkpt lat="43.0868456" lon="12.5754853"><ele>236.00000000000003</ele><time>2026-04-26T08:48:55.354Z</time></trkpt><trkpt lat="43.0867473" lon="12.575545"><ele>236.00000000000003</ele><time>2026-04-26T08:48:57.37Z</time></trkpt><trkpt lat="43.0866506" lon="12.5756054"><ele>236.0</ele><time>2026-04-26T08:48:59.356Z</time></trkpt><trkpt lat="43.0865466" lon="12.5756664"><ele>236.0</ele><time>2026-04-26T08:49:01.401Z</time></trkpt><trkpt lat="43.0864414" lon="12.5757177"><ele>235.25</ele><time>2026-04-26T08:49:03.361Z</time></trkpt><trkpt lat="43.0863333" lon="12.5757732"><ele>234.5</ele><time>2026-04-26T08:49:05.365Z</time></trkpt><trkpt lat="43.0862211" lon="12.5758229"><ele>233.75</ele><time>2026-04-26T08:49:07.364Z</time></trkpt><trkpt lat="43.0861054" lon="12.5758724"><ele>233.0</ele><time>2026-04-26T08:49:09.401Z</time></trkpt><trkpt lat="43.0859873" lon="12.5759215"><ele>233.0</ele><time>2026-04-26T08:49:11.37Z</time></trkpt><trkpt lat="43.0858713" lon="12.5759682"><ele>233.0</ele><time>2026-04-26T08:49:13.375Z</time></trkpt><trkpt lat="43.0857569" lon="12.5760114"><ele>233.0</ele><time>2026-04-26T08:49:15.359Z</time></trkpt><trkpt lat="43.0856964" lon="12.5760366"><ele>233.0</ele><time>2026-04-26T08:49:16.376Z</time></trkpt><trkpt lat="43.085578" lon="12.5760848"><ele>233.0</ele><time>2026-04-26T08:49:18.372Z</time></trkpt><trkpt lat="43.0855178" lon="12.5761105"><ele>233.0</ele><time>2026-04-26T08:49:19.386Z</time></trkpt><trkpt lat="43.0854013" lon="12.5761581"><ele>233.0</ele><time>2026-04-26T08:49:21.362Z</time></trkpt><trkpt lat="43.0853409" lon="12.5761867"><ele>233.0</ele><time>2026-04-26T08:49:22.395Z</time></trkpt><trkpt lat="43.0852266" lon="12.5762331"><ele>233.0</ele><time>2026-04-26T08:49:24.351Z</time></trkpt><trkpt lat="43.0851076" lon="12.5762812"><ele>233.0</ele><time>2026-04-26T08:49:26.38Z</time></trkpt><trkpt lat="43.0849931" lon="12.5763266"><ele>232.5</ele><time>2026-04-26T08:49:28.359Z</time></trkpt><trkpt lat="43.0848794" lon="12.5763742"><ele>232.0</ele><time>2026-04-26T08:49:30.37Z</time></trkpt><trkpt lat="43.0847667" lon="12.5764295"><ele>231.5</ele><time>2026-04-26T08:49:32.397Z</time></trkpt><trkpt lat="43.08466" lon="12.5764912"><ele>231.0</ele><time>2026-04-26T08:49:34.401Z</time></trkpt><trkpt lat="43.0845558" lon="12.5765649"><ele>231.0</ele><time>2026-04-26T08:49:36.389Z</time></trkpt><trkpt lat="43.0844601" lon="12.5766512"><ele>231.0</ele><time>2026-04-26T08:49:38.376Z</time></trkpt><trkpt lat="43.0843627" lon="12.5767396"><ele>231.0</ele><time>2026-04-26T08:49:40.4Z</time></trkpt><trkpt lat="43.0842642" lon="12.5768311"><ele>231.0</ele><time>2026-04-26T08:49:42.371Z</time></trkpt><trkpt lat="43.0841605" lon="12.5769313"><ele>231.25</ele><time>2026-04-26T08:49:44.504Z</time></trkpt><trkpt lat="43.0840657" lon="12.5770156"><ele>231.5</ele><time>2026-04-26T08:49:46.391Z</time></trkpt><trkpt lat="43.0839632" lon="12.5771149"><ele>231.75</ele><time>2026-04-26T08:49:48.41Z</time></trkpt><trkpt lat="43.0838615" lon="12.5772056"><ele>232.0</ele><time>2026-04-26T08:49:50.396Z</time></trkpt><trkpt lat="43.0837616" lon="12.5773016"><ele>232.0</ele><time>2026-04-26T08:49:52.376Z</time></trkpt><trkpt lat="43.0836643" lon="12.5774036"><ele>232.0</ele><time>2026-04-26T08:49:54.372Z</time></trkpt><trkpt lat="43.0835604" lon="12.577496"><ele>232.0</ele><time>2026-04-26T08:49:56.403Z</time></trkpt><trkpt lat="43.0834584" lon="12.5775929"><ele>232.0</ele><time>2026-04-26T08:49:58.395Z</time></trkpt><trkpt lat="43.0833604" lon="12.5776895"><ele>231.39999999999998</ele><time>2026-04-26T08:50:00.37Z</time></trkpt><trkpt lat="43.0832581" lon="12.5777822"><ele>230.79999999999998</ele><time>2026-04-26T08:50:02.37Z</time></trkpt><trkpt lat="43.0831588" lon="12.5778723"><ele>230.2</ele><time>2026-04-26T08:50:04.382Z</time></trkpt><trkpt lat="43.0831012" lon="12.5779173"><ele>229.6</ele><time>2026-04-26T08:50:05.495Z</time></trkpt><trkpt lat="43.083008" lon="12.5780047"><ele>229.0</ele><time>2026-04-26T08:50:07.362Z</time></trkpt><trkpt lat="43.0829082" lon="12.5780982"><ele>229.0</ele><time>2026-04-26T08:50:09.386Z</time></trkpt><trkpt lat="43.0828105" lon="12.5781898"><ele>228.99999999999997</ele><time>2026-04-26T08:50:11.366Z</time></trkpt><trkpt lat="43.0827558" lon="12.5782377"><ele>228.99999999999997</ele><time>2026-04-26T08:50:12.441Z</time></trkpt><trkpt lat="43.0826579" lon="12.5783237"><ele>229.0</ele><time>2026-04-26T08:50:14.367Z</time></trkpt><trkpt lat="43.0825619" lon="12.5784245"><ele>229.0</ele><time>2026-04-26T08:50:16.374Z</time></trkpt><trkpt lat="43.0824699" lon="12.5785271"><ele>228.6</ele><time>2026-04-26T08:50:18.353Z</time></trkpt><trkpt lat="43.0823891" lon="12.5786401"><ele>228.2</ele><time>2026-04-26T08:50:20.358Z</time></trkpt><trkpt lat="43.0823281" lon="12.5787711"><ele>227.79999999999998</ele><time>2026-04-26T08:50:22.402Z</time></trkpt><trkpt lat="43.0822816" lon="12.5789038"><ele>227.39999999999998</ele><time>2026-04-26T08:50:24.401Z</time></trkpt><trkpt lat="43.0822412" lon="12.5790352"><ele>227.0</ele><time>2026-04-26T08:50:26.36Z</time></trkpt><trkpt lat="43.0822091" lon="12.5791717"><ele>227.0</ele><time>2026-04-26T08:50:28.394Z</time></trkpt><trkpt lat="43.0821845" lon="12.5793091"><ele>227.0</ele><time>2026-04-26T08:50:30.391Z</time></trkpt><trkpt lat="43.0821611" lon="12.5794505"><ele>227.0</ele><time>2026-04-26T08:50:32.474Z</time></trkpt><trkpt lat="43.0821288" lon="12.5796581"><ele>227.0</ele><time>2026-04-26T08:50:35.392Z</time></trkpt><trkpt lat="43.0821063" lon="12.579799"><ele>227.8</ele><time>2026-04-26T08:50:37.392Z</time></trkpt><trkpt lat="43.0820874" lon="12.5799364"><ele>228.6</ele><time>2026-04-26T08:50:39.392Z</time></trkpt><trkpt lat="43.0820659" lon="12.5800701"><ele>229.40000000000003</ele><time>2026-04-26T08:50:41.396Z</time></trkpt><trkpt lat="43.0820444" lon="12.580203"><ele>230.20000000000002</ele><time>2026-04-26T08:50:43.383Z</time></trkpt><trkpt lat="43.0820238" lon="12.580334"><ele>231.0</ele><time>2026-04-26T08:50:45.359Z</time></trkpt><trkpt lat="43.0820056" lon="12.5804601"><ele>231.16666666666666</ele><time>2026-04-26T08:50:47.301Z</time></trkpt><trkpt lat="43.081992" lon="12.5805913"><ele>231.33333333333331</ele><time>2026-04-26T08:50:49.466Z</time></trkpt><trkpt lat="43.0819697" lon="12.5807041"><ele>231.5</ele><time>2026-04-26T08:50:51.41Z</time></trkpt><trkpt lat="43.0819542" lon="12.5808188"><ele>231.66666666666666</ele><time>2026-04-26T08:50:53.388Z</time></trkpt><trkpt lat="43.081939" lon="12.5809336"><ele>231.83333333333331</ele><time>2026-04-26T08:50:55.409Z</time></trkpt><trkpt lat="43.0819227" lon="12.5810421"><ele>232.0</ele><time>2026-04-26T08:50:57.4Z</time></trkpt><trkpt lat="43.081906" lon="12.5811479"><ele>232.33333333333331</ele><time>2026-04-26T08:50:59.402Z</time></trkpt><trkpt lat="43.0818849" lon="12.5812511"><ele>232.66666666666666</ele><time>2026-04-26T08:51:01.373Z</time></trkpt><trkpt lat="43.0818712" lon="12.5813623"><ele>233.0</ele><time>2026-04-26T08:51:03.392Z</time></trkpt><trkpt lat="43.0818511" lon="12.5814698"><ele>233.33333333333331</ele><time>2026-04-26T08:51:05.394Z</time></trkpt><trkpt lat="43.0818352" lon="12.5815818"><ele>233.66666666666666</ele><time>2026-04-26T08:51:07.391Z</time></trkpt><trkpt lat="43.0818187" lon="12.5816944"><ele>234.0</ele><time>2026-04-26T08:51:09.37Z</time></trkpt><trkpt lat="43.0817977" lon="12.5818052"><ele>234.0</ele><time>2026-04-26T08:51:11.373Z</time></trkpt><trkpt lat="43.0817727" lon="12.5819164"><ele>234.0</ele><time>2026-04-26T08:51:13.373Z</time></trkpt><trkpt lat="43.0817472" lon="12.5820257"><ele>234.0</ele><time>2026-04-26T08:51:15.41Z</time></trkpt><trkpt lat="43.0817152" lon="12.5821345"><ele>234.0</ele><time>2026-04-26T08:51:17.403Z</time></trkpt><trkpt lat="43.0816816" lon="12.5822333"><ele>234.0</ele><time>2026-04-26T08:51:19.37Z</time></trkpt><trkpt lat="43.0816411" lon="12.5823246"><ele>234.0</ele><time>2026-04-26T08:51:21.394Z</time></trkpt><trkpt lat="43.0816056" lon="12.5824193"><ele>234.33333333333334</ele><time>2026-04-26T08:51:23.382Z</time></trkpt><trkpt lat="43.0815653" lon="12.5825152"><ele>234.66666666666669</ele><time>2026-04-26T08:51:25.396Z</time></trkpt><trkpt lat="43.0815255" lon="12.5826132"><ele>235.0</ele><time>2026-04-26T08:51:27.425Z</time></trkpt><trkpt lat="43.0814872" lon="12.5827037"><ele>235.33333333333334</ele><time>2026-04-26T08:51:29.4Z</time></trkpt><trkpt lat="43.0814457" lon="12.5827946"><ele>235.66666666666669</ele><time>2026-04-26T08:51:31.397Z</time></trkpt><trkpt lat="43.0814087" lon="12.5828856"><ele>236.0</ele><time>2026-04-26T08:51:33.36Z</time></trkpt><trkpt lat="43.0813567" lon="12.5830269"><ele>236.00000000000003</ele><time>2026-04-26T08:51:36.362Z</time></trkpt><trkpt lat="43.0813166" lon="12.5831157"><ele>236.0</ele><time>2026-04-26T08:51:38.396Z</time></trkpt><trkpt lat="43.081281" lon="12.5832082"><ele>236.0</ele><time>2026-04-26T08:51:40.416Z</time></trkpt><trkpt lat="43.0812227" lon="12.583348"><ele>236.0</ele><time>2026-04-26T08:51:43.375Z</time></trkpt><trkpt lat="43.0811845" lon="12.5834392"><ele>236.00000000000003</ele><time>2026-04-26T08:51:45.362Z</time></trkpt><trkpt lat="43.0811451" lon="12.5835276"><ele>236.0</ele><time>2026-04-26T08:51:47.358Z</time></trkpt><trkpt lat="43.081108" lon="12.583615"><ele>236.66666666666669</ele><time>2026-04-26T08:51:49.37Z</time></trkpt><trkpt lat="43.0810556" lon="12.5837329"><ele>237.33333333333334</ele><time>2026-04-26T08:51:52.372Z</time></trkpt><trkpt lat="43.0810096" lon="12.5838436"><ele>238.0</ele><time>2026-04-26T08:51:55.388Z</time></trkpt><trkpt lat="43.0809735" lon="12.5839214"><ele>238.66666666666669</ele><time>2026-04-26T08:51:57.39Z</time></trkpt><trkpt lat="43.0809415" lon="12.5839992"><ele>239.33333333333334</ele><time>2026-04-26T08:51:59.383Z</time></trkpt><trkpt lat="43.080906" lon="12.5840724"><ele>240.0</ele><time>2026-04-26T08:52:01.474Z</time></trkpt><trkpt lat="43.0808583" lon="12.5841808"><ele>240.0</ele><time>2026-04-26T08:52:04.5Z</time></trkpt><trkpt lat="43.0808133" lon="12.5842921"><ele>240.0</ele><time>2026-04-26T08:52:07.37Z</time></trkpt><trkpt lat="43.0807812" lon="12.5843669"><ele>240.0</ele><time>2026-04-26T08:52:09.363Z</time></trkpt><trkpt lat="43.0807368" lon="12.5844786"><ele>240.0</ele><time>2026-04-26T08:52:12.383Z</time></trkpt><trkpt lat="43.080696" lon="12.5845854"><ele>240.0</ele><time>2026-04-26T08:52:15.372Z</time></trkpt><trkpt lat="43.0806572" lon="12.5846837"><ele>240.0</ele><time>2026-04-26T08:52:18.363Z</time></trkpt><trkpt lat="43.0806166" lon="12.5847881"><ele>240.2</ele><time>2026-04-26T08:52:21.386Z</time></trkpt><trkpt lat="43.0805551" lon="12.5849179"><ele>240.4</ele><time>2026-04-26T08:52:25.376Z</time></trkpt><trkpt lat="43.0805106" lon="12.5850263"><ele>240.60000000000002</ele><time>2026-04-26T08:52:28.372Z</time></trkpt><trkpt lat="43.0804673" lon="12.5851333"><ele>240.8</ele><time>2026-04-26T08:52:31.378Z</time></trkpt><trkpt lat="43.0804227" lon="12.5852327"><ele>241.0</ele><time>2026-04-26T08:52:34.369Z</time></trkpt><trkpt lat="43.080376" lon="12.5853394"><ele>241.83333333333331</ele><time>2026-04-26T08:52:37.503Z</time></trkpt><trkpt lat="43.0803334" lon="12.5854399"><ele>242.66666666666666</ele><time>2026-04-26T08:52:40.377Z</time></trkpt><trkpt lat="43.0802944" lon="12.5855408"><ele>243.5</ele><time>2026-04-26T08:52:43.376Z</time></trkpt><trkpt lat="43.0802467" lon="12.5856475"><ele>244.33333333333331</ele><time>2026-04-26T08:52:46.376Z</time></trkpt><trkpt lat="43.0802191" lon="12.5857286"><ele>245.16666666666666</ele><time>2026-04-26T08:52:48.374Z</time></trkpt><trkpt lat="43.0801832" lon="12.5858061"><ele>246.0</ele><time>2026-04-26T08:52:50.491Z</time></trkpt><trkpt lat="43.0801241" lon="12.5859491"><ele>246.0</ele><time>2026-04-26T08:52:54.362Z</time></trkpt><trkpt lat="43.0800913" lon="12.586024"><ele>246.0</ele><time>2026-04-26T08:52:56.368Z</time></trkpt><trkpt lat="43.0800499" lon="12.5861307"><ele>246.0</ele><time>2026-04-26T08:52:59.343Z</time></trkpt><trkpt lat="43.0800019" lon="12.5862394"><ele>246.0</ele><time>2026-04-26T08:53:02.381Z</time></trkpt><trkpt lat="43.0799578" lon="12.5863497"><ele>246.0</ele><time>2026-04-26T08:53:05.365Z</time></trkpt><trkpt lat="43.0799257" lon="12.5864245"><ele>246.0</ele><time>2026-04-26T08:53:07.42Z</time></trkpt><trkpt lat="43.0798801" lon="12.5865307"><ele>247.0</ele><time>2026-04-26T08:53:10.398Z</time></trkpt><trkpt lat="43.0798355" lon="12.586647"><ele>248.0</ele><time>2026-04-26T08:53:13.367Z</time></trkpt><trkpt lat="43.0797891" lon="12.586751"><ele>249.0</ele><time>2026-04-26T08:53:16.366Z</time></trkpt><trkpt lat="43.0797596" lon="12.5868274"><ele>250.0</ele><time>2026-04-26T08:53:18.386Z</time></trkpt><trkpt lat="43.0797275" lon="12.5869035"><ele>251.0</ele><time>2026-04-26T08:53:20.374Z</time></trkpt><trkpt lat="43.0796801" lon="12.5870119"><ele>252.0</ele><time>2026-04-26T08:53:23.408Z</time></trkpt><trkpt lat="43.0796393" lon="12.5871004"><ele>252.5</ele><time>2026-04-26T08:53:26.387Z</time></trkpt><trkpt lat="43.0796013" lon="12.5871951"><ele>253.0</ele><time>2026-04-26T08:53:29.409Z</time></trkpt><trkpt lat="43.0795616" lon="12.5872893"><ele>253.5</ele><time>2026-04-26T08:53:32.377Z</time></trkpt><trkpt lat="43.0795179" lon="12.5873873"><ele>254.0</ele><time>2026-04-26T08:53:35.372Z</time></trkpt><trkpt lat="43.0794746" lon="12.5874925"><ele>254.5</ele><time>2026-04-26T08:53:38.398Z</time></trkpt><trkpt lat="43.0794273" lon="12.587597"><ele>255.0</ele><time>2026-04-26T08:53:41.484Z</time></trkpt><trkpt lat="43.0793877" lon="12.5876955"><ele>255.0</ele><time>2026-04-26T08:53:44.408Z</time></trkpt><trkpt lat="43.0793462" lon="12.587797"><ele>255.0</ele><time>2026-04-26T08:53:47.371Z</time></trkpt><trkpt lat="43.0793034" lon="12.5878983"><ele>255.0</ele><time>2026-04-26T08:53:50.388Z</time></trkpt><trkpt lat="43.079247" lon="12.5880334"><ele>255.0</ele><time>2026-04-26T08:53:54.4Z</time></trkpt><trkpt lat="43.0792024" lon="12.5881315"><ele>255.0</ele><time>2026-04-26T08:53:57.38Z</time></trkpt><trkpt lat="43.0791584" lon="12.5882272"><ele>254.83333333333334</ele><time>2026-04-26T08:54:00.428Z</time></trkpt><trkpt lat="43.0791121" lon="12.5883179"><ele>254.66666666666669</ele><time>2026-04-26T08:54:03.395Z</time></trkpt><trkpt lat="43.0790673" lon="12.5884145"><ele>254.5</ele><time>2026-04-26T08:54:06.374Z</time></trkpt><trkpt lat="43.0790199" lon="12.5885102"><ele>254.33333333333334</ele><time>2026-04-26T08:54:09.355Z</time></trkpt><trkpt lat="43.0789722" lon="12.5886056"><ele>254.16666666666669</ele><time>2026-04-26T08:54:12.396Z</time></trkpt><trkpt lat="43.0789275" lon="12.588698"><ele>254.0</ele><time>2026-04-26T08:54:15.374Z</time></trkpt><trkpt lat="43.0788806" lon="12.5887934"><ele>254.0</ele><time>2026-04-26T08:54:18.374Z</time></trkpt><trkpt lat="43.0788381" lon="12.5888846"><ele>254.0</ele><time>2026-04-26T08:54:21.362Z</time></trkpt><trkpt lat="43.0787956" lon="12.5889699"><ele>254.0</ele><time>2026-04-26T08:54:24.388Z</time></trkpt><trkpt lat="43.0787486" lon="12.5890508"><ele>254.0</ele><time>2026-04-26T08:54:27.392Z</time></trkpt><trkpt lat="43.0787143" lon="12.5891241"><ele>254.0</ele><time>2026-04-26T08:54:30.406Z</time></trkpt><trkpt lat="43.078678" lon="12.5891992"><ele>254.0</ele><time>2026-04-26T08:54:33.402Z</time></trkpt><trkpt lat="43.0786392" lon="12.5892691"><ele>254.0</ele><time>2026-04-26T08:54:36.379Z</time></trkpt><trkpt lat="43.0786077" lon="12.5893517"><ele>254.00000000000003</ele><time>2026-04-26T08:54:39.389Z</time></trkpt><trkpt lat="43.0785677" lon="12.5894475"><ele>254.0</ele><time>2026-04-26T08:54:42.405Z</time></trkpt><trkpt lat="43.0785279" lon="12.5895214"><ele>254.0</ele><time>2026-04-26T08:54:44.397Z</time></trkpt><trkpt lat="43.0784907" lon="12.5896144"><ele>254.0</ele><time>2026-04-26T08:54:46.389Z</time></trkpt><trkpt lat="43.0784491" lon="12.5897153"><ele>254.00000000000003</ele><time>2026-04-26T08:54:48.366Z</time></trkpt><trkpt lat="43.0784072" lon="12.5898323"><ele>254.0</ele><time>2026-04-26T08:54:50.379Z</time></trkpt><trkpt lat="43.0783623" lon="12.5899542"><ele>254.0</ele><time>2026-04-26T08:54:52.387Z</time></trkpt><trkpt lat="43.0783269" lon="12.5900836"><ele>253.99999999999997</ele><time>2026-04-26T08:54:54.384Z</time></trkpt><trkpt lat="43.0782891" lon="12.5902128"><ele>253.99999999999997</ele><time>2026-04-26T08:54:56.379Z</time></trkpt><trkpt lat="43.0782441" lon="12.590342"><ele>254.0</ele><time>2026-04-26T08:54:58.369Z</time></trkpt><trkpt lat="43.0782197" lon="12.5904796"><ele>254.0</ele><time>2026-04-26T08:55:00.368Z</time></trkpt><trkpt lat="43.0781959" lon="12.5906228"><ele>254.0</ele><time>2026-04-26T08:55:02.365Z</time></trkpt><trkpt lat="43.0781657" lon="12.5907705"><ele>254.0</ele><time>2026-04-26T08:55:04.37Z</time></trkpt><trkpt lat="43.0781366" lon="12.59092"><ele>254.0</ele><time>2026-04-26T08:55:06.397Z</time></trkpt><trkpt lat="43.0781187" lon="12.5910761"><ele>254.0</ele><time>2026-04-26T08:55:08.393Z</time></trkpt><trkpt lat="43.0781035" lon="12.5912342"><ele>253.5</ele><time>2026-04-26T08:55:10.409Z</time></trkpt><trkpt lat="43.0781007" lon="12.5913872"><ele>253.0</ele><time>2026-04-26T08:55:12.389Z</time></trkpt><trkpt lat="43.0780939" lon="12.5915671"><ele>252.5</ele><time>2026-04-26T08:55:14.622Z</time></trkpt><trkpt lat="43.0780949" lon="12.591711"><ele>252.0</ele><time>2026-04-26T08:55:16.374Z</time></trkpt><trkpt lat="43.0781056" lon="12.5918778"><ele>251.5</ele><time>2026-04-26T08:55:18.381Z</time></trkpt><trkpt lat="43.0781178" lon="12.5920365"><ele>251.0</ele><time>2026-04-26T08:55:20.357Z</time></trkpt><trkpt lat="43.078112" lon="12.5922001"><ele>250.5</ele><time>2026-04-26T08:55:22.377Z</time></trkpt><trkpt lat="43.0781178" lon="12.5923645"><ele>250.0</ele><time>2026-04-26T08:55:24.401Z</time></trkpt><trkpt lat="43.0781192" lon="12.5925241"><ele>250.0</ele><time>2026-04-26T08:55:26.365Z</time></trkpt><trkpt lat="43.0781157" lon="12.5926887"><ele>250.0</ele><time>2026-04-26T08:55:28.395Z</time></trkpt><trkpt lat="43.0781231" lon="12.5928551"><ele>250.0</ele><time>2026-04-26T08:55:30.401Z</time></trkpt><trkpt lat="43.078129" lon="12.5930214"><ele>250.0</ele><time>2026-04-26T08:55:32.395Z</time></trkpt><trkpt lat="43.0781288" lon="12.5931869"><ele>249.8</ele><time>2026-04-26T08:55:34.398Z</time></trkpt><trkpt lat="43.0781352" lon="12.5933534"><ele>249.6</ele><time>2026-04-26T08:55:36.394Z</time></trkpt><trkpt lat="43.0781432" lon="12.5935193"><ele>249.39999999999998</ele><time>2026-04-26T08:55:38.406Z</time></trkpt><trkpt lat="43.0781433" lon="12.5936063"><ele>249.2</ele><time>2026-04-26T08:55:39.413Z</time></trkpt><trkpt lat="43.0781458" lon="12.5937738"><ele>249.0</ele><time>2026-04-26T08:55:41.41Z</time></trkpt><trkpt lat="43.0781405" lon="12.5939405"><ele>248.79999999999998</ele><time>2026-04-26T08:55:43.397Z</time></trkpt><trkpt lat="43.0781314" lon="12.5940985"><ele>248.59999999999997</ele><time>2026-04-26T08:55:45.368Z</time></trkpt><trkpt lat="43.0781138" lon="12.5942565"><ele>248.4</ele><time>2026-04-26T08:55:47.432Z</time></trkpt><trkpt lat="43.0780971" lon="12.5944023"><ele>248.2</ele><time>2026-04-26T08:55:49.411Z</time></trkpt><trkpt lat="43.0780719" lon="12.5945306"><ele>248.0</ele><time>2026-04-26T08:55:51.408Z</time></trkpt><trkpt lat="43.0780507" lon="12.594658"><ele>248.0</ele><time>2026-04-26T08:55:53.394Z</time></trkpt><trkpt lat="43.0780266" lon="12.5947802"><ele>248.0</ele><time>2026-04-26T08:55:55.399Z</time></trkpt><trkpt lat="43.0779948" lon="12.5948989"><ele>248.0</ele><time>2026-04-26T08:55:57.427Z</time></trkpt><trkpt lat="43.0779648" lon="12.5950171"><ele>248.0</ele><time>2026-04-26T08:55:59.395Z</time></trkpt><trkpt lat="43.0779307" lon="12.5951414"><ele>248.0</ele><time>2026-04-26T08:56:01.495Z</time></trkpt><trkpt lat="43.077899" lon="12.5952557"><ele>248.4</ele><time>2026-04-26T08:56:03.403Z</time></trkpt><trkpt lat="43.0778586" lon="12.5953717"><ele>248.8</ele><time>2026-04-26T08:56:05.385Z</time></trkpt><trkpt lat="43.0778148" lon="12.5954913"><ele>249.2</ele><time>2026-04-26T08:56:07.41Z</time></trkpt><trkpt lat="43.0777695" lon="12.5956035"><ele>249.6</ele><time>2026-04-26T08:56:09.38Z</time></trkpt><trkpt lat="43.0777237" lon="12.5957181"><ele>250.0</ele><time>2026-04-26T08:56:11.413Z</time></trkpt><trkpt lat="43.077672" lon="12.5958383"><ele>250.0</ele><time>2026-04-26T08:56:13.602Z</time></trkpt><trkpt lat="43.0776284" lon="12.595933"><ele>250.0</ele><time>2026-04-26T08:56:15.378Z</time></trkpt><trkpt lat="43.0775804" lon="12.596044"><ele>250.0</ele><time>2026-04-26T08:56:17.376Z</time></trkpt><trkpt lat="43.0775356" lon="12.5961537"><ele>250.0</ele><time>2026-04-26T08:56:19.399Z</time></trkpt><trkpt lat="43.0774884" lon="12.596262"><ele>250.0</ele><time>2026-04-26T08:56:21.388Z</time></trkpt><trkpt lat="43.0774415" lon="12.5963733"><ele>250.2</ele><time>2026-04-26T08:56:23.403Z</time></trkpt><trkpt lat="43.0773956" lon="12.5964787"><ele>250.4</ele><time>2026-04-26T08:56:25.385Z</time></trkpt><trkpt lat="43.0773486" lon="12.5965836"><ele>250.60000000000002</ele><time>2026-04-26T08:56:27.363Z</time></trkpt><trkpt lat="43.0773024" lon="12.596695"><ele>250.8</ele><time>2026-04-26T08:56:29.391Z</time></trkpt><trkpt lat="43.0772574" lon="12.5968022"><ele>251.0</ele><time>2026-04-26T08:56:31.42Z</time></trkpt><trkpt lat="43.0772132" lon="12.596905"><ele>251.16666666666669</ele><time>2026-04-26T08:56:33.39Z</time></trkpt><trkpt lat="43.0771671" lon="12.5970058"><ele>251.33333333333334</ele><time>2026-04-26T08:56:35.399Z</time></trkpt><trkpt lat="43.077105" lon="12.5971498"><ele>251.5</ele><time>2026-04-26T08:56:38.39Z</time></trkpt><trkpt lat="43.0770666" lon="12.5972271"><ele>251.66666666666669</ele><time>2026-04-26T08:56:40.387Z</time></trkpt><trkpt lat="43.0770259" lon="12.5973007"><ele>251.83333333333334</ele><time>2026-04-26T08:56:44.43Z</time></trkpt><trkpt lat="43.0770371" lon="12.5974058"><ele>252.0</ele><time>2026-04-26T08:56:50.405Z</time></trkpt><trkpt lat="43.0770119" lon="12.5974967"><ele>252.0</ele><time>2026-04-26T08:56:53.391Z</time></trkpt><trkpt lat="43.0769931" lon="12.5976056"><ele>252.0</ele><time>2026-04-26T08:56:56.429Z</time></trkpt><trkpt lat="43.0769388" lon="12.5977087"><ele>252.0</ele><time>2026-04-26T08:56:59.436Z</time></trkpt><trkpt lat="43.0769443" lon="12.5978012"><ele>252.0</ele><time>2026-04-26T08:57:01.419Z</time></trkpt><trkpt lat="43.0769527" lon="12.597897"><ele>252.0</ele><time>2026-04-26T08:57:03.378Z</time></trkpt><trkpt lat="43.0769591" lon="12.5980016"><ele>252.0</ele><time>2026-04-26T08:57:05.403Z</time></trkpt><trkpt lat="43.0769679" lon="12.5981091"><ele>251.6</ele><time>2026-04-26T08:57:07.405Z</time></trkpt><trkpt lat="43.0769774" lon="12.5982251"><ele>251.2</ele><time>2026-04-26T08:57:09.398Z</time></trkpt><trkpt lat="43.0769915" lon="12.5983497"><ele>250.8</ele><time>2026-04-26T08:57:11.389Z</time></trkpt><trkpt lat="43.077003" lon="12.5984973"><ele>250.4</ele><time>2026-04-26T08:57:13.512Z</time></trkpt><trkpt lat="43.0770178" lon="12.5986336"><ele>250.0</ele><time>2026-04-26T08:57:15.418Z</time></trkpt><trkpt lat="43.0770284" lon="12.5987767"><ele>249.4</ele><time>2026-04-26T08:57:17.375Z</time></trkpt><trkpt lat="43.0770408" lon="12.5989259"><ele>248.8</ele><time>2026-04-26T08:57:19.384Z</time></trkpt><trkpt lat="43.0770472" lon="12.5990709"><ele>248.2</ele><time>2026-04-26T08:57:21.409Z</time></trkpt><trkpt lat="43.0770759" lon="12.5992123"><ele>247.6</ele><time>2026-04-26T08:57:23.377Z</time></trkpt><trkpt lat="43.0770864" lon="12.5993578"><ele>247.0</ele><time>2026-04-26T08:57:25.374Z</time></trkpt><trkpt lat="43.0770884" lon="12.5994974"><ele>246.83333333333331</ele><time>2026-04-26T08:57:27.402Z</time></trkpt><trkpt lat="43.0770722" lon="12.5996295"><ele>246.66666666666666</ele><time>2026-04-26T08:57:29.396Z</time></trkpt><trkpt lat="43.0770505" lon="12.5997476"><ele>246.5</ele><time>2026-04-26T08:57:31.421Z</time></trkpt><trkpt lat="43.077026" lon="12.5998535"><ele>246.33333333333331</ele><time>2026-04-26T08:57:33.377Z</time></trkpt><trkpt lat="43.0769971" lon="12.5999557"><ele>246.16666666666666</ele><time>2026-04-26T08:57:35.389Z</time></trkpt><trkpt lat="43.076968" lon="12.6000492"><ele>246.0</ele><time>2026-04-26T08:57:37.383Z</time></trkpt><trkpt lat="43.0769446" lon="12.6001411"><ele>246.0</ele><time>2026-04-26T08:57:39.385Z</time></trkpt><trkpt lat="43.0769212" lon="12.6002381"><ele>246.0</ele><time>2026-04-26T08:57:41.496Z</time></trkpt><trkpt lat="43.0768998" lon="12.6003339"><ele>246.0</ele><time>2026-04-26T08:57:43.403Z</time></trkpt><trkpt lat="43.076871" lon="12.6004401"><ele>246.0</ele><time>2026-04-26T08:57:45.403Z</time></trkpt><trkpt lat="43.0768367" lon="12.6005471"><ele>246.0</ele><time>2026-04-26T08:57:47.378Z</time></trkpt><trkpt lat="43.0767947" lon="12.6006435"><ele>246.0</ele><time>2026-04-26T08:57:49.409Z</time></trkpt><trkpt lat="43.0767597" lon="12.6007524"><ele>246.4</ele><time>2026-04-26T08:57:51.375Z</time></trkpt><trkpt lat="43.0767215" lon="12.6008624"><ele>246.8</ele><time>2026-04-26T08:57:53.382Z</time></trkpt><trkpt lat="43.0766832" lon="12.6009824"><ele>247.20000000000002</ele><time>2026-04-26T08:57:55.434Z</time></trkpt><trkpt lat="43.0766374" lon="12.6010897"><ele>247.60000000000002</ele><time>2026-04-26T08:57:57.385Z</time></trkpt><trkpt lat="43.0765862" lon="12.6011892"><ele>248.0</ele><time>2026-04-26T08:57:59.374Z</time></trkpt><trkpt lat="43.0765329" lon="12.6012833"><ele>249.66666666666669</ele><time>2026-04-26T08:58:01.39Z</time></trkpt><trkpt lat="43.0764765" lon="12.6013739"><ele>251.33333333333334</ele><time>2026-04-26T08:58:03.406Z</time></trkpt><trkpt lat="43.0764054" lon="12.6014369"><ele>253.0</ele><time>2026-04-26T08:58:05.417Z</time></trkpt><trkpt lat="43.0763375" lon="12.6014937"><ele>254.66666666666669</ele><time>2026-04-26T08:58:07.355Z</time></trkpt><trkpt lat="43.0762674" lon="12.601535"><ele>256.3333333333333</ele><time>2026-04-26T08:58:09.402Z</time></trkpt><trkpt lat="43.0762028" lon="12.6015721"><ele>258.0</ele><time>2026-04-26T08:58:11.367Z</time></trkpt><trkpt lat="43.0761389" lon="12.601608"><ele>258.0</ele><time>2026-04-26T08:58:13.357Z</time></trkpt><trkpt lat="43.0760762" lon="12.6016428"><ele>258.0</ele><time>2026-04-26T08:58:15.344Z</time></trkpt><trkpt lat="43.075985" lon="12.6017013"><ele>258.0</ele><time>2026-04-26T08:58:18.389Z</time></trkpt><trkpt lat="43.0759082" lon="12.6017507"><ele>258.0</ele><time>2026-04-26T08:58:21.375Z</time></trkpt><trkpt lat="43.075826" lon="12.6017951"><ele>258.0</ele><time>2026-04-26T08:58:24.349Z</time></trkpt><trkpt lat="43.0757449" lon="12.6018311"><ele>258.0</ele><time>2026-04-26T08:58:27.406Z</time></trkpt><trkpt lat="43.0756836" lon="12.6018771"><ele>257.0</ele><time>2026-04-26T08:58:30.371Z</time></trkpt><trkpt lat="43.075616" lon="12.6019072"><ele>256.0</ele><time>2026-04-26T08:58:33.369Z</time></trkpt><trkpt lat="43.075542" lon="12.6019507"><ele>255.0</ele><time>2026-04-26T08:58:36.355Z</time></trkpt><trkpt lat="43.0754745" lon="12.6019866"><ele>254.0</ele><time>2026-04-26T08:58:39.375Z</time></trkpt><trkpt lat="43.0754118" lon="12.6020317"><ele>253.0</ele><time>2026-04-26T08:58:42.368Z</time></trkpt><trkpt lat="43.0753389" lon="12.6020712"><ele>252.0</ele><time>2026-04-26T08:58:45.362Z</time></trkpt><trkpt lat="43.075264" lon="12.6021102"><ele>253.0</ele><time>2026-04-26T08:58:48.49Z</time></trkpt><trkpt lat="43.0751935" lon="12.6021451"><ele>254.0</ele><time>2026-04-26T08:58:51.373Z</time></trkpt><trkpt lat="43.0751239" lon="12.6021867"><ele>255.0</ele><time>2026-04-26T08:58:54.379Z</time></trkpt><trkpt lat="43.075056" lon="12.6022313"><ele>256.0</ele><time>2026-04-26T08:58:57.378Z</time></trkpt><trkpt lat="43.0749854" lon="12.6022795"><ele>257.0</ele><time>2026-04-26T08:59:00.48Z</time></trkpt><trkpt lat="43.0749196" lon="12.6023236"><ele>258.0</ele><time>2026-04-26T08:59:03.372Z</time></trkpt><trkpt lat="43.0748584" lon="12.6023766"><ele>258.0</ele><time>2026-04-26T08:59:06.366Z</time></trkpt><trkpt lat="43.0747977" lon="12.6024401"><ele>258.0</ele><time>2026-04-26T08:59:09.402Z</time></trkpt><trkpt lat="43.0747367" lon="12.6025031"><ele>258.0</ele><time>2026-04-26T08:59:12.343Z</time></trkpt><trkpt lat="43.0746736" lon="12.602567"><ele>258.0</ele><time>2026-04-26T08:59:15.389Z</time></trkpt><trkpt lat="43.0746111" lon="12.602633"><ele>258.0</ele><time>2026-04-26T08:59:18.35Z</time></trkpt><trkpt lat="43.0745403" lon="12.6027008"><ele>258.0</ele><time>2026-04-26T08:59:21.44Z</time></trkpt><trkpt lat="43.0744725" lon="12.602759"><ele>258.0</ele><time>2026-04-26T08:59:24.382Z</time></trkpt><trkpt lat="43.0744021" lon="12.6028154"><ele>258.0</ele><time>2026-04-26T08:59:27.344Z</time></trkpt><trkpt lat="43.0743311" lon="12.6028741"><ele>258.0</ele><time>2026-04-26T08:59:30.363Z</time></trkpt><trkpt lat="43.0742642" lon="12.6029361"><ele>258.0</ele><time>2026-04-26T08:59:33.374Z</time></trkpt><trkpt lat="43.0742045" lon="12.6029922"><ele>258.0</ele><time>2026-04-26T08:59:36.366Z</time></trkpt><trkpt lat="43.0741423" lon="12.6030475"><ele>258.0</ele><time>2026-04-26T08:59:39.371Z</time></trkpt><trkpt lat="43.0740854" lon="12.6030919"><ele>258.8333333333333</ele><time>2026-04-26T08:59:42.376Z</time></trkpt><trkpt lat="43.0740178" lon="12.6031572"><ele>259.6666666666667</ele><time>2026-04-26T08:59:46.35Z</time></trkpt><trkpt lat="43.0739512" lon="12.6032176"><ele>260.5</ele><time>2026-04-26T08:59:50.357Z</time></trkpt><trkpt lat="43.0738893" lon="12.6032758"><ele>261.33333333333337</ele><time>2026-04-26T08:59:54.373Z</time></trkpt><trkpt lat="43.073834" lon="12.6033238"><ele>262.1666666666667</ele><time>2026-04-26T08:59:57.36Z</time></trkpt><trkpt lat="43.0737743" lon="12.6033938"><ele>263.0</ele><time>2026-04-26T09:00:01.404Z</time></trkpt><trkpt lat="43.0737172" lon="12.603471"><ele>263.0</ele><time>2026-04-26T09:00:05.389Z</time></trkpt><trkpt lat="43.0736597" lon="12.603542"><ele>263.0</ele><time>2026-04-26T09:00:09.374Z</time></trkpt><trkpt lat="43.0735997" lon="12.6036126"><ele>263.0</ele><time>2026-04-26T09:00:13.463Z</time></trkpt><trkpt lat="43.0735324" lon="12.6036666"><ele>263.0</ele><time>2026-04-26T09:00:17.403Z</time></trkpt><trkpt lat="43.0734392" lon="12.6037241"><ele>263.0</ele><time>2026-04-26T09:00:22.368Z</time></trkpt><trkpt lat="43.0733729" lon="12.6037335"><ele>263.0</ele><time>2026-04-26T09:00:25.396Z</time></trkpt><trkpt lat="43.0732973" lon="12.603697"><ele>263.0</ele><time>2026-04-26T09:00:29.35Z</time></trkpt><trkpt lat="43.0732249" lon="12.6036421"><ele>263.0</ele><time>2026-04-26T09:00:33.371Z</time></trkpt><trkpt lat="43.0731592" lon="12.6036369"><ele>263.0</ele><time>2026-04-26T09:00:36.362Z</time></trkpt><trkpt lat="43.0730989" lon="12.6036713"><ele>263.0</ele><time>2026-04-26T09:00:39.359Z</time></trkpt><trkpt lat="43.0730554" lon="12.6037383"><ele>263.0</ele><time>2026-04-26T09:00:42.369Z</time></trkpt><trkpt lat="43.0730323" lon="12.6038254"><ele>263.0</ele><time>2026-04-26T09:00:45.36Z</time></trkpt><trkpt lat="43.0730283" lon="12.603916"><ele>263.0</ele><time>2026-04-26T09:00:48.376Z</time></trkpt><trkpt lat="43.0729905" lon="12.6040162"><ele>264.85714285714283</ele><time>2026-04-26T09:00:52.38Z</time></trkpt><trkpt lat="43.0729388" lon="12.6040743"><ele>266.71428571428567</ele><time>2026-04-26T09:00:55.354Z</time></trkpt><trkpt lat="43.0728677" lon="12.6041325"><ele>268.57142857142856</ele><time>2026-04-26T09:00:59.356Z</time></trkpt><trkpt lat="43.0728011" lon="12.6041662"><ele>270.42857142857144</ele><time>2026-04-26T09:01:02.381Z</time></trkpt><trkpt lat="43.0727357" lon="12.604202"><ele>272.28571428571433</ele><time>2026-04-26T09:01:05.429Z</time></trkpt><trkpt lat="43.0726747" lon="12.6042281"><ele>274.14285714285717</ele><time>2026-04-26T09:01:08.378Z</time></trkpt><trkpt lat="43.0726133" lon="12.6042612"><ele>276.0</ele><time>2026-04-26T09:01:11.403Z</time></trkpt><trkpt lat="43.0725475" lon="12.6042808"><ele>276.0</ele><time>2026-04-26T09:01:14.363Z</time></trkpt><trkpt lat="43.0724844" lon="12.6042947"><ele>276.0</ele><time>2026-04-26T09:01:17.419Z</time></trkpt><trkpt lat="43.0724048" lon="12.6043335"><ele>276.0</ele><time>2026-04-26T09:01:21.374Z</time></trkpt><trkpt lat="43.0723286" lon="12.6043688"><ele>276.0</ele><time>2026-04-26T09:01:25.369Z</time></trkpt><trkpt lat="43.0722501" lon="12.6044011"><ele>276.0</ele><time>2026-04-26T09:01:29.359Z</time></trkpt><trkpt lat="43.0721739" lon="12.6044484"><ele>276.0</ele><time>2026-04-26T09:01:33.382Z</time></trkpt><trkpt lat="43.0721133" lon="12.6044824"><ele>277.7142857142857</ele><time>2026-04-26T09:01:36.376Z</time></trkpt><trkpt lat="43.0720324" lon="12.6045162"><ele>279.42857142857144</ele><time>2026-04-26T09:01:40.355Z</time></trkpt><trkpt lat="43.0719679" lon="12.6045457"><ele>281.14285714285717</ele><time>2026-04-26T09:01:43.356Z</time></trkpt><trkpt lat="43.0719064" lon="12.6045758"><ele>282.8571428571429</ele><time>2026-04-26T09:01:46.366Z</time></trkpt><trkpt lat="43.071846" lon="12.6046066"><ele>284.57142857142856</ele><time>2026-04-26T09:01:49.366Z</time></trkpt><trkpt lat="43.0717835" lon="12.6046383"><ele>286.28571428571433</ele><time>2026-04-26T09:01:52.379Z</time></trkpt><trkpt lat="43.0717179" lon="12.6046691"><ele>288.0</ele><time>2026-04-26T09:01:55.39Z</time></trkpt><trkpt lat="43.0716554" lon="12.6047015"><ele>287.8571428571429</ele><time>2026-04-26T09:01:58.38Z</time></trkpt><trkpt lat="43.0715923" lon="12.6047274"><ele>287.7142857142857</ele><time>2026-04-26T09:02:01.386Z</time></trkpt><trkpt lat="43.0715296" lon="12.6047595"><ele>287.57142857142856</ele><time>2026-04-26T09:02:04.382Z</time></trkpt><trkpt lat="43.0714653" lon="12.6047852"><ele>287.42857142857144</ele><time>2026-04-26T09:02:07.38Z</time></trkpt><trkpt lat="43.0713981" lon="12.6048236"><ele>287.2857142857143</ele><time>2026-04-26T09:02:10.376Z</time></trkpt><trkpt lat="43.071336" lon="12.6048472"><ele>287.14285714285717</ele><time>2026-04-26T09:02:13.368Z</time></trkpt><trkpt lat="43.0712738" lon="12.6048791"><ele>287.0</ele><time>2026-04-26T09:02:16.395Z</time></trkpt><trkpt lat="43.0712094" lon="12.6049002"><ele>287.0</ele><time>2026-04-26T09:02:19.379Z</time></trkpt><trkpt lat="43.0711492" lon="12.604927"><ele>287.0</ele><time>2026-04-26T09:02:22.362Z</time></trkpt><trkpt lat="43.0710894" lon="12.6049544"><ele>287.0</ele><time>2026-04-26T09:02:25.384Z</time></trkpt><trkpt lat="43.0710123" lon="12.6049936"><ele>287.0</ele><time>2026-04-26T09:02:29.364Z</time></trkpt><trkpt lat="43.0709494" lon="12.6050296"><ele>287.0</ele><time>2026-04-26T09:02:32.464Z</time></trkpt><trkpt lat="43.0708766" lon="12.605079"><ele>287.0</ele><time>2026-04-26T09:02:36.31Z</time></trkpt><trkpt lat="43.0708192" lon="12.6051214"><ele>287.0</ele><time>2026-04-26T09:02:39.335Z</time></trkpt><trkpt lat="43.070763" lon="12.6051679"><ele>286.6666666666667</ele><time>2026-04-26T09:02:42.421Z</time></trkpt><trkpt lat="43.0706915" lon="12.6052126"><ele>286.33333333333337</ele><time>2026-04-26T09:02:46.343Z</time></trkpt><trkpt lat="43.0706219" lon="12.605268"><ele>286.0</ele><time>2026-04-26T09:02:50.354Z</time></trkpt><trkpt lat="43.0705481" lon="12.6053231"><ele>285.6666666666667</ele><time>2026-04-26T09:02:53.424Z</time></trkpt><trkpt lat="43.0705017" lon="12.6053851"><ele>285.3333333333333</ele><time>2026-04-26T09:02:57.364Z</time></trkpt><trkpt lat="43.0704421" lon="12.6054481"><ele>285.0</ele><time>2026-04-26T09:03:01.506Z</time></trkpt><trkpt lat="43.0703821" lon="12.6055244"><ele>286.1666666666667</ele><time>2026-04-26T09:03:05.362Z</time></trkpt><trkpt lat="43.070317" lon="12.6055979"><ele>287.3333333333333</ele><time>2026-04-26T09:03:09.368Z</time></trkpt><trkpt lat="43.0702546" lon="12.605667"><ele>288.5</ele><time>2026-04-26T09:03:13.385Z</time></trkpt><trkpt lat="43.0701965" lon="12.6057476"><ele>289.66666666666663</ele><time>2026-04-26T09:03:17.351Z</time></trkpt><trkpt lat="43.0701477" lon="12.6058334"><ele>290.8333333333333</ele><time>2026-04-26T09:03:21.389Z</time></trkpt><trkpt lat="43.0700922" lon="12.605919"><ele>292.0</ele><time>2026-04-26T09:03:25.348Z</time></trkpt><trkpt lat="43.0700396" lon="12.6059748"><ele>292.0</ele><time>2026-04-26T09:03:28.406Z</time></trkpt><trkpt lat="43.0699842" lon="12.606058"><ele>292.0</ele><time>2026-04-26T09:03:32.408Z</time></trkpt><trkpt lat="43.0699173" lon="12.6061565"><ele>292.0</ele><time>2026-04-26T09:03:37.363Z</time></trkpt><trkpt lat="43.0698635" lon="12.6062456"><ele>292.0</ele><time>2026-04-26T09:03:41.467Z</time></trkpt><trkpt lat="43.0698218" lon="12.6063179"><ele>292.0</ele><time>2026-04-26T09:03:44.432Z</time></trkpt><trkpt lat="43.0697773" lon="12.606379"><ele>292.0</ele><time>2026-04-26T09:03:47.371Z</time></trkpt><trkpt lat="43.0697179" lon="12.6064573"><ele>292.16666666666663</ele><time>2026-04-26T09:03:51.372Z</time></trkpt><trkpt lat="43.0696559" lon="12.606559"><ele>292.3333333333333</ele><time>2026-04-26T09:03:56.416Z</time></trkpt><trkpt lat="43.0696017" lon="12.606638"><ele>292.5</ele><time>2026-04-26T09:04:00.379Z</time></trkpt><trkpt lat="43.0695476" lon="12.6067215"><ele>292.6666666666667</ele><time>2026-04-26T09:04:04.388Z</time></trkpt><trkpt lat="43.0695042" lon="12.6068127"><ele>292.83333333333337</ele><time>2026-04-26T09:04:08.383Z</time></trkpt><trkpt lat="43.0694703" lon="12.6068976"><ele>293.0</ele><time>2026-04-26T09:04:13.355Z</time></trkpt><trkpt lat="43.0694605" lon="12.6069928"><ele>293.2857142857143</ele><time>2026-04-26T09:06:01.37Z</time></trkpt><trkpt lat="43.0694695" lon="12.6071018"><ele>293.57142857142856</ele><time>2026-04-26T09:06:05.394Z</time></trkpt><trkpt lat="43.0694716" lon="12.6072022"><ele>293.8571428571429</ele><time>2026-04-26T09:06:09.383Z</time></trkpt><trkpt lat="43.0694744" lon="12.6072977"><ele>294.1428571428571</ele><time>2026-04-26T09:06:13.374Z</time></trkpt><trkpt lat="43.0694832" lon="12.6073855"><ele>294.42857142857144</ele><time>2026-04-26T09:06:17.359Z</time></trkpt><trkpt lat="43.0694983" lon="12.6074835"><ele>294.7142857142857</ele><time>2026-04-26T09:06:21.369Z</time></trkpt><trkpt lat="43.0695102" lon="12.6075706"><ele>295.0</ele><time>2026-04-26T09:06:25.394Z</time></trkpt><trkpt lat="43.0695275" lon="12.6076617"><ele>295.00000000000006</ele><time>2026-04-26T09:06:29.389Z</time></trkpt><trkpt lat="43.0695388" lon="12.607758"><ele>295.0</ele><time>2026-04-26T09:06:33.411Z</time></trkpt><trkpt lat="43.0695498" lon="12.6078605"><ele>295.0</ele><time>2026-04-26T09:06:37.484Z</time></trkpt><trkpt lat="43.0695691" lon="12.6079565"><ele>295.0</ele><time>2026-04-26T09:06:41.419Z</time></trkpt><trkpt lat="43.0695814" lon="12.6080572"><ele>295.0</ele><time>2026-04-26T09:06:45.394Z</time></trkpt><trkpt lat="43.0695968" lon="12.6081577"><ele>295.00000000000006</ele><time>2026-04-26T09:06:49.368Z</time></trkpt><trkpt lat="43.0696188" lon="12.6082567"><ele>295.0</ele><time>2026-04-26T09:06:53.494Z</time></trkpt><trkpt lat="43.0696248" lon="12.6083783"><ele>295.3333333333333</ele><time>2026-04-26T09:06:58.42Z</time></trkpt><trkpt lat="43.06964" lon="12.6085163"><ele>295.66666666666663</ele><time>2026-04-26T09:07:03.435Z</time></trkpt><trkpt lat="43.0696511" lon="12.6086164"><ele>296.0</ele><time>2026-04-26T09:07:07.389Z</time></trkpt><trkpt lat="43.0696723" lon="12.6087122"><ele>296.3333333333333</ele><time>2026-04-26T09:07:11.392Z</time></trkpt><trkpt lat="43.0697063" lon="12.6088072"><ele>296.6666666666667</ele><time>2026-04-26T09:07:15.442Z</time></trkpt><trkpt lat="43.069749" lon="12.6088785"><ele>297.0</ele><time>2026-04-26T09:07:19.38Z</time></trkpt><trkpt lat="43.0698107" lon="12.6089179"><ele>298.2857142857143</ele><time>2026-04-26T09:07:25.374Z</time></trkpt><trkpt lat="43.0698839" lon="12.6089076"><ele>299.5714285714286</ele><time>2026-04-26T09:07:30.414Z</time></trkpt><trkpt lat="43.0699511" lon="12.6089001"><ele>300.8571428571429</ele><time>2026-04-26T09:07:34.5Z</time></trkpt><trkpt lat="43.0700092" lon="12.6088646"><ele>302.14285714285717</ele><time>2026-04-26T09:07:38.386Z</time></trkpt><trkpt lat="43.0700762" lon="12.6088189"><ele>303.42857142857144</ele><time>2026-04-26T09:07:43.394Z</time></trkpt><trkpt lat="43.0701349" lon="12.6087709"><ele>304.7142857142857</ele><time>2026-04-26T09:07:47.436Z</time></trkpt><trkpt lat="43.0701896" lon="12.608714"><ele>306.0</ele><time>2026-04-26T09:07:51.399Z</time></trkpt><trkpt lat="43.0702431" lon="12.6086664"><ele>307.0</ele><time>2026-04-26T09:07:55.395Z</time></trkpt><trkpt lat="43.0703056" lon="12.6086258"><ele>308.0</ele><time>2026-04-26T09:07:59.395Z</time></trkpt><trkpt lat="43.070376" lon="12.6085743"><ele>309.0</ele><time>2026-04-26T09:08:04.404Z</time></trkpt><trkpt lat="43.0704306" lon="12.6085227"><ele>310.0</ele><time>2026-04-26T09:08:08.421Z</time></trkpt><trkpt lat="43.0705027" lon="12.6084832"><ele>311.0</ele><time>2026-04-26T09:08:12.538Z</time></trkpt><trkpt lat="43.0705564" lon="12.6084307"><ele>312.0</ele><time>2026-04-26T09:08:16.379Z</time></trkpt><trkpt lat="43.0706226" lon="12.6083851"><ele>313.0</ele><time>2026-04-26T09:08:21.387Z</time></trkpt><trkpt lat="43.0706887" lon="12.6083513"><ele>313.0</ele><time>2026-04-26T09:08:26.379Z</time></trkpt><trkpt lat="43.070762" lon="12.6083824"><ele>313.0</ele><time>2026-04-26T09:08:31.381Z</time></trkpt><trkpt lat="43.0708034" lon="12.6084708"><ele>313.0</ele><time>2026-04-26T09:08:36.381Z</time></trkpt><trkpt lat="43.0707926" lon="12.6085628"><ele>313.0</ele><time>2026-04-26T09:08:40.39Z</time></trkpt><trkpt lat="43.070764" lon="12.6086437"><ele>313.0</ele><time>2026-04-26T09:08:44.389Z</time></trkpt><trkpt lat="43.0707211" lon="12.6087203"><ele>313.0</ele><time>2026-04-26T09:08:48.391Z</time></trkpt><trkpt lat="43.0706746" lon="12.6087849"><ele>313.0</ele><time>2026-04-26T09:08:52.437Z</time></trkpt><trkpt lat="43.0706279" lon="12.6088546"><ele>313.57142857142856</ele><time>2026-04-26T09:08:56.407Z</time></trkpt><trkpt lat="43.0705868" lon="12.6089204"><ele>314.14285714285717</ele><time>2026-04-26T09:09:00.392Z</time></trkpt><trkpt lat="43.0705283" lon="12.6089916"><ele>314.7142857142857</ele><time>2026-04-26T09:09:05.391Z</time></trkpt><trkpt lat="43.0704823" lon="12.6090592"><ele>315.2857142857143</ele><time>2026-04-26T09:09:09.433Z</time></trkpt><trkpt lat="43.0704455" lon="12.6091404"><ele>315.85714285714283</ele><time>2026-04-26T09:09:15.415Z</time></trkpt><trkpt lat="43.07042" lon="12.6092219"><ele>316.42857142857144</ele><time>2026-04-26T09:09:19.43Z</time></trkpt><trkpt lat="43.0703807" lon="12.6093018"><ele>317.0</ele><time>2026-04-26T09:09:23.436Z</time></trkpt><trkpt lat="43.0703439" lon="12.6094062"><ele>317.0</ele><time>2026-04-26T09:09:28.28Z</time></trkpt><trkpt lat="43.0703218" lon="12.6094902"><ele>317.0</ele><time>2026-04-26T09:09:32.396Z</time></trkpt><trkpt lat="43.0702867" lon="12.6095797"><ele>317.0</ele><time>2026-04-26T09:09:36.387Z</time></trkpt><trkpt lat="43.0702501" lon="12.6096559"><ele>317.0</ele><time>2026-04-26T09:09:40.38Z</time></trkpt><trkpt lat="43.0702208" lon="12.6097468"><ele>317.0</ele><time>2026-04-26T09:09:44.428Z</time></trkpt><trkpt lat="43.0701905" lon="12.6098229"><ele>317.0</ele><time>2026-04-26T09:09:48.37Z</time></trkpt><trkpt lat="43.0701618" lon="12.60991"><ele>317.0</ele><time>2026-04-26T09:09:52.482Z</time></trkpt><trkpt lat="43.0701354" lon="12.6099936"><ele>318.57142857142856</ele><time>2026-04-26T09:09:56.368Z</time></trkpt><trkpt lat="43.0700927" lon="12.6100766"><ele>320.1428571428571</ele><time>2026-04-26T09:10:00.389Z</time></trkpt><trkpt lat="43.0700534" lon="12.6101628"><ele>321.71428571428567</ele><time>2026-04-26T09:10:04.36Z</time></trkpt><trkpt lat="43.0700117" lon="12.610242"><ele>323.2857142857143</ele><time>2026-04-26T09:10:08.398Z</time></trkpt><trkpt lat="43.0699706" lon="12.6103111"><ele>324.85714285714283</ele><time>2026-04-26T09:10:11.529Z</time></trkpt><trkpt lat="43.0699255" lon="12.610386"><ele>326.4285714285714</ele><time>2026-04-26T09:10:15.367Z</time></trkpt><trkpt lat="43.0698868" lon="12.6104569"><ele>328.0</ele><time>2026-04-26T09:10:19.506Z</time></trkpt><trkpt lat="43.0698402" lon="12.6105203"><ele>328.4285714285714</ele><time>2026-04-26T09:10:23.38Z</time></trkpt><trkpt lat="43.0698003" lon="12.610589"><ele>328.85714285714283</ele><time>2026-04-26T09:10:27.418Z</time></trkpt><trkpt lat="43.0697591" lon="12.6106555"><ele>329.2857142857143</ele><time>2026-04-26T09:10:31.373Z</time></trkpt><trkpt lat="43.0697102" lon="12.6107205"><ele>329.71428571428567</ele><time>2026-04-26T09:10:35.39Z</time></trkpt><trkpt lat="43.0696546" lon="12.6107889"><ele>330.1428571428571</ele><time>2026-04-26T09:10:39.484Z</time></trkpt><trkpt lat="43.0695929" lon="12.610852"><ele>330.57142857142856</ele><time>2026-04-26T09:10:43.387Z</time></trkpt><trkpt lat="43.0695144" lon="12.6108885"><ele>331.0</ele><time>2026-04-26T09:10:47.369Z</time></trkpt><trkpt lat="43.0694518" lon="12.6109065"><ele>331.0</ele><time>2026-04-26T09:10:51.387Z</time></trkpt><trkpt lat="43.0693814" lon="12.6109122"><ele>331.0</ele><time>2026-04-26T09:10:55.375Z</time></trkpt><trkpt lat="43.0693074" lon="12.6109204"><ele>331.0</ele><time>2026-04-26T09:10:59.375Z</time></trkpt><trkpt lat="43.0692423" lon="12.6109299"><ele>331.0</ele><time>2026-04-26T09:11:03.375Z</time></trkpt><trkpt lat="43.0691665" lon="12.6109416"><ele>331.0</ele><time>2026-04-26T09:11:07.392Z</time></trkpt><trkpt lat="43.0690981" lon="12.6109514"><ele>331.0</ele><time>2026-04-26T09:11:11.401Z</time></trkpt><trkpt lat="43.0690271" lon="12.6109604"><ele>331.0</ele><time>2026-04-26T09:11:15.387Z</time></trkpt><trkpt lat="43.0689514" lon="12.6109709"><ele>330.14285714285717</ele><time>2026-04-26T09:11:19.385Z</time></trkpt><trkpt lat="43.0688775" lon="12.6109911"><ele>329.2857142857143</ele><time>2026-04-26T09:11:23.395Z</time></trkpt><trkpt lat="43.0688145" lon="12.6110176"><ele>328.42857142857144</ele><time>2026-04-26T09:11:28.404Z</time></trkpt><trkpt lat="43.0687542" lon="12.6110485"><ele>327.57142857142856</ele><time>2026-04-26T09:11:32.401Z</time></trkpt><trkpt lat="43.0686968" lon="12.6110971"><ele>326.7142857142857</ele><time>2026-04-26T09:11:36.392Z</time></trkpt><trkpt lat="43.0686383" lon="12.6111453"><ele>325.85714285714283</ele><time>2026-04-26T09:11:40.406Z</time></trkpt><trkpt lat="43.0685809" lon="12.6112207"><ele>325.0</ele><time>2026-04-26T09:11:45.418Z</time></trkpt><trkpt lat="43.0685279" lon="12.6112854"><ele>325.4285714285714</ele><time>2026-04-26T09:11:49.381Z</time></trkpt><trkpt lat="43.0684792" lon="12.6113491"><ele>325.8571428571429</ele><time>2026-04-26T09:11:53.405Z</time></trkpt><trkpt lat="43.0684249" lon="12.6114213"><ele>326.2857142857143</ele><time>2026-04-26T09:11:57.387Z</time></trkpt><trkpt lat="43.0683754" lon="12.6114827"><ele>326.71428571428567</ele><time>2026-04-26T09:12:01.401Z</time></trkpt><trkpt lat="43.0683249" lon="12.6115538"><ele>327.1428571428571</ele><time>2026-04-26T09:12:05.388Z</time></trkpt><trkpt lat="43.0682728" lon="12.61163"><ele>327.57142857142856</ele><time>2026-04-26T09:12:09.418Z</time></trkpt><trkpt lat="43.0682185" lon="12.6117178"><ele>328.0</ele><time>2026-04-26T09:12:14.424Z</time></trkpt><trkpt lat="43.0681692" lon="12.6117852"><ele>327.99999999999994</ele><time>2026-04-26T09:12:18.397Z</time></trkpt><trkpt lat="43.068123" lon="12.611859"><ele>328.0</ele><time>2026-04-26T09:12:22.416Z</time></trkpt><trkpt lat="43.0680688" lon="12.6119318"><ele>328.0</ele><time>2026-04-26T09:12:27.424Z</time></trkpt><trkpt lat="43.0680223" lon="12.6120041"><ele>328.0</ele><time>2026-04-26T09:12:31.432Z</time></trkpt><trkpt lat="43.0679777" lon="12.6120729"><ele>328.0</ele><time>2026-04-26T09:12:35.392Z</time></trkpt><trkpt lat="43.0679252" lon="12.6121434"><ele>327.99999999999994</ele><time>2026-04-26T09:12:39.391Z</time></trkpt><trkpt lat="43.0678789" lon="12.6122074"><ele>328.0</ele><time>2026-04-26T09:12:43.427Z</time></trkpt><trkpt lat="43.0678241" lon="12.6122904"><ele>329.1428571428571</ele><time>2026-04-26T09:12:47.389Z</time></trkpt><trkpt lat="43.0677802" lon="12.6123641"><ele>330.2857142857143</ele><time>2026-04-26T09:12:51.473Z</time></trkpt><trkpt lat="43.0677406" lon="12.6124381"><ele>331.42857142857144</ele><time>2026-04-26T09:12:55.438Z</time></trkpt><trkpt lat="43.067709" lon="12.612527"><ele>332.57142857142856</ele><time>2026-04-26T09:12:59.431Z</time></trkpt><trkpt lat="43.067693" lon="12.6126178"><ele>333.7142857142857</ele><time>2026-04-26T09:13:03.394Z</time></trkpt><trkpt lat="43.0676884" lon="12.6127079"><ele>334.85714285714283</ele><time>2026-04-26T09:13:07.44Z</time></trkpt><trkpt lat="43.0677114" lon="12.612796"><ele>336.0</ele><time>2026-04-26T09:13:11.526Z</time></trkpt><trkpt lat="43.0677423" lon="12.6128779"><ele>336.0</ele><time>2026-04-26T09:13:15.403Z</time></trkpt><trkpt lat="43.0677741" lon="12.6129645"><ele>336.0</ele><time>2026-04-26T09:13:19.44Z</time></trkpt><trkpt lat="43.0678093" lon="12.6130432"><ele>336.0</ele><time>2026-04-26T09:13:23.408Z</time></trkpt><trkpt lat="43.0678439" lon="12.6131227"><ele>336.0</ele><time>2026-04-26T09:13:27.401Z</time></trkpt><trkpt lat="43.06788" lon="12.613205"><ele>336.0</ele><time>2026-04-26T09:13:31.424Z</time></trkpt><trkpt lat="43.0679188" lon="12.6132883"><ele>336.0</ele><time>2026-04-26T09:13:35.369Z</time></trkpt><trkpt lat="43.0679614" lon="12.6133686"><ele>336.0</ele><time>2026-04-26T09:13:39.391Z</time></trkpt><trkpt lat="43.068011" lon="12.6134349"><ele>336.0</ele><time>2026-04-26T09:13:43.424Z</time></trkpt><trkpt lat="43.068073" lon="12.6134962"><ele>336.0</ele><time>2026-04-26T09:13:47.424Z</time></trkpt><trkpt lat="43.0681298" lon="12.6135472"><ele>336.0</ele><time>2026-04-26T09:13:51.411Z</time></trkpt><trkpt lat="43.068187" lon="12.6136082"><ele>336.0</ele><time>2026-04-26T09:13:55.395Z</time></trkpt><trkpt lat="43.068236" lon="12.6136847"><ele>336.0</ele><time>2026-04-26T09:13:59.386Z</time></trkpt><trkpt lat="43.06829" lon="12.6137928"><ele>336.0</ele><time>2026-04-26T09:14:03.379Z</time></trkpt><trkpt lat="43.0683401" lon="12.6138797"><ele>338.7142857142857</ele><time>2026-04-26T09:14:08.392Z</time></trkpt><trkpt lat="43.0683747" lon="12.6139561"><ele>341.42857142857144</ele><time>2026-04-26T09:14:12.395Z</time></trkpt><trkpt lat="43.0684186" lon="12.6140414"><ele>344.1428571428571</ele><time>2026-04-26T09:14:16.405Z</time></trkpt><trkpt lat="43.0684628" lon="12.6141265"><ele>346.8571428571429</ele><time>2026-04-26T09:14:20.404Z</time></trkpt><trkpt lat="43.0684976" lon="12.6142132"><ele>349.57142857142856</ele><time>2026-04-26T09:14:24.377Z</time></trkpt><trkpt lat="43.0685001" lon="12.6143095"><ele>352.2857142857143</ele><time>2026-04-26T09:14:28.4Z</time></trkpt><trkpt lat="43.0684983" lon="12.6144168"><ele>355.0</ele><time>2026-04-26T09:14:33.411Z</time></trkpt><trkpt lat="43.0684955" lon="12.6145065"><ele>355.42857142857144</ele><time>2026-04-26T09:15:50.433Z</time></trkpt><trkpt lat="43.0684721" lon="12.6146076"><ele>355.8571428571429</ele><time>2026-04-26T09:15:56.395Z</time></trkpt><trkpt lat="43.0684209" lon="12.6146814"><ele>356.28571428571433</ele><time>2026-04-26T09:16:01.374Z</time></trkpt><trkpt lat="43.0683657" lon="12.6147372"><ele>356.7142857142857</ele><time>2026-04-26T09:16:05.4Z</time></trkpt><trkpt lat="43.068306" lon="12.6147784"><ele>357.14285714285717</ele><time>2026-04-26T09:16:09.38Z</time></trkpt><trkpt lat="43.0682402" lon="12.6147835"><ele>357.5714285714286</ele><time>2026-04-26T09:16:19.378Z</time></trkpt><trkpt lat="43.0681695" lon="12.6148127"><ele>358.0</ele><time>2026-04-26T09:16:24.378Z</time></trkpt><trkpt lat="43.0681074" lon="12.6148361"><ele>358.00000000000006</ele><time>2026-04-26T09:16:28.402Z</time></trkpt><trkpt lat="43.0680329" lon="12.6148665"><ele>358.0</ele><time>2026-04-26T09:16:33.381Z</time></trkpt><trkpt lat="43.0679468" lon="12.6149029"><ele>358.0</ele><time>2026-04-26T09:16:39.4Z</time></trkpt><trkpt lat="43.0678853" lon="12.6149352"><ele>358.0</ele><time>2026-04-26T09:16:43.391Z</time></trkpt><trkpt lat="43.0678203" lon="12.6149583"><ele>358.0</ele><time>2026-04-26T09:16:48.394Z</time></trkpt><trkpt lat="43.0677579" lon="12.6149807"><ele>358.00000000000006</ele><time>2026-04-26T09:16:53.39Z</time></trkpt><trkpt lat="43.0677012" lon="12.6150275"><ele>358.0</ele><time>2026-04-26T09:16:58.375Z</time></trkpt><trkpt lat="43.0676336" lon="12.615061"><ele>358.00000000000006</ele><time>2026-04-26T09:17:03.37Z</time></trkpt><trkpt lat="43.0675708" lon="12.6150965"><ele>358.0</ele><time>2026-04-26T09:17:08.395Z</time></trkpt><trkpt lat="43.0675203" lon="12.6151495"><ele>358.0</ele><time>2026-04-26T09:17:12.405Z</time></trkpt><trkpt lat="43.0674642" lon="12.6152253"><ele>358.0</ele><time>2026-04-26T09:17:17.41Z</time></trkpt><trkpt lat="43.0674249" lon="12.6153022"><ele>358.0</ele><time>2026-04-26T09:17:21.391Z</time></trkpt><trkpt lat="43.0673896" lon="12.61539"><ele>358.00000000000006</ele><time>2026-04-26T09:17:25.383Z</time></trkpt><trkpt lat="43.0673737" lon="12.6155105"><ele>358.0</ele><time>2026-04-26T09:17:30.419Z</time></trkpt><trkpt lat="43.0673656" lon="12.6156146"><ele>357.28571428571433</ele><time>2026-04-26T09:17:34.417Z</time></trkpt><trkpt lat="43.0673801" lon="12.6157091"><ele>356.57142857142856</ele><time>2026-04-26T09:17:38.371Z</time></trkpt><trkpt lat="43.067404" lon="12.6158031"><ele>355.8571428571429</ele><time>2026-04-26T09:17:42.399Z</time></trkpt><trkpt lat="43.0674189" lon="12.6158978"><ele>355.14285714285717</ele><time>2026-04-26T09:17:46.383Z</time></trkpt><trkpt lat="43.0674396" lon="12.6160021"><ele>354.42857142857144</ele><time>2026-04-26T09:17:50.433Z</time></trkpt><trkpt lat="43.067449" lon="12.6161025"><ele>353.7142857142857</ele><time>2026-04-26T09:17:54.389Z</time></trkpt><trkpt lat="43.0674511" lon="12.616205"><ele>353.0</ele><time>2026-04-26T09:17:58.379Z</time></trkpt><trkpt lat="43.0674331" lon="12.6163067"><ele>354.6666666666667</ele><time>2026-04-26T09:18:02.383Z</time></trkpt><trkpt lat="43.0674276" lon="12.6164108"><ele>356.33333333333337</ele><time>2026-04-26T09:18:06.381Z</time></trkpt><trkpt lat="43.0674047" lon="12.6165354"><ele>358.0</ele><time>2026-04-26T09:18:11.324Z</time></trkpt><trkpt lat="43.0673842" lon="12.616629"><ele>359.6666666666667</ele><time>2026-04-26T09:18:15.386Z</time></trkpt><trkpt lat="43.0673658" lon="12.616716"><ele>361.3333333333333</ele><time>2026-04-26T09:18:19.379Z</time></trkpt><trkpt lat="43.0673402" lon="12.6168155"><ele>363.0</ele><time>2026-04-26T09:18:23.387Z</time></trkpt><trkpt lat="43.0673126" lon="12.6169052"><ele>364.99999999999994</ele><time>2026-04-26T09:18:27.388Z</time></trkpt><trkpt lat="43.067301" lon="12.6170002"><ele>367.0</ele><time>2026-04-26T09:18:31.426Z</time></trkpt><trkpt lat="43.0672755" lon="12.6171039"><ele>369.0</ele><time>2026-04-26T09:18:35.365Z</time></trkpt><trkpt lat="43.0672501" lon="12.6171891"><ele>371.0</ele><time>2026-04-26T09:18:39.396Z</time></trkpt><trkpt lat="43.0672093" lon="12.6172576"><ele>373.0</ele><time>2026-04-26T09:18:43.372Z</time></trkpt><trkpt lat="43.0671593" lon="12.6173218"><ele>374.99999999999994</ele><time>2026-04-26T09:18:47.405Z</time></trkpt><trkpt lat="43.0670957" lon="12.6173578"><ele>377.0</ele><time>2026-04-26T09:18:51.409Z</time></trkpt><trkpt lat="43.067025" lon="12.617377"><ele>376.99999999999994</ele><time>2026-04-26T09:18:55.405Z</time></trkpt><trkpt lat="43.0669578" lon="12.6173883"><ele>377.0</ele><time>2026-04-26T09:18:59.536Z</time></trkpt><trkpt lat="43.06689" lon="12.6173849"><ele>377.0</ele><time>2026-04-26T09:19:03.433Z</time></trkpt><trkpt lat="43.0668163" lon="12.6173916"><ele>377.0</ele><time>2026-04-26T09:19:07.376Z</time></trkpt><trkpt lat="43.0667448" lon="12.6173998"><ele>377.0</ele><time>2026-04-26T09:19:11.374Z</time></trkpt><trkpt lat="43.0666735" lon="12.6174155"><ele>376.99999999999994</ele><time>2026-04-26T09:19:15.404Z</time></trkpt><trkpt lat="43.0666097" lon="12.6174225"><ele>377.0</ele><time>2026-04-26T09:19:19.396Z</time></trkpt><trkpt lat="43.0665415" lon="12.6174262"><ele>376.57142857142856</ele><time>2026-04-26T09:19:23.395Z</time></trkpt><trkpt lat="43.0664711" lon="12.617458"><ele>376.1428571428571</ele><time>2026-04-26T09:19:27.59Z</time></trkpt><trkpt lat="43.0664134" lon="12.6175151"><ele>375.71428571428567</ele><time>2026-04-26T09:19:31.399Z</time></trkpt><trkpt lat="43.0663663" lon="12.6175799"><ele>375.2857142857143</ele><time>2026-04-26T09:19:35.369Z</time></trkpt><trkpt lat="43.0663054" lon="12.6176559"><ele>374.8571428571429</ele><time>2026-04-26T09:19:40.424Z</time></trkpt><trkpt lat="43.0662645" lon="12.617744"><ele>374.4285714285714</ele><time>2026-04-26T09:19:45.437Z</time></trkpt><trkpt lat="43.0662228" lon="12.6178321"><ele>374.0</ele><time>2026-04-26T09:19:50.395Z</time></trkpt><trkpt lat="43.0661805" lon="12.6179015"><ele>375.0</ele><time>2026-04-26T09:19:55.607Z</time></trkpt><trkpt lat="43.0661513" lon="12.617983"><ele>376.0</ele><time>2026-04-26T09:19:59.397Z</time></trkpt><trkpt lat="43.0660917" lon="12.618065"><ele>377.0</ele><time>2026-04-26T09:20:02.427Z</time></trkpt><trkpt lat="43.0660312" lon="12.6181336"><ele>378.0</ele><time>2026-04-26T09:20:06.415Z</time></trkpt><trkpt lat="43.065993" lon="12.6182222"><ele>379.0</ele><time>2026-04-26T09:20:12.406Z</time></trkpt><trkpt lat="43.0659541" lon="12.618325"><ele>380.0</ele><time>2026-04-26T09:20:17.384Z</time></trkpt><trkpt lat="43.0659141" lon="12.6184148"><ele>380.0</ele><time>2026-04-26T09:20:21.404Z</time></trkpt><trkpt lat="43.0658882" lon="12.6184949"><ele>380.0</ele><time>2026-04-26T09:20:24.42Z</time></trkpt><trkpt lat="43.0658243" lon="12.6185286"><ele>380.0</ele><time>2026-04-26T09:20:27.402Z</time></trkpt><trkpt lat="43.0657694" lon="12.6185896"><ele>380.0</ele><time>2026-04-26T09:20:33.398Z</time></trkpt><trkpt lat="43.065722" lon="12.6186697"><ele>380.0</ele><time>2026-04-26T09:20:37.399Z</time></trkpt><trkpt lat="43.0656724" lon="12.6187416"><ele>380.0</ele><time>2026-04-26T09:20:41.437Z</time></trkpt><trkpt lat="43.0656311" lon="12.6188079"><ele>380.0</ele><time>2026-04-26T09:20:45.409Z</time></trkpt><trkpt lat="43.0655926" lon="12.6188846"><ele>379.14285714285717</ele><time>2026-04-26T09:20:49.406Z</time></trkpt><trkpt lat="43.0655451" lon="12.6189767"><ele>378.28571428571433</ele><time>2026-04-26T09:20:54.087Z</time></trkpt><trkpt lat="43.0655275" lon="12.6190627"><ele>377.42857142857144</ele><time>2026-04-26T09:20:58.432Z</time></trkpt><trkpt lat="43.0655301" lon="12.6191548"><ele>376.57142857142856</ele><time>2026-04-26T09:21:02.409Z</time></trkpt><trkpt lat="43.0655346" lon="12.6192486"><ele>375.7142857142857</ele><time>2026-04-26T09:21:07.404Z</time></trkpt><trkpt lat="43.0655537" lon="12.6193355"><ele>374.85714285714283</ele><time>2026-04-26T09:21:10.425Z</time></trkpt><trkpt lat="43.0655697" lon="12.6194217"><ele>374.0</ele><time>2026-04-26T09:21:14.43Z</time></trkpt><trkpt lat="43.0655849" lon="12.619516"><ele>374.0</ele><time>2026-04-26T09:21:18.4Z</time></trkpt><trkpt lat="43.065604" lon="12.6196068"><ele>374.0</ele><time>2026-04-26T09:21:22.426Z</time></trkpt><trkpt lat="43.0656222" lon="12.6196954"><ele>374.0</ele><time>2026-04-26T09:21:26.403Z</time></trkpt><trkpt lat="43.0656409" lon="12.6197855"><ele>374.0</ele><time>2026-04-26T09:21:30.431Z</time></trkpt><trkpt lat="43.0656731" lon="12.6198766"><ele>374.0</ele><time>2026-04-26T09:21:34.391Z</time></trkpt><trkpt lat="43.0657054" lon="12.6199607"><ele>374.0</ele><time>2026-04-26T09:21:38.4Z</time></trkpt><trkpt lat="43.0657405" lon="12.6200392"><ele>374.0</ele><time>2026-04-26T09:21:42.403Z</time></trkpt><trkpt lat="43.0657794" lon="12.6201453"><ele>376.2857142857143</ele><time>2026-04-26T09:21:47.508Z</time></trkpt><trkpt lat="43.0658106" lon="12.6202256"><ele>378.5714285714286</ele><time>2026-04-26T09:21:51.415Z</time></trkpt><trkpt lat="43.0658449" lon="12.6203078"><ele>380.8571428571429</ele><time>2026-04-26T09:21:55.424Z</time></trkpt><trkpt lat="43.0658849" lon="12.6203875"><ele>383.1428571428571</ele><time>2026-04-26T09:21:59.385Z</time></trkpt><trkpt lat="43.0659186" lon="12.6204705"><ele>385.42857142857144</ele><time>2026-04-26T09:22:03.409Z</time></trkpt><trkpt lat="43.0659501" lon="12.6205502"><ele>387.7142857142857</ele><time>2026-04-26T09:22:07.391Z</time></trkpt><trkpt lat="43.0659791" lon="12.6206341"><ele>390.0</ele><time>2026-04-26T09:22:11.402Z</time></trkpt><trkpt lat="43.0660097" lon="12.6207164"><ele>390.0</ele><time>2026-04-26T09:22:15.404Z</time></trkpt><trkpt lat="43.0660401" lon="12.6208016"><ele>390.0</ele><time>2026-04-26T09:22:19.414Z</time></trkpt><trkpt lat="43.066072" lon="12.6208788"><ele>390.0</ele><time>2026-04-26T09:22:23.398Z</time></trkpt><trkpt lat="43.0660973" lon="12.6209615"><ele>390.0</ele><time>2026-04-26T09:22:27.426Z</time></trkpt><trkpt lat="43.0661326" lon="12.6210505"><ele>390.0</ele><time>2026-04-26T09:22:32.407Z</time></trkpt><trkpt lat="43.0661782" lon="12.6211162"><ele>390.0</ele><time>2026-04-26T09:22:37.395Z</time></trkpt><trkpt lat="43.0662374" lon="12.6211674"><ele>390.0</ele><time>2026-04-26T09:23:10.421Z</time></trkpt><trkpt lat="43.0662923" lon="12.6211183"><ele>390.0</ele><time>2026-04-26T09:23:15.415Z</time></trkpt><trkpt lat="43.0663115" lon="12.6210327"><ele>390.0</ele><time>2026-04-26T09:23:18.44Z</time></trkpt><trkpt lat="43.0663451" lon="12.6209372"><ele>390.0</ele><time>2026-04-26T09:23:21.427Z</time></trkpt><trkpt lat="43.0663551" lon="12.6208419"><ele>390.0</ele><time>2026-04-26T09:23:24.428Z</time></trkpt><trkpt lat="43.0663501" lon="12.6207547"><ele>390.0</ele><time>2026-04-26T09:23:27.392Z</time></trkpt><trkpt lat="43.0663504" lon="12.6206592"><ele>390.0</ele><time>2026-04-26T09:23:30.408Z</time></trkpt><trkpt lat="43.0663598" lon="12.6205648"><ele>390.0</ele><time>2026-04-26T09:23:34.405Z</time></trkpt><trkpt lat="43.0663633" lon="12.6204603"><ele>390.0</ele><time>2026-04-26T09:23:38.507Z</time></trkpt><trkpt lat="43.0663676" lon="12.6203669"><ele>390.0</ele><time>2026-04-26T09:23:42.383Z</time></trkpt><trkpt lat="43.0663777" lon="12.620261"><ele>390.0</ele><time>2026-04-26T09:23:46.423Z</time></trkpt><trkpt lat="43.0663989" lon="12.6201713"><ele>390.0</ele><time>2026-04-26T09:23:50.386Z</time></trkpt><trkpt lat="43.0664269" lon="12.6200756"><ele>390.0</ele><time>2026-04-26T09:23:54.426Z</time></trkpt><trkpt lat="43.0664674" lon="12.6199924"><ele>390.0</ele><time>2026-04-26T09:23:58.417Z</time></trkpt><trkpt lat="43.0665146" lon="12.6199166"><ele>390.0</ele><time>2026-04-26T09:24:02.398Z</time></trkpt><trkpt lat="43.0665808" lon="12.6198535"><ele>390.0</ele><time>2026-04-26T09:24:06.485Z</time></trkpt><trkpt lat="43.0666479" lon="12.6198611"><ele>390.0</ele><time>2026-04-26T09:24:10.432Z</time></trkpt><trkpt lat="43.0666832" lon="12.6199422"><ele>390.0</ele><time>2026-04-26T09:24:14.414Z</time></trkpt><trkpt lat="43.0666668" lon="12.6200416"><ele>390.0</ele><time>2026-04-26T09:24:18.443Z</time></trkpt><trkpt lat="43.0666404" lon="12.620129"><ele>390.0</ele><time>2026-04-26T09:24:22.424Z</time></trkpt><trkpt lat="43.0666077" lon="12.6202192"><ele>390.0</ele><time>2026-04-26T09:24:26.403Z</time></trkpt><trkpt lat="43.0665819" lon="12.6203382"><ele>390.0</ele><time>2026-04-26T09:24:31.399Z</time></trkpt><trkpt lat="43.0665654" lon="12.6204361"><ele>390.0</ele><time>2026-04-26T09:24:35.427Z</time></trkpt><trkpt lat="43.0665591" lon="12.6205397"><ele>390.0</ele><time>2026-04-26T09:24:40.438Z</time></trkpt><trkpt lat="43.0665653" lon="12.6206428"><ele>390.0</ele><time>2026-04-26T09:24:44.407Z</time></trkpt><trkpt lat="43.0665639" lon="12.6207451"><ele>390.0</ele><time>2026-04-26T09:24:48.413Z</time></trkpt><trkpt lat="43.0665716" lon="12.6208418"><ele>390.0</ele><time>2026-04-26T09:24:52.406Z</time></trkpt><trkpt lat="43.066584" lon="12.6209458"><ele>390.0</ele><time>2026-04-26T09:24:56.437Z</time></trkpt><trkpt lat="43.0665888" lon="12.6210409"><ele>390.0</ele><time>2026-04-26T09:25:00.505Z</time></trkpt><trkpt lat="43.0665967" lon="12.6211338"><ele>389.85714285714283</ele><time>2026-04-26T09:25:04.42Z</time></trkpt><trkpt lat="43.0666032" lon="12.6212368"><ele>389.71428571428567</ele><time>2026-04-26T09:25:08.414Z</time></trkpt><trkpt lat="43.0666281" lon="12.6213376"><ele>389.57142857142856</ele><time>2026-04-26T09:25:12.449Z</time></trkpt><trkpt lat="43.0666534" lon="12.6214387"><ele>389.42857142857144</ele><time>2026-04-26T09:25:16.41Z</time></trkpt><trkpt lat="43.0666795" lon="12.6215239"><ele>389.2857142857143</ele><time>2026-04-26T09:25:20.415Z</time></trkpt><trkpt lat="43.0667107" lon="12.6216214"><ele>389.14285714285717</ele><time>2026-04-26T09:25:24.432Z</time></trkpt><trkpt lat="43.066737" lon="12.6217085"><ele>389.0</ele><time>2026-04-26T09:25:28.419Z</time></trkpt><trkpt lat="43.0667813" lon="12.6217988"><ele>391.42857142857144</ele><time>2026-04-26T09:25:32.446Z</time></trkpt><trkpt lat="43.066819" lon="12.6218762"><ele>393.85714285714283</ele><time>2026-04-26T09:25:36.4Z</time></trkpt><trkpt lat="43.0668566" lon="12.6219586"><ele>396.2857142857143</ele><time>2026-04-26T09:25:40.422Z</time></trkpt><trkpt lat="43.0668958" lon="12.622027"><ele>398.7142857142857</ele><time>2026-04-26T09:25:43.42Z</time></trkpt><trkpt lat="43.0669338" lon="12.6220996"><ele>401.1428571428571</ele><time>2026-04-26T09:25:47.388Z</time></trkpt><trkpt lat="43.0669685" lon="12.6221758"><ele>403.57142857142856</ele><time>2026-04-26T09:25:50.398Z</time></trkpt><trkpt lat="43.0670162" lon="12.6222601"><ele>406.0</ele><time>2026-04-26T09:25:54.404Z</time></trkpt><trkpt lat="43.0670523" lon="12.6223408"><ele>406.00000000000006</ele><time>2026-04-26T09:25:58.419Z</time></trkpt><trkpt lat="43.0670895" lon="12.6224161"><ele>406.0</ele><time>2026-04-26T09:26:02.435Z</time></trkpt><trkpt lat="43.0671253" lon="12.6225052"><ele>406.0</ele><time>2026-04-26T09:26:06.413Z</time></trkpt><trkpt lat="43.0671549" lon="12.6225914"><ele>406.0</ele><time>2026-04-26T09:26:10.501Z</time></trkpt><trkpt lat="43.0671926" lon="12.6226917"><ele>406.00000000000006</ele><time>2026-04-26T09:26:15.4Z</time></trkpt><trkpt lat="43.0671709" lon="12.6228168"><ele>406.0</ele><time>2026-04-26T09:26:19.431Z</time></trkpt><trkpt lat="43.0671312" lon="12.6228983"><ele>406.7142857142857</ele><time>2026-04-26T09:26:23.394Z</time></trkpt><trkpt lat="43.0670855" lon="12.6229659"><ele>407.42857142857144</ele><time>2026-04-26T09:26:27.419Z</time></trkpt><trkpt lat="43.0670241" lon="12.6230356"><ele>408.1428571428571</ele><time>2026-04-26T09:26:31.399Z</time></trkpt><trkpt lat="43.0669676" lon="12.6231003"><ele>408.8571428571429</ele><time>2026-04-26T09:26:35.407Z</time></trkpt><trkpt lat="43.0669118" lon="12.6231639"><ele>409.57142857142856</ele><time>2026-04-26T09:26:39.401Z</time></trkpt><trkpt lat="43.0668633" lon="12.6232321"><ele>410.2857142857143</ele><time>2026-04-26T09:26:45.456Z</time></trkpt><trkpt lat="43.0668225" lon="12.6233214"><ele>411.0</ele><time>2026-04-26T09:26:51.395Z</time></trkpt><trkpt lat="43.0667912" lon="12.6234071"><ele>411.0</ele><time>2026-04-26T09:26:57.411Z</time></trkpt><trkpt lat="43.0667393" lon="12.6234727"><ele>411.0</ele><time>2026-04-26T09:27:03.403Z</time></trkpt><trkpt lat="43.0667048" lon="12.6235545"><ele>411.0</ele><time>2026-04-26T09:27:08.394Z</time></trkpt><trkpt lat="43.0666753" lon="12.6236458"><ele>411.0</ele><time>2026-04-26T09:27:13.384Z</time></trkpt><trkpt lat="43.0666752" lon="12.6237472"><ele>411.0</ele><time>2026-04-26T09:27:18.398Z</time></trkpt><trkpt lat="43.0667085" lon="12.6238404"><ele>411.0</ele><time>2026-04-26T09:27:23.397Z</time></trkpt><trkpt lat="43.0667702" lon="12.6239185"><ele>411.0</ele><time>2026-04-26T09:28:18.426Z</time></trkpt><trkpt lat="43.0668461" lon="12.6239322"><ele>412.6666666666667</ele><time>2026-04-26T09:28:24.512Z</time></trkpt><trkpt lat="43.0669388" lon="12.623948"><ele>414.33333333333337</ele><time>2026-04-26T09:28:30.404Z</time></trkpt><trkpt lat="43.0670119" lon="12.6239543"><ele>416.0</ele><time>2026-04-26T09:28:35.401Z</time></trkpt><trkpt lat="43.0670799" lon="12.6239779"><ele>417.6666666666667</ele><time>2026-04-26T09:28:39.399Z</time></trkpt><trkpt lat="43.0671528" lon="12.6240076"><ele>419.33333333333337</ele><time>2026-04-26T09:28:44.419Z</time></trkpt><trkpt lat="43.0672189" lon="12.6240346"><ele>421.0</ele><time>2026-04-26T09:28:48.397Z</time></trkpt><trkpt lat="43.0672921" lon="12.6240745"><ele>421.00000000000006</ele><time>2026-04-26T09:28:53.42Z</time></trkpt><trkpt lat="43.0673511" lon="12.6241252"><ele>421.0</ele><time>2026-04-26T09:28:57.419Z</time></trkpt><trkpt lat="43.0674151" lon="12.6241852"><ele>421.0</ele><time>2026-04-26T09:29:02.427Z</time></trkpt><trkpt lat="43.0674578" lon="12.6242782"><ele>421.0</ele><time>2026-04-26T09:29:07.391Z</time></trkpt><trkpt lat="43.0674634" lon="12.6243779"><ele>421.0</ele><time>2026-04-26T09:29:11.417Z</time></trkpt><trkpt lat="43.0674465" lon="12.6244627"><ele>421.00000000000006</ele><time>2026-04-26T09:29:15.408Z</time></trkpt><trkpt lat="43.0674162" lon="12.6245466"><ele>421.0</ele><time>2026-04-26T09:29:19.396Z</time></trkpt><trkpt lat="43.0673843" lon="12.624641"><ele>422.42857142857144</ele><time>2026-04-26T09:29:24.398Z</time></trkpt><trkpt lat="43.0673416" lon="12.6247176"><ele>423.8571428571429</ele><time>2026-04-26T09:29:30.51Z</time></trkpt><trkpt lat="43.0673074" lon="12.6247976"><ele>425.28571428571433</ele><time>2026-04-26T09:29:35.41Z</time></trkpt><trkpt lat="43.0672601" lon="12.6248713"><ele>426.7142857142857</ele><time>2026-04-26T09:29:39.381Z</time></trkpt><trkpt lat="43.0672179" lon="12.6249411"><ele>428.1428571428571</ele><time>2026-04-26T09:29:43.42Z</time></trkpt><trkpt lat="43.0671708" lon="12.6250134"><ele>429.5714285714286</ele><time>2026-04-26T09:29:47.41Z</time></trkpt><trkpt lat="43.0671197" lon="12.6250893"><ele>431.0</ele><time>2026-04-26T09:29:51.424Z</time></trkpt><trkpt lat="43.0670728" lon="12.6251566"><ele>430.99999999999994</ele><time>2026-04-26T09:29:55.406Z</time></trkpt><trkpt lat="43.0670322" lon="12.6252394"><ele>431.0</ele><time>2026-04-26T09:29:59.391Z</time></trkpt><trkpt lat="43.0669863" lon="12.62531"><ele>431.0</ele><time>2026-04-26T09:30:03.419Z</time></trkpt><trkpt lat="43.0669277" lon="12.6253873"><ele>431.0</ele><time>2026-04-26T09:30:08.444Z</time></trkpt><trkpt lat="43.0668705" lon="12.6254607"><ele>430.99999999999994</ele><time>2026-04-26T09:30:13.423Z</time></trkpt><trkpt lat="43.0668164" lon="12.625537"><ele>431.0</ele><time>2026-04-26T09:30:18.393Z</time></trkpt><trkpt lat="43.0667503" lon="12.6255928"><ele>432.0</ele><time>2026-04-26T09:30:23.412Z</time></trkpt><trkpt lat="43.0666989" lon="12.6256515"><ele>433.0</ele><time>2026-04-26T09:30:27.417Z</time></trkpt><trkpt lat="43.0666458" lon="12.6257026"><ele>434.0</ele><time>2026-04-26T09:30:31.422Z</time></trkpt><trkpt lat="43.066596" lon="12.6257608"><ele>435.0</ele><time>2026-04-26T09:30:35.402Z</time></trkpt><trkpt lat="43.0665378" lon="12.6258289"><ele>436.0</ele><time>2026-04-26T09:30:39.413Z</time></trkpt><trkpt lat="43.0664789" lon="12.6258837"><ele>437.0</ele><time>2026-04-26T09:30:44.411Z</time></trkpt><trkpt lat="43.0664703" lon="12.6259721"><ele>438.0</ele><time>2026-04-26T09:30:50.447Z</time></trkpt><trkpt lat="43.0664828" lon="12.6260618"><ele>440.1666666666667</ele><time>2026-04-26T09:30:55.403Z</time></trkpt><trkpt lat="43.0665092" lon="12.6261679"><ele>442.33333333333337</ele><time>2026-04-26T09:31:00.417Z</time></trkpt><trkpt lat="43.0665582" lon="12.6262651"><ele>444.5</ele><time>2026-04-26T09:31:05.616Z</time></trkpt><trkpt lat="43.0666189" lon="12.6263019"><ele>446.6666666666667</ele><time>2026-04-26T09:31:09.421Z</time></trkpt><trkpt lat="43.0666807" lon="12.626323"><ele>448.83333333333337</ele><time>2026-04-26T09:31:13.378Z</time></trkpt><trkpt lat="43.0667667" lon="12.6263335"><ele>451.0</ele><time>2026-04-26T09:31:18.451Z</time></trkpt><trkpt lat="43.0668351" lon="12.6263064"><ele>450.4285714285714</ele><time>2026-04-26T09:31:22.405Z</time></trkpt><trkpt lat="43.0668963" lon="12.6262714"><ele>449.8571428571429</ele><time>2026-04-26T09:31:26.396Z</time></trkpt><trkpt lat="43.0669617" lon="12.6262263"><ele>449.2857142857143</ele><time>2026-04-26T09:31:30.4Z</time></trkpt><trkpt lat="43.067021" lon="12.626181"><ele>448.71428571428567</ele><time>2026-04-26T09:31:34.402Z</time></trkpt><trkpt lat="43.0670822" lon="12.6261171"><ele>448.1428571428571</ele><time>2026-04-26T09:31:38.504Z</time></trkpt><trkpt lat="43.0671436" lon="12.6260756"><ele>447.57142857142856</ele><time>2026-04-26T09:31:42.409Z</time></trkpt><trkpt lat="43.0672067" lon="12.6260234"><ele>447.0</ele><time>2026-04-26T09:31:46.393Z</time></trkpt><trkpt lat="43.0672665" lon="12.6259889"><ele>446.99999999999994</ele><time>2026-04-26T09:31:49.444Z</time></trkpt><trkpt lat="43.0673271" lon="12.6259414"><ele>447.0</ele><time>2026-04-26T09:31:52.419Z</time></trkpt><trkpt lat="43.0673812" lon="12.625888"><ele>447.0</ele><time>2026-04-26T09:31:55.395Z</time></trkpt><trkpt lat="43.0674425" lon="12.6258264"><ele>447.0</ele><time>2026-04-26T09:31:59.41Z</time></trkpt><trkpt lat="43.0674967" lon="12.625768"><ele>447.0</ele><time>2026-04-26T09:32:02.395Z</time></trkpt><trkpt lat="43.0675562" lon="12.6257082"><ele>446.99999999999994</ele><time>2026-04-26T09:32:05.395Z</time></trkpt><trkpt lat="43.0676111" lon="12.6256479"><ele>447.0</ele><time>2026-04-26T09:32:08.395Z</time></trkpt><trkpt lat="43.0676732" lon="12.6255916"><ele>446.85714285714283</ele><time>2026-04-26T09:32:11.375Z</time></trkpt><trkpt lat="43.0677323" lon="12.6255437"><ele>446.7142857142857</ele><time>2026-04-26T09:32:14.417Z</time></trkpt><trkpt lat="43.067794" lon="12.6254901"><ele>446.57142857142856</ele><time>2026-04-26T09:32:17.409Z</time></trkpt><trkpt lat="43.0678509" lon="12.6254343"><ele>446.42857142857144</ele><time>2026-04-26T09:32:20.374Z</time></trkpt><trkpt lat="43.0679067" lon="12.6253749"><ele>446.2857142857143</ele><time>2026-04-26T09:32:23.415Z</time></trkpt><trkpt lat="43.0679693" lon="12.625313"><ele>446.1428571428571</ele><time>2026-04-26T09:32:27.432Z</time></trkpt><trkpt lat="43.0680176" lon="12.6252343"><ele>446.0</ele><time>2026-04-26T09:32:31.392Z</time></trkpt><trkpt lat="43.0680542" lon="12.6251531"><ele>446.0</ele><time>2026-04-26T09:32:35.395Z</time></trkpt><trkpt lat="43.0680969" lon="12.6250528"><ele>446.0</ele><time>2026-04-26T09:32:39.385Z</time></trkpt><trkpt lat="43.0681251" lon="12.6249623"><ele>446.0</ele><time>2026-04-26T09:32:43.403Z</time></trkpt><trkpt lat="43.0681397" lon="12.6248652"><ele>446.0</ele><time>2026-04-26T09:32:47.414Z</time></trkpt><trkpt lat="43.0681628" lon="12.624763"><ele>446.0</ele><time>2026-04-26T09:32:51.381Z</time></trkpt><trkpt lat="43.0681779" lon="12.6246694"><ele>446.0</ele><time>2026-04-26T09:32:55.399Z</time></trkpt><trkpt lat="43.0681903" lon="12.6245741"><ele>446.0</ele><time>2026-04-26T09:32:58.42Z</time></trkpt><trkpt lat="43.068232" lon="12.6244874"><ele>444.85714285714283</ele><time>2026-04-26T09:33:02.419Z</time></trkpt><trkpt lat="43.0682688" lon="12.6244167"><ele>443.71428571428567</ele><time>2026-04-26T09:33:05.501Z</time></trkpt><trkpt lat="43.0683036" lon="12.6243396"><ele>442.57142857142856</ele><time>2026-04-26T09:33:08.411Z</time></trkpt><trkpt lat="43.0683352" lon="12.6242583"><ele>441.42857142857144</ele><time>2026-04-26T09:33:11.403Z</time></trkpt><trkpt lat="43.0683702" lon="12.6241742"><ele>440.2857142857143</ele><time>2026-04-26T09:33:14.401Z</time></trkpt><trkpt lat="43.0683965" lon="12.6240872"><ele>439.14285714285717</ele><time>2026-04-26T09:33:17.381Z</time></trkpt><trkpt lat="43.0684286" lon="12.6239946"><ele>438.0</ele><time>2026-04-26T09:33:20.405Z</time></trkpt><trkpt lat="43.0684603" lon="12.623902"><ele>440.28571428571433</ele><time>2026-04-26T09:33:23.395Z</time></trkpt><trkpt lat="43.0684912" lon="12.6238084"><ele>442.57142857142856</ele><time>2026-04-26T09:33:26.403Z</time></trkpt><trkpt lat="43.0685177" lon="12.6237188"><ele>444.8571428571429</ele><time>2026-04-26T09:33:29.395Z</time></trkpt><trkpt lat="43.0685512" lon="12.6236257"><ele>447.14285714285717</ele><time>2026-04-26T09:33:32.503Z</time></trkpt><trkpt lat="43.0685793" lon="12.6235326"><ele>449.42857142857144</ele><time>2026-04-26T09:33:35.422Z</time></trkpt><trkpt lat="43.0686088" lon="12.6234485"><ele>451.7142857142857</ele><time>2026-04-26T09:33:38.408Z</time></trkpt><trkpt lat="43.0686387" lon="12.623365"><ele>454.0</ele><time>2026-04-26T09:33:41.397Z</time></trkpt><trkpt lat="43.0686776" lon="12.6232823"><ele>454.00000000000006</ele><time>2026-04-26T09:33:44.42Z</time></trkpt><trkpt lat="43.0687342" lon="12.6232062"><ele>454.0</ele><time>2026-04-26T09:33:48.418Z</time></trkpt><trkpt lat="43.0687913" lon="12.6231378"><ele>454.0</ele><time>2026-04-26T09:33:52.401Z</time></trkpt><trkpt lat="43.0688301" lon="12.6230448"><ele>454.0</ele><time>2026-04-26T09:33:55.44Z</time></trkpt><trkpt lat="43.0688827" lon="12.6229549"><ele>454.00000000000006</ele><time>2026-04-26T09:33:59.408Z</time></trkpt><trkpt lat="43.068937" lon="12.6228665"><ele>454.0</ele><time>2026-04-26T09:34:03.406Z</time></trkpt><trkpt lat="43.0689747" lon="12.6227905"><ele>453.7142857142857</ele><time>2026-04-26T09:34:06.425Z</time></trkpt><trkpt lat="43.0689969" lon="12.6227049"><ele>453.42857142857144</ele><time>2026-04-26T09:34:09.406Z</time></trkpt><trkpt lat="43.0690254" lon="12.6225953"><ele>453.14285714285717</ele><time>2026-04-26T09:34:13.428Z</time></trkpt><trkpt lat="43.0690588" lon="12.6225064"><ele>452.8571428571429</ele><time>2026-04-26T09:34:16.431Z</time></trkpt><trkpt lat="43.0690776" lon="12.6224239"><ele>452.57142857142856</ele><time>2026-04-26T09:34:19.426Z</time></trkpt><trkpt lat="43.0691073" lon="12.6223164"><ele>452.28571428571433</ele><time>2026-04-26T09:34:23.421Z</time></trkpt><trkpt lat="43.0691147" lon="12.6222279"><ele>452.0</ele><time>2026-04-26T09:34:26.434Z</time></trkpt><trkpt lat="43.0690914" lon="12.6221357"><ele>454.7142857142857</ele><time>2026-04-26T09:34:31.432Z</time></trkpt><trkpt lat="43.0691453" lon="12.6220716"><ele>457.42857142857144</ele><time>2026-04-26T09:35:53.431Z</time></trkpt><trkpt lat="43.0692058" lon="12.6221402"><ele>460.14285714285717</ele><time>2026-04-26T09:35:59.412Z</time></trkpt><trkpt lat="43.0692657" lon="12.622203"><ele>462.8571428571429</ele><time>2026-04-26T09:36:05.396Z</time></trkpt><trkpt lat="43.0693281" lon="12.6222401"><ele>465.57142857142856</ele><time>2026-04-26T09:36:11.446Z</time></trkpt><trkpt lat="43.0693988" lon="12.6222779"><ele>468.28571428571433</ele><time>2026-04-26T09:36:16.416Z</time></trkpt><trkpt lat="43.0694558" lon="12.6223172"><ele>471.00000000000006</ele><time>2026-04-26T09:36:20.429Z</time></trkpt><trkpt lat="43.0695243" lon="12.6223527"><ele>471.00000000000006</ele><time>2026-04-26T09:36:25.407Z</time></trkpt><trkpt lat="43.0695835" lon="12.6223876"><ele>471.0</ele><time>2026-04-26T09:36:29.445Z</time></trkpt><trkpt lat="43.0696519" lon="12.6224198"><ele>471.00000000000006</ele><time>2026-04-26T09:36:34.434Z</time></trkpt><trkpt lat="43.0697212" lon="12.6224604"><ele>471.00000000000006</ele><time>2026-04-26T09:36:38.398Z</time></trkpt><trkpt lat="43.0697863" lon="12.6224948"><ele>471.0</ele><time>2026-04-26T09:36:41.43Z</time></trkpt><trkpt lat="43.0698505" lon="12.6225224"><ele>471.00000000000006</ele><time>2026-04-26T09:36:46.403Z</time></trkpt><trkpt lat="43.0699158" lon="12.6225581"><ele>471.00000000000006</ele><time>2026-04-26T09:36:50.429Z</time></trkpt><trkpt lat="43.0699733" lon="12.6225954"><ele>472.57142857142867</ele><time>2026-04-26T09:36:54.435Z</time></trkpt><trkpt lat="43.0700353" lon="12.622648"><ele>474.14285714285717</ele><time>2026-04-26T09:36:59.431Z</time></trkpt><trkpt lat="43.0700991" lon="12.6226859"><ele>475.7142857142858</ele><time>2026-04-26T09:37:05.386Z</time></trkpt><trkpt lat="43.0701664" lon="12.6227266"><ele>477.28571428571433</ele><time>2026-04-26T09:37:10.414Z</time></trkpt><trkpt lat="43.0702365" lon="12.6227828"><ele>478.8571428571429</ele><time>2026-04-26T09:37:15.398Z</time></trkpt><trkpt lat="43.0702694" lon="12.6228589"><ele>480.42857142857144</ele><time>2026-04-26T09:38:13.372Z</time></trkpt><trkpt lat="43.0703363" lon="12.6229066"><ele>482.0</ele><time>2026-04-26T09:38:18.36Z</time></trkpt><trkpt lat="43.0703865" lon="12.622974"><ele>483.42857142857144</ele><time>2026-04-26T09:38:23.372Z</time></trkpt><trkpt lat="43.0704381" lon="12.6230316"><ele>484.8571428571429</ele><time>2026-04-26T09:38:29.342Z</time></trkpt><trkpt lat="43.0705012" lon="12.6230735"><ele>486.28571428571433</ele><time>2026-04-26T09:38:35.367Z</time></trkpt><trkpt lat="43.0705587" lon="12.6231145"><ele>487.7142857142858</ele><time>2026-04-26T09:38:39.338Z</time></trkpt><trkpt lat="43.0706156" lon="12.6231617"><ele>489.14285714285717</ele><time>2026-04-26T09:38:45.339Z</time></trkpt><trkpt lat="43.0706678" lon="12.6232159"><ele>490.57142857142867</ele><time>2026-04-26T09:38:51.385Z</time></trkpt><trkpt lat="43.0707192" lon="12.6232664"><ele>492.00000000000006</ele><time>2026-04-26T09:38:58.363Z</time></trkpt><trkpt lat="43.0707837" lon="12.6232639"><ele>493.1428571428572</ele><time>2026-04-26T09:39:06.386Z</time></trkpt><trkpt lat="43.0708215" lon="12.6233354"><ele>494.28571428571433</ele><time>2026-04-26T09:39:13.388Z</time></trkpt><trkpt lat="43.0709101" lon="12.6233878"><ele>495.42857142857144</ele><time>2026-04-26T09:39:59.382Z</time></trkpt><trkpt lat="43.0709309" lon="12.6234692"><ele>496.5714285714286</ele><time>2026-04-26T09:41:00.416Z</time></trkpt><trkpt lat="43.0709734" lon="12.6235498"><ele>497.7142857142858</ele><time>2026-04-26T09:41:06.397Z</time></trkpt><trkpt lat="43.0710024" lon="12.6236368"><ele>498.85714285714283</ele><time>2026-04-26T09:41:13.389Z</time></trkpt><trkpt lat="43.0710211" lon="12.6237387"><ele>500.0</ele><time>2026-04-26T09:41:22.411Z</time></trkpt><trkpt lat="43.0710434" lon="12.6238475"><ele>501.42857142857144</ele><time>2026-04-26T09:41:27.442Z</time></trkpt><trkpt lat="43.0711022" lon="12.6239084"><ele>502.8571428571429</ele><time>2026-04-26T09:41:35.424Z</time></trkpt><trkpt lat="43.0710431" lon="12.623956"><ele>504.28571428571433</ele><time>2026-04-26T09:43:19.426Z</time></trkpt><trkpt lat="43.0710311" lon="12.6240455"><ele>505.7142857142857</ele><time>2026-04-26T09:44:06.433Z</time></trkpt><trkpt lat="43.0710727" lon="12.6241158"><ele>507.1428571428572</ele><time>2026-04-26T09:44:11.418Z</time></trkpt><trkpt lat="43.0711089" lon="12.6241939"><ele>508.5714285714286</ele><time>2026-04-26T09:44:18.425Z</time></trkpt><trkpt lat="43.0711128" lon="12.6242809"><ele>510.0</ele><time>2026-04-26T09:44:22.399Z</time></trkpt><trkpt lat="43.0711431" lon="12.6243669"><ele>510.0</ele><time>2026-04-26T09:44:30.419Z</time></trkpt><trkpt lat="43.0711626" lon="12.6244632"><ele>510.00000000000006</ele><time>2026-04-26T09:44:37.429Z</time></trkpt><trkpt lat="43.0711366" lon="12.6245432"><ele>510.0</ele><time>2026-04-26T09:44:45.416Z</time></trkpt><trkpt lat="43.0711051" lon="12.6246189"><ele>510.0</ele><time>2026-04-26T09:44:51.407Z</time></trkpt><trkpt lat="43.0710652" lon="12.6246959"><ele>510.00000000000006</ele><time>2026-04-26T09:47:51.402Z</time></trkpt><trkpt lat="43.0710661" lon="12.624783"><ele>510.0</ele><time>2026-04-26T09:48:00.402Z</time></trkpt><trkpt lat="43.0710677" lon="12.6248706"><ele>510.0</ele><time>2026-04-26T09:48:07.418Z</time></trkpt><trkpt lat="43.0710476" lon="12.6249669"><ele>512.0</ele><time>2026-04-26T09:48:15.355Z</time></trkpt><trkpt lat="43.0710535" lon="12.6250625"><ele>514.0</ele><time>2026-04-26T09:48:23.403Z</time></trkpt><trkpt lat="43.0710344" lon="12.6251471"><ele>516.0</ele><time>2026-04-26T09:48:30.419Z</time></trkpt><trkpt lat="43.0710208" lon="12.625238"><ele>518.0</ele><time>2026-04-26T09:48:52.436Z</time></trkpt><trkpt lat="43.0710028" lon="12.6253206"><ele>520.0</ele><time>2026-04-26T09:49:00.405Z</time></trkpt><trkpt lat="43.070988" lon="12.625413"><ele>522.0</ele><time>2026-04-26T09:54:16.428Z</time></trkpt><trkpt lat="43.0709685" lon="12.6253224"><ele>524.0</ele><time>2026-04-26T09:54:29.44Z</time></trkpt><trkpt lat="43.0709934" lon="12.6252083"><ele>524.0</ele><time>2026-04-26T09:54:32.38Z</time></trkpt><trkpt lat="43.0710219" lon="12.6250803"><ele>524.0</ele><time>2026-04-26T09:54:35.42Z</time></trkpt><trkpt lat="43.071041" lon="12.6249848"><ele>524.0</ele><time>2026-04-26T09:54:37.414Z</time></trkpt><trkpt lat="43.0710603" lon="12.624871"><ele>524.0</ele><time>2026-04-26T09:54:40.396Z</time></trkpt><trkpt lat="43.0710862" lon="12.6247614"><ele>524.0</ele><time>2026-04-26T09:54:43.419Z</time></trkpt><trkpt lat="43.0710898" lon="12.6246405"><ele>524.0</ele><time>2026-04-26T09:54:46.409Z</time></trkpt><trkpt lat="43.0711025" lon="12.6245301"><ele>521.6666666666666</ele><time>2026-04-26T09:54:48.414Z</time></trkpt><trkpt lat="43.0711192" lon="12.6244079"><ele>519.3333333333333</ele><time>2026-04-26T09:54:51.428Z</time></trkpt><trkpt lat="43.0711118" lon="12.624316"><ele>517.0</ele><time>2026-04-26T09:54:53.423Z</time></trkpt><trkpt lat="43.0710905" lon="12.624224"><ele>514.6666666666666</ele><time>2026-04-26T09:54:55.424Z</time></trkpt><trkpt lat="43.0710583" lon="12.6241379"><ele>512.3333333333334</ele><time>2026-04-26T09:54:57.42Z</time></trkpt><trkpt lat="43.0710182" lon="12.6240255"><ele>510.0</ele><time>2026-04-26T09:54:59.446Z</time></trkpt><trkpt lat="43.0709716" lon="12.6239246"><ele>510.0</ele><time>2026-04-26T09:55:01.412Z</time></trkpt><trkpt lat="43.0709262" lon="12.6237982"><ele>510.0</ele><time>2026-04-26T09:55:03.42Z</time></trkpt><trkpt lat="43.070892" lon="12.6236755"><ele>510.0</ele><time>2026-04-26T09:55:05.406Z</time></trkpt><trkpt lat="43.0708966" lon="12.6235585"><ele>510.0</ele><time>2026-04-26T09:55:07.417Z</time></trkpt><trkpt lat="43.0708769" lon="12.6234519"><ele>510.0</ele><time>2026-04-26T09:55:09.425Z</time></trkpt><trkpt lat="43.070814" lon="12.6233617"><ele>507.42857142857144</ele><time>2026-04-26T09:55:11.46Z</time></trkpt><trkpt lat="43.07075" lon="12.6233084"><ele>504.8571428571429</ele><time>2026-04-26T09:55:12.45Z</time></trkpt><trkpt lat="43.0706857" lon="12.6232754"><ele>502.28571428571433</ele><time>2026-04-26T09:55:13.401Z</time></trkpt><trkpt lat="43.070615" lon="12.6232358"><ele>499.7142857142858</ele><time>2026-04-26T09:55:14.418Z</time></trkpt><trkpt lat="43.0705503" lon="12.6231844"><ele>497.14285714285717</ele><time>2026-04-26T09:55:15.418Z</time></trkpt><trkpt lat="43.0704926" lon="12.6231376"><ele>494.57142857142867</ele><time>2026-04-26T09:55:16.406Z</time></trkpt><trkpt lat="43.0704321" lon="12.6230774"><ele>492.00000000000006</ele><time>2026-04-26T09:55:17.418Z</time></trkpt><trkpt lat="43.0703671" lon="12.6230029"><ele>492.0</ele><time>2026-04-26T09:55:18.517Z</time></trkpt><trkpt lat="43.070248" lon="12.6229089"><ele>492.0</ele><time>2026-04-26T09:55:20.412Z</time></trkpt><trkpt lat="43.0701848" lon="12.6228448"><ele>492.0</ele><time>2026-04-26T09:55:21.429Z</time></trkpt><trkpt lat="43.0701261" lon="12.6227834"><ele>492.0</ele><time>2026-04-26T09:55:22.403Z</time></trkpt><trkpt lat="43.0700722" lon="12.6227314"><ele>492.0</ele><time>2026-04-26T09:55:23.399Z</time></trkpt><trkpt lat="43.0700086" lon="12.6226671"><ele>492.0</ele><time>2026-04-26T09:55:24.402Z</time></trkpt><trkpt lat="43.0699306" lon="12.6226052"><ele>488.5</ele><time>2026-04-26T09:55:25.408Z</time></trkpt><trkpt lat="43.0698697" lon="12.6225612"><ele>485.0</ele><time>2026-04-26T09:55:26.426Z</time></trkpt><trkpt lat="43.0697927" lon="12.6225079"><ele>481.5</ele><time>2026-04-26T09:55:27.434Z</time></trkpt><trkpt lat="43.0697232" lon="12.6224728"><ele>478.0</ele><time>2026-04-26T09:55:28.443Z</time></trkpt><trkpt lat="43.0696428" lon="12.6224373"><ele>474.5</ele><time>2026-04-26T09:55:29.434Z</time></trkpt><trkpt lat="43.0695544" lon="12.622395"><ele>471.0</ele><time>2026-04-26T09:55:30.653Z</time></trkpt><trkpt lat="43.0693986" lon="12.6223207"><ele>471.0</ele><time>2026-04-26T09:55:32.444Z</time></trkpt><trkpt lat="43.0693303" lon="12.6222868"><ele>471.0</ele><time>2026-04-26T09:55:33.451Z</time></trkpt><trkpt lat="43.0692338" lon="12.622236"><ele>471.0</ele><time>2026-04-26T09:55:35.516Z</time></trkpt><trkpt lat="43.0691697" lon="12.6222242"><ele>471.0</ele><time>2026-04-26T09:55:37.472Z</time></trkpt><trkpt lat="43.0691033" lon="12.6221926"><ele>471.0</ele><time>2026-04-26T09:55:39.435Z</time></trkpt><trkpt lat="43.0690622" lon="12.6221234"><ele>471.0</ele><time>2026-04-26T09:55:41.458Z</time></trkpt><trkpt lat="43.0690507" lon="12.6220004"><ele>471.0</ele><time>2026-04-26T09:55:44.467Z</time></trkpt><trkpt lat="43.0690549" lon="12.621914"><ele>471.0</ele><time>2026-04-26T09:55:45.42Z</time></trkpt><trkpt lat="43.0690625" lon="12.6218178"><ele>471.0</ele><time>2026-04-26T09:55:46.433Z</time></trkpt><trkpt lat="43.069078" lon="12.6217265"><ele>471.0</ele><time>2026-04-26T09:55:47.436Z</time></trkpt><trkpt lat="43.0691146" lon="12.6215726"><ele>471.0</ele><time>2026-04-26T09:55:49.417Z</time></trkpt><trkpt lat="43.0691818" lon="12.6214352"><ele>471.0</ele><time>2026-04-26T09:55:51.435Z</time></trkpt><trkpt lat="43.0692172" lon="12.6213556"><ele>471.0</ele><time>2026-04-26T09:55:52.422Z</time></trkpt><trkpt lat="43.0692516" lon="12.6212654"><ele>471.0</ele><time>2026-04-26T09:55:53.423Z</time></trkpt><trkpt lat="43.0692864" lon="12.6211679"><ele>471.0</ele><time>2026-04-26T09:55:54.423Z</time></trkpt><trkpt lat="43.0693262" lon="12.6210597"><ele>471.0</ele><time>2026-04-26T09:55:55.435Z</time></trkpt><trkpt lat="43.0693705" lon="12.6209403"><ele>471.0</ele><time>2026-04-26T09:55:56.494Z</time></trkpt><trkpt lat="43.0694135" lon="12.6208376"><ele>471.0</ele><time>2026-04-26T09:55:57.437Z</time></trkpt><trkpt lat="43.069472" lon="12.620727"><ele>469.20000000000005</ele><time>2026-04-26T09:55:58.412Z</time></trkpt><trkpt lat="43.0695466" lon="12.6206267"><ele>467.40000000000003</ele><time>2026-04-26T09:55:59.408Z</time></trkpt><trkpt lat="43.069637" lon="12.6205228"><ele>465.6</ele><time>2026-04-26T09:56:00.422Z</time></trkpt><trkpt lat="43.0697341" lon="12.6204431"><ele>463.8</ele><time>2026-04-26T09:56:01.416Z</time></trkpt><trkpt lat="43.0698321" lon="12.6203789"><ele>462.0</ele><time>2026-04-26T09:56:02.402Z</time></trkpt><trkpt lat="43.0699307" lon="12.6203136"><ele>460.0</ele><time>2026-04-26T09:56:03.419Z</time></trkpt><trkpt lat="43.0699985" lon="12.6202715"><ele>458.00000000000006</ele><time>2026-04-26T09:56:04.425Z</time></trkpt><trkpt lat="43.0701146" lon="12.6202121"><ele>456.00000000000006</ele><time>2026-04-26T09:56:05.429Z</time></trkpt><trkpt lat="43.0702239" lon="12.6201541"><ele>454.0</ele><time>2026-04-26T09:56:06.437Z</time></trkpt><trkpt lat="43.0703234" lon="12.6200792"><ele>452.0</ele><time>2026-04-26T09:56:07.43Z</time></trkpt><trkpt lat="43.0704037" lon="12.6200176"><ele>451.99999999999994</ele><time>2026-04-26T09:56:08.456Z</time></trkpt><trkpt lat="43.0704687" lon="12.6199638"><ele>452.0</ele><time>2026-04-26T09:56:09.453Z</time></trkpt><trkpt lat="43.0705523" lon="12.6198619"><ele>452.0</ele><time>2026-04-26T09:56:11.483Z</time></trkpt><trkpt lat="43.0706114" lon="12.6197672"><ele>452.0</ele><time>2026-04-26T09:56:13.46Z</time></trkpt><trkpt lat="43.0706622" lon="12.6197115"><ele>451.99999999999994</ele><time>2026-04-26T09:56:15.504Z</time></trkpt><trkpt lat="43.0707325" lon="12.6196963"><ele>452.0</ele><time>2026-04-26T09:56:19.483Z</time></trkpt><trkpt lat="43.0707066" lon="12.6195944"><ele>452.0</ele><time>2026-04-26T09:56:25.458Z</time></trkpt><trkpt lat="43.0706494" lon="12.6195514"><ele>452.0</ele><time>2026-04-26T09:56:28.518Z</time></trkpt><trkpt lat="43.0706015" lon="12.6194841"><ele>452.0</ele><time>2026-04-26T09:56:31.576Z</time></trkpt><trkpt lat="43.0705447" lon="12.6194265"><ele>452.0</ele><time>2026-04-26T09:56:34.454Z</time></trkpt><trkpt lat="43.0704842" lon="12.6193586"><ele>452.0</ele><time>2026-04-26T09:56:37.447Z</time></trkpt><trkpt lat="43.0704223" lon="12.6192878"><ele>452.0</ele><time>2026-04-26T09:56:40.471Z</time></trkpt><trkpt lat="43.0703694" lon="12.6192169"><ele>452.0</ele><time>2026-04-26T09:56:43.53Z</time></trkpt><trkpt lat="43.0703213" lon="12.6191466"><ele>450.8333333333333</ele><time>2026-04-26T09:56:46.485Z</time></trkpt><trkpt lat="43.0702682" lon="12.6190769"><ele>449.66666666666663</ele><time>2026-04-26T09:56:49.478Z</time></trkpt><trkpt lat="43.0702128" lon="12.6190032"><ele>448.5</ele><time>2026-04-26T09:56:52.583Z</time></trkpt><trkpt lat="43.0701411" lon="12.6189565"><ele>447.33333333333337</ele><time>2026-04-26T09:56:56.448Z</time></trkpt><trkpt lat="43.0700816" lon="12.6189027"><ele>446.1666666666667</ele><time>2026-04-26T09:56:59.474Z</time></trkpt><trkpt lat="43.0700064" lon="12.6188074"><ele>445.0</ele><time>2026-04-26T09:57:03.483Z</time></trkpt><trkpt lat="43.0699572" lon="12.6187316"><ele>444.1666666666667</ele><time>2026-04-26T09:57:06.577Z</time></trkpt><trkpt lat="43.0699553" lon="12.6186213"><ele>443.33333333333337</ele><time>2026-04-26T09:57:09.475Z</time></trkpt><trkpt lat="43.0699587" lon="12.6185339"><ele>442.5</ele><time>2026-04-26T09:57:17.438Z</time></trkpt><trkpt lat="43.0700288" lon="12.6184851"><ele>441.66666666666663</ele><time>2026-04-26T09:57:56.438Z</time></trkpt><trkpt lat="43.0700724" lon="12.6184111"><ele>440.8333333333333</ele><time>2026-04-26T09:57:59.443Z</time></trkpt><trkpt lat="43.0701309" lon="12.6183326"><ele>440.0</ele><time>2026-04-26T09:58:02.427Z</time></trkpt><trkpt lat="43.0702027" lon="12.6182508"><ele>439.99999999999994</ele><time>2026-04-26T09:58:05.43Z</time></trkpt><trkpt lat="43.0702507" lon="12.6181868"><ele>440.0</ele><time>2026-04-26T09:58:07.434Z</time></trkpt><trkpt lat="43.0702996" lon="12.6181288"><ele>440.0</ele><time>2026-04-26T09:58:09.397Z</time></trkpt><trkpt lat="43.0703628" lon="12.6180794"><ele>440.0</ele><time>2026-04-26T09:58:11.434Z</time></trkpt><trkpt lat="43.070431" lon="12.6180711"><ele>439.99999999999994</ele><time>2026-04-26T09:58:13.453Z</time></trkpt><trkpt lat="43.0705051" lon="12.6180007"><ele>440.0</ele><time>2026-04-26T09:58:15.395Z</time></trkpt><trkpt lat="43.0706131" lon="12.617897"><ele>439.8</ele><time>2026-04-26T09:58:18.405Z</time></trkpt><trkpt lat="43.0706842" lon="12.6178135"><ele>439.6</ele><time>2026-04-26T09:58:20.432Z</time></trkpt><trkpt lat="43.0707644" lon="12.6177065"><ele>439.4</ele><time>2026-04-26T09:58:22.435Z</time></trkpt><trkpt lat="43.0708276" lon="12.6175877"><ele>439.2</ele><time>2026-04-26T09:58:24.409Z</time></trkpt><trkpt lat="43.0708664" lon="12.6174513"><ele>439.0</ele><time>2026-04-26T09:58:26.383Z</time></trkpt><trkpt lat="43.0709311" lon="12.6173814"><ele>439.00000000000006</ele><time>2026-04-26T09:58:28.405Z</time></trkpt><trkpt lat="43.0709882" lon="12.6173012"><ele>439.0</ele><time>2026-04-26T09:58:30.385Z</time></trkpt><trkpt lat="43.070974" lon="12.6171757"><ele>439.0</ele><time>2026-04-26T09:58:33.428Z</time></trkpt><trkpt lat="43.070989" lon="12.6170898"><ele>439.0</ele><time>2026-04-26T09:58:34.402Z</time></trkpt><trkpt lat="43.0710207" lon="12.616962"><ele>439.00000000000006</ele><time>2026-04-26T09:58:36.385Z</time></trkpt><trkpt lat="43.0710844" lon="12.6169042"><ele>439.0</ele><time>2026-04-26T09:58:37.383Z</time></trkpt><trkpt lat="43.0711397" lon="12.6168494"><ele>437.50000000000006</ele><time>2026-04-26T09:58:38.379Z</time></trkpt><trkpt lat="43.0711963" lon="12.6167648"><ele>436.0</ele><time>2026-04-26T09:58:39.401Z</time></trkpt><trkpt lat="43.0712441" lon="12.6166803"><ele>434.5</ele><time>2026-04-26T09:58:40.385Z</time></trkpt><trkpt lat="43.0713073" lon="12.6166036"><ele>433.0</ele><time>2026-04-26T09:58:41.352Z</time></trkpt><trkpt lat="43.0712498" lon="12.6165316"><ele>431.50000000000006</ele><time>2026-04-26T09:58:45.449Z</time></trkpt><trkpt lat="43.0712471" lon="12.6164416"><ele>430.0</ele><time>2026-04-26T09:58:48.344Z</time></trkpt><trkpt lat="43.0712866" lon="12.6163526"><ele>430.00000000000006</ele><time>2026-04-26T09:58:52.341Z</time></trkpt><trkpt lat="43.0712029" lon="12.6162101"><ele>430.0</ele><time>2026-04-26T09:59:00.355Z</time></trkpt><trkpt lat="43.0711923" lon="12.6161143"><ele>430.0</ele><time>2026-04-26T09:59:01.347Z</time></trkpt><trkpt lat="43.0711601" lon="12.6160376"><ele>430.0</ele><time>2026-04-26T09:59:04.357Z</time></trkpt><trkpt lat="43.0711089" lon="12.6159447"><ele>430.00000000000006</ele><time>2026-04-26T09:59:06.35Z</time></trkpt><trkpt lat="43.0710966" lon="12.6158294"><ele>430.0</ele><time>2026-04-26T09:59:08.349Z</time></trkpt><trkpt lat="43.0710942" lon="12.6157428"><ele>428.33333333333337</ele><time>2026-04-26T09:59:11.354Z</time></trkpt><trkpt lat="43.0710886" lon="12.6156525"><ele>426.6666666666667</ele><time>2026-04-26T09:59:13.356Z</time></trkpt><trkpt lat="43.0710547" lon="12.6155078"><ele>425.0</ele><time>2026-04-26T09:59:15.346Z</time></trkpt><trkpt lat="43.0710556" lon="12.6153579"><ele>423.33333333333337</ele><time>2026-04-26T09:59:17.425Z</time></trkpt><trkpt lat="43.0710195" lon="12.6152794"><ele>421.6666666666667</ele><time>2026-04-26T09:59:19.405Z</time></trkpt><trkpt lat="43.0710169" lon="12.6151847"><ele>420.0</ele><time>2026-04-26T09:59:21.41Z</time></trkpt><trkpt lat="43.0710577" lon="12.6150908"><ele>419.2857142857143</ele><time>2026-04-26T09:59:23.516Z</time></trkpt><trkpt lat="43.0711002" lon="12.614959"><ele>418.57142857142856</ele><time>2026-04-26T09:59:26.427Z</time></trkpt><trkpt lat="43.0711178" lon="12.6148736"><ele>417.8571428571429</ele><time>2026-04-26T09:59:31.437Z</time></trkpt><trkpt lat="43.0711489" lon="12.6147964"><ele>417.1428571428571</ele><time>2026-04-26T09:59:38.42Z</time></trkpt><trkpt lat="43.0712001" lon="12.6147377"><ele>416.42857142857144</ele><time>2026-04-26T09:59:44.43Z</time></trkpt><trkpt lat="43.0712501" lon="12.6146586"><ele>415.7142857142857</ele><time>2026-04-26T09:59:48.434Z</time></trkpt><trkpt lat="43.0712588" lon="12.614563"><ele>415.0</ele><time>2026-04-26T09:59:51.404Z</time></trkpt><trkpt lat="43.0712473" lon="12.6144765"><ele>413.8571428571429</ele><time>2026-04-26T09:59:55.514Z</time></trkpt><trkpt lat="43.0712297" lon="12.6143928"><ele>412.7142857142857</ele><time>2026-04-26T10:00:03.418Z</time></trkpt><trkpt lat="43.0712694" lon="12.6143181"><ele>411.57142857142856</ele><time>2026-04-26T10:00:09.414Z</time></trkpt><trkpt lat="43.0712975" lon="12.6142211"><ele>410.42857142857144</ele><time>2026-04-26T10:00:18.498Z</time></trkpt><trkpt lat="43.0713313" lon="12.6141223"><ele>409.2857142857143</ele><time>2026-04-26T10:00:22.361Z</time></trkpt><trkpt lat="43.0713637" lon="12.6140316"><ele>408.14285714285717</ele><time>2026-04-26T10:00:26.36Z</time></trkpt><trkpt lat="43.071385" lon="12.6139433"><ele>407.0</ele><time>2026-04-26T10:00:35.411Z</time></trkpt><trkpt lat="43.0714132" lon="12.6138556"><ele>406.99999999999994</ele><time>2026-04-26T10:00:42.363Z</time></trkpt><trkpt lat="43.071442" lon="12.6137419"><ele>407.0</ele><time>2026-04-26T10:00:47.387Z</time></trkpt><trkpt lat="43.0714584" lon="12.6136535"><ele>407.0</ele><time>2026-04-26T10:00:49.394Z</time></trkpt><trkpt lat="43.0714653" lon="12.6135664"><ele>407.0</ele><time>2026-04-26T10:01:02.387Z</time></trkpt><trkpt lat="43.0714765" lon="12.6134762"><ele>406.99999999999994</ele><time>2026-04-26T10:01:11.358Z</time></trkpt><trkpt lat="43.0714556" lon="12.6132975"><ele>407.0</ele><time>2026-04-26T10:01:15.371Z</time></trkpt><trkpt lat="43.0714415" lon="12.61319"><ele>405.16666666666663</ele><time>2026-04-26T10:01:18.355Z</time></trkpt><trkpt lat="43.0714456" lon="12.6130933"><ele>403.3333333333333</ele><time>2026-04-26T10:01:22.348Z</time></trkpt><trkpt lat="43.0714677" lon="12.6129986"><ele>401.5</ele><time>2026-04-26T10:01:25.352Z</time></trkpt><trkpt lat="43.0714992" lon="12.6128901"><ele>399.66666666666663</ele><time>2026-04-26T10:01:30.348Z</time></trkpt><trkpt lat="43.0715201" lon="12.6127901"><ele>397.8333333333333</ele><time>2026-04-26T10:01:34.339Z</time></trkpt><trkpt lat="43.0715505" lon="12.6126808"><ele>396.0</ele><time>2026-04-26T10:01:37.326Z</time></trkpt><trkpt lat="43.0715818" lon="12.612603"><ele>396.42857142857144</ele><time>2026-04-26T10:01:48.311Z</time></trkpt><trkpt lat="43.0716221" lon="12.6125354"><ele>396.85714285714283</ele><time>2026-04-26T10:01:55.343Z</time></trkpt><trkpt lat="43.0716551" lon="12.6124558"><ele>397.2857142857143</ele><time>2026-04-26T10:02:02.349Z</time></trkpt><trkpt lat="43.0716691" lon="12.6123626"><ele>397.7142857142857</ele><time>2026-04-26T10:02:09.362Z</time></trkpt><trkpt lat="43.071709" lon="12.6122798"><ele>398.1428571428571</ele><time>2026-04-26T10:02:17.398Z</time></trkpt><trkpt lat="43.0717506" lon="12.6122059"><ele>398.57142857142856</ele><time>2026-04-26T10:02:24.394Z</time></trkpt><trkpt lat="43.071794" lon="12.6121346"><ele>399.0</ele><time>2026-04-26T10:02:27.4Z</time></trkpt><trkpt lat="43.0718527" lon="12.6120533"><ele>397.0</ele><time>2026-04-26T10:02:31.4Z</time></trkpt><trkpt lat="43.0718927" lon="12.6119857"><ele>395.0</ele><time>2026-04-26T10:02:34.359Z</time></trkpt><trkpt lat="43.0719366" lon="12.6118886"><ele>393.0</ele><time>2026-04-26T10:02:39.373Z</time></trkpt><trkpt lat="43.071982" lon="12.6118281"><ele>391.0</ele><time>2026-04-26T10:02:53.344Z</time></trkpt><trkpt lat="43.0720314" lon="12.6117622"><ele>389.0</ele><time>2026-04-26T10:03:01.359Z</time></trkpt><trkpt lat="43.0720694" lon="12.6116819"><ele>387.0</ele><time>2026-04-26T10:03:09.383Z</time></trkpt><trkpt lat="43.0721116" lon="12.6116101"><ele>385.0</ele><time>2026-04-26T10:03:17.375Z</time></trkpt><trkpt lat="43.0721578" lon="12.6115379"><ele>385.0</ele><time>2026-04-26T10:03:26.408Z</time></trkpt><trkpt lat="43.0722021" lon="12.6114584"><ele>385.0</ele><time>2026-04-26T10:03:30.401Z</time></trkpt><trkpt lat="43.0722187" lon="12.6113662"><ele>385.0</ele><time>2026-04-26T10:03:34.393Z</time></trkpt><trkpt lat="43.0722573" lon="12.6112883"><ele>385.0</ele><time>2026-04-26T10:03:38.411Z</time></trkpt><trkpt lat="43.0723246" lon="12.6112397"><ele>385.0</ele><time>2026-04-26T10:03:46.367Z</time></trkpt><trkpt lat="43.0723552" lon="12.6111565"><ele>385.0</ele><time>2026-04-26T10:03:50.371Z</time></trkpt><trkpt lat="43.0723668" lon="12.6110674"><ele>385.0</ele><time>2026-04-26T10:03:55.363Z</time></trkpt><trkpt lat="43.0723835" lon="12.6109693"><ele>386.85714285714283</ele><time>2026-04-26T10:03:59.39Z</time></trkpt><trkpt lat="43.0724018" lon="12.610875"><ele>388.7142857142857</ele><time>2026-04-26T10:04:06.391Z</time></trkpt><trkpt lat="43.0724396" lon="12.6107926"><ele>390.57142857142856</ele><time>2026-04-26T10:04:12.406Z</time></trkpt><trkpt lat="43.0724834" lon="12.6107224"><ele>392.42857142857144</ele><time>2026-04-26T10:04:17.424Z</time></trkpt><trkpt lat="43.0725158" lon="12.6106454"><ele>394.2857142857143</ele><time>2026-04-26T10:04:19.407Z</time></trkpt><trkpt lat="43.0725464" lon="12.6105465"><ele>396.1428571428571</ele><time>2026-04-26T10:04:21.409Z</time></trkpt><trkpt lat="43.0725969" lon="12.6104603"><ele>398.0</ele><time>2026-04-26T10:04:23.39Z</time></trkpt><trkpt lat="43.0726366" lon="12.610349"><ele>395.16666666666663</ele><time>2026-04-26T10:04:25.51Z</time></trkpt><trkpt lat="43.072674" lon="12.6102366"><ele>392.3333333333333</ele><time>2026-04-26T10:04:27.376Z</time></trkpt><trkpt lat="43.0726917" lon="12.6101032"><ele>389.5</ele><time>2026-04-26T10:04:29.402Z</time></trkpt><trkpt lat="43.0727188" lon="12.6099758"><ele>386.66666666666663</ele><time>2026-04-26T10:04:31.412Z</time></trkpt><trkpt lat="43.0727406" lon="12.6098889"><ele>383.8333333333333</ele><time>2026-04-26T10:04:33.407Z</time></trkpt><trkpt lat="43.0727816" lon="12.609815"><ele>381.0</ele><time>2026-04-26T10:04:40.406Z</time></trkpt><trkpt lat="43.0728183" lon="12.6097374"><ele>381.0</ele><time>2026-04-26T10:04:42.418Z</time></trkpt><trkpt lat="43.0728411" lon="12.6096402"><ele>381.0</ele><time>2026-04-26T10:04:44.412Z</time></trkpt><trkpt lat="43.0728669" lon="12.6095466"><ele>381.0</ele><time>2026-04-26T10:04:46.437Z</time></trkpt><trkpt lat="43.072919" lon="12.609492"><ele>381.0</ele><time>2026-04-26T10:04:51.427Z</time></trkpt><trkpt lat="43.0729476" lon="12.6094143"><ele>381.0</ele><time>2026-04-26T10:04:57.4Z</time></trkpt><trkpt lat="43.0729835" lon="12.6093121"><ele>381.0</ele><time>2026-04-26T10:05:08.408Z</time></trkpt><trkpt lat="43.0730057" lon="12.6091914"><ele>378.5</ele><time>2026-04-26T10:05:12.379Z</time></trkpt><trkpt lat="43.0730496" lon="12.6090872"><ele>376.0</ele><time>2026-04-26T10:05:17.422Z</time></trkpt><trkpt lat="43.0730866" lon="12.6090131"><ele>373.5</ele><time>2026-04-26T10:05:19.41Z</time></trkpt><trkpt lat="43.073124" lon="12.6089277"><ele>371.0</ele><time>2026-04-26T10:05:21.393Z</time></trkpt><trkpt lat="43.0731734" lon="12.6088071"><ele>368.5</ele><time>2026-04-26T10:05:23.399Z</time></trkpt><trkpt lat="43.0732162" lon="12.6087008"><ele>366.0</ele><time>2026-04-26T10:05:25.4Z</time></trkpt><trkpt lat="43.073235" lon="12.6086108"><ele>368.6666666666667</ele><time>2026-04-26T10:05:27.378Z</time></trkpt><trkpt lat="43.0732772" lon="12.6085403"><ele>371.3333333333333</ele><time>2026-04-26T10:05:29.381Z</time></trkpt><trkpt lat="43.0733289" lon="12.6084539"><ele>374.0</ele><time>2026-04-26T10:05:32.396Z</time></trkpt><trkpt lat="43.0733725" lon="12.6083554"><ele>376.66666666666663</ele><time>2026-04-26T10:05:34.413Z</time></trkpt><trkpt lat="43.0734303" lon="12.6082591"><ele>379.3333333333333</ele><time>2026-04-26T10:05:36.414Z</time></trkpt><trkpt lat="43.0734615" lon="12.6081576"><ele>382.0</ele><time>2026-04-26T10:05:39.437Z</time></trkpt><trkpt lat="43.073516" lon="12.6080557"><ele>382.0</ele><time>2026-04-26T10:05:42.407Z</time></trkpt><trkpt lat="43.0735752" lon="12.6079837"><ele>382.0</ele><time>2026-04-26T10:05:44.435Z</time></trkpt><trkpt lat="43.0736227" lon="12.6079031"><ele>382.0</ele><time>2026-04-26T10:05:46.42Z</time></trkpt><trkpt lat="43.0736498" lon="12.6078218"><ele>382.0</ele><time>2026-04-26T10:05:48.408Z</time></trkpt><trkpt lat="43.0736996" lon="12.6077443"><ele>382.0</ele><time>2026-04-26T10:05:53.45Z</time></trkpt><trkpt lat="43.0737563" lon="12.6076685"><ele>382.0</ele><time>2026-04-26T10:05:56.405Z</time></trkpt><trkpt lat="43.073813" lon="12.607621"><ele>382.0</ele><time>2026-04-26T10:05:58.4Z</time></trkpt><trkpt lat="43.0738693" lon="12.6075494"><ele>381.16666666666663</ele><time>2026-04-26T10:06:01.429Z</time></trkpt><trkpt lat="43.0739274" lon="12.6074704"><ele>380.3333333333333</ele><time>2026-04-26T10:06:06.514Z</time></trkpt><trkpt lat="43.0739926" lon="12.6073955"><ele>379.5</ele><time>2026-04-26T10:06:09.401Z</time></trkpt><trkpt lat="43.0740487" lon="12.6073128"><ele>378.6666666666667</ele><time>2026-04-26T10:06:11.423Z</time></trkpt><trkpt lat="43.0740785" lon="12.6072177"><ele>377.83333333333337</ele><time>2026-04-26T10:06:13.426Z</time></trkpt><trkpt lat="43.0741149" lon="12.6071368"><ele>377.0</ele><time>2026-04-26T10:06:15.43Z</time></trkpt><trkpt lat="43.0741801" lon="12.6070619"><ele>373.20000000000005</ele><time>2026-04-26T10:06:18.456Z</time></trkpt><trkpt lat="43.0742145" lon="12.6069515"><ele>369.4</ele><time>2026-04-26T10:06:20.429Z</time></trkpt><trkpt lat="43.0742703" lon="12.6068301"><ele>365.6</ele><time>2026-04-26T10:06:22.432Z</time></trkpt><trkpt lat="43.0743525" lon="12.6067018"><ele>361.79999999999995</ele><time>2026-04-26T10:06:24.455Z</time></trkpt><trkpt lat="43.0744123" lon="12.6065553"><ele>358.0</ele><time>2026-04-26T10:06:26.484Z</time></trkpt><trkpt lat="43.0744666" lon="12.6064098"><ele>358.0</ele><time>2026-04-26T10:06:28.421Z</time></trkpt><trkpt lat="43.0744932" lon="12.6062581"><ele>358.0</ele><time>2026-04-26T10:06:30.569Z</time></trkpt><trkpt lat="43.0744916" lon="12.606164"><ele>358.0</ele><time>2026-04-26T10:06:32.397Z</time></trkpt><trkpt lat="43.0744337" lon="12.6061295"><ele>358.0</ele><time>2026-04-26T10:06:34.417Z</time></trkpt><trkpt lat="43.074348" lon="12.6061031"><ele>358.0</ele><time>2026-04-26T10:06:36.438Z</time></trkpt><trkpt lat="43.0742513" lon="12.6060725"><ele>358.0</ele><time>2026-04-26T10:06:38.638Z</time></trkpt><trkpt lat="43.0741663" lon="12.6061495"><ele>354.79999999999995</ele><time>2026-04-26T10:06:40.479Z</time></trkpt><trkpt lat="43.0740711" lon="12.6062417"><ele>351.6</ele><time>2026-04-26T10:06:42.416Z</time></trkpt><trkpt lat="43.0740232" lon="12.6062992"><ele>348.4</ele><time>2026-04-26T10:06:43.465Z</time></trkpt><trkpt lat="43.0739246" lon="12.6064116"><ele>345.20000000000005</ele><time>2026-04-26T10:06:45.434Z</time></trkpt><trkpt lat="43.0738368" lon="12.6065187"><ele>342.0</ele><time>2026-04-26T10:06:47.403Z</time></trkpt><trkpt lat="43.0737969" lon="12.6066338"><ele>342.0</ele><time>2026-04-26T10:06:49.401Z</time></trkpt><trkpt lat="43.0737738" lon="12.606742"><ele>342.0</ele><time>2026-04-26T10:06:53.464Z</time></trkpt><trkpt lat="43.0737098" lon="12.6067839"><ele>342.0</ele><time>2026-04-26T10:06:55.445Z</time></trkpt><trkpt lat="43.0736607" lon="12.6068534"><ele>342.0</ele><time>2026-04-26T10:06:58.44Z</time></trkpt><trkpt lat="43.0735837" lon="12.6069551"><ele>342.0</ele><time>2026-04-26T10:07:01.384Z</time></trkpt><trkpt lat="43.0734869" lon="12.6070067"><ele>342.0</ele><time>2026-04-26T10:07:03.41Z</time></trkpt><trkpt lat="43.0734225" lon="12.6070646"><ele>341.1666666666667</ele><time>2026-04-26T10:07:05.543Z</time></trkpt><trkpt lat="43.0733497" lon="12.6071479"><ele>340.3333333333333</ele><time>2026-04-26T10:07:08.392Z</time></trkpt><trkpt lat="43.0733097" lon="12.6072246"><ele>339.5</ele><time>2026-04-26T10:07:10.409Z</time></trkpt><trkpt lat="43.0732159" lon="12.6072878"><ele>338.66666666666663</ele><time>2026-04-26T10:07:13.409Z</time></trkpt><trkpt lat="43.0731522" lon="12.6073204"><ele>337.8333333333333</ele><time>2026-04-26T10:07:16.386Z</time></trkpt><trkpt lat="43.0730926" lon="12.607359"><ele>337.0</ele><time>2026-04-26T10:07:21.405Z</time></trkpt><trkpt lat="43.0730295" lon="12.6074364"><ele>337.0</ele><time>2026-04-26T10:07:24.392Z</time></trkpt><trkpt lat="43.0729729" lon="12.6074749"><ele>337.0</ele><time>2026-04-26T10:07:27.405Z</time></trkpt><trkpt lat="43.0729363" lon="12.6074038"><ele>337.0</ele><time>2026-04-26T10:07:30.404Z</time></trkpt><trkpt lat="43.0729581" lon="12.6073024"><ele>337.0</ele><time>2026-04-26T10:07:34.426Z</time></trkpt><trkpt lat="43.0730393" lon="12.6072127"><ele>337.0</ele><time>2026-04-26T10:07:37.39Z</time></trkpt><trkpt lat="43.0730817" lon="12.6071"><ele>337.0</ele><time>2026-04-26T10:07:39.386Z</time></trkpt><trkpt lat="43.0731197" lon="12.6069887"><ele>334.6</ele><time>2026-04-26T10:07:41.412Z</time></trkpt><trkpt lat="43.0731395" lon="12.6068824"><ele>332.20000000000005</ele><time>2026-04-26T10:07:43.4Z</time></trkpt><trkpt lat="43.0731152" lon="12.6067613"><ele>329.8</ele><time>2026-04-26T10:07:45.412Z</time></trkpt><trkpt lat="43.0729772" lon="12.6066781"><ele>327.4</ele><time>2026-04-26T10:07:48.44Z</time></trkpt><trkpt lat="43.0728884" lon="12.6067877"><ele>325.0</ele><time>2026-04-26T10:07:50.431Z</time></trkpt><trkpt lat="43.0728415" lon="12.6068518"><ele>325.0</ele><time>2026-04-26T10:07:51.435Z</time></trkpt><trkpt lat="43.0727937" lon="12.6069224"><ele>325.0</ele><time>2026-04-26T10:07:52.436Z</time></trkpt><trkpt lat="43.0727347" lon="12.6069856"><ele>325.0</ele><time>2026-04-26T10:07:53.454Z</time></trkpt><trkpt lat="43.0726906" lon="12.6070641"><ele>325.0</ele><time>2026-04-26T10:07:54.466Z</time></trkpt><trkpt lat="43.0726438" lon="12.60722"><ele>325.0</ele><time>2026-04-26T10:07:56.428Z</time></trkpt><trkpt lat="43.0726062" lon="12.6073049"><ele>325.0</ele><time>2026-04-26T10:07:57.446Z</time></trkpt><trkpt lat="43.0725534" lon="12.607371"><ele>324.0</ele><time>2026-04-26T10:07:58.419Z</time></trkpt><trkpt lat="43.0724854" lon="12.6074282"><ele>323.0</ele><time>2026-04-26T10:07:59.442Z</time></trkpt><trkpt lat="43.0723725" lon="12.6074793"><ele>322.0</ele><time>2026-04-26T10:08:01.435Z</time></trkpt><trkpt lat="43.0722651" lon="12.607459"><ele>321.0</ele><time>2026-04-26T10:08:03.42Z</time></trkpt><trkpt lat="43.0721485" lon="12.6073873"><ele>320.0</ele><time>2026-04-26T10:08:05.441Z</time></trkpt><trkpt lat="43.0720302" lon="12.6073321"><ele>320.0</ele><time>2026-04-26T10:08:07.434Z</time></trkpt><trkpt lat="43.0719106" lon="12.6073613"><ele>320.0</ele><time>2026-04-26T10:08:09.434Z</time></trkpt><trkpt lat="43.0718436" lon="12.6073919"><ele>320.0</ele><time>2026-04-26T10:08:10.421Z</time></trkpt><trkpt lat="43.0717649" lon="12.6074447"><ele>320.0</ele><time>2026-04-26T10:08:11.56Z</time></trkpt><trkpt lat="43.0717066" lon="12.6074851"><ele>320.0</ele><time>2026-04-26T10:08:12.465Z</time></trkpt><trkpt lat="43.0716512" lon="12.6075308"><ele>320.0</ele><time>2026-04-26T10:08:13.453Z</time></trkpt><trkpt lat="43.071583" lon="12.6075814"><ele>320.1666666666667</ele><time>2026-04-26T10:08:14.455Z</time></trkpt><trkpt lat="43.0715045" lon="12.6076371"><ele>320.33333333333337</ele><time>2026-04-26T10:08:15.421Z</time></trkpt><trkpt lat="43.071429" lon="12.6076936"><ele>320.5</ele><time>2026-04-26T10:08:16.444Z</time></trkpt><trkpt lat="43.0713527" lon="12.607744"><ele>320.6666666666667</ele><time>2026-04-26T10:08:17.433Z</time></trkpt><trkpt lat="43.0712733" lon="12.6077912"><ele>320.8333333333333</ele><time>2026-04-26T10:08:18.461Z</time></trkpt><trkpt lat="43.0712021" lon="12.6078467"><ele>321.0</ele><time>2026-04-26T10:08:19.44Z</time></trkpt><trkpt lat="43.0711208" lon="12.6079157"><ele>321.0</ele><time>2026-04-26T10:08:20.574Z</time></trkpt><trkpt lat="43.0709954" lon="12.6080363"><ele>321.0</ele><time>2026-04-26T10:08:22.468Z</time></trkpt><trkpt lat="43.0709116" lon="12.6080961"><ele>321.0</ele><time>2026-04-26T10:08:23.566Z</time></trkpt><trkpt lat="43.0708318" lon="12.6081341"><ele>321.0</ele><time>2026-04-26T10:08:24.479Z</time></trkpt><trkpt lat="43.0707518" lon="12.6081797"><ele>321.0</ele><time>2026-04-26T10:08:25.443Z</time></trkpt><trkpt lat="43.0706708" lon="12.6082384"><ele>319.40000000000003</ele><time>2026-04-26T10:08:26.46Z</time></trkpt><trkpt lat="43.070589" lon="12.6082961"><ele>317.8</ele><time>2026-04-26T10:08:27.452Z</time></trkpt><trkpt lat="43.070504" lon="12.6083593"><ele>316.20000000000005</ele><time>2026-04-26T10:08:28.49Z</time></trkpt><trkpt lat="43.0704235" lon="12.608411"><ele>314.6</ele><time>2026-04-26T10:08:29.447Z</time></trkpt><trkpt lat="43.070337" lon="12.6084753"><ele>313.0</ele><time>2026-04-26T10:08:30.498Z</time></trkpt><trkpt lat="43.0702514" lon="12.6085367"><ele>313.0</ele><time>2026-04-26T10:08:31.503Z</time></trkpt><trkpt lat="43.0701698" lon="12.608598"><ele>313.0</ele><time>2026-04-26T10:08:32.476Z</time></trkpt><trkpt lat="43.0700844" lon="12.6086675"><ele>313.0</ele><time>2026-04-26T10:08:33.475Z</time></trkpt><trkpt lat="43.0699987" lon="12.6087419"><ele>313.0</ele><time>2026-04-26T10:08:34.499Z</time></trkpt><trkpt lat="43.069911" lon="12.608778"><ele>313.0</ele><time>2026-04-26T10:08:35.466Z</time></trkpt><trkpt lat="43.06982" lon="12.6087625"><ele>311.6</ele><time>2026-04-26T10:08:36.467Z</time></trkpt><trkpt lat="43.0697454" lon="12.6086999"><ele>310.20000000000005</ele><time>2026-04-26T10:08:37.446Z</time></trkpt><trkpt lat="43.0696934" lon="12.608587"><ele>308.8</ele><time>2026-04-26T10:08:38.47Z</time></trkpt><trkpt lat="43.0696662" lon="12.6084612"><ele>307.40000000000003</ele><time>2026-04-26T10:08:39.451Z</time></trkpt><trkpt lat="43.0696392" lon="12.6083219"><ele>306.0</ele><time>2026-04-26T10:08:40.443Z</time></trkpt><trkpt lat="43.0696162" lon="12.6081756"><ele>304.2</ele><time>2026-04-26T10:08:41.466Z</time></trkpt><trkpt lat="43.0695993" lon="12.6080319"><ele>302.40000000000003</ele><time>2026-04-26T10:08:42.473Z</time></trkpt><trkpt lat="43.0695832" lon="12.6078988"><ele>300.6</ele><time>2026-04-26T10:08:43.474Z</time></trkpt><trkpt lat="43.0695642" lon="12.6077578"><ele>298.8</ele><time>2026-04-26T10:08:44.485Z</time></trkpt><trkpt lat="43.0695451" lon="12.6076215"><ele>297.0</ele><time>2026-04-26T10:08:45.467Z</time></trkpt><trkpt lat="43.0695312" lon="12.6074872"><ele>296.6</ele><time>2026-04-26T10:08:46.459Z</time></trkpt><trkpt lat="43.0694983" lon="12.6073394"><ele>296.2</ele><time>2026-04-26T10:08:47.493Z</time></trkpt><trkpt lat="43.0694887" lon="12.607207"><ele>295.8</ele><time>2026-04-26T10:08:48.455Z</time></trkpt><trkpt lat="43.069483" lon="12.6070563"><ele>295.4</ele><time>2026-04-26T10:08:49.47Z</time></trkpt><trkpt lat="43.069508" lon="12.6069092"><ele>295.0</ele><time>2026-04-26T10:08:50.461Z</time></trkpt><trkpt lat="43.0695617" lon="12.6067561"><ele>294.5</ele><time>2026-04-26T10:08:51.557Z</time></trkpt><trkpt lat="43.0697011" lon="12.6065434"><ele>294.0</ele><time>2026-04-26T10:08:53.459Z</time></trkpt><trkpt lat="43.0697827" lon="12.6064296"><ele>293.5</ele><time>2026-04-26T10:08:54.501Z</time></trkpt><trkpt lat="43.0698542" lon="12.606325"><ele>293.0</ele><time>2026-04-26T10:08:55.467Z</time></trkpt><trkpt lat="43.0699268" lon="12.6062181"><ele>292.8</ele><time>2026-04-26T10:08:56.46Z</time></trkpt><trkpt lat="43.0700031" lon="12.6061092"><ele>292.6</ele><time>2026-04-26T10:08:57.462Z</time></trkpt><trkpt lat="43.0700755" lon="12.6060003"><ele>292.4</ele><time>2026-04-26T10:08:58.474Z</time></trkpt><trkpt lat="43.0701468" lon="12.6058941"><ele>292.2</ele><time>2026-04-26T10:08:59.467Z</time></trkpt><trkpt lat="43.0702238" lon="12.6057947"><ele>292.0</ele><time>2026-04-26T10:09:00.478Z</time></trkpt><trkpt lat="43.070303" lon="12.6057013"><ele>292.0</ele><time>2026-04-26T10:09:01.458Z</time></trkpt><trkpt lat="43.0703852" lon="12.6056043"><ele>292.0</ele><time>2026-04-26T10:09:02.499Z</time></trkpt><trkpt lat="43.0704633" lon="12.6055223"><ele>292.0</ele><time>2026-04-26T10:09:03.495Z</time></trkpt><trkpt lat="43.0705476" lon="12.6054373"><ele>292.0</ele><time>2026-04-26T10:09:04.493Z</time></trkpt><trkpt lat="43.0706422" lon="12.6053574"><ele>292.0</ele><time>2026-04-26T10:09:05.58Z</time></trkpt><trkpt lat="43.0708128" lon="12.6052286"><ele>291.0</ele><time>2026-04-26T10:09:07.46Z</time></trkpt><trkpt lat="43.0709095" lon="12.6051657"><ele>290.0</ele><time>2026-04-26T10:09:08.498Z</time></trkpt><trkpt lat="43.0710062" lon="12.6051116"><ele>289.0</ele><time>2026-04-26T10:09:09.505Z</time></trkpt><trkpt lat="43.0710975" lon="12.6050626"><ele>288.0</ele><time>2026-04-26T10:09:10.47Z</time></trkpt><trkpt lat="43.0711919" lon="12.6050097"><ele>287.0</ele><time>2026-04-26T10:09:11.466Z</time></trkpt><trkpt lat="43.0712898" lon="12.6049588"><ele>287.0</ele><time>2026-04-26T10:09:12.485Z</time></trkpt><trkpt lat="43.0713966" lon="12.6049052"><ele>287.0</ele><time>2026-04-26T10:09:13.6Z</time></trkpt><trkpt lat="43.0715787" lon="12.6048226"><ele>287.0</ele><time>2026-04-26T10:09:15.495Z</time></trkpt><trkpt lat="43.0716734" lon="12.6047718"><ele>287.0</ele><time>2026-04-26T10:09:16.515Z</time></trkpt><trkpt lat="43.0717616" lon="12.6047276"><ele>287.2</ele><time>2026-04-26T10:09:17.463Z</time></trkpt><trkpt lat="43.0718569" lon="12.6046821"><ele>287.4</ele><time>2026-04-26T10:09:18.491Z</time></trkpt><trkpt lat="43.0719502" lon="12.6046424"><ele>287.6</ele><time>2026-04-26T10:09:19.479Z</time></trkpt><trkpt lat="43.0720469" lon="12.6046046"><ele>287.8</ele><time>2026-04-26T10:09:20.509Z</time></trkpt><trkpt lat="43.0721509" lon="12.6045646"><ele>288.0</ele><time>2026-04-26T10:09:21.605Z</time></trkpt><trkpt lat="43.0723299" lon="12.6044896"><ele>285.0</ele><time>2026-04-26T10:09:23.499Z</time></trkpt><trkpt lat="43.0724258" lon="12.6044502"><ele>282.0</ele><time>2026-04-26T10:09:24.513Z</time></trkpt><trkpt lat="43.0725371" lon="12.6043994"><ele>279.0</ele><time>2026-04-26T10:09:25.703Z</time></trkpt><trkpt lat="43.072706" lon="12.6043101"><ele>276.0</ele><time>2026-04-26T10:09:27.512Z</time></trkpt><trkpt lat="43.0728075" lon="12.6042418"><ele>276.0</ele><time>2026-04-26T10:09:28.625Z</time></trkpt><trkpt lat="43.0729641" lon="12.6041251"><ele>276.0</ele><time>2026-04-26T10:09:30.495Z</time></trkpt><trkpt lat="43.0730518" lon="12.6040635"><ele>276.0</ele><time>2026-04-26T10:09:31.525Z</time></trkpt><trkpt lat="43.0731364" lon="12.6040248"><ele>276.0</ele><time>2026-04-26T10:09:32.505Z</time></trkpt><trkpt lat="43.0732277" lon="12.6039803"><ele>276.6</ele><time>2026-04-26T10:09:33.51Z</time></trkpt><trkpt lat="43.0733102" lon="12.6039231"><ele>277.20000000000005</ele><time>2026-04-26T10:09:34.499Z</time></trkpt><trkpt lat="43.0733946" lon="12.6038693"><ele>277.79999999999995</ele><time>2026-04-26T10:09:35.476Z</time></trkpt><trkpt lat="43.0734829" lon="12.6038079"><ele>278.4</ele><time>2026-04-26T10:09:36.514Z</time></trkpt><trkpt lat="43.0735631" lon="12.6037419"><ele>279.0</ele><time>2026-04-26T10:09:37.472Z</time></trkpt><trkpt lat="43.073645" lon="12.6036635"><ele>275.8</ele><time>2026-04-26T10:09:38.483Z</time></trkpt><trkpt lat="43.0737314" lon="12.6035642"><ele>272.59999999999997</ele><time>2026-04-26T10:09:39.57Z</time></trkpt><trkpt lat="43.0738008" lon="12.6034809"><ele>269.4</ele><time>2026-04-26T10:09:40.499Z</time></trkpt><trkpt lat="43.0738777" lon="12.6033892"><ele>266.2</ele><time>2026-04-26T10:09:41.494Z</time></trkpt><trkpt lat="43.0739541" lon="12.6032932"><ele>263.0</ele><time>2026-04-26T10:09:42.507Z</time></trkpt><trkpt lat="43.0740391" lon="12.6032123"><ele>265.4</ele><time>2026-04-26T10:09:43.499Z</time></trkpt><trkpt lat="43.0741288" lon="12.6031365"><ele>267.8</ele><time>2026-04-26T10:09:44.495Z</time></trkpt><trkpt lat="43.0742133" lon="12.6030611"><ele>270.2</ele><time>2026-04-26T10:09:45.472Z</time></trkpt><trkpt lat="43.0743005" lon="12.6029898"><ele>272.6</ele><time>2026-04-26T10:09:46.471Z</time></trkpt><trkpt lat="43.0743911" lon="12.602921"><ele>275.0</ele><time>2026-04-26T10:09:47.469Z</time></trkpt><trkpt lat="43.0744819" lon="12.6028509"><ele>271.6</ele><time>2026-04-26T10:09:48.484Z</time></trkpt><trkpt lat="43.0745692" lon="12.6027665"><ele>268.2</ele><time>2026-04-26T10:09:49.481Z</time></trkpt><trkpt lat="43.0746632" lon="12.6026716"><ele>264.8</ele><time>2026-04-26T10:09:50.571Z</time></trkpt><trkpt lat="43.0747438" lon="12.6025898"><ele>261.4</ele><time>2026-04-26T10:09:51.497Z</time></trkpt><trkpt lat="43.0748331" lon="12.6024971"><ele>258.0</ele><time>2026-04-26T10:09:52.506Z</time></trkpt><trkpt lat="43.0749192" lon="12.6024141"><ele>259.8</ele><time>2026-04-26T10:09:53.467Z</time></trkpt><trkpt lat="43.0750203" lon="12.6023304"><ele>261.6</ele><time>2026-04-26T10:09:54.54Z</time></trkpt><trkpt lat="43.0751127" lon="12.6022696"><ele>263.4</ele><time>2026-04-26T10:09:55.48Z</time></trkpt><trkpt lat="43.0752106" lon="12.6022092"><ele>265.2</ele><time>2026-04-26T10:09:56.462Z</time></trkpt><trkpt lat="43.0753162" lon="12.6021487"><ele>267.0</ele><time>2026-04-26T10:09:57.498Z</time></trkpt><trkpt lat="43.0754056" lon="12.6020923"><ele>267.0</ele><time>2026-04-26T10:09:58.465Z</time></trkpt><trkpt lat="43.0754973" lon="12.6020342"><ele>267.0</ele><time>2026-04-26T10:09:59.474Z</time></trkpt><trkpt lat="43.075589" lon="12.6019834"><ele>267.0</ele><time>2026-04-26T10:10:00.452Z</time></trkpt><trkpt lat="43.0756827" lon="12.6019307"><ele>267.0</ele><time>2026-04-26T10:10:01.45Z</time></trkpt><trkpt lat="43.0757954" lon="12.6018658"><ele>267.0</ele><time>2026-04-26T10:10:02.665Z</time></trkpt><trkpt lat="43.0759092" lon="12.6018054"><ele>264.0</ele><time>2026-04-26T10:10:03.884Z</time></trkpt><trkpt lat="43.0760763" lon="12.6017139"><ele>261.0</ele><time>2026-04-26T10:10:05.615Z</time></trkpt><trkpt lat="43.0762488" lon="12.6016075"><ele>258.0</ele><time>2026-04-26T10:10:07.472Z</time></trkpt><trkpt lat="43.0763418" lon="12.6015436"><ele>258.0</ele><time>2026-04-26T10:10:08.495Z</time></trkpt><trkpt lat="43.0764278" lon="12.6014756"><ele>258.0</ele><time>2026-04-26T10:10:09.454Z</time></trkpt><trkpt lat="43.0765097" lon="12.6013932"><ele>258.0</ele><time>2026-04-26T10:10:10.466Z</time></trkpt><trkpt lat="43.076581" lon="12.6012962"><ele>258.0</ele><time>2026-04-26T10:10:11.451Z</time></trkpt><trkpt lat="43.0766449" lon="12.6011816"><ele>258.0</ele><time>2026-04-26T10:10:12.492Z</time></trkpt><trkpt lat="43.076697" lon="12.6010742"><ele>256.3333333333333</ele><time>2026-04-26T10:10:13.495Z</time></trkpt><trkpt lat="43.0767406" lon="12.600962"><ele>254.66666666666669</ele><time>2026-04-26T10:10:14.498Z</time></trkpt><trkpt lat="43.0767814" lon="12.6008534"><ele>253.0</ele><time>2026-04-26T10:10:15.514Z</time></trkpt><trkpt lat="43.0768188" lon="12.6007457"><ele>251.33333333333334</ele><time>2026-04-26T10:10:16.506Z</time></trkpt><trkpt lat="43.0768517" lon="12.6006432"><ele>249.66666666666669</ele><time>2026-04-26T10:10:17.507Z</time></trkpt><trkpt lat="43.0768774" lon="12.600539"><ele>248.0</ele><time>2026-04-26T10:10:18.52Z</time></trkpt><trkpt lat="43.076908" lon="12.6004418"><ele>247.66666666666669</ele><time>2026-04-26T10:10:19.533Z</time></trkpt><trkpt lat="43.0769314" lon="12.6003317"><ele>247.33333333333334</ele><time>2026-04-26T10:10:20.526Z</time></trkpt><trkpt lat="43.0769532" lon="12.6002281"><ele>247.0</ele><time>2026-04-26T10:10:21.519Z</time></trkpt><trkpt lat="43.0769992" lon="12.6000816"><ele>246.66666666666669</ele><time>2026-04-26T10:10:23.525Z</time></trkpt><trkpt lat="43.0770242" lon="12.5999906"><ele>246.33333333333334</ele><time>2026-04-26T10:10:24.531Z</time></trkpt><trkpt lat="43.0770517" lon="12.5999007"><ele>246.0</ele><time>2026-04-26T10:10:25.513Z</time></trkpt><trkpt lat="43.0770813" lon="12.599808"><ele>246.00000000000003</ele><time>2026-04-26T10:10:26.507Z</time></trkpt><trkpt lat="43.0771013" lon="12.5997124"><ele>246.0</ele><time>2026-04-26T10:10:27.516Z</time></trkpt><trkpt lat="43.0771213" lon="12.5996177"><ele>246.00000000000003</ele><time>2026-04-26T10:10:28.513Z</time></trkpt><trkpt lat="43.0771313" lon="12.5995127"><ele>246.00000000000003</ele><time>2026-04-26T10:10:29.512Z</time></trkpt><trkpt lat="43.077136" lon="12.5994135"><ele>246.0</ele><time>2026-04-26T10:10:30.517Z</time></trkpt><trkpt lat="43.0771345" lon="12.5993122"><ele>246.00000000000003</ele><time>2026-04-26T10:10:31.535Z</time></trkpt><trkpt lat="43.0771259" lon="12.5992136"><ele>246.00000000000003</ele><time>2026-04-26T10:10:32.521Z</time></trkpt><trkpt lat="43.0771175" lon="12.5991235"><ele>246.14285714285717</ele><time>2026-04-26T10:10:33.52Z</time></trkpt><trkpt lat="43.0771073" lon="12.5990349"><ele>246.28571428571428</ele><time>2026-04-26T10:10:34.521Z</time></trkpt><trkpt lat="43.0771031" lon="12.5989424"><ele>246.42857142857144</ele><time>2026-04-26T10:10:35.507Z</time></trkpt><trkpt lat="43.077095" lon="12.5988513"><ele>246.57142857142858</ele><time>2026-04-26T10:10:36.503Z</time></trkpt><trkpt lat="43.0770855" lon="12.5987606"><ele>246.71428571428572</ele><time>2026-04-26T10:10:37.529Z</time></trkpt><trkpt lat="43.0770799" lon="12.59867"><ele>246.85714285714286</ele><time>2026-04-26T10:10:38.519Z</time></trkpt><trkpt lat="43.0770736" lon="12.5985733"><ele>247.0</ele><time>2026-04-26T10:10:39.615Z</time></trkpt><trkpt lat="43.0770722" lon="12.5984047"><ele>247.6</ele><time>2026-04-26T10:10:41.538Z</time></trkpt><trkpt lat="43.077078" lon="12.5983188"><ele>248.2</ele><time>2026-04-26T10:10:42.549Z</time></trkpt><trkpt lat="43.0770882" lon="12.5981431"><ele>248.8</ele><time>2026-04-26T10:10:44.674Z</time></trkpt><trkpt lat="43.0770938" lon="12.5979838"><ele>249.4</ele><time>2026-04-26T10:10:46.525Z</time></trkpt><trkpt lat="43.0770953" lon="12.5978954"><ele>250.0</ele><time>2026-04-26T10:10:47.547Z</time></trkpt><trkpt lat="43.0770973" lon="12.5977269"><ele>250.4</ele><time>2026-04-26T10:10:49.541Z</time></trkpt><trkpt lat="43.0771049" lon="12.5975629"><ele>250.8</ele><time>2026-04-26T10:10:51.569Z</time></trkpt><trkpt lat="43.0771205" lon="12.5974059"><ele>251.2</ele><time>2026-04-26T10:10:53.511Z</time></trkpt><trkpt lat="43.0771417" lon="12.5972996"><ele>251.6</ele><time>2026-04-26T10:10:54.862Z</time></trkpt><trkpt lat="43.0771784" lon="12.5971654"><ele>252.0</ele><time>2026-04-26T10:10:56.566Z</time></trkpt><trkpt lat="43.0772336" lon="12.5970165"><ele>252.0</ele><time>2026-04-26T10:10:58.526Z</time></trkpt><trkpt lat="43.0772867" lon="12.5968695"><ele>252.0</ele><time>2026-04-26T10:11:00.528Z</time></trkpt><trkpt lat="43.0773213" lon="12.5967945"><ele>252.0</ele><time>2026-04-26T10:11:01.646Z</time></trkpt><trkpt lat="43.077375" lon="12.5966641"><ele>252.0</ele><time>2026-04-26T10:11:03.527Z</time></trkpt><trkpt lat="43.0774381" lon="12.5965226"><ele>252.0</ele><time>2026-04-26T10:11:05.632Z</time></trkpt><trkpt lat="43.0774917" lon="12.5963967"><ele>252.0</ele><time>2026-04-26T10:11:07.531Z</time></trkpt><trkpt lat="43.0775501" lon="12.5962702"><ele>252.0</ele><time>2026-04-26T10:11:09.524Z</time></trkpt><trkpt lat="43.0776046" lon="12.5961462"><ele>252.0</ele><time>2026-04-26T10:11:11.516Z</time></trkpt><trkpt lat="43.0776554" lon="12.5960131"><ele>252.0</ele><time>2026-04-26T10:11:13.542Z</time></trkpt><trkpt lat="43.0776912" lon="12.595932"><ele>252.0</ele><time>2026-04-26T10:11:14.719Z</time></trkpt><trkpt lat="43.0777499" lon="12.5957961"><ele>251.6</ele><time>2026-04-26T10:11:16.65Z</time></trkpt><trkpt lat="43.0778094" lon="12.5956647"><ele>251.2</ele><time>2026-04-26T10:11:18.513Z</time></trkpt><trkpt lat="43.0778646" lon="12.5955259"><ele>250.8</ele><time>2026-04-26T10:11:20.545Z</time></trkpt><trkpt lat="43.0779127" lon="12.5953932"><ele>250.4</ele><time>2026-04-26T10:11:22.555Z</time></trkpt><trkpt lat="43.0779527" lon="12.5952618"><ele>250.0</ele><time>2026-04-26T10:11:24.528Z</time></trkpt><trkpt lat="43.0779894" lon="12.595129"><ele>249.6</ele><time>2026-04-26T10:11:26.538Z</time></trkpt><trkpt lat="43.0780198" lon="12.5950036"><ele>249.2</ele><time>2026-04-26T10:11:28.515Z</time></trkpt><trkpt lat="43.0780451" lon="12.5948733"><ele>248.8</ele><time>2026-04-26T10:11:30.506Z</time></trkpt><trkpt lat="43.0780768" lon="12.5947298"><ele>248.4</ele><time>2026-04-26T10:11:32.526Z</time></trkpt><trkpt lat="43.0781112" lon="12.5945784"><ele>248.0</ele><time>2026-04-26T10:11:34.514Z</time></trkpt><trkpt lat="43.0781392" lon="12.5944207"><ele>248.0</ele><time>2026-04-26T10:11:36.544Z</time></trkpt><trkpt lat="43.0781623" lon="12.5942655"><ele>248.0</ele><time>2026-04-26T10:11:38.522Z</time></trkpt><trkpt lat="43.0781801" lon="12.5941044"><ele>248.0</ele><time>2026-04-26T10:11:40.542Z</time></trkpt><trkpt lat="43.0781851" lon="12.5940159"><ele>248.0</ele><time>2026-04-26T10:11:41.647Z</time></trkpt><trkpt lat="43.0781859" lon="12.5938706"><ele>248.0</ele><time>2026-04-26T10:11:43.512Z</time></trkpt><trkpt lat="43.0781909" lon="12.5937163"><ele>248.2</ele><time>2026-04-26T10:11:45.54Z</time></trkpt><trkpt lat="43.0781909" lon="12.5935683"><ele>248.4</ele><time>2026-04-26T10:11:47.519Z</time></trkpt><trkpt lat="43.0781848" lon="12.5934149"><ele>248.59999999999997</ele><time>2026-04-26T10:11:49.522Z</time></trkpt><trkpt lat="43.078183" lon="12.5932607"><ele>248.79999999999998</ele><time>2026-04-26T10:11:51.536Z</time></trkpt><trkpt lat="43.0781806" lon="12.5931056"><ele>249.0</ele><time>2026-04-26T10:11:53.534Z</time></trkpt><trkpt lat="43.0781789" lon="12.5929489"><ele>249.25</ele><time>2026-04-26T10:11:55.537Z</time></trkpt><trkpt lat="43.0781737" lon="12.5927979"><ele>249.5</ele><time>2026-04-26T10:11:57.505Z</time></trkpt><trkpt lat="43.0781679" lon="12.5926418"><ele>249.75</ele><time>2026-04-26T10:11:59.56Z</time></trkpt><trkpt lat="43.0781623" lon="12.592414"><ele>250.0</ele><time>2026-04-26T10:12:02.54Z</time></trkpt><trkpt lat="43.078157" lon="12.5922566"><ele>250.0</ele><time>2026-04-26T10:12:04.535Z</time></trkpt><trkpt lat="43.0781532" lon="12.5921005"><ele>250.0</ele><time>2026-04-26T10:12:06.544Z</time></trkpt><trkpt lat="43.078148" lon="12.5919377"><ele>250.0</ele><time>2026-04-26T10:12:08.66Z</time></trkpt><trkpt lat="43.0781471" lon="12.591791"><ele>250.0</ele><time>2026-04-26T10:12:10.517Z</time></trkpt><trkpt lat="43.0781464" lon="12.5916319"><ele>250.4</ele><time>2026-04-26T10:12:12.526Z</time></trkpt><trkpt lat="43.0781488" lon="12.5914807"><ele>250.8</ele><time>2026-04-26T10:12:14.524Z</time></trkpt><trkpt lat="43.0781536" lon="12.5913248"><ele>251.2</ele><time>2026-04-26T10:12:16.55Z</time></trkpt><trkpt lat="43.0781639" lon="12.5911836"><ele>251.6</ele><time>2026-04-26T10:12:18.504Z</time></trkpt><trkpt lat="43.0781794" lon="12.5910364"><ele>252.0</ele><time>2026-04-26T10:12:20.631Z</time></trkpt><trkpt lat="43.0781943" lon="12.5909138"><ele>252.33333333333334</ele><time>2026-04-26T10:12:22.537Z</time></trkpt><trkpt lat="43.0782119" lon="12.5907942"><ele>252.66666666666669</ele><time>2026-04-26T10:12:24.529Z</time></trkpt><trkpt lat="43.0782356" lon="12.5906694"><ele>253.0</ele><time>2026-04-26T10:12:26.641Z</time></trkpt><trkpt lat="43.0782525" lon="12.5905615"><ele>253.33333333333334</ele><time>2026-04-26T10:12:28.536Z</time></trkpt><trkpt lat="43.078284" lon="12.5904537"><ele>253.66666666666669</ele><time>2026-04-26T10:12:30.74Z</time></trkpt><trkpt lat="43.0783043" lon="12.5903645"><ele>254.0</ele><time>2026-04-26T10:12:32.538Z</time></trkpt><trkpt lat="43.0783294" lon="12.5902675"><ele>254.6</ele><time>2026-04-26T10:12:34.536Z</time></trkpt><trkpt lat="43.0783587" lon="12.5901703"><ele>255.2</ele><time>2026-04-26T10:12:36.53Z</time></trkpt><trkpt lat="43.0783879" lon="12.5900651"><ele>255.79999999999998</ele><time>2026-04-26T10:12:38.543Z</time></trkpt><trkpt lat="43.0784384" lon="12.5898991"><ele>256.4</ele><time>2026-04-26T10:12:41.538Z</time></trkpt><trkpt lat="43.0784733" lon="12.5897826"><ele>257.0</ele><time>2026-04-26T10:12:43.548Z</time></trkpt><trkpt lat="43.0785178" lon="12.589671"><ele>257.0</ele><time>2026-04-26T10:12:45.654Z</time></trkpt><trkpt lat="43.0785562" lon="12.5895736"><ele>257.0</ele><time>2026-04-26T10:12:47.517Z</time></trkpt><trkpt lat="43.078599" lon="12.5894684"><ele>257.0</ele><time>2026-04-26T10:12:49.537Z</time></trkpt><trkpt lat="43.0786443" lon="12.5893749"><ele>257.0</ele><time>2026-04-26T10:12:51.53Z</time></trkpt><trkpt lat="43.0786846" lon="12.5892912"><ele>257.0</ele><time>2026-04-26T10:12:53.531Z</time></trkpt><trkpt lat="43.0787292" lon="12.5892086"><ele>257.0</ele><time>2026-04-26T10:12:55.548Z</time></trkpt><trkpt lat="43.0787702" lon="12.5891286"><ele>256.57142857142856</ele><time>2026-04-26T10:12:57.54Z</time></trkpt><trkpt lat="43.0788093" lon="12.5890459"><ele>256.14285714285717</ele><time>2026-04-26T10:12:59.56Z</time></trkpt><trkpt lat="43.0788449" lon="12.5889661"><ele>255.71428571428572</ele><time>2026-04-26T10:13:01.524Z</time></trkpt><trkpt lat="43.0788862" lon="12.5888872"><ele>255.28571428571428</ele><time>2026-04-26T10:13:03.529Z</time></trkpt><trkpt lat="43.0789241" lon="12.588807"><ele>254.85714285714283</ele><time>2026-04-26T10:13:05.544Z</time></trkpt><trkpt lat="43.078965" lon="12.5887234"><ele>254.42857142857144</ele><time>2026-04-26T10:13:07.525Z</time></trkpt><trkpt lat="43.0790097" lon="12.5886323"><ele>254.0</ele><time>2026-04-26T10:13:09.53Z</time></trkpt><trkpt lat="43.0790614" lon="12.5885345"><ele>254.79999999999998</ele><time>2026-04-26T10:13:11.529Z</time></trkpt><trkpt lat="43.0791132" lon="12.5884235"><ele>255.59999999999997</ele><time>2026-04-26T10:13:13.631Z</time></trkpt><trkpt lat="43.0791666" lon="12.5883283"><ele>256.4</ele><time>2026-04-26T10:13:15.494Z</time></trkpt><trkpt lat="43.0792187" lon="12.5882026"><ele>257.2</ele><time>2026-04-26T10:13:17.519Z</time></trkpt><trkpt lat="43.0792822" lon="12.5880693"><ele>258.0</ele><time>2026-04-26T10:13:19.548Z</time></trkpt><trkpt lat="43.0793179" lon="12.5879946"><ele>258.0</ele><time>2026-04-26T10:13:20.632Z</time></trkpt><trkpt lat="43.0793741" lon="12.5878519"><ele>258.0</ele><time>2026-04-26T10:13:22.526Z</time></trkpt><trkpt lat="43.0794059" lon="12.5877708"><ele>258.0</ele><time>2026-04-26T10:13:23.527Z</time></trkpt><trkpt lat="43.0794459" lon="12.5876824"><ele>258.0</ele><time>2026-04-26T10:13:24.607Z</time></trkpt><trkpt lat="43.0794826" lon="12.587597"><ele>258.0</ele><time>2026-04-26T10:13:25.621Z</time></trkpt><trkpt lat="43.0795161" lon="12.5875157"><ele>258.0</ele><time>2026-04-26T10:13:26.523Z</time></trkpt><trkpt lat="43.0795556" lon="12.5874184"><ele>257.5</ele><time>2026-04-26T10:13:27.545Z</time></trkpt><trkpt lat="43.0795942" lon="12.5873248"><ele>257.0</ele><time>2026-04-26T10:13:28.515Z</time></trkpt><trkpt lat="43.0796378" lon="12.5872279"><ele>256.5</ele><time>2026-04-26T10:13:29.523Z</time></trkpt><trkpt lat="43.0796774" lon="12.5871288"><ele>256.0</ele><time>2026-04-26T10:13:30.516Z</time></trkpt><trkpt lat="43.0797171" lon="12.5870252"><ele>255.5</ele><time>2026-04-26T10:13:31.522Z</time></trkpt><trkpt lat="43.0797604" lon="12.5869215"><ele>255.0</ele><time>2026-04-26T10:13:32.525Z</time></trkpt><trkpt lat="43.0798076" lon="12.5868141"><ele>254.5</ele><time>2026-04-26T10:13:33.568Z</time></trkpt><trkpt lat="43.0798515" lon="12.5867122"><ele>254.0</ele><time>2026-04-26T10:13:34.532Z</time></trkpt><trkpt lat="43.0798976" lon="12.5866057"><ele>253.5</ele><time>2026-04-26T10:13:35.534Z</time></trkpt><trkpt lat="43.0799388" lon="12.5864975"><ele>253.0</ele><time>2026-04-26T10:13:36.52Z</time></trkpt><trkpt lat="43.0799817" lon="12.5863884"><ele>252.5</ele><time>2026-04-26T10:13:37.525Z</time></trkpt><trkpt lat="43.0800235" lon="12.5862761"><ele>252.0</ele><time>2026-04-26T10:13:38.523Z</time></trkpt><trkpt lat="43.0800686" lon="12.5861635"><ele>250.8</ele><time>2026-04-26T10:13:39.511Z</time></trkpt><trkpt lat="43.0801182" lon="12.586052"><ele>249.6</ele><time>2026-04-26T10:13:40.531Z</time></trkpt><trkpt lat="43.0801654" lon="12.5859384"><ele>248.40000000000003</ele><time>2026-04-26T10:13:41.541Z</time></trkpt><trkpt lat="43.0802162" lon="12.585823"><ele>247.20000000000002</ele><time>2026-04-26T10:13:42.533Z</time></trkpt><trkpt lat="43.0802645" lon="12.5857043"><ele>246.0</ele><time>2026-04-26T10:13:43.543Z</time></trkpt><trkpt lat="43.0803101" lon="12.5855887"><ele>246.0</ele><time>2026-04-26T10:13:44.52Z</time></trkpt><trkpt lat="43.0803612" lon="12.5854671"><ele>246.00000000000003</ele><time>2026-04-26T10:13:45.56Z</time></trkpt><trkpt lat="43.080409" lon="12.5853547"><ele>246.00000000000003</ele><time>2026-04-26T10:13:46.536Z</time></trkpt><trkpt lat="43.0804575" lon="12.585238"><ele>246.0</ele><time>2026-04-26T10:13:47.529Z</time></trkpt><trkpt lat="43.0805088" lon="12.5851163"><ele>246.0</ele><time>2026-04-26T10:13:48.566Z</time></trkpt><trkpt lat="43.0805595" lon="12.5850042"><ele>244.75</ele><time>2026-04-26T10:13:49.529Z</time></trkpt><trkpt lat="43.0806075" lon="12.5848841"><ele>243.5</ele><time>2026-04-26T10:13:50.539Z</time></trkpt><trkpt lat="43.0806671" lon="12.5847388"><ele>242.25</ele><time>2026-04-26T10:13:51.761Z</time></trkpt><trkpt lat="43.0807538" lon="12.5845337"><ele>241.0</ele><time>2026-04-26T10:13:53.532Z</time></trkpt><trkpt lat="43.0808014" lon="12.5844163"><ele>240.8</ele><time>2026-04-26T10:13:54.538Z</time></trkpt><trkpt lat="43.0808506" lon="12.5843036"><ele>240.60000000000002</ele><time>2026-04-26T10:13:55.534Z</time></trkpt><trkpt lat="43.080899" lon="12.5841896"><ele>240.4</ele><time>2026-04-26T10:13:56.541Z</time></trkpt><trkpt lat="43.0809459" lon="12.5840776"><ele>240.2</ele><time>2026-04-26T10:13:57.523Z</time></trkpt><trkpt lat="43.080992" lon="12.5839647"><ele>240.0</ele><time>2026-04-26T10:13:58.522Z</time></trkpt><trkpt lat="43.0810394" lon="12.5838539"><ele>240.0</ele><time>2026-04-26T10:13:59.52Z</time></trkpt><trkpt lat="43.0810875" lon="12.5837436"><ele>240.0</ele><time>2026-04-26T10:14:00.522Z</time></trkpt><trkpt lat="43.0811342" lon="12.5836326"><ele>240.0</ele><time>2026-04-26T10:14:01.553Z</time></trkpt><trkpt lat="43.0811844" lon="12.5835211"><ele>240.0</ele><time>2026-04-26T10:14:02.614Z</time></trkpt><trkpt lat="43.0812261" lon="12.5834242"><ele>240.0</ele><time>2026-04-26T10:14:03.525Z</time></trkpt><trkpt lat="43.0812709" lon="12.5833204"><ele>239.33333333333334</ele><time>2026-04-26T10:14:04.524Z</time></trkpt><trkpt lat="43.0813152" lon="12.5832191"><ele>238.66666666666669</ele><time>2026-04-26T10:14:05.505Z</time></trkpt><trkpt lat="43.0813609" lon="12.5831163"><ele>238.0</ele><time>2026-04-26T10:14:06.512Z</time></trkpt><trkpt lat="43.0814043" lon="12.5830145"><ele>237.33333333333334</ele><time>2026-04-26T10:14:07.502Z</time></trkpt><trkpt lat="43.0814473" lon="12.5829089"><ele>236.66666666666669</ele><time>2026-04-26T10:14:08.527Z</time></trkpt><trkpt lat="43.0814913" lon="12.5828086"><ele>236.0</ele><time>2026-04-26T10:14:09.514Z</time></trkpt><trkpt lat="43.081534" lon="12.5827051"><ele>235.83333333333334</ele><time>2026-04-26T10:14:10.517Z</time></trkpt><trkpt lat="43.0815791" lon="12.5825991"><ele>235.66666666666669</ele><time>2026-04-26T10:14:11.545Z</time></trkpt><trkpt lat="43.0816199" lon="12.5824982"><ele>235.5</ele><time>2026-04-26T10:14:12.51Z</time></trkpt><trkpt lat="43.0816591" lon="12.5823925"><ele>235.33333333333331</ele><time>2026-04-26T10:14:13.509Z</time></trkpt><trkpt lat="43.0816995" lon="12.5822876"><ele>235.16666666666666</ele><time>2026-04-26T10:14:14.51Z</time></trkpt><trkpt lat="43.0817404" lon="12.58218"><ele>235.0</ele><time>2026-04-26T10:14:15.542Z</time></trkpt><trkpt lat="43.0817769" lon="12.5820731"><ele>234.83333333333331</ele><time>2026-04-26T10:14:16.547Z</time></trkpt><trkpt lat="43.081808" lon="12.5819689"><ele>234.66666666666666</ele><time>2026-04-26T10:14:17.529Z</time></trkpt><trkpt lat="43.0818324" lon="12.5818622"><ele>234.5</ele><time>2026-04-26T10:14:18.508Z</time></trkpt><trkpt lat="43.0818522" lon="12.5817536"><ele>234.33333333333331</ele><time>2026-04-26T10:14:19.493Z</time></trkpt><trkpt lat="43.0818719" lon="12.5816384"><ele>234.16666666666666</ele><time>2026-04-26T10:14:20.546Z</time></trkpt><trkpt lat="43.0818893" lon="12.5815319"><ele>234.0</ele><time>2026-04-26T10:14:21.54Z</time></trkpt><trkpt lat="43.0819056" lon="12.5814256"><ele>234.0</ele><time>2026-04-26T10:14:22.506Z</time></trkpt><trkpt lat="43.0819198" lon="12.5813142"><ele>234.0</ele><time>2026-04-26T10:14:23.506Z</time></trkpt><trkpt lat="43.0819373" lon="12.5812007"><ele>234.0</ele><time>2026-04-26T10:14:24.551Z</time></trkpt><trkpt lat="43.0819575" lon="12.5810961"><ele>234.0</ele><time>2026-04-26T10:14:25.544Z</time></trkpt><trkpt lat="43.0819778" lon="12.580984"><ele>234.0</ele><time>2026-04-26T10:14:26.546Z</time></trkpt><trkpt lat="43.0819943" lon="12.5808747"><ele>234.0</ele><time>2026-04-26T10:14:27.516Z</time></trkpt><trkpt lat="43.0820121" lon="12.5807588"><ele>233.66666666666666</ele><time>2026-04-26T10:14:28.522Z</time></trkpt><trkpt lat="43.0820278" lon="12.5806448"><ele>233.33333333333331</ele><time>2026-04-26T10:14:29.516Z</time></trkpt><trkpt lat="43.0820455" lon="12.5805339"><ele>233.0</ele><time>2026-04-26T10:14:30.503Z</time></trkpt><trkpt lat="43.0820626" lon="12.5804207"><ele>232.66666666666666</ele><time>2026-04-26T10:14:31.514Z</time></trkpt><trkpt lat="43.0820795" lon="12.5803124"><ele>232.33333333333331</ele><time>2026-04-26T10:14:32.499Z</time></trkpt><trkpt lat="43.0820933" lon="12.5802013"><ele>232.0</ele><time>2026-04-26T10:14:33.509Z</time></trkpt><trkpt lat="43.0821104" lon="12.580088"><ele>231.83333333333331</ele><time>2026-04-26T10:14:34.55Z</time></trkpt><trkpt lat="43.0821262" lon="12.5799822"><ele>231.66666666666666</ele><time>2026-04-26T10:14:35.538Z</time></trkpt><trkpt lat="43.0821388" lon="12.5798736"><ele>231.5</ele><time>2026-04-26T10:14:36.55Z</time></trkpt><trkpt lat="43.0821549" lon="12.5797712"><ele>231.33333333333331</ele><time>2026-04-26T10:14:37.518Z</time></trkpt><trkpt lat="43.0821705" lon="12.5796629"><ele>231.16666666666666</ele><time>2026-04-26T10:14:38.529Z</time></trkpt><trkpt lat="43.0821877" lon="12.5795531"><ele>231.0</ele><time>2026-04-26T10:14:39.537Z</time></trkpt><trkpt lat="43.0822057" lon="12.5794472"><ele>230.33333333333334</ele><time>2026-04-26T10:14:40.518Z</time></trkpt><trkpt lat="43.0822278" lon="12.5793344"><ele>229.66666666666669</ele><time>2026-04-26T10:14:41.579Z</time></trkpt><trkpt lat="43.0822484" lon="12.5792312"><ele>229.0</ele><time>2026-04-26T10:14:42.525Z</time></trkpt><trkpt lat="43.0822735" lon="12.5791112"><ele>228.33333333333334</ele><time>2026-04-26T10:14:43.621Z</time></trkpt><trkpt lat="43.0822955" lon="12.5790122"><ele>227.66666666666669</ele><time>2026-04-26T10:14:44.527Z</time></trkpt><trkpt lat="43.082324" lon="12.5789093"><ele>227.0</ele><time>2026-04-26T10:14:45.516Z</time></trkpt><trkpt lat="43.0823591" lon="12.5788077"><ele>227.00000000000003</ele><time>2026-04-26T10:14:46.534Z</time></trkpt><trkpt lat="43.0824003" lon="12.5787145"><ele>227.0</ele><time>2026-04-26T10:14:47.526Z</time></trkpt><trkpt lat="43.0824499" lon="12.5786287"><ele>227.0</ele><time>2026-04-26T10:14:48.511Z</time></trkpt><trkpt lat="43.0825077" lon="12.5785538"><ele>227.0</ele><time>2026-04-26T10:14:49.519Z</time></trkpt><trkpt lat="43.0825653" lon="12.5784879"><ele>227.00000000000003</ele><time>2026-04-26T10:14:50.518Z</time></trkpt><trkpt lat="43.0826219" lon="12.578426"><ele>227.0</ele><time>2026-04-26T10:14:51.493Z</time></trkpt><trkpt lat="43.0826786" lon="12.5783668"><ele>227.39999999999998</ele><time>2026-04-26T10:14:52.498Z</time></trkpt><trkpt lat="43.0827336" lon="12.5783172"><ele>227.79999999999998</ele><time>2026-04-26T10:14:53.505Z</time></trkpt><trkpt lat="43.082835" lon="12.5782128"><ele>228.2</ele><time>2026-04-26T10:14:55.54Z</time></trkpt><trkpt lat="43.082932" lon="12.5781198"><ele>228.6</ele><time>2026-04-26T10:14:57.515Z</time></trkpt><trkpt lat="43.0829869" lon="12.5780704"><ele>229.0</ele><time>2026-04-26T10:14:58.619Z</time></trkpt><trkpt lat="43.0830856" lon="12.5779854"><ele>229.0</ele><time>2026-04-26T10:15:00.524Z</time></trkpt><trkpt lat="43.083143" lon="12.5779305"><ele>228.99999999999997</ele><time>2026-04-26T10:15:01.645Z</time></trkpt><trkpt lat="43.0832452" lon="12.5778363"><ele>228.99999999999997</ele><time>2026-04-26T10:15:03.562Z</time></trkpt><trkpt lat="43.0833532" lon="12.5777363"><ele>229.0</ele><time>2026-04-26T10:15:05.661Z</time></trkpt><trkpt lat="43.0834562" lon="12.5776428"><ele>229.0</ele><time>2026-04-26T10:15:07.626Z</time></trkpt><trkpt lat="43.0835528" lon="12.5775453"><ele>229.75</ele><time>2026-04-26T10:15:09.547Z</time></trkpt><trkpt lat="43.0836528" lon="12.5774489"><ele>230.5</ele><time>2026-04-26T10:15:11.532Z</time></trkpt><trkpt lat="43.0837639" lon="12.5773531"><ele>231.25</ele><time>2026-04-26T10:15:13.642Z</time></trkpt><trkpt lat="43.0838571" lon="12.5772636"><ele>232.0</ele><time>2026-04-26T10:15:15.545Z</time></trkpt><trkpt lat="43.0839469" lon="12.5771773"><ele>232.0</ele><time>2026-04-26T10:15:17.528Z</time></trkpt><trkpt lat="43.0840349" lon="12.5770996"><ele>232.0</ele><time>2026-04-26T10:15:19.536Z</time></trkpt><trkpt lat="43.0841543" lon="12.576989"><ele>232.0</ele><time>2026-04-26T10:15:22.525Z</time></trkpt><trkpt lat="43.0842357" lon="12.5769225"><ele>232.0</ele><time>2026-04-26T10:15:24.508Z</time></trkpt><trkpt lat="43.0843157" lon="12.5768525"><ele>232.0</ele><time>2026-04-26T10:15:26.533Z</time></trkpt><trkpt lat="43.0843928" lon="12.5767831"><ele>231.8</ele><time>2026-04-26T10:15:28.532Z</time></trkpt><trkpt lat="43.0844753" lon="12.5767226"><ele>231.6</ele><time>2026-04-26T10:15:30.519Z</time></trkpt><trkpt lat="43.0845557" lon="12.5766504"><ele>231.40000000000003</ele><time>2026-04-26T10:15:32.512Z</time></trkpt><trkpt lat="43.0846401" lon="12.576586"><ele>231.20000000000002</ele><time>2026-04-26T10:15:34.559Z</time></trkpt><trkpt lat="43.0847221" lon="12.576534"><ele>231.0</ele><time>2026-04-26T10:15:36.543Z</time></trkpt><trkpt lat="43.0848085" lon="12.576488"><ele>231.0</ele><time>2026-04-26T10:15:38.531Z</time></trkpt><trkpt lat="43.0848996" lon="12.5764395"><ele>231.00000000000003</ele><time>2026-04-26T10:15:40.624Z</time></trkpt><trkpt lat="43.0849863" lon="12.576399"><ele>231.00000000000003</ele><time>2026-04-26T10:15:42.515Z</time></trkpt><trkpt lat="43.0851274" lon="12.5763379"><ele>231.0</ele><time>2026-04-26T10:15:45.524Z</time></trkpt><trkpt lat="43.0852239" lon="12.5762912"><ele>231.0</ele><time>2026-04-26T10:15:47.552Z</time></trkpt><trkpt lat="43.0853194" lon="12.5762432"><ele>231.4</ele><time>2026-04-26T10:15:49.547Z</time></trkpt><trkpt lat="43.0854154" lon="12.5762066"><ele>231.8</ele><time>2026-04-26T10:15:51.537Z</time></trkpt><trkpt lat="43.0855097" lon="12.5761742"><ele>232.20000000000002</ele><time>2026-04-26T10:15:53.521Z</time></trkpt><trkpt lat="43.0856004" lon="12.5761358"><ele>232.60000000000002</ele><time>2026-04-26T10:15:55.515Z</time></trkpt><trkpt lat="43.0856941" lon="12.5761019"><ele>233.0</ele><time>2026-04-26T10:15:57.558Z</time></trkpt><trkpt lat="43.0857822" lon="12.5760632"><ele>233.0</ele><time>2026-04-26T10:15:59.548Z</time></trkpt><trkpt lat="43.0858721" lon="12.5760233"><ele>233.0</ele><time>2026-04-26T10:16:01.544Z</time></trkpt><trkpt lat="43.0859634" lon="12.5759887"><ele>233.0</ele><time>2026-04-26T10:16:03.539Z</time></trkpt><trkpt lat="43.0860534" lon="12.5759513"><ele>233.0</ele><time>2026-04-26T10:16:05.528Z</time></trkpt><trkpt lat="43.0861409" lon="12.5759133"><ele>233.0</ele><time>2026-04-26T10:16:07.521Z</time></trkpt><trkpt lat="43.0862263" lon="12.5758756"><ele>233.0</ele><time>2026-04-26T10:16:09.536Z</time></trkpt><trkpt lat="43.0863094" lon="12.575836"><ele>233.0</ele><time>2026-04-26T10:16:11.505Z</time></trkpt><trkpt lat="43.0863944" lon="12.5758021"><ele>233.0</ele><time>2026-04-26T10:16:13.524Z</time></trkpt><trkpt lat="43.0864827" lon="12.5757614"><ele>233.0</ele><time>2026-04-26T10:16:15.543Z</time></trkpt><trkpt lat="43.0865683" lon="12.5757196"><ele>233.0</ele><time>2026-04-26T10:16:17.521Z</time></trkpt><trkpt lat="43.0867009" lon="12.5756535"><ele>233.60000000000002</ele><time>2026-04-26T10:16:20.536Z</time></trkpt><trkpt lat="43.0868002" lon="12.5755831"><ele>234.20000000000002</ele><time>2026-04-26T10:16:22.833Z</time></trkpt><trkpt lat="43.0868739" lon="12.575537"><ele>234.8</ele><time>2026-04-26T10:16:24.525Z</time></trkpt><trkpt lat="43.0869635" lon="12.5754882"><ele>235.4</ele><time>2026-04-26T10:16:26.506Z</time></trkpt><trkpt lat="43.0870481" lon="12.5754381"><ele>236.0</ele><time>2026-04-26T10:16:28.521Z</time></trkpt><trkpt lat="43.0871349" lon="12.5753855"><ele>236.0</ele><time>2026-04-26T10:16:30.55Z</time></trkpt><trkpt lat="43.0872205" lon="12.575338"><ele>236.00000000000003</ele><time>2026-04-26T10:16:32.521Z</time></trkpt><trkpt lat="43.0873084" lon="12.5752855"><ele>236.00000000000003</ele><time>2026-04-26T10:16:34.53Z</time></trkpt><trkpt lat="43.0873997" lon="12.5752372"><ele>236.0</ele><time>2026-04-26T10:16:36.525Z</time></trkpt><trkpt lat="43.0874871" lon="12.575192"><ele>236.0</ele><time>2026-04-26T10:16:38.509Z</time></trkpt><trkpt lat="43.0875874" lon="12.5751385"><ele>236.0</ele><time>2026-04-26T10:16:40.64Z</time></trkpt><trkpt lat="43.0876753" lon="12.5750885"><ele>236.00000000000003</ele><time>2026-04-26T10:16:42.51Z</time></trkpt><trkpt lat="43.0877742" lon="12.5750349"><ele>236.00000000000003</ele><time>2026-04-26T10:16:44.507Z</time></trkpt><trkpt lat="43.0878746" lon="12.5749703"><ele>236.0</ele><time>2026-04-26T10:16:46.527Z</time></trkpt><trkpt lat="43.0879718" lon="12.5749127"><ele>236.0</ele><time>2026-04-26T10:16:48.515Z</time></trkpt><trkpt lat="43.0880724" lon="12.574852"><ele>236.0</ele><time>2026-04-26T10:16:50.517Z</time></trkpt><trkpt lat="43.0881741" lon="12.5747935"><ele>236.00000000000003</ele><time>2026-04-26T10:16:52.53Z</time></trkpt><trkpt lat="43.0882765" lon="12.5747338"><ele>236.00000000000003</ele><time>2026-04-26T10:16:54.528Z</time></trkpt><trkpt lat="43.0883799" lon="12.574672"><ele>236.0</ele><time>2026-04-26T10:16:56.514Z</time></trkpt><trkpt lat="43.088482" lon="12.5746145"><ele>236.0</ele><time>2026-04-26T10:16:58.499Z</time></trkpt><trkpt lat="43.0885876" lon="12.5745556"><ele>235.60000000000002</ele><time>2026-04-26T10:17:00.522Z</time></trkpt><trkpt lat="43.0886927" lon="12.5744927"><ele>235.20000000000002</ele><time>2026-04-26T10:17:02.517Z</time></trkpt><trkpt lat="43.0887975" lon="12.5744301"><ele>234.79999999999998</ele><time>2026-04-26T10:17:04.52Z</time></trkpt><trkpt lat="43.0888929" lon="12.5743615"><ele>234.39999999999998</ele><time>2026-04-26T10:17:06.502Z</time></trkpt><trkpt lat="43.0889918" lon="12.5742906"><ele>234.0</ele><time>2026-04-26T10:17:08.635Z</time></trkpt><trkpt lat="43.0890752" lon="12.5742242"><ele>234.79999999999998</ele><time>2026-04-26T10:17:10.487Z</time></trkpt><trkpt lat="43.0891651" lon="12.5741354"><ele>235.59999999999997</ele><time>2026-04-26T10:17:12.625Z</time></trkpt><trkpt lat="43.0892443" lon="12.5740556"><ele>236.4</ele><time>2026-04-26T10:17:14.507Z</time></trkpt><trkpt lat="43.0893277" lon="12.5739608"><ele>237.2</ele><time>2026-04-26T10:17:16.522Z</time></trkpt><trkpt lat="43.0894117" lon="12.5738563"><ele>238.0</ele><time>2026-04-26T10:17:18.583Z</time></trkpt><trkpt lat="43.0894922" lon="12.5737563"><ele>236.8</ele><time>2026-04-26T10:17:20.499Z</time></trkpt><trkpt lat="43.0895717" lon="12.5736507"><ele>235.60000000000002</ele><time>2026-04-26T10:17:22.523Z</time></trkpt><trkpt lat="43.089649" lon="12.5735434"><ele>234.39999999999998</ele><time>2026-04-26T10:17:24.538Z</time></trkpt><trkpt lat="43.0897282" lon="12.5734291"><ele>233.2</ele><time>2026-04-26T10:17:26.627Z</time></trkpt><trkpt lat="43.0898078" lon="12.5733271"><ele>232.0</ele><time>2026-04-26T10:17:28.49Z</time></trkpt><trkpt lat="43.0898931" lon="12.5732151"><ele>231.5</ele><time>2026-04-26T10:17:30.487Z</time></trkpt><trkpt lat="43.089977" lon="12.5730997"><ele>231.0</ele><time>2026-04-26T10:17:32.505Z</time></trkpt><trkpt lat="43.0900569" lon="12.5729857"><ele>230.5</ele><time>2026-04-26T10:17:34.494Z</time></trkpt><trkpt lat="43.0901393" lon="12.5728753"><ele>230.0</ele><time>2026-04-26T10:17:36.5Z</time></trkpt><trkpt lat="43.09022" lon="12.5727699"><ele>230.0</ele><time>2026-04-26T10:17:38.473Z</time></trkpt><trkpt lat="43.0902992" lon="12.5726609"><ele>230.0</ele><time>2026-04-26T10:17:40.488Z</time></trkpt><trkpt lat="43.0903799" lon="12.5725551"><ele>230.0</ele><time>2026-04-26T10:17:42.499Z</time></trkpt><trkpt lat="43.090461" lon="12.5724476"><ele>230.0</ele><time>2026-04-26T10:17:44.511Z</time></trkpt><trkpt lat="43.0905407" lon="12.5723428"><ele>230.0</ele><time>2026-04-26T10:17:46.484Z</time></trkpt><trkpt lat="43.0906188" lon="12.5722349"><ele>230.0</ele><time>2026-04-26T10:17:48.501Z</time></trkpt><trkpt lat="43.0907048" lon="12.5721408"><ele>230.0</ele><time>2026-04-26T10:17:50.509Z</time></trkpt><trkpt lat="43.0907974" lon="12.5720487"><ele>230.0</ele><time>2026-04-26T10:17:52.611Z</time></trkpt><trkpt lat="43.0908812" lon="12.5719726"><ele>230.0</ele><time>2026-04-26T10:17:54.471Z</time></trkpt><trkpt lat="43.0909753" lon="12.5718895"><ele>230.0</ele><time>2026-04-26T10:17:56.53Z</time></trkpt><trkpt lat="43.0910685" lon="12.5718021"><ele>230.5</ele><time>2026-04-26T10:17:58.476Z</time></trkpt><trkpt lat="43.0911622" lon="12.5717139"><ele>231.0</ele><time>2026-04-26T10:18:00.48Z</time></trkpt><trkpt lat="43.0912603" lon="12.5716067"><ele>231.5</ele><time>2026-04-26T10:18:02.49Z</time></trkpt><trkpt lat="43.0913655" lon="12.5715214"><ele>232.0</ele><time>2026-04-26T10:18:04.513Z</time></trkpt><trkpt lat="43.0914702" lon="12.5714309"><ele>231.99999999999997</ele><time>2026-04-26T10:18:06.513Z</time></trkpt><trkpt lat="43.0915757" lon="12.5713356"><ele>232.0</ele><time>2026-04-26T10:18:08.507Z</time></trkpt><trkpt lat="43.0916301" lon="12.5712871"><ele>232.0</ele><time>2026-04-26T10:18:09.514Z</time></trkpt><trkpt lat="43.0916888" lon="12.571245"><ele>232.0</ele><time>2026-04-26T10:18:10.507Z</time></trkpt><trkpt lat="43.0917438" lon="12.5712016"><ele>231.99999999999997</ele><time>2026-04-26T10:18:11.488Z</time></trkpt><trkpt lat="43.0918008" lon="12.571152"><ele>232.0</ele><time>2026-04-26T10:18:12.531Z</time></trkpt><trkpt lat="43.0919069" lon="12.5710571"><ele>231.8</ele><time>2026-04-26T10:18:14.506Z</time></trkpt><trkpt lat="43.0919603" lon="12.5710097"><ele>231.6</ele><time>2026-04-26T10:18:15.511Z</time></trkpt><trkpt lat="43.0920141" lon="12.5709614"><ele>231.40000000000003</ele><time>2026-04-26T10:18:16.532Z</time></trkpt><trkpt lat="43.0921186" lon="12.5708651"><ele>231.20000000000002</ele><time>2026-04-26T10:18:18.578Z</time></trkpt><trkpt lat="43.0922156" lon="12.5707779"><ele>231.0</ele><time>2026-04-26T10:18:20.505Z</time></trkpt><trkpt lat="43.0923136" lon="12.5706881"><ele>231.0</ele><time>2026-04-26T10:18:22.516Z</time></trkpt><trkpt lat="43.0924122" lon="12.5705831"><ele>231.0</ele><time>2026-04-26T10:18:24.633Z</time></trkpt><trkpt lat="43.0925019" lon="12.5704921"><ele>231.0</ele><time>2026-04-26T10:18:26.503Z</time></trkpt><trkpt lat="43.0925984" lon="12.5703848"><ele>231.0</ele><time>2026-04-26T10:18:28.508Z</time></trkpt><trkpt lat="43.092691" lon="12.5702755"><ele>230.60000000000002</ele><time>2026-04-26T10:18:30.495Z</time></trkpt><trkpt lat="43.0927378" lon="12.5702166"><ele>230.20000000000002</ele><time>2026-04-26T10:18:31.525Z</time></trkpt><trkpt lat="43.0928333" lon="12.5701111"><ele>229.79999999999998</ele><time>2026-04-26T10:18:33.513Z</time></trkpt><trkpt lat="43.092921" lon="12.570004"><ele>229.39999999999998</ele><time>2026-04-26T10:18:35.517Z</time></trkpt><trkpt lat="43.0930017" lon="12.5699031"><ele>229.0</ele><time>2026-04-26T10:18:37.494Z</time></trkpt><trkpt lat="43.0930819" lon="12.5698042"><ele>229.0</ele><time>2026-04-26T10:18:39.509Z</time></trkpt><trkpt lat="43.0931553" lon="12.5697041"><ele>228.99999999999997</ele><time>2026-04-26T10:18:41.49Z</time></trkpt><trkpt lat="43.0932258" lon="12.5696051"><ele>228.99999999999997</ele><time>2026-04-26T10:18:43.508Z</time></trkpt><trkpt lat="43.0932983" lon="12.5695126"><ele>229.0</ele><time>2026-04-26T10:18:45.506Z</time></trkpt><trkpt lat="43.0933581" lon="12.5694067"><ele>229.0</ele><time>2026-04-26T10:18:47.514Z</time></trkpt><trkpt lat="43.0934174" lon="12.5693016"><ele>229.39999999999998</ele><time>2026-04-26T10:18:49.483Z</time></trkpt><trkpt lat="43.0934778" lon="12.5691906"><ele>229.79999999999998</ele><time>2026-04-26T10:18:51.504Z</time></trkpt><trkpt lat="43.0935382" lon="12.569083"><ele>230.20000000000002</ele><time>2026-04-26T10:18:53.521Z</time></trkpt><trkpt lat="43.0936009" lon="12.5689764"><ele>230.60000000000002</ele><time>2026-04-26T10:18:55.49Z</time></trkpt><trkpt lat="43.0936627" lon="12.5688577"><ele>231.0</ele><time>2026-04-26T10:18:57.514Z</time></trkpt><trkpt lat="43.0937233" lon="12.5687425"><ele>230.60000000000002</ele><time>2026-04-26T10:18:59.482Z</time></trkpt><trkpt lat="43.0937854" lon="12.5686368"><ele>230.20000000000002</ele><time>2026-04-26T10:19:01.498Z</time></trkpt><trkpt lat="43.0938485" lon="12.5685263"><ele>229.79999999999998</ele><time>2026-04-26T10:19:03.486Z</time></trkpt><trkpt lat="43.0939151" lon="12.5684107"><ele>229.39999999999998</ele><time>2026-04-26T10:19:05.538Z</time></trkpt><trkpt lat="43.0939841" lon="12.5682971"><ele>229.0</ele><time>2026-04-26T10:19:07.604Z</time></trkpt><trkpt lat="43.0940386" lon="12.5681824"><ele>229.5</ele><time>2026-04-26T10:19:09.521Z</time></trkpt><trkpt lat="43.0940972" lon="12.5680653"><ele>230.0</ele><time>2026-04-26T10:19:11.518Z</time></trkpt><trkpt lat="43.0942046" lon="12.5679004"><ele>230.5</ele><time>2026-04-26T10:19:14.512Z</time></trkpt><trkpt lat="43.0942739" lon="12.5677975"><ele>231.0</ele><time>2026-04-26T10:19:16.476Z</time></trkpt><trkpt lat="43.0943492" lon="12.5676939"><ele>231.0</ele><time>2026-04-26T10:19:18.515Z</time></trkpt><trkpt lat="43.094423" lon="12.5675927"><ele>231.00000000000003</ele><time>2026-04-26T10:19:20.478Z</time></trkpt><trkpt lat="43.0945059" lon="12.5674892"><ele>231.00000000000003</ele><time>2026-04-26T10:19:22.523Z</time></trkpt><trkpt lat="43.0945879" lon="12.5673855"><ele>231.0</ele><time>2026-04-26T10:19:24.5Z</time></trkpt><trkpt lat="43.0946862" lon="12.5673021"><ele>231.0</ele><time>2026-04-26T10:19:26.508Z</time></trkpt><trkpt lat="43.0947784" lon="12.5672163"><ele>231.0</ele><time>2026-04-26T10:19:28.519Z</time></trkpt><trkpt lat="43.0948665" lon="12.5671229"><ele>231.00000000000003</ele><time>2026-04-26T10:19:30.574Z</time></trkpt><trkpt lat="43.0949497" lon="12.5670467"><ele>231.00000000000003</ele><time>2026-04-26T10:19:32.515Z</time></trkpt><trkpt lat="43.0950342" lon="12.5669739"><ele>231.0</ele><time>2026-04-26T10:19:34.481Z</time></trkpt><trkpt lat="43.0951192" lon="12.5668886"><ele>231.0</ele><time>2026-04-26T10:19:36.522Z</time></trkpt><trkpt lat="43.0952064" lon="12.5668058"><ele>231.4</ele><time>2026-04-26T10:19:38.503Z</time></trkpt><trkpt lat="43.0952946" lon="12.566723"><ele>231.8</ele><time>2026-04-26T10:19:40.514Z</time></trkpt><trkpt lat="43.0953771" lon="12.5666409"><ele>232.20000000000002</ele><time>2026-04-26T10:19:42.508Z</time></trkpt><trkpt lat="43.0954729" lon="12.5665721"><ele>232.60000000000002</ele><time>2026-04-26T10:19:44.611Z</time></trkpt><trkpt lat="43.0955564" lon="12.5665127"><ele>233.0</ele><time>2026-04-26T10:19:46.507Z</time></trkpt><trkpt lat="43.095687" lon="12.5664266"><ele>233.4</ele><time>2026-04-26T10:19:49.522Z</time></trkpt><trkpt lat="43.0957715" lon="12.566363"><ele>233.8</ele><time>2026-04-26T10:19:51.514Z</time></trkpt><trkpt lat="43.095853" lon="12.5663037"><ele>234.2</ele><time>2026-04-26T10:19:53.497Z</time></trkpt><trkpt lat="43.0959403" lon="12.5662433"><ele>234.6</ele><time>2026-04-26T10:19:55.506Z</time></trkpt><trkpt lat="43.0960232" lon="12.5661706"><ele>235.0</ele><time>2026-04-26T10:19:57.504Z</time></trkpt><trkpt lat="43.0961076" lon="12.5661074"><ele>235.0</ele><time>2026-04-26T10:19:59.515Z</time></trkpt><trkpt lat="43.0961865" lon="12.56603"><ele>235.0</ele><time>2026-04-26T10:20:01.534Z</time></trkpt><trkpt lat="43.0962469" lon="12.5659378"><ele>235.0</ele><time>2026-04-26T10:20:03.522Z</time></trkpt><trkpt lat="43.0963057" lon="12.5658433"><ele>235.0</ele><time>2026-04-26T10:20:05.534Z</time></trkpt><trkpt lat="43.0963582" lon="12.5657446"><ele>235.0</ele><time>2026-04-26T10:20:07.506Z</time></trkpt><trkpt lat="43.0964143" lon="12.5656495"><ele>235.0</ele><time>2026-04-26T10:20:09.499Z</time></trkpt><trkpt lat="43.0964672" lon="12.5655531"><ele>235.0</ele><time>2026-04-26T10:20:11.517Z</time></trkpt><trkpt lat="43.096526" lon="12.5654587"><ele>235.0</ele><time>2026-04-26T10:20:13.529Z</time></trkpt><trkpt lat="43.0965928" lon="12.5653668"><ele>235.0</ele><time>2026-04-26T10:20:15.498Z</time></trkpt><trkpt lat="43.0966584" lon="12.5652592"><ele>235.0</ele><time>2026-04-26T10:20:17.519Z</time></trkpt><trkpt lat="43.0967114" lon="12.5651299"><ele>235.4</ele><time>2026-04-26T10:20:19.46Z</time></trkpt><trkpt lat="43.096783" lon="12.5650175"><ele>235.8</ele><time>2026-04-26T10:20:21.472Z</time></trkpt><trkpt lat="43.0968423" lon="12.564914"><ele>236.2</ele><time>2026-04-26T10:20:23.454Z</time></trkpt><trkpt lat="43.0969104" lon="12.564808"><ele>236.6</ele><time>2026-04-26T10:20:25.51Z</time></trkpt><trkpt lat="43.0969814" lon="12.5647039"><ele>237.0</ele><time>2026-04-26T10:20:27.499Z</time></trkpt><trkpt lat="43.0970584" lon="12.5645912"><ele>236.5</ele><time>2026-04-26T10:20:29.478Z</time></trkpt><trkpt lat="43.09714" lon="12.5644731"><ele>236.0</ele><time>2026-04-26T10:20:31.513Z</time></trkpt><trkpt lat="43.0972248" lon="12.5643618"><ele>235.5</ele><time>2026-04-26T10:20:33.481Z</time></trkpt><trkpt lat="43.0972704" lon="12.5642992"><ele>235.0</ele><time>2026-04-26T10:20:34.519Z</time></trkpt><trkpt lat="43.0973126" lon="12.5642337"><ele>234.5</ele><time>2026-04-26T10:20:35.483Z</time></trkpt><trkpt lat="43.0973573" lon="12.5641609"><ele>234.0</ele><time>2026-04-26T10:20:36.514Z</time></trkpt><trkpt lat="43.0974033" lon="12.5640946"><ele>234.0</ele><time>2026-04-26T10:20:37.488Z</time></trkpt><trkpt lat="43.0974552" lon="12.5640113"><ele>234.0</ele><time>2026-04-26T10:20:38.613Z</time></trkpt><trkpt lat="43.0975034" lon="12.5639365"><ele>234.0</ele><time>2026-04-26T10:20:39.604Z</time></trkpt><trkpt lat="43.0975611" lon="12.5638554"><ele>234.0</ele><time>2026-04-26T10:20:40.694Z</time></trkpt><trkpt lat="43.0976478" lon="12.5637075"><ele>234.0</ele><time>2026-04-26T10:20:42.518Z</time></trkpt><trkpt lat="43.0976915" lon="12.5636244"><ele>234.0</ele><time>2026-04-26T10:20:43.518Z</time></trkpt><trkpt lat="43.0977389" lon="12.5635426"><ele>233.5</ele><time>2026-04-26T10:20:44.518Z</time></trkpt><trkpt lat="43.0977826" lon="12.5634576"><ele>233.0</ele><time>2026-04-26T10:20:45.516Z</time></trkpt><trkpt lat="43.0978278" lon="12.563375"><ele>232.5</ele><time>2026-04-26T10:20:46.487Z</time></trkpt><trkpt lat="43.0978728" lon="12.5632875"><ele>232.0</ele><time>2026-04-26T10:20:47.488Z</time></trkpt><trkpt lat="43.0979151" lon="12.5632003"><ele>231.5</ele><time>2026-04-26T10:20:48.499Z</time></trkpt><trkpt lat="43.0979587" lon="12.563116"><ele>231.0</ele><time>2026-04-26T10:20:49.494Z</time></trkpt><trkpt lat="43.097998" lon="12.5630313"><ele>231.0</ele><time>2026-04-26T10:20:50.478Z</time></trkpt><trkpt lat="43.0980384" lon="12.5629487"><ele>231.0</ele><time>2026-04-26T10:20:51.494Z</time></trkpt><trkpt lat="43.0980759" lon="12.5628698"><ele>231.0</ele><time>2026-04-26T10:20:52.49Z</time></trkpt><trkpt lat="43.0981132" lon="12.5627923"><ele>231.0</ele><time>2026-04-26T10:20:53.503Z</time></trkpt><trkpt lat="43.0981509" lon="12.562717"><ele>231.0</ele><time>2026-04-26T10:20:54.49Z</time></trkpt><trkpt lat="43.0981849" lon="12.5626418"><ele>231.0</ele><time>2026-04-26T10:20:55.48Z</time></trkpt><trkpt lat="43.0982502" lon="12.5625019"><ele>230.60000000000002</ele><time>2026-04-26T10:20:57.486Z</time></trkpt><trkpt lat="43.0983134" lon="12.5623772"><ele>230.20000000000002</ele><time>2026-04-26T10:20:59.469Z</time></trkpt><trkpt lat="43.0983769" lon="12.5622533"><ele>229.79999999999998</ele><time>2026-04-26T10:21:01.549Z</time></trkpt><trkpt lat="43.098435" lon="12.5621381"><ele>229.39999999999998</ele><time>2026-04-26T10:21:03.508Z</time></trkpt><trkpt lat="43.0984988" lon="12.5620035"><ele>229.0</ele><time>2026-04-26T10:21:05.595Z</time></trkpt><trkpt lat="43.0985572" lon="12.561884"><ele>228.75</ele><time>2026-04-26T10:21:07.487Z</time></trkpt><trkpt lat="43.0986161" lon="12.561751"><ele>228.5</ele><time>2026-04-26T10:21:09.49Z</time></trkpt><trkpt lat="43.0986839" lon="12.5616255"><ele>228.25</ele><time>2026-04-26T10:21:11.476Z</time></trkpt><trkpt lat="43.0987556" lon="12.5614901"><ele>228.0</ele><time>2026-04-26T10:21:13.517Z</time></trkpt><trkpt lat="43.0988273" lon="12.5613577"><ele>228.0</ele><time>2026-04-26T10:21:15.525Z</time></trkpt><trkpt lat="43.098866" lon="12.5612826"><ele>228.0</ele><time>2026-04-26T10:21:16.621Z</time></trkpt><trkpt lat="43.0989254" lon="12.5611552"><ele>228.0</ele><time>2026-04-26T10:21:18.476Z</time></trkpt><trkpt lat="43.0989952" lon="12.5610151"><ele>228.0</ele><time>2026-04-26T10:21:20.469Z</time></trkpt><trkpt lat="43.0990278" lon="12.5609371"><ele>228.0</ele><time>2026-04-26T10:21:21.494Z</time></trkpt><trkpt lat="43.0990798" lon="12.5607836"><ele>228.25</ele><time>2026-04-26T10:21:23.531Z</time></trkpt><trkpt lat="43.0991321" lon="12.5606296"><ele>228.5</ele><time>2026-04-26T10:21:25.521Z</time></trkpt><trkpt lat="43.0991682" lon="12.560472"><ele>228.75</ele><time>2026-04-26T10:21:27.635Z</time></trkpt><trkpt lat="43.0992068" lon="12.560316"><ele>229.0</ele><time>2026-04-26T10:21:29.662Z</time></trkpt><trkpt lat="43.0992356" lon="12.5601739"><ele>229.0</ele><time>2026-04-26T10:21:31.518Z</time></trkpt><trkpt lat="43.0992661" lon="12.5600164"><ele>228.99999999999997</ele><time>2026-04-26T10:21:33.506Z</time></trkpt><trkpt lat="43.0993019" lon="12.55985"><ele>228.99999999999997</ele><time>2026-04-26T10:21:35.523Z</time></trkpt><trkpt lat="43.099337" lon="12.5596888"><ele>229.0</ele><time>2026-04-26T10:21:37.507Z</time></trkpt><trkpt lat="43.0993571" lon="12.5595966"><ele>229.0</ele><time>2026-04-26T10:21:38.625Z</time></trkpt><trkpt lat="43.0993945" lon="12.55943"><ele>228.16666666666666</ele><time>2026-04-26T10:21:40.609Z</time></trkpt><trkpt lat="43.0994279" lon="12.5592734"><ele>227.33333333333331</ele><time>2026-04-26T10:21:42.53Z</time></trkpt><trkpt lat="43.0994461" lon="12.5591889"><ele>226.5</ele><time>2026-04-26T10:21:43.531Z</time></trkpt><trkpt lat="43.0994634" lon="12.5590978"><ele>225.66666666666669</ele><time>2026-04-26T10:21:44.614Z</time></trkpt><trkpt lat="43.0995015" lon="12.5589399"><ele>224.83333333333334</ele><time>2026-04-26T10:21:46.499Z</time></trkpt><trkpt lat="43.0995218" lon="12.5588508"><ele>224.0</ele><time>2026-04-26T10:21:47.491Z</time></trkpt><trkpt lat="43.0995422" lon="12.5587508"><ele>224.00000000000003</ele><time>2026-04-26T10:21:48.621Z</time></trkpt><trkpt lat="43.0995791" lon="12.5585862"><ele>224.0</ele><time>2026-04-26T10:21:50.519Z</time></trkpt><trkpt lat="43.0996003" lon="12.5585005"><ele>224.0</ele><time>2026-04-26T10:21:51.511Z</time></trkpt><trkpt lat="43.0996227" lon="12.5584114"><ele>224.0</ele><time>2026-04-26T10:21:52.519Z</time></trkpt><trkpt lat="43.0996418" lon="12.5583203"><ele>224.00000000000003</ele><time>2026-04-26T10:21:53.528Z</time></trkpt><trkpt lat="43.0996605" lon="12.5582362"><ele>224.0</ele><time>2026-04-26T10:21:54.502Z</time></trkpt><trkpt lat="43.0996826" lon="12.5581495"><ele>224.00000000000003</ele><time>2026-04-26T10:21:55.528Z</time></trkpt><trkpt lat="43.099704" lon="12.5580643"><ele>224.0</ele><time>2026-04-26T10:21:56.511Z</time></trkpt><trkpt lat="43.099725" lon="12.5579815"><ele>224.0</ele><time>2026-04-26T10:21:57.513Z</time></trkpt><trkpt lat="43.0997423" lon="12.5578966"><ele>224.0</ele><time>2026-04-26T10:21:58.528Z</time></trkpt><trkpt lat="43.09976" lon="12.5578104"><ele>224.00000000000003</ele><time>2026-04-26T10:21:59.519Z</time></trkpt><trkpt lat="43.0997801" lon="12.5577163"><ele>224.0</ele><time>2026-04-26T10:22:00.618Z</time></trkpt><trkpt lat="43.0998177" lon="12.5575601"><ele>224.0</ele><time>2026-04-26T10:22:02.513Z</time></trkpt><trkpt lat="43.0998359" lon="12.5574738"><ele>223.99999999999997</ele><time>2026-04-26T10:22:03.522Z</time></trkpt><trkpt lat="43.0998695" lon="12.5573073"><ele>223.99999999999997</ele><time>2026-04-26T10:22:05.504Z</time></trkpt><trkpt lat="43.0998889" lon="12.5572194"><ele>224.0</ele><time>2026-04-26T10:22:06.521Z</time></trkpt><trkpt lat="43.0999232" lon="12.5570472"><ele>224.0</ele><time>2026-04-26T10:22:08.544Z</time></trkpt><trkpt lat="43.0999426" lon="12.5569647"><ele>224.0</ele><time>2026-04-26T10:22:09.548Z</time></trkpt><trkpt lat="43.0999767" lon="12.5567993"><ele>223.99999999999997</ele><time>2026-04-26T10:22:11.611Z</time></trkpt><trkpt lat="43.1000116" lon="12.5566495"><ele>223.99999999999997</ele><time>2026-04-26T10:22:13.528Z</time></trkpt><trkpt lat="43.1000408" lon="12.5564962"><ele>224.0</ele><time>2026-04-26T10:22:15.534Z</time></trkpt><trkpt lat="43.1000578" lon="12.556412"><ele>224.0</ele><time>2026-04-26T10:22:16.644Z</time></trkpt><trkpt lat="43.1000868" lon="12.5562668"><ele>223.6</ele><time>2026-04-26T10:22:18.551Z</time></trkpt><trkpt lat="43.1001219" lon="12.5561192"><ele>223.2</ele><time>2026-04-26T10:22:20.53Z</time></trkpt><trkpt lat="43.1001588" lon="12.5559726"><ele>222.79999999999998</ele><time>2026-04-26T10:22:22.515Z</time></trkpt><trkpt lat="43.1001959" lon="12.5558319"><ele>222.39999999999998</ele><time>2026-04-26T10:22:24.53Z</time></trkpt><trkpt lat="43.1002354" lon="12.555702"><ele>222.0</ele><time>2026-04-26T10:22:26.498Z</time></trkpt><trkpt lat="43.1002805" lon="12.5555701"><ele>222.0</ele><time>2026-04-26T10:22:28.519Z</time></trkpt><trkpt lat="43.1003141" lon="12.5554942"><ele>222.0</ele><time>2026-04-26T10:22:29.738Z</time></trkpt><trkpt lat="43.1003619" lon="12.5553827"><ele>222.0</ele><time>2026-04-26T10:22:31.539Z</time></trkpt><trkpt lat="43.1004192" lon="12.5552679"><ele>222.0</ele><time>2026-04-26T10:22:33.542Z</time></trkpt><trkpt lat="43.1004786" lon="12.5551555"><ele>222.0</ele><time>2026-04-26T10:22:35.512Z</time></trkpt><trkpt lat="43.1005444" lon="12.5550367"><ele>222.2</ele><time>2026-04-26T10:22:37.545Z</time></trkpt><trkpt lat="43.1006102" lon="12.554924"><ele>222.39999999999998</ele><time>2026-04-26T10:22:39.523Z</time></trkpt><trkpt lat="43.1006757" lon="12.5548004"><ele>222.60000000000002</ele><time>2026-04-26T10:22:41.544Z</time></trkpt><trkpt lat="43.1007336" lon="12.5546765"><ele>222.8</ele><time>2026-04-26T10:22:43.522Z</time></trkpt><trkpt lat="43.1008024" lon="12.5545547"><ele>223.0</ele><time>2026-04-26T10:22:45.512Z</time></trkpt><trkpt lat="43.1008726" lon="12.5544198"><ele>223.0</ele><time>2026-04-26T10:22:47.552Z</time></trkpt><trkpt lat="43.1009404" lon="12.5542921"><ele>223.0</ele><time>2026-04-26T10:22:49.513Z</time></trkpt><trkpt lat="43.1010087" lon="12.5541593"><ele>223.0</ele><time>2026-04-26T10:22:51.547Z</time></trkpt><trkpt lat="43.1010697" lon="12.5540265"><ele>223.0</ele><time>2026-04-26T10:22:53.524Z</time></trkpt><trkpt lat="43.1011323" lon="12.5538961"><ele>223.0</ele><time>2026-04-26T10:22:55.538Z</time></trkpt><trkpt lat="43.1011929" lon="12.5537734"><ele>223.0</ele><time>2026-04-26T10:22:57.519Z</time></trkpt><trkpt lat="43.1012559" lon="12.5536431"><ele>223.0</ele><time>2026-04-26T10:22:59.541Z</time></trkpt><trkpt lat="43.1013139" lon="12.5535109"><ele>223.0</ele><time>2026-04-26T10:23:01.524Z</time></trkpt><trkpt lat="43.1013692" lon="12.553372"><ele>222.25</ele><time>2026-04-26T10:23:03.538Z</time></trkpt><trkpt lat="43.1014233" lon="12.5532305"><ele>221.5</ele><time>2026-04-26T10:23:05.623Z</time></trkpt><trkpt lat="43.1014683" lon="12.5531016"><ele>220.75</ele><time>2026-04-26T10:23:07.533Z</time></trkpt><trkpt lat="43.1015277" lon="12.5529683"><ele>220.0</ele><time>2026-04-26T10:23:09.545Z</time></trkpt><trkpt lat="43.1016075" lon="12.5527688"><ele>220.0</ele><time>2026-04-26T10:23:12.534Z</time></trkpt><trkpt lat="43.1016608" lon="12.5526524"><ele>220.0</ele><time>2026-04-26T10:23:14.528Z</time></trkpt><trkpt lat="43.1017155" lon="12.5525233"><ele>220.0</ele><time>2026-04-26T10:23:16.526Z</time></trkpt><trkpt lat="43.1017667" lon="12.5523939"><ele>220.0</ele><time>2026-04-26T10:23:18.524Z</time></trkpt><trkpt lat="43.1018171" lon="12.5522613"><ele>220.0</ele><time>2026-04-26T10:23:20.504Z</time></trkpt><trkpt lat="43.1018687" lon="12.5521221"><ele>219.6</ele><time>2026-04-26T10:23:22.531Z</time></trkpt><trkpt lat="43.1019152" lon="12.5519937"><ele>219.2</ele><time>2026-04-26T10:23:24.524Z</time></trkpt><trkpt lat="43.1019695" lon="12.5518574"><ele>218.8</ele><time>2026-04-26T10:23:26.545Z</time></trkpt><trkpt lat="43.1020272" lon="12.5517142"><ele>218.4</ele><time>2026-04-26T10:23:28.631Z</time></trkpt><trkpt lat="43.1020792" lon="12.5515922"><ele>218.0</ele><time>2026-04-26T10:23:30.543Z</time></trkpt><trkpt lat="43.1021343" lon="12.5514671"><ele>218.0</ele><time>2026-04-26T10:23:32.506Z</time></trkpt><trkpt lat="43.1021873" lon="12.5513343"><ele>218.0</ele><time>2026-04-26T10:23:34.522Z</time></trkpt><trkpt lat="43.1022428" lon="12.5512023"><ele>218.0</ele><time>2026-04-26T10:23:36.526Z</time></trkpt><trkpt lat="43.1022909" lon="12.5510706"><ele>218.0</ele><time>2026-04-26T10:23:38.529Z</time></trkpt><trkpt lat="43.1023715" lon="12.5508787"><ele>218.60000000000002</ele><time>2026-04-26T10:23:41.548Z</time></trkpt><trkpt lat="43.1024205" lon="12.5507618"><ele>219.20000000000002</ele><time>2026-04-26T10:23:43.536Z</time></trkpt><trkpt lat="43.1024808" lon="12.5506217"><ele>219.8</ele><time>2026-04-26T10:23:45.652Z</time></trkpt><trkpt lat="43.1025277" lon="12.5505015"><ele>220.4</ele><time>2026-04-26T10:23:47.541Z</time></trkpt><trkpt lat="43.1025723" lon="12.550376"><ele>221.0</ele><time>2026-04-26T10:23:49.508Z</time></trkpt><trkpt lat="43.102621" lon="12.5502398"><ele>221.0</ele><time>2026-04-26T10:23:51.541Z</time></trkpt><trkpt lat="43.1026626" lon="12.5501085"><ele>221.00000000000003</ele><time>2026-04-26T10:23:53.524Z</time></trkpt><trkpt lat="43.1027107" lon="12.5499702"><ele>221.00000000000003</ele><time>2026-04-26T10:23:55.563Z</time></trkpt><trkpt lat="43.102756" lon="12.549838"><ele>221.0</ele><time>2026-04-26T10:23:57.53Z</time></trkpt><trkpt lat="43.102798" lon="12.5497093"><ele>221.0</ele><time>2026-04-26T10:23:59.551Z</time></trkpt><trkpt lat="43.1028383" lon="12.5495835"><ele>220.4</ele><time>2026-04-26T10:24:01.541Z</time></trkpt><trkpt lat="43.1028746" lon="12.5494633"><ele>219.8</ele><time>2026-04-26T10:24:03.531Z</time></trkpt><trkpt lat="43.1029327" lon="12.5492923"><ele>219.20000000000002</ele><time>2026-04-26T10:24:06.529Z</time></trkpt><trkpt lat="43.1029678" lon="12.5491835"><ele>218.60000000000002</ele><time>2026-04-26T10:24:08.541Z</time></trkpt><trkpt lat="43.1030058" lon="12.549088"><ele>218.0</ele><time>2026-04-26T10:24:10.52Z</time></trkpt><trkpt lat="43.1030431" lon="12.5489767"><ele>218.0</ele><time>2026-04-26T10:24:12.556Z</time></trkpt><trkpt lat="43.1030807" lon="12.5488701"><ele>218.0</ele><time>2026-04-26T10:24:14.511Z</time></trkpt><trkpt lat="43.1031164" lon="12.5487537"><ele>218.0</ele><time>2026-04-26T10:24:16.541Z</time></trkpt><trkpt lat="43.1031581" lon="12.548643"><ele>218.0</ele><time>2026-04-26T10:24:18.532Z</time></trkpt><trkpt lat="43.103208" lon="12.5485252"><ele>218.0</ele><time>2026-04-26T10:24:20.541Z</time></trkpt><trkpt lat="43.1032928" lon="12.5483478"><ele>218.2</ele><time>2026-04-26T10:24:23.536Z</time></trkpt><trkpt lat="43.1033683" lon="12.5482435"><ele>218.4</ele><time>2026-04-26T10:24:25.519Z</time></trkpt><trkpt lat="43.1034449" lon="12.5481318"><ele>218.59999999999997</ele><time>2026-04-26T10:24:27.533Z</time></trkpt><trkpt lat="43.1034917" lon="12.5480628"><ele>218.79999999999998</ele><time>2026-04-26T10:24:28.734Z</time></trkpt><trkpt lat="43.1035699" lon="12.547961"><ele>219.0</ele><time>2026-04-26T10:24:30.547Z</time></trkpt><trkpt lat="43.1036514" lon="12.5478495"><ele>218.0</ele><time>2026-04-26T10:24:32.53Z</time></trkpt><trkpt lat="43.1037381" lon="12.5477432"><ele>217.0</ele><time>2026-04-26T10:24:34.5Z</time></trkpt><trkpt lat="43.1038267" lon="12.5476391"><ele>216.0</ele><time>2026-04-26T10:24:36.492Z</time></trkpt><trkpt lat="43.1039177" lon="12.5475301"><ele>215.0</ele><time>2026-04-26T10:24:38.489Z</time></trkpt><trkpt lat="43.1040088" lon="12.5474153"><ele>215.75</ele><time>2026-04-26T10:24:40.493Z</time></trkpt><trkpt lat="43.1040976" lon="12.5473046"><ele>216.5</ele><time>2026-04-26T10:24:42.511Z</time></trkpt><trkpt lat="43.1041877" lon="12.5471872"><ele>217.25</ele><time>2026-04-26T10:24:44.622Z</time></trkpt><trkpt lat="43.1042748" lon="12.5470768"><ele>218.0</ele><time>2026-04-26T10:24:46.604Z</time></trkpt><trkpt lat="43.1043583" lon="12.5469711"><ele>216.5</ele><time>2026-04-26T10:24:48.522Z</time></trkpt><trkpt lat="43.10444" lon="12.5468532"><ele>215.0</ele><time>2026-04-26T10:24:50.56Z</time></trkpt><trkpt lat="43.1045195" lon="12.546732"><ele>213.5</ele><time>2026-04-26T10:24:52.539Z</time></trkpt><trkpt lat="43.1045896" lon="12.5465963"><ele>212.0</ele><time>2026-04-26T10:24:54.646Z</time></trkpt><trkpt lat="43.1046655" lon="12.5463867"><ele>212.0</ele><time>2026-04-26T10:24:57.51Z</time></trkpt><trkpt lat="43.1046891" lon="12.5463013"><ele>212.0</ele><time>2026-04-26T10:24:58.531Z</time></trkpt><trkpt lat="43.1047045" lon="12.5462162"><ele>212.0</ele><time>2026-04-26T10:24:59.525Z</time></trkpt><trkpt lat="43.1047159" lon="12.5460398"><ele>212.0</ele><time>2026-04-26T10:25:01.542Z</time></trkpt><trkpt lat="43.1047256" lon="12.545868"><ele>212.0</ele><time>2026-04-26T10:25:03.525Z</time></trkpt><trkpt lat="43.1047268" lon="12.5457804"><ele>212.16666666666669</ele><time>2026-04-26T10:25:04.517Z</time></trkpt><trkpt lat="43.1047164" lon="12.5456027"><ele>212.33333333333334</ele><time>2026-04-26T10:25:06.494Z</time></trkpt><trkpt lat="43.104704" lon="12.5455084"><ele>212.5</ele><time>2026-04-26T10:25:07.522Z</time></trkpt><trkpt lat="43.1046973" lon="12.5454193"><ele>212.66666666666669</ele><time>2026-04-26T10:25:08.51Z</time></trkpt><trkpt lat="43.1046936" lon="12.545328"><ele>212.83333333333334</ele><time>2026-04-26T10:25:09.525Z</time></trkpt><trkpt lat="43.1047028" lon="12.5452388"><ele>213.0</ele><time>2026-04-26T10:25:10.505Z</time></trkpt><trkpt lat="43.1047255" lon="12.5451565"><ele>213.16666666666666</ele><time>2026-04-26T10:25:11.552Z</time></trkpt><trkpt lat="43.1047769" lon="12.5450279"><ele>213.33333333333331</ele><time>2026-04-26T10:25:13.498Z</time></trkpt><trkpt lat="43.1048353" lon="12.5449675"><ele>213.5</ele><time>2026-04-26T10:25:15.535Z</time></trkpt><trkpt lat="43.1049277" lon="12.5448861"><ele>213.66666666666666</ele><time>2026-04-26T10:25:19.631Z</time></trkpt><trkpt lat="43.104993" lon="12.544833"><ele>213.83333333333331</ele><time>2026-04-26T10:25:22.487Z</time></trkpt><trkpt lat="43.1050629" lon="12.5448047"><ele>214.0</ele><time>2026-04-26T10:25:25.539Z</time></trkpt><trkpt lat="43.1051365" lon="12.5447575"><ele>213.99999999999997</ele><time>2026-04-26T10:25:29.527Z</time></trkpt><trkpt lat="43.1050562" lon="12.5447762"><ele>214.0</ele><time>2026-04-26T10:25:39.535Z</time></trkpt><trkpt lat="43.1049709" lon="12.544829"><ele>214.0</ele><time>2026-04-26T10:25:42.512Z</time></trkpt><trkpt lat="43.1049034" lon="12.5448771"><ele>214.0</ele><time>2026-04-26T10:25:44.605Z</time></trkpt><trkpt lat="43.1048292" lon="12.5448971"><ele>213.99999999999997</ele><time>2026-04-26T10:25:46.512Z</time></trkpt><trkpt lat="43.1047553" lon="12.5449547"><ele>214.0</ele><time>2026-04-26T10:25:48.626Z</time></trkpt><trkpt lat="43.1046839" lon="12.5450508"><ele>213.99999999999997</ele><time>2026-04-26T10:25:50.514Z</time></trkpt><trkpt lat="43.1045682" lon="12.5450338"><ele>214.0</ele><time>2026-04-26T10:25:52.529Z</time></trkpt><trkpt lat="43.1044853" lon="12.5449047"><ele>214.0</ele><time>2026-04-26T10:25:54.525Z</time></trkpt><trkpt lat="43.1044558" lon="12.5448247"><ele>214.0</ele><time>2026-04-26T10:25:55.513Z</time></trkpt><trkpt lat="43.1044192" lon="12.5447519"><ele>213.99999999999997</ele><time>2026-04-26T10:25:56.54Z</time></trkpt><trkpt lat="43.1043862" lon="12.5446778"><ele>214.0</ele><time>2026-04-26T10:25:57.555Z</time></trkpt><trkpt lat="43.1043506" lon="12.5446015"><ele>213.79999999999998</ele><time>2026-04-26T10:25:58.627Z</time></trkpt><trkpt lat="43.1042916" lon="12.5444571"><ele>213.59999999999997</ele><time>2026-04-26T10:26:00.541Z</time></trkpt><trkpt lat="43.1042258" lon="12.5443139"><ele>213.4</ele><time>2026-04-26T10:26:02.512Z</time></trkpt><trkpt lat="43.1041936" lon="12.5442348"><ele>213.2</ele><time>2026-04-26T10:26:03.521Z</time></trkpt><trkpt lat="43.1041599" lon="12.5441589"><ele>213.0</ele><time>2026-04-26T10:26:04.546Z</time></trkpt><trkpt lat="43.1041012" lon="12.5440124"><ele>213.0</ele><time>2026-04-26T10:26:06.523Z</time></trkpt><trkpt lat="43.1040361" lon="12.5438607"><ele>213.0</ele><time>2026-04-26T10:26:08.522Z</time></trkpt><trkpt lat="43.1039723" lon="12.5437172"><ele>213.0</ele><time>2026-04-26T10:26:10.524Z</time></trkpt><trkpt lat="43.103913" lon="12.5435708"><ele>213.0</ele><time>2026-04-26T10:26:12.519Z</time></trkpt><trkpt lat="43.1038477" lon="12.5434238"><ele>213.0</ele><time>2026-04-26T10:26:14.533Z</time></trkpt><trkpt lat="43.103782" lon="12.543274"><ele>213.0</ele><time>2026-04-26T10:26:16.533Z</time></trkpt><trkpt lat="43.1037487" lon="12.5431928"><ele>213.0</ele><time>2026-04-26T10:26:17.634Z</time></trkpt><trkpt lat="43.1036894" lon="12.5430525"><ele>213.0</ele><time>2026-04-26T10:26:19.524Z</time></trkpt><trkpt lat="43.1036549" lon="12.542978"><ele>213.0</ele><time>2026-04-26T10:26:20.537Z</time></trkpt><trkpt lat="43.1036193" lon="12.5429055"><ele>213.0</ele><time>2026-04-26T10:26:21.53Z</time></trkpt><trkpt lat="43.1035525" lon="12.5427549"><ele>212.83333333333334</ele><time>2026-04-26T10:26:23.536Z</time></trkpt><trkpt lat="43.1035194" lon="12.5426805"><ele>212.66666666666669</ele><time>2026-04-26T10:26:24.528Z</time></trkpt><trkpt lat="43.1034828" lon="12.5426029"><ele>212.5</ele><time>2026-04-26T10:26:25.542Z</time></trkpt><trkpt lat="43.103416" lon="12.5424563"><ele>212.33333333333334</ele><time>2026-04-26T10:26:27.498Z</time></trkpt><trkpt lat="43.103384" lon="12.5423775"><ele>212.16666666666669</ele><time>2026-04-26T10:26:28.529Z</time></trkpt><trkpt lat="43.1033519" lon="12.5423033"><ele>212.0</ele><time>2026-04-26T10:26:29.512Z</time></trkpt><trkpt lat="43.1033182" lon="12.542227"><ele>212.0</ele><time>2026-04-26T10:26:30.534Z</time></trkpt><trkpt lat="43.1032494" lon="12.5420882"><ele>212.0</ele><time>2026-04-26T10:26:32.533Z</time></trkpt><trkpt lat="43.1031867" lon="12.5419459"><ele>212.0</ele><time>2026-04-26T10:26:34.532Z</time></trkpt><trkpt lat="43.1031233" lon="12.5418151"><ele>212.0</ele><time>2026-04-26T10:26:36.523Z</time></trkpt><trkpt lat="43.1030633" lon="12.541678"><ele>211.39999999999998</ele><time>2026-04-26T10:26:38.533Z</time></trkpt><trkpt lat="43.1030053" lon="12.5415382"><ele>210.79999999999998</ele><time>2026-04-26T10:26:40.538Z</time></trkpt><trkpt lat="43.1029725" lon="12.5414626"><ele>210.2</ele><time>2026-04-26T10:26:41.644Z</time></trkpt><trkpt lat="43.1029189" lon="12.5413329"><ele>209.6</ele><time>2026-04-26T10:26:43.516Z</time></trkpt><trkpt lat="43.1028561" lon="12.5411979"><ele>209.0</ele><time>2026-04-26T10:26:45.526Z</time></trkpt><trkpt lat="43.102799" lon="12.5410599"><ele>209.0</ele><time>2026-04-26T10:26:47.531Z</time></trkpt><trkpt lat="43.1027359" lon="12.5409182"><ele>209.0</ele><time>2026-04-26T10:26:49.644Z</time></trkpt><trkpt lat="43.1026815" lon="12.5407959"><ele>209.0</ele><time>2026-04-26T10:26:51.54Z</time></trkpt><trkpt lat="43.102628" lon="12.5406686"><ele>209.0</ele><time>2026-04-26T10:26:53.536Z</time></trkpt><trkpt lat="43.1025706" lon="12.5405356"><ele>209.0</ele><time>2026-04-26T10:26:55.546Z</time></trkpt><trkpt lat="43.1025159" lon="12.5404025"><ele>209.0</ele><time>2026-04-26T10:26:57.519Z</time></trkpt><trkpt lat="43.1024748" lon="12.5402553"><ele>209.0</ele><time>2026-04-26T10:26:59.539Z</time></trkpt><trkpt lat="43.1024404" lon="12.5401114"><ele>209.0</ele><time>2026-04-26T10:27:01.494Z</time></trkpt><trkpt lat="43.1024108" lon="12.5399652"><ele>209.0</ele><time>2026-04-26T10:27:03.514Z</time></trkpt><trkpt lat="43.1023931" lon="12.5398179"><ele>209.0</ele><time>2026-04-26T10:27:05.517Z</time></trkpt><trkpt lat="43.1023808" lon="12.5396659"><ele>208.79999999999998</ele><time>2026-04-26T10:27:07.529Z</time></trkpt><trkpt lat="43.1023803" lon="12.5395163"><ele>208.6</ele><time>2026-04-26T10:27:09.549Z</time></trkpt><trkpt lat="43.1023855" lon="12.5393657"><ele>208.4</ele><time>2026-04-26T10:27:11.581Z</time></trkpt><trkpt lat="43.1023989" lon="12.5392209"><ele>208.2</ele><time>2026-04-26T10:27:13.526Z</time></trkpt><trkpt lat="43.102414" lon="12.5390814"><ele>208.0</ele><time>2026-04-26T10:27:15.519Z</time></trkpt><trkpt lat="43.1024389" lon="12.5389457"><ele>207.99999999999997</ele><time>2026-04-26T10:27:17.519Z</time></trkpt><trkpt lat="43.1024719" lon="12.5388184"><ele>208.0</ele><time>2026-04-26T10:27:19.521Z</time></trkpt><trkpt lat="43.1025089" lon="12.5386927"><ele>208.0</ele><time>2026-04-26T10:27:21.659Z</time></trkpt><trkpt lat="43.1025309" lon="12.5385961"><ele>208.0</ele><time>2026-04-26T10:27:23.504Z</time></trkpt><trkpt lat="43.1025586" lon="12.5384955"><ele>207.99999999999997</ele><time>2026-04-26T10:27:25.538Z</time></trkpt><trkpt lat="43.1025826" lon="12.538402"><ele>208.0</ele><time>2026-04-26T10:27:27.544Z</time></trkpt><trkpt lat="43.10261" lon="12.5383163"><ele>208.0</ele><time>2026-04-26T10:27:29.548Z</time></trkpt><trkpt lat="43.1026306" lon="12.5382343"><ele>208.0</ele><time>2026-04-26T10:27:31.546Z</time></trkpt><trkpt lat="43.1026539" lon="12.5381538"><ele>208.0</ele><time>2026-04-26T10:27:33.521Z</time></trkpt><trkpt lat="43.1026781" lon="12.5380645"><ele>208.0</ele><time>2026-04-26T10:27:35.523Z</time></trkpt><trkpt lat="43.1027048" lon="12.5379722"><ele>208.0</ele><time>2026-04-26T10:27:37.525Z</time></trkpt><trkpt lat="43.1027246" lon="12.5378866"><ele>208.0</ele><time>2026-04-26T10:27:39.545Z</time></trkpt><trkpt lat="43.1027488" lon="12.5378018"><ele>208.0</ele><time>2026-04-26T10:27:41.539Z</time></trkpt><trkpt lat="43.1027853" lon="12.5376836"><ele>207.99999999999997</ele><time>2026-04-26T10:27:44.547Z</time></trkpt><trkpt lat="43.1028199" lon="12.5375663"><ele>208.0</ele><time>2026-04-26T10:27:47.539Z</time></trkpt><trkpt lat="43.102846" lon="12.5374843"><ele>208.0</ele><time>2026-04-26T10:27:49.601Z</time></trkpt><trkpt lat="43.1028786" lon="12.5373718"><ele>208.0</ele><time>2026-04-26T10:27:52.537Z</time></trkpt><trkpt lat="43.1029162" lon="12.5372489"><ele>207.99999999999997</ele><time>2026-04-26T10:27:55.54Z</time></trkpt><trkpt lat="43.1029383" lon="12.5371674"><ele>208.0</ele><time>2026-04-26T10:27:57.526Z</time></trkpt><trkpt lat="43.1029642" lon="12.5370768"><ele>208.16666666666666</ele><time>2026-04-26T10:27:59.573Z</time></trkpt><trkpt lat="43.1029876" lon="12.53699"><ele>208.33333333333331</ele><time>2026-04-26T10:28:01.528Z</time></trkpt><trkpt lat="43.1030152" lon="12.5368999"><ele>208.5</ele><time>2026-04-26T10:28:03.528Z</time></trkpt><trkpt lat="43.1030415" lon="12.536797"><ele>208.66666666666669</ele><time>2026-04-26T10:28:05.61Z</time></trkpt><trkpt lat="43.1030669" lon="12.5366854"><ele>208.83333333333334</ele><time>2026-04-26T10:28:07.532Z</time></trkpt><trkpt lat="43.1030953" lon="12.5365496"><ele>209.0</ele><time>2026-04-26T10:28:09.51Z</time></trkpt><trkpt lat="43.103123" lon="12.5364023"><ele>209.00000000000003</ele><time>2026-04-26T10:28:11.52Z</time></trkpt><trkpt lat="43.1031508" lon="12.5362768"><ele>209.0</ele><time>2026-04-26T10:28:13.497Z</time></trkpt><trkpt lat="43.1032382" lon="12.5362427"><ele>209.0</ele><time>2026-04-26T10:28:15.528Z</time></trkpt><trkpt lat="43.1033246" lon="12.5362678"><ele>209.0</ele><time>2026-04-26T10:28:17.522Z</time></trkpt><trkpt lat="43.1033871" lon="12.5362903"><ele>209.00000000000003</ele><time>2026-04-26T10:28:18.635Z</time></trkpt><trkpt lat="43.1034703" lon="12.5363314"><ele>209.0</ele><time>2026-04-26T10:28:20.532Z</time></trkpt><trkpt lat="43.1035981" lon="12.5363878"><ele>209.16666666666669</ele><time>2026-04-26T10:28:23.505Z</time></trkpt><trkpt lat="43.103693" lon="12.5364186"><ele>209.33333333333334</ele><time>2026-04-26T10:28:25.549Z</time></trkpt><trkpt lat="43.1037816" lon="12.5364293"><ele>209.5</ele><time>2026-04-26T10:28:27.62Z</time></trkpt><trkpt lat="43.1038563" lon="12.5364339"><ele>209.66666666666669</ele><time>2026-04-26T10:28:29.52Z</time></trkpt><trkpt lat="43.1039388" lon="12.5364417"><ele>209.83333333333334</ele><time>2026-04-26T10:28:31.533Z</time></trkpt><trkpt lat="43.1040167" lon="12.5364438"><ele>210.0</ele><time>2026-04-26T10:28:33.531Z</time></trkpt><trkpt lat="43.1041115" lon="12.536447"><ele>210.0</ele><time>2026-04-26T10:28:35.629Z</time></trkpt><trkpt lat="43.1041927" lon="12.5364373"><ele>210.0</ele><time>2026-04-26T10:28:37.533Z</time></trkpt><trkpt lat="43.1042936" lon="12.5364512"><ele>210.0</ele><time>2026-04-26T10:28:39.635Z</time></trkpt><trkpt lat="43.1043728" lon="12.5364634"><ele>210.0</ele><time>2026-04-26T10:28:41.527Z</time></trkpt><trkpt lat="43.1044538" lon="12.5364724"><ele>210.0</ele><time>2026-04-26T10:28:43.548Z</time></trkpt><trkpt lat="43.1045336" lon="12.5364766"><ele>210.0</ele><time>2026-04-26T10:28:45.523Z</time></trkpt><trkpt lat="43.1046135" lon="12.5364891"><ele>210.0</ele><time>2026-04-26T10:28:47.525Z</time></trkpt><trkpt lat="43.1046925" lon="12.5364869"><ele>210.0</ele><time>2026-04-26T10:28:49.517Z</time></trkpt><trkpt lat="43.1047762" lon="12.5364845"><ele>210.0</ele><time>2026-04-26T10:28:51.535Z</time></trkpt><trkpt lat="43.1048572" lon="12.5364817"><ele>210.0</ele><time>2026-04-26T10:28:53.527Z</time></trkpt><trkpt lat="43.1049393" lon="12.5364893"><ele>210.0</ele><time>2026-04-26T10:28:55.649Z</time></trkpt><trkpt lat="43.1050138" lon="12.5364883"><ele>210.0</ele><time>2026-04-26T10:28:57.521Z</time></trkpt><trkpt lat="43.1050968" lon="12.5364897"><ele>210.16666666666666</ele><time>2026-04-26T10:28:59.551Z</time></trkpt><trkpt lat="43.1051854" lon="12.5364989"><ele>210.33333333333331</ele><time>2026-04-26T10:29:01.526Z</time></trkpt><trkpt lat="43.1052746" lon="12.5365016"><ele>210.5</ele><time>2026-04-26T10:29:03.535Z</time></trkpt><trkpt lat="43.1053622" lon="12.5365066"><ele>210.66666666666666</ele><time>2026-04-26T10:29:05.528Z</time></trkpt><trkpt lat="43.1054513" lon="12.5365063"><ele>210.83333333333331</ele><time>2026-04-26T10:29:07.559Z</time></trkpt><trkpt lat="43.1055369" lon="12.5365107"><ele>211.0</ele><time>2026-04-26T10:29:09.551Z</time></trkpt><trkpt lat="43.1056249" lon="12.5365165"><ele>211.0</ele><time>2026-04-26T10:29:11.558Z</time></trkpt><trkpt lat="43.1057084" lon="12.5365172"><ele>211.0</ele><time>2026-04-26T10:29:13.546Z</time></trkpt><trkpt lat="43.1057974" lon="12.5365241"><ele>211.0</ele><time>2026-04-26T10:29:15.561Z</time></trkpt><trkpt lat="43.1058847" lon="12.5365274"><ele>211.0</ele><time>2026-04-26T10:29:17.556Z</time></trkpt><trkpt lat="43.1060122" lon="12.5365353"><ele>211.0</ele><time>2026-04-26T10:29:20.534Z</time></trkpt><trkpt lat="43.1061034" lon="12.5365437"><ele>211.4</ele><time>2026-04-26T10:29:22.532Z</time></trkpt><trkpt lat="43.1061947" lon="12.5365477"><ele>211.8</ele><time>2026-04-26T10:29:24.568Z</time></trkpt><trkpt lat="43.1062865" lon="12.5365568"><ele>212.20000000000002</ele><time>2026-04-26T10:29:26.511Z</time></trkpt><trkpt lat="43.1063702" lon="12.5365566"><ele>212.60000000000002</ele><time>2026-04-26T10:29:28.518Z</time></trkpt><trkpt lat="43.106456" lon="12.5365577"><ele>213.0</ele><time>2026-04-26T10:29:30.502Z</time></trkpt><trkpt lat="43.1065535" lon="12.5365632"><ele>213.0</ele><time>2026-04-26T10:29:32.524Z</time></trkpt><trkpt lat="43.1066473" lon="12.5365701"><ele>213.0</ele><time>2026-04-26T10:29:34.529Z</time></trkpt><trkpt lat="43.1067793" lon="12.5365837"><ele>213.0</ele><time>2026-04-26T10:29:37.482Z</time></trkpt><trkpt lat="43.106873" lon="12.5365871"><ele>213.0</ele><time>2026-04-26T10:29:39.624Z</time></trkpt><trkpt lat="43.1069571" lon="12.5365893"><ele>213.0</ele><time>2026-04-26T10:29:41.547Z</time></trkpt><trkpt lat="43.107039" lon="12.536593"><ele>213.0</ele><time>2026-04-26T10:29:43.534Z</time></trkpt><trkpt lat="43.1071206" lon="12.5366038"><ele>213.0</ele><time>2026-04-26T10:29:45.577Z</time></trkpt><trkpt lat="43.1071981" lon="12.5366073"><ele>213.0</ele><time>2026-04-26T10:29:47.495Z</time></trkpt><trkpt lat="43.1072855" lon="12.5366092"><ele>213.0</ele><time>2026-04-26T10:29:49.536Z</time></trkpt><trkpt lat="43.1073747" lon="12.5366113"><ele>213.0</ele><time>2026-04-26T10:29:51.539Z</time></trkpt><trkpt lat="43.1074643" lon="12.5366192"><ele>213.0</ele><time>2026-04-26T10:29:53.544Z</time></trkpt><trkpt lat="43.1076029" lon="12.536632"><ele>212.8</ele><time>2026-04-26T10:29:56.627Z</time></trkpt><trkpt lat="43.1077294" lon="12.5366424"><ele>212.60000000000002</ele><time>2026-04-26T10:29:59.544Z</time></trkpt><trkpt lat="43.1078134" lon="12.5366384"><ele>212.39999999999998</ele><time>2026-04-26T10:30:01.499Z</time></trkpt><trkpt lat="43.1078977" lon="12.5366405"><ele>212.2</ele><time>2026-04-26T10:30:03.534Z</time></trkpt><trkpt lat="43.1079811" lon="12.5366456"><ele>212.0</ele><time>2026-04-26T10:30:05.52Z</time></trkpt><trkpt lat="43.1080728" lon="12.5366555"><ele>212.00000000000003</ele><time>2026-04-26T10:30:07.55Z</time></trkpt><trkpt lat="43.1081571" lon="12.5366573"><ele>212.0</ele><time>2026-04-26T10:30:09.525Z</time></trkpt><trkpt lat="43.1082384" lon="12.5366622"><ele>212.0</ele><time>2026-04-26T10:30:11.496Z</time></trkpt><trkpt lat="43.1083254" lon="12.5366676"><ele>212.0</ele><time>2026-04-26T10:30:13.637Z</time></trkpt><trkpt lat="43.1084023" lon="12.5366739"><ele>212.00000000000003</ele><time>2026-04-26T10:30:15.505Z</time></trkpt><trkpt lat="43.1084929" lon="12.5366869"><ele>212.0</ele><time>2026-04-26T10:30:17.5Z</time></trkpt><trkpt lat="43.1085895" lon="12.536695"><ele>212.50000000000003</ele><time>2026-04-26T10:30:19.664Z</time></trkpt><trkpt lat="43.1086768" lon="12.5366982"><ele>213.0</ele><time>2026-04-26T10:30:21.58Z</time></trkpt><trkpt lat="43.1087644" lon="12.5367043"><ele>213.5</ele><time>2026-04-26T10:30:23.538Z</time></trkpt><trkpt lat="43.1088567" lon="12.5367059"><ele>214.0</ele><time>2026-04-26T10:30:25.531Z</time></trkpt><trkpt lat="43.1089476" lon="12.5367029"><ele>214.50000000000003</ele><time>2026-04-26T10:30:27.539Z</time></trkpt><trkpt lat="43.1090383" lon="12.5366967"><ele>215.0</ele><time>2026-04-26T10:30:29.533Z</time></trkpt><trkpt lat="43.1091267" lon="12.53669"><ele>215.0</ele><time>2026-04-26T10:30:31.534Z</time></trkpt><trkpt lat="43.1092125" lon="12.5366857"><ele>215.0</ele><time>2026-04-26T10:30:33.52Z</time></trkpt><trkpt lat="43.1093406" lon="12.5366491"><ele>215.0</ele><time>2026-04-26T10:30:36.509Z</time></trkpt><trkpt lat="43.1094333" lon="12.5366286"><ele>215.0</ele><time>2026-04-26T10:30:38.558Z</time></trkpt><trkpt lat="43.1095153" lon="12.5366117"><ele>215.0</ele><time>2026-04-26T10:30:40.514Z</time></trkpt><trkpt lat="43.1096055" lon="12.5365977"><ele>215.00000000000003</ele><time>2026-04-26T10:30:42.523Z</time></trkpt><trkpt lat="43.1096846" lon="12.5365536"><ele>215.0</ele><time>2026-04-26T10:30:44.546Z</time></trkpt><trkpt lat="43.1097653" lon="12.5365262"><ele>215.0</ele><time>2026-04-26T10:30:46.519Z</time></trkpt><trkpt lat="43.1098458" lon="12.5364901"><ele>215.0</ele><time>2026-04-26T10:30:48.527Z</time></trkpt><trkpt lat="43.1099284" lon="12.5364643"><ele>215.00000000000003</ele><time>2026-04-26T10:30:50.533Z</time></trkpt><trkpt lat="43.1100163" lon="12.5364324"><ele>215.0</ele><time>2026-04-26T10:30:52.535Z</time></trkpt><trkpt lat="43.1100981" lon="12.5363999"><ele>215.16666666666669</ele><time>2026-04-26T10:30:54.536Z</time></trkpt><trkpt lat="43.1101724" lon="12.5363567"><ele>215.33333333333334</ele><time>2026-04-26T10:30:56.521Z</time></trkpt><trkpt lat="43.1102611" lon="12.5363253"><ele>215.5</ele><time>2026-04-26T10:30:58.532Z</time></trkpt><trkpt lat="43.1103402" lon="12.5362987"><ele>215.66666666666669</ele><time>2026-04-26T10:31:00.526Z</time></trkpt><trkpt lat="43.1104173" lon="12.5362683"><ele>215.83333333333334</ele><time>2026-04-26T10:31:02.535Z</time></trkpt><trkpt lat="43.1104996" lon="12.5362392"><ele>216.0</ele><time>2026-04-26T10:31:04.526Z</time></trkpt><trkpt lat="43.1105818" lon="12.5362122"><ele>216.0</ele><time>2026-04-26T10:31:06.524Z</time></trkpt><trkpt lat="43.1106596" lon="12.5361759"><ele>216.0</ele><time>2026-04-26T10:31:08.526Z</time></trkpt><trkpt lat="43.1107329" lon="12.5361503"><ele>216.0</ele><time>2026-04-26T10:31:10.527Z</time></trkpt><trkpt lat="43.110813" lon="12.5361192"><ele>216.0</ele><time>2026-04-26T10:31:12.517Z</time></trkpt><trkpt lat="43.1108944" lon="12.5360869"><ele>216.0</ele><time>2026-04-26T10:31:14.515Z</time></trkpt><trkpt lat="43.110975" lon="12.5360562"><ele>216.0</ele><time>2026-04-26T10:31:16.531Z</time></trkpt><trkpt lat="43.1110569" lon="12.5360249"><ele>216.0</ele><time>2026-04-26T10:31:18.563Z</time></trkpt><trkpt lat="43.1111335" lon="12.5359868"><ele>216.0</ele><time>2026-04-26T10:31:20.546Z</time></trkpt><trkpt lat="43.111211" lon="12.5359502"><ele>216.0</ele><time>2026-04-26T10:31:22.551Z</time></trkpt><trkpt lat="43.1112874" lon="12.5359204"><ele>216.0</ele><time>2026-04-26T10:31:24.534Z</time></trkpt><trkpt lat="43.1113643" lon="12.5358835"><ele>216.0</ele><time>2026-04-26T10:31:26.557Z</time></trkpt><trkpt lat="43.1114429" lon="12.5358437"><ele>216.0</ele><time>2026-04-26T10:31:28.557Z</time></trkpt><trkpt lat="43.1115206" lon="12.5358025"><ele>215.83333333333334</ele><time>2026-04-26T10:31:30.592Z</time></trkpt><trkpt lat="43.1115937" lon="12.5357588"><ele>215.66666666666669</ele><time>2026-04-26T10:31:32.527Z</time></trkpt><trkpt lat="43.111669" lon="12.5357106"><ele>215.5</ele><time>2026-04-26T10:31:34.563Z</time></trkpt><trkpt lat="43.1117394" lon="12.5356532"><ele>215.33333333333334</ele><time>2026-04-26T10:31:36.529Z</time></trkpt><trkpt lat="43.1118143" lon="12.5356012"><ele>215.16666666666669</ele><time>2026-04-26T10:31:38.523Z</time></trkpt><trkpt lat="43.1118902" lon="12.5355501"><ele>215.0</ele><time>2026-04-26T10:31:40.544Z</time></trkpt><trkpt lat="43.1119652" lon="12.5354941"><ele>215.00000000000003</ele><time>2026-04-26T10:31:42.572Z</time></trkpt><trkpt lat="43.1120379" lon="12.5354435"><ele>215.0</ele><time>2026-04-26T10:31:44.559Z</time></trkpt><trkpt lat="43.1121117" lon="12.5353919"><ele>215.0</ele><time>2026-04-26T10:31:46.556Z</time></trkpt><trkpt lat="43.1121833" lon="12.5353411"><ele>215.0</ele><time>2026-04-26T10:31:48.531Z</time></trkpt><trkpt lat="43.1122547" lon="12.5352971"><ele>215.00000000000003</ele><time>2026-04-26T10:31:50.572Z</time></trkpt><trkpt lat="43.112318" lon="12.5352548"><ele>215.0</ele><time>2026-04-26T10:31:52.554Z</time></trkpt><trkpt lat="43.1123972" lon="12.5351902"><ele>215.16666666666669</ele><time>2026-04-26T10:31:55.568Z</time></trkpt><trkpt lat="43.1124669" lon="12.5351386"><ele>215.33333333333334</ele><time>2026-04-26T10:31:58.576Z</time></trkpt><trkpt lat="43.1125218" lon="12.5350822"><ele>215.5</ele><time>2026-04-26T10:32:01.552Z</time></trkpt><trkpt lat="43.1125427" lon="12.5349841"><ele>215.66666666666669</ele><time>2026-04-26T10:32:03.867Z</time></trkpt><trkpt lat="43.112567" lon="12.5348565"><ele>215.83333333333334</ele><time>2026-04-26T10:32:06.542Z</time></trkpt><trkpt lat="43.1125502" lon="12.5347565"><ele>216.0</ele><time>2026-04-26T10:32:08.56Z</time></trkpt><trkpt lat="43.11256" lon="12.5346534"><ele>216.0</ele><time>2026-04-26T10:32:10.556Z</time></trkpt><trkpt lat="43.1125625" lon="12.5345411"><ele>216.0</ele><time>2026-04-26T10:32:12.638Z</time></trkpt><trkpt lat="43.112551" lon="12.5344431"><ele>216.0</ele><time>2026-04-26T10:32:14.536Z</time></trkpt><trkpt lat="43.1125467" lon="12.5343402"><ele>216.0</ele><time>2026-04-26T10:32:16.531Z</time></trkpt><trkpt lat="43.1125439" lon="12.5342347"><ele>216.0</ele><time>2026-04-26T10:32:18.503Z</time></trkpt><trkpt lat="43.1125455" lon="12.5341269"><ele>216.0</ele><time>2026-04-26T10:32:20.538Z</time></trkpt><trkpt lat="43.1125425" lon="12.5340214"><ele>216.0</ele><time>2026-04-26T10:32:22.536Z</time></trkpt><trkpt lat="43.1125468" lon="12.533915"><ele>216.0</ele><time>2026-04-26T10:32:24.557Z</time></trkpt><trkpt lat="43.1125485" lon="12.5338104"><ele>216.0</ele><time>2026-04-26T10:32:26.53Z</time></trkpt><trkpt lat="43.1125498" lon="12.533701"><ele>216.0</ele><time>2026-04-26T10:32:28.537Z</time></trkpt><trkpt lat="43.1125582" lon="12.5335963"><ele>216.0</ele><time>2026-04-26T10:32:30.551Z</time></trkpt><trkpt lat="43.1125598" lon="12.5334932"><ele>216.0</ele><time>2026-04-26T10:32:32.55Z</time></trkpt><trkpt lat="43.1125593" lon="12.5333891"><ele>215.66666666666666</ele><time>2026-04-26T10:32:34.581Z</time></trkpt><trkpt lat="43.1125593" lon="12.5332844"><ele>215.33333333333331</ele><time>2026-04-26T10:32:36.556Z</time></trkpt><trkpt lat="43.1125575" lon="12.5331765"><ele>215.0</ele><time>2026-04-26T10:32:38.572Z</time></trkpt><trkpt lat="43.1125569" lon="12.5330683"><ele>214.66666666666666</ele><time>2026-04-26T10:32:40.551Z</time></trkpt><trkpt lat="43.1125585" lon="12.5329583"><ele>214.33333333333331</ele><time>2026-04-26T10:32:42.553Z</time></trkpt><trkpt lat="43.1125594" lon="12.5328482"><ele>214.0</ele><time>2026-04-26T10:32:44.558Z</time></trkpt><trkpt lat="43.1125607" lon="12.5327405"><ele>213.83333333333331</ele><time>2026-04-26T10:32:46.555Z</time></trkpt><trkpt lat="43.1125572" lon="12.5326334"><ele>213.66666666666666</ele><time>2026-04-26T10:32:48.546Z</time></trkpt><trkpt lat="43.1125593" lon="12.5325274"><ele>213.5</ele><time>2026-04-26T10:32:50.54Z</time></trkpt><trkpt lat="43.1125586" lon="12.5324177"><ele>213.33333333333331</ele><time>2026-04-26T10:32:52.538Z</time></trkpt><trkpt lat="43.112555" lon="12.5323133"><ele>213.16666666666666</ele><time>2026-04-26T10:32:54.553Z</time></trkpt><trkpt lat="43.1125536" lon="12.5322049"><ele>213.0</ele><time>2026-04-26T10:32:56.546Z</time></trkpt><trkpt lat="43.1125669" lon="12.5320885"><ele>213.14285714285714</ele><time>2026-04-26T10:32:58.654Z</time></trkpt><trkpt lat="43.1125709" lon="12.5319894"><ele>213.28571428571428</ele><time>2026-04-26T10:33:01.535Z</time></trkpt><trkpt lat="43.1125751" lon="12.5318992"><ele>213.42857142857144</ele><time>2026-04-26T10:33:03.526Z</time></trkpt><trkpt lat="43.112577" lon="12.5318048"><ele>213.57142857142856</ele><time>2026-04-26T10:33:05.536Z</time></trkpt><trkpt lat="43.1125789" lon="12.531702"><ele>213.71428571428572</ele><time>2026-04-26T10:33:07.497Z</time></trkpt><trkpt lat="43.112581" lon="12.5315876"><ele>213.85714285714286</ele><time>2026-04-26T10:33:09.519Z</time></trkpt><trkpt lat="43.1125834" lon="12.5314793"><ele>214.0</ele><time>2026-04-26T10:33:11.543Z</time></trkpt><trkpt lat="43.1125878" lon="12.531361"><ele>213.99999999999997</ele><time>2026-04-26T10:33:13.652Z</time></trkpt><trkpt lat="43.1125884" lon="12.5312601"><ele>214.0</ele><time>2026-04-26T10:33:15.524Z</time></trkpt><trkpt lat="43.1125885" lon="12.5311485"><ele>214.0</ele><time>2026-04-26T10:33:17.529Z</time></trkpt><trkpt lat="43.1125929" lon="12.5310336"><ele>214.0</ele><time>2026-04-26T10:33:19.576Z</time></trkpt><trkpt lat="43.1125944" lon="12.5309194"><ele>213.99999999999997</ele><time>2026-04-26T10:33:21.55Z</time></trkpt><trkpt lat="43.112599" lon="12.5308004"><ele>214.0</ele><time>2026-04-26T10:33:23.549Z</time></trkpt><trkpt lat="43.1125986" lon="12.5306787"><ele>214.0</ele><time>2026-04-26T10:33:25.561Z</time></trkpt><trkpt lat="43.1126028" lon="12.5305639"><ele>213.99999999999997</ele><time>2026-04-26T10:33:27.558Z</time></trkpt><trkpt lat="43.112604" lon="12.5304428"><ele>213.99999999999997</ele><time>2026-04-26T10:33:29.554Z</time></trkpt><trkpt lat="43.1126036" lon="12.5303244"><ele>214.0</ele><time>2026-04-26T10:33:31.555Z</time></trkpt><trkpt lat="43.1126028" lon="12.5301435"><ele>214.0</ele><time>2026-04-26T10:33:34.562Z</time></trkpt><trkpt lat="43.1126034" lon="12.5300238"><ele>214.0</ele><time>2026-04-26T10:33:36.553Z</time></trkpt><trkpt lat="43.1126032" lon="12.5299022"><ele>213.99999999999997</ele><time>2026-04-26T10:33:38.548Z</time></trkpt><trkpt lat="43.1126022" lon="12.5297787"><ele>213.99999999999997</ele><time>2026-04-26T10:33:40.51Z</time></trkpt><trkpt lat="43.1126075" lon="12.5296524"><ele>214.0</ele><time>2026-04-26T10:33:42.506Z</time></trkpt><trkpt lat="43.1126081" lon="12.5295201"><ele>214.0</ele><time>2026-04-26T10:33:44.562Z</time></trkpt><trkpt lat="43.1126116" lon="12.5293916"><ele>214.0</ele><time>2026-04-26T10:33:46.538Z</time></trkpt><trkpt lat="43.1126172" lon="12.5292554"><ele>213.99999999999997</ele><time>2026-04-26T10:33:48.634Z</time></trkpt><trkpt lat="43.1126181" lon="12.5291307"><ele>213.99999999999997</ele><time>2026-04-26T10:33:50.52Z</time></trkpt><trkpt lat="43.1126182" lon="12.5289941"><ele>214.0</ele><time>2026-04-26T10:33:52.609Z</time></trkpt><trkpt lat="43.1126178" lon="12.5288714"><ele>214.0</ele><time>2026-04-26T10:33:54.553Z</time></trkpt><trkpt lat="43.1126234" lon="12.5287528"><ele>213.66666666666666</ele><time>2026-04-26T10:33:56.545Z</time></trkpt><trkpt lat="43.1126205" lon="12.5286328"><ele>213.33333333333331</ele><time>2026-04-26T10:33:58.559Z</time></trkpt><trkpt lat="43.1126231" lon="12.5285185"><ele>213.0</ele><time>2026-04-26T10:34:00.553Z</time></trkpt><trkpt lat="43.1126264" lon="12.5284032"><ele>212.66666666666669</ele><time>2026-04-26T10:34:02.524Z</time></trkpt><trkpt lat="43.1126258" lon="12.5282846"><ele>212.33333333333334</ele><time>2026-04-26T10:34:04.57Z</time></trkpt><trkpt lat="43.1126239" lon="12.5281636"><ele>212.0</ele><time>2026-04-26T10:34:06.546Z</time></trkpt><trkpt lat="43.1126282" lon="12.5280319"><ele>212.00000000000003</ele><time>2026-04-26T10:34:08.693Z</time></trkpt><trkpt lat="43.1126318" lon="12.5279222"><ele>212.0</ele><time>2026-04-26T10:34:10.513Z</time></trkpt><trkpt lat="43.1126358" lon="12.5277995"><ele>212.0</ele><time>2026-04-26T10:34:12.543Z</time></trkpt><trkpt lat="43.1126383" lon="12.5276797"><ele>212.0</ele><time>2026-04-26T10:34:14.542Z</time></trkpt><trkpt lat="43.1126373" lon="12.5275506"><ele>212.00000000000003</ele><time>2026-04-26T10:34:16.649Z</time></trkpt><trkpt lat="43.1126384" lon="12.5274386"><ele>212.0</ele><time>2026-04-26T10:34:18.527Z</time></trkpt><trkpt lat="43.1126396" lon="12.5273122"><ele>212.16666666666669</ele><time>2026-04-26T10:34:20.633Z</time></trkpt><trkpt lat="43.1126428" lon="12.5271922"><ele>212.33333333333334</ele><time>2026-04-26T10:34:22.641Z</time></trkpt><trkpt lat="43.1126423" lon="12.5270765"><ele>212.5</ele><time>2026-04-26T10:34:24.553Z</time></trkpt><trkpt lat="43.112641" lon="12.526957"><ele>212.66666666666669</ele><time>2026-04-26T10:34:26.544Z</time></trkpt><trkpt lat="43.1126418" lon="12.5268364"><ele>212.83333333333334</ele><time>2026-04-26T10:34:28.545Z</time></trkpt><trkpt lat="43.1126399" lon="12.5267257"><ele>213.0</ele><time>2026-04-26T10:34:30.509Z</time></trkpt><trkpt lat="43.1126443" lon="12.5266179"><ele>213.16666666666666</ele><time>2026-04-26T10:34:32.53Z</time></trkpt><trkpt lat="43.1126455" lon="12.5265193"><ele>213.33333333333331</ele><time>2026-04-26T10:34:34.54Z</time></trkpt><trkpt lat="43.1126488" lon="12.5264177"><ele>213.5</ele><time>2026-04-26T10:34:36.549Z</time></trkpt><trkpt lat="43.1126506" lon="12.526312"><ele>213.66666666666666</ele><time>2026-04-26T10:34:38.532Z</time></trkpt><trkpt lat="43.1126594" lon="12.5262032"><ele>213.83333333333331</ele><time>2026-04-26T10:34:40.554Z</time></trkpt><trkpt lat="43.1126707" lon="12.5260949"><ele>214.0</ele><time>2026-04-26T10:34:42.557Z</time></trkpt><trkpt lat="43.1126932" lon="12.5259713"><ele>213.66666666666666</ele><time>2026-04-26T10:34:44.857Z</time></trkpt><trkpt lat="43.1127405" lon="12.5258829"><ele>213.33333333333331</ele><time>2026-04-26T10:34:46.931Z</time></trkpt><trkpt lat="43.1127876" lon="12.5258181"><ele>213.0</ele><time>2026-04-26T10:34:48.554Z</time></trkpt><trkpt lat="43.1128514" lon="12.5257499"><ele>212.66666666666669</ele><time>2026-04-26T10:34:50.576Z</time></trkpt><trkpt lat="43.1129018" lon="12.5256655"><ele>212.33333333333334</ele><time>2026-04-26T10:34:52.566Z</time></trkpt><trkpt lat="43.112935" lon="12.5255655"><ele>212.0</ele><time>2026-04-26T10:34:54.556Z</time></trkpt><trkpt lat="43.1129471" lon="12.5254564"><ele>212.33333333333334</ele><time>2026-04-26T10:34:56.551Z</time></trkpt><trkpt lat="43.1129417" lon="12.5253415"><ele>212.66666666666669</ele><time>2026-04-26T10:34:58.651Z</time></trkpt><trkpt lat="43.1129184" lon="12.5252388"><ele>213.0</ele><time>2026-04-26T10:35:00.55Z</time></trkpt><trkpt lat="43.1128791" lon="12.52514"><ele>213.33333333333331</ele><time>2026-04-26T10:35:02.581Z</time></trkpt><trkpt lat="43.1128214" lon="12.5250618"><ele>213.66666666666666</ele><time>2026-04-26T10:35:04.539Z</time></trkpt><trkpt lat="43.1127533" lon="12.5249892"><ele>214.0</ele><time>2026-04-26T10:35:06.558Z</time></trkpt><trkpt lat="43.1127035" lon="12.5248971"><ele>213.99999999999997</ele><time>2026-04-26T10:35:08.548Z</time></trkpt><trkpt lat="43.1126847" lon="12.5247752"><ele>214.0</ele><time>2026-04-26T10:35:10.515Z</time></trkpt><trkpt lat="43.1126768" lon="12.5246537"><ele>214.0</ele><time>2026-04-26T10:35:12.528Z</time></trkpt><trkpt lat="43.1126707" lon="12.5245348"><ele>214.0</ele><time>2026-04-26T10:35:14.539Z</time></trkpt><trkpt lat="43.1126714" lon="12.5244149"><ele>213.99999999999997</ele><time>2026-04-26T10:35:16.538Z</time></trkpt><trkpt lat="43.112674" lon="12.5242962"><ele>214.0</ele><time>2026-04-26T10:35:18.578Z</time></trkpt><trkpt lat="43.1126703" lon="12.5241737"><ele>213.83333333333331</ele><time>2026-04-26T10:35:20.588Z</time></trkpt><trkpt lat="43.11267" lon="12.5240534"><ele>213.66666666666666</ele><time>2026-04-26T10:35:22.561Z</time></trkpt><trkpt lat="43.1126724" lon="12.5239341"><ele>213.5</ele><time>2026-04-26T10:35:24.534Z</time></trkpt><trkpt lat="43.1126729" lon="12.5238134"><ele>213.33333333333331</ele><time>2026-04-26T10:35:26.546Z</time></trkpt><trkpt lat="43.1126743" lon="12.5236923"><ele>213.16666666666666</ele><time>2026-04-26T10:35:28.564Z</time></trkpt><trkpt lat="43.1126729" lon="12.5235716"><ele>213.0</ele><time>2026-04-26T10:35:30.549Z</time></trkpt><trkpt lat="43.1126748" lon="12.5234475"><ele>213.0</ele><time>2026-04-26T10:35:32.565Z</time></trkpt><trkpt lat="43.1126783" lon="12.5233245"><ele>213.0</ele><time>2026-04-26T10:35:34.549Z</time></trkpt><trkpt lat="43.112682" lon="12.5232035"><ele>213.0</ele><time>2026-04-26T10:35:36.531Z</time></trkpt><trkpt lat="43.1126882" lon="12.5230808"><ele>213.0</ele><time>2026-04-26T10:35:38.555Z</time></trkpt><trkpt lat="43.112692" lon="12.522958"><ele>213.0</ele><time>2026-04-26T10:35:40.542Z</time></trkpt><trkpt lat="43.1127021" lon="12.5228368"><ele>213.0</ele><time>2026-04-26T10:35:42.55Z</time></trkpt><trkpt lat="43.1127124" lon="12.522715"><ele>212.8</ele><time>2026-04-26T10:35:44.529Z</time></trkpt><trkpt lat="43.1127222" lon="12.5225922"><ele>212.60000000000002</ele><time>2026-04-26T10:35:46.507Z</time></trkpt><trkpt lat="43.1127348" lon="12.5224662"><ele>212.39999999999998</ele><time>2026-04-26T10:35:48.547Z</time></trkpt><trkpt lat="43.1127503" lon="12.5223435"><ele>212.2</ele><time>2026-04-26T10:35:50.517Z</time></trkpt><trkpt lat="43.1127659" lon="12.5222121"><ele>212.0</ele><time>2026-04-26T10:35:52.651Z</time></trkpt><trkpt lat="43.1127775" lon="12.5220942"><ele>212.2</ele><time>2026-04-26T10:35:54.526Z</time></trkpt><trkpt lat="43.1127996" lon="12.5219654"><ele>212.39999999999998</ele><time>2026-04-26T10:35:56.574Z</time></trkpt><trkpt lat="43.1128155" lon="12.52184"><ele>212.60000000000002</ele><time>2026-04-26T10:35:58.541Z</time></trkpt><trkpt lat="43.1128365" lon="12.5217111"><ele>212.8</ele><time>2026-04-26T10:36:00.567Z</time></trkpt><trkpt lat="43.1128598" lon="12.5215869"><ele>213.0</ele><time>2026-04-26T10:36:02.532Z</time></trkpt><trkpt lat="43.1128792" lon="12.521462"><ele>213.0</ele><time>2026-04-26T10:36:04.54Z</time></trkpt><trkpt lat="43.1128982" lon="12.521339"><ele>213.0</ele><time>2026-04-26T10:36:06.545Z</time></trkpt><trkpt lat="43.1129201" lon="12.5212146"><ele>213.0</ele><time>2026-04-26T10:36:08.539Z</time></trkpt><trkpt lat="43.1129451" lon="12.5210906"><ele>213.0</ele><time>2026-04-26T10:36:10.544Z</time></trkpt><trkpt lat="43.1129661" lon="12.5209663"><ele>213.0</ele><time>2026-04-26T10:36:12.539Z</time></trkpt><trkpt lat="43.1129895" lon="12.5208431"><ele>212.8</ele><time>2026-04-26T10:36:14.548Z</time></trkpt><trkpt lat="43.1130111" lon="12.5207202"><ele>212.60000000000002</ele><time>2026-04-26T10:36:16.569Z</time></trkpt><trkpt lat="43.1130321" lon="12.5205973"><ele>212.39999999999998</ele><time>2026-04-26T10:36:18.547Z</time></trkpt><trkpt lat="43.1130527" lon="12.5204761"><ele>212.2</ele><time>2026-04-26T10:36:20.534Z</time></trkpt><trkpt lat="43.113071" lon="12.5203549"><ele>212.0</ele><time>2026-04-26T10:36:22.521Z</time></trkpt><trkpt lat="43.1130901" lon="12.5202388"><ele>211.50000000000003</ele><time>2026-04-26T10:36:24.546Z</time></trkpt><trkpt lat="43.1131066" lon="12.5201317"><ele>211.0</ele><time>2026-04-26T10:36:26.546Z</time></trkpt><trkpt lat="43.1131277" lon="12.5200377"><ele>210.5</ele><time>2026-04-26T10:36:28.561Z</time></trkpt><trkpt lat="43.1131468" lon="12.5199507"><ele>210.0</ele><time>2026-04-26T10:36:30.534Z</time></trkpt><trkpt lat="43.1131641" lon="12.5198343"><ele>209.50000000000003</ele><time>2026-04-26T10:36:33.535Z</time></trkpt><trkpt lat="43.1131755" lon="12.5197332"><ele>209.0</ele><time>2026-04-26T10:36:36.562Z</time></trkpt><trkpt lat="43.1131156" lon="12.5196618"><ele>209.00000000000003</ele><time>2026-04-26T10:36:39.566Z</time></trkpt><trkpt lat="43.1130566" lon="12.5196142"><ele>209.0</ele><time>2026-04-26T10:36:41.54Z</time></trkpt><trkpt lat="43.1130439" lon="12.5195036"><ele>209.0</ele><time>2026-04-26T10:36:43.559Z</time></trkpt><trkpt lat="43.1130551" lon="12.5193885"><ele>209.0</ele><time>2026-04-26T10:36:45.547Z</time></trkpt><trkpt lat="43.1130673" lon="12.5192699"><ele>209.00000000000003</ele><time>2026-04-26T10:36:47.551Z</time></trkpt><trkpt lat="43.1130789" lon="12.5191468"><ele>209.0</ele><time>2026-04-26T10:36:49.557Z</time></trkpt><trkpt lat="43.1130998" lon="12.5190298"><ele>209.39999999999998</ele><time>2026-04-26T10:36:51.541Z</time></trkpt><trkpt lat="43.1131175" lon="12.5189069"><ele>209.8</ele><time>2026-04-26T10:36:53.537Z</time></trkpt><trkpt lat="43.113139" lon="12.5187216"><ele>210.2</ele><time>2026-04-26T10:36:56.557Z</time></trkpt><trkpt lat="43.1131482" lon="12.5185969"><ele>210.60000000000002</ele><time>2026-04-26T10:36:58.54Z</time></trkpt><trkpt lat="43.1131478" lon="12.5184715"><ele>211.0</ele><time>2026-04-26T10:37:00.546Z</time></trkpt><trkpt lat="43.1131422" lon="12.51835"><ele>211.16666666666666</ele><time>2026-04-26T10:37:02.562Z</time></trkpt><trkpt lat="43.1131238" lon="12.5182336"><ele>211.33333333333331</ele><time>2026-04-26T10:37:04.567Z</time></trkpt><trkpt lat="43.1131137" lon="12.5181194"><ele>211.5</ele><time>2026-04-26T10:37:06.544Z</time></trkpt><trkpt lat="43.113118" lon="12.5180007"><ele>211.66666666666669</ele><time>2026-04-26T10:37:08.562Z</time></trkpt><trkpt lat="43.1131319" lon="12.5178889"><ele>211.83333333333334</ele><time>2026-04-26T10:37:10.531Z</time></trkpt><trkpt lat="43.1131474" lon="12.5177725"><ele>212.0</ele><time>2026-04-26T10:37:12.562Z</time></trkpt><trkpt lat="43.1131563" lon="12.5176518"><ele>212.00000000000003</ele><time>2026-04-26T10:37:14.542Z</time></trkpt><trkpt lat="43.1131721" lon="12.5175359"><ele>212.0</ele><time>2026-04-26T10:37:16.546Z</time></trkpt><trkpt lat="43.1131845" lon="12.5174178"><ele>212.0</ele><time>2026-04-26T10:37:18.522Z</time></trkpt><trkpt lat="43.1131989" lon="12.5172996"><ele>212.0</ele><time>2026-04-26T10:37:20.573Z</time></trkpt><trkpt lat="43.1132189" lon="12.5171888"><ele>212.00000000000003</ele><time>2026-04-26T10:37:22.561Z</time></trkpt><trkpt lat="43.1132366" lon="12.517068"><ele>212.0</ele><time>2026-04-26T10:37:24.554Z</time></trkpt><trkpt lat="43.1132416" lon="12.516948"><ele>212.16666666666669</ele><time>2026-04-26T10:37:26.54Z</time></trkpt><trkpt lat="43.113258" lon="12.5168297"><ele>212.33333333333334</ele><time>2026-04-26T10:37:28.551Z</time></trkpt><trkpt lat="43.1132703" lon="12.5167133"><ele>212.5</ele><time>2026-04-26T10:37:30.545Z</time></trkpt><trkpt lat="43.1132808" lon="12.5165919"><ele>212.66666666666669</ele><time>2026-04-26T10:37:32.648Z</time></trkpt><trkpt lat="43.1132887" lon="12.51648"><ele>212.83333333333334</ele><time>2026-04-26T10:37:34.528Z</time></trkpt><trkpt lat="43.1133012" lon="12.5163656"><ele>213.0</ele><time>2026-04-26T10:37:36.544Z</time></trkpt><trkpt lat="43.1133172" lon="12.5162556"><ele>213.0</ele><time>2026-04-26T10:37:38.56Z</time></trkpt><trkpt lat="43.113334" lon="12.5161433"><ele>213.0</ele><time>2026-04-26T10:37:40.547Z</time></trkpt><trkpt lat="43.1133596" lon="12.5160293"><ele>213.0</ele><time>2026-04-26T10:37:42.571Z</time></trkpt><trkpt lat="43.1133958" lon="12.5159163"><ele>213.0</ele><time>2026-04-26T10:37:44.585Z</time></trkpt><trkpt lat="43.1134405" lon="12.5157938"><ele>213.0</ele><time>2026-04-26T10:37:46.864Z</time></trkpt><trkpt lat="43.1134756" lon="12.5157067"><ele>213.0</ele><time>2026-04-26T10:37:48.561Z</time></trkpt><trkpt lat="43.1135188" lon="12.515611"><ele>213.0</ele><time>2026-04-26T10:37:50.547Z</time></trkpt><trkpt lat="43.1135581" lon="12.5155134"><ele>213.0</ele><time>2026-04-26T10:37:52.559Z</time></trkpt><trkpt lat="43.1136052" lon="12.5154151"><ele>213.0</ele><time>2026-04-26T10:37:54.647Z</time></trkpt><trkpt lat="43.1136465" lon="12.5153161"><ele>213.0</ele><time>2026-04-26T10:37:56.553Z</time></trkpt><trkpt lat="43.1136856" lon="12.5152115"><ele>213.0</ele><time>2026-04-26T10:37:58.564Z</time></trkpt><trkpt lat="43.1137229" lon="12.5151105"><ele>213.0</ele><time>2026-04-26T10:38:00.519Z</time></trkpt><trkpt lat="43.1137582" lon="12.515004"><ele>213.16666666666666</ele><time>2026-04-26T10:38:02.552Z</time></trkpt><trkpt lat="43.1137942" lon="12.5149053"><ele>213.33333333333331</ele><time>2026-04-26T10:38:04.55Z</time></trkpt><trkpt lat="43.1138244" lon="12.514803"><ele>213.5</ele><time>2026-04-26T10:38:06.554Z</time></trkpt><trkpt lat="43.1138498" lon="12.5147119"><ele>213.66666666666666</ele><time>2026-04-26T10:38:08.554Z</time></trkpt><trkpt lat="43.1138702" lon="12.5146297"><ele>213.83333333333331</ele><time>2026-04-26T10:38:10.561Z</time></trkpt><trkpt lat="43.1138905" lon="12.5145138"><ele>214.0</ele><time>2026-04-26T10:38:13.516Z</time></trkpt><trkpt lat="43.1139207" lon="12.5144104"><ele>214.00000000000003</ele><time>2026-04-26T10:38:16.555Z</time></trkpt><trkpt lat="43.1139492" lon="12.5142993"><ele>214.0</ele><time>2026-04-26T10:38:19.543Z</time></trkpt><trkpt lat="43.1139655" lon="12.5142114"><ele>214.0</ele><time>2026-04-26T10:38:21.549Z</time></trkpt><trkpt lat="43.1139933" lon="12.5141179"><ele>214.0</ele><time>2026-04-26T10:38:23.668Z</time></trkpt><trkpt lat="43.114014" lon="12.5140303"><ele>214.0</ele><time>2026-04-26T10:38:25.561Z</time></trkpt><trkpt lat="43.1140328" lon="12.5139342"><ele>214.00000000000003</ele><time>2026-04-26T10:38:27.551Z</time></trkpt><trkpt lat="43.1140495" lon="12.5138366"><ele>214.0</ele><time>2026-04-26T10:38:29.551Z</time></trkpt><trkpt lat="43.1140715" lon="12.5137366"><ele>214.6</ele><time>2026-04-26T10:38:31.548Z</time></trkpt><trkpt lat="43.1140842" lon="12.5136278"><ele>215.2</ele><time>2026-04-26T10:38:33.512Z</time></trkpt><trkpt lat="43.1141036" lon="12.5135033"><ele>215.79999999999998</ele><time>2026-04-26T10:38:35.751Z</time></trkpt><trkpt lat="43.1141197" lon="12.5134029"><ele>216.39999999999998</ele><time>2026-04-26T10:38:37.549Z</time></trkpt><trkpt lat="43.1141319" lon="12.513291"><ele>217.0</ele><time>2026-04-26T10:38:39.54Z</time></trkpt><trkpt lat="43.1141561" lon="12.5131216"><ele>216.99999999999997</ele><time>2026-04-26T10:38:42.532Z</time></trkpt><trkpt lat="43.1141727" lon="12.5130082"><ele>217.0</ele><time>2026-04-26T10:38:44.548Z</time></trkpt><trkpt lat="43.1141941" lon="12.5128927"><ele>217.0</ele><time>2026-04-26T10:38:46.649Z</time></trkpt><trkpt lat="43.114219" lon="12.5127897"><ele>217.0</ele><time>2026-04-26T10:38:48.537Z</time></trkpt><trkpt lat="43.1142414" lon="12.5126811"><ele>216.99999999999997</ele><time>2026-04-26T10:38:50.559Z</time></trkpt><trkpt lat="43.1142637" lon="12.5125749"><ele>217.0</ele><time>2026-04-26T10:38:52.554Z</time></trkpt><trkpt lat="43.1142899" lon="12.5124656"><ele>216.83333333333331</ele><time>2026-04-26T10:38:54.559Z</time></trkpt><trkpt lat="43.1143166" lon="12.512355"><ele>216.66666666666666</ele><time>2026-04-26T10:38:56.574Z</time></trkpt><trkpt lat="43.1143386" lon="12.5122439"><ele>216.5</ele><time>2026-04-26T10:38:58.546Z</time></trkpt><trkpt lat="43.114364" lon="12.5121307"><ele>216.33333333333331</ele><time>2026-04-26T10:39:00.543Z</time></trkpt><trkpt lat="43.1143808" lon="12.5120131"><ele>216.16666666666666</ele><time>2026-04-26T10:39:02.558Z</time></trkpt><trkpt lat="43.1143988" lon="12.5118918"><ele>216.0</ele><time>2026-04-26T10:39:04.545Z</time></trkpt><trkpt lat="43.1144182" lon="12.5117704"><ele>215.66666666666666</ele><time>2026-04-26T10:39:06.539Z</time></trkpt><trkpt lat="43.1144397" lon="12.511652"><ele>215.33333333333331</ele><time>2026-04-26T10:39:08.563Z</time></trkpt><trkpt lat="43.1144683" lon="12.5115385"><ele>215.0</ele><time>2026-04-26T10:39:10.605Z</time></trkpt><trkpt lat="43.114501" lon="12.5114314"><ele>214.66666666666666</ele><time>2026-04-26T10:39:12.563Z</time></trkpt><trkpt lat="43.1145276" lon="12.5113202"><ele>214.33333333333331</ele><time>2026-04-26T10:39:14.562Z</time></trkpt><trkpt lat="43.1145494" lon="12.5112168"><ele>214.0</ele><time>2026-04-26T10:39:16.569Z</time></trkpt><trkpt lat="43.1145837" lon="12.5110991"><ele>213.66666666666666</ele><time>2026-04-26T10:39:19.186Z</time></trkpt><trkpt lat="43.1146098" lon="12.5110003"><ele>213.33333333333331</ele><time>2026-04-26T10:39:21.186Z</time></trkpt><trkpt lat="43.1146712" lon="12.5108402"><ele>213.0</ele><time>2026-04-26T10:39:24.568Z</time></trkpt><trkpt lat="43.1147032" lon="12.510736"><ele>212.66666666666669</ele><time>2026-04-26T10:39:26.664Z</time></trkpt><trkpt lat="43.1147352" lon="12.5106501"><ele>212.33333333333334</ele><time>2026-04-26T10:39:28.554Z</time></trkpt><trkpt lat="43.1147709" lon="12.5105611"><ele>212.0</ele><time>2026-04-26T10:39:30.532Z</time></trkpt><trkpt lat="43.1148024" lon="12.5104654"><ele>212.33333333333334</ele><time>2026-04-26T10:39:32.565Z</time></trkpt><trkpt lat="43.1148325" lon="12.5103683"><ele>212.66666666666669</ele><time>2026-04-26T10:39:34.547Z</time></trkpt><trkpt lat="43.1148693" lon="12.5102646"><ele>213.0</ele><time>2026-04-26T10:39:36.555Z</time></trkpt><trkpt lat="43.1149008" lon="12.5101575"><ele>213.33333333333331</ele><time>2026-04-26T10:39:38.571Z</time></trkpt><trkpt lat="43.1149376" lon="12.5100619"><ele>213.66666666666666</ele><time>2026-04-26T10:39:40.562Z</time></trkpt><trkpt lat="43.1149687" lon="12.5099661"><ele>214.0</ele><time>2026-04-26T10:39:42.543Z</time></trkpt><trkpt lat="43.1150042" lon="12.509874"><ele>214.33333333333331</ele><time>2026-04-26T10:39:44.575Z</time></trkpt><trkpt lat="43.1150318" lon="12.5097822"><ele>214.66666666666666</ele><time>2026-04-26T10:39:46.548Z</time></trkpt><trkpt lat="43.1150651" lon="12.509693"><ele>215.0</ele><time>2026-04-26T10:39:48.662Z</time></trkpt><trkpt lat="43.1151145" lon="12.5096022"><ele>215.33333333333331</ele><time>2026-04-26T10:39:51.587Z</time></trkpt><trkpt lat="43.1151384" lon="12.5094927"><ele>215.66666666666666</ele><time>2026-04-26T10:39:54.555Z</time></trkpt><trkpt lat="43.1151705" lon="12.5093629"><ele>216.0</ele><time>2026-04-26T10:39:57.561Z</time></trkpt><trkpt lat="43.1151614" lon="12.5092636"><ele>216.0</ele><time>2026-04-26T10:39:59.508Z</time></trkpt><trkpt lat="43.1151451" lon="12.5091721"><ele>216.0</ele><time>2026-04-26T10:40:01.555Z</time></trkpt><trkpt lat="43.115108" lon="12.5090846"><ele>216.0</ele><time>2026-04-26T10:40:03.543Z</time></trkpt><trkpt lat="43.1150685" lon="12.5090049"><ele>216.0</ele><time>2026-04-26T10:40:05.556Z</time></trkpt><trkpt lat="43.1150117" lon="12.508933"><ele>216.0</ele><time>2026-04-26T10:40:07.537Z</time></trkpt><trkpt lat="43.1149471" lon="12.5088783"><ele>216.0</ele><time>2026-04-26T10:40:09.544Z</time></trkpt><trkpt lat="43.1148867" lon="12.5088176"><ele>216.0</ele><time>2026-04-26T10:40:11.578Z</time></trkpt><trkpt lat="43.1148376" lon="12.5087511"><ele>216.33333333333334</ele><time>2026-04-26T10:40:13.547Z</time></trkpt><trkpt lat="43.1147492" lon="12.5086483"><ele>216.66666666666669</ele><time>2026-04-26T10:40:16.541Z</time></trkpt><trkpt lat="43.1146924" lon="12.508581"><ele>217.0</ele><time>2026-04-26T10:40:18.552Z</time></trkpt><trkpt lat="43.1146367" lon="12.5085088"><ele>217.33333333333334</ele><time>2026-04-26T10:40:20.555Z</time></trkpt><trkpt lat="43.114573" lon="12.5084383"><ele>217.66666666666669</ele><time>2026-04-26T10:40:22.567Z</time></trkpt><trkpt lat="43.114504" lon="12.5083739"><ele>218.0</ele><time>2026-04-26T10:40:24.557Z</time></trkpt><trkpt lat="43.1144348" lon="12.508304"><ele>218.00000000000003</ele><time>2026-04-26T10:40:26.589Z</time></trkpt><trkpt lat="43.11437" lon="12.5082346"><ele>218.0</ele><time>2026-04-26T10:40:28.56Z</time></trkpt><trkpt lat="43.1143005" lon="12.5081659"><ele>218.0</ele><time>2026-04-26T10:40:30.555Z</time></trkpt><trkpt lat="43.114223" lon="12.508104"><ele>218.0</ele><time>2026-04-26T10:40:32.666Z</time></trkpt><trkpt lat="43.1141594" lon="12.5080396"><ele>218.00000000000003</ele><time>2026-04-26T10:40:34.543Z</time></trkpt><trkpt lat="43.1140873" lon="12.507968"><ele>218.0</ele><time>2026-04-26T10:40:36.535Z</time></trkpt><trkpt lat="43.1140111" lon="12.5079067"><ele>217.66666666666669</ele><time>2026-04-26T10:40:38.565Z</time></trkpt><trkpt lat="43.1139474" lon="12.5078505"><ele>217.33333333333334</ele><time>2026-04-26T10:40:40.553Z</time></trkpt><trkpt lat="43.1138818" lon="12.5078141"><ele>217.0</ele><time>2026-04-26T10:40:42.529Z</time></trkpt><trkpt lat="43.1138152" lon="12.5077541"><ele>216.66666666666669</ele><time>2026-04-26T10:40:44.547Z</time></trkpt><trkpt lat="43.1137433" lon="12.5076891"><ele>216.33333333333334</ele><time>2026-04-26T10:40:46.552Z</time></trkpt><trkpt lat="43.1136786" lon="12.5076241"><ele>216.0</ele><time>2026-04-26T10:40:48.589Z</time></trkpt><trkpt lat="43.1136058" lon="12.5075803"><ele>216.0</ele><time>2026-04-26T10:40:50.528Z</time></trkpt><trkpt lat="43.1135299" lon="12.5075182"><ele>216.0</ele><time>2026-04-26T10:40:52.581Z</time></trkpt><trkpt lat="43.1134572" lon="12.5074521"><ele>216.0</ele><time>2026-04-26T10:40:54.568Z</time></trkpt><trkpt lat="43.1133839" lon="12.5073969"><ele>216.0</ele><time>2026-04-26T10:40:56.556Z</time></trkpt><trkpt lat="43.1133038" lon="12.5073415"><ele>216.0</ele><time>2026-04-26T10:40:58.647Z</time></trkpt><trkpt lat="43.1132303" lon="12.5072874"><ele>216.0</ele><time>2026-04-26T10:41:00.55Z</time></trkpt><trkpt lat="43.113152" lon="12.5072309"><ele>215.60000000000002</ele><time>2026-04-26T10:41:02.58Z</time></trkpt><trkpt lat="43.1130743" lon="12.5071682"><ele>215.20000000000002</ele><time>2026-04-26T10:41:04.543Z</time></trkpt><trkpt lat="43.1129904" lon="12.5071036"><ele>214.79999999999998</ele><time>2026-04-26T10:41:06.62Z</time></trkpt><trkpt lat="43.1129136" lon="12.5070425"><ele>214.39999999999998</ele><time>2026-04-26T10:41:08.558Z</time></trkpt><trkpt lat="43.1128338" lon="12.506982"><ele>214.0</ele><time>2026-04-26T10:41:10.537Z</time></trkpt><trkpt lat="43.1127515" lon="12.5069153"><ele>214.0</ele><time>2026-04-26T10:41:12.55Z</time></trkpt><trkpt lat="43.1126618" lon="12.5068577"><ele>213.99999999999997</ele><time>2026-04-26T10:41:14.551Z</time></trkpt><trkpt lat="43.1125818" lon="12.5067896"><ele>213.99999999999997</ele><time>2026-04-26T10:41:16.544Z</time></trkpt><trkpt lat="43.1125011" lon="12.5067244"><ele>214.0</ele><time>2026-04-26T10:41:18.557Z</time></trkpt><trkpt lat="43.112428" lon="12.5066545"><ele>214.0</ele><time>2026-04-26T10:41:20.661Z</time></trkpt><trkpt lat="43.1123581" lon="12.5065925"><ele>213.83333333333331</ele><time>2026-04-26T10:41:22.56Z</time></trkpt><trkpt lat="43.1122873" lon="12.5065221"><ele>213.66666666666666</ele><time>2026-04-26T10:41:24.518Z</time></trkpt><trkpt lat="43.1122173" lon="12.506466"><ele>213.5</ele><time>2026-04-26T10:41:26.53Z</time></trkpt><trkpt lat="43.1121496" lon="12.5063991"><ele>213.33333333333331</ele><time>2026-04-26T10:41:28.589Z</time></trkpt><trkpt lat="43.1120848" lon="12.5063298"><ele>213.16666666666666</ele><time>2026-04-26T10:41:30.585Z</time></trkpt><trkpt lat="43.1120159" lon="12.5062528"><ele>213.0</ele><time>2026-04-26T10:41:32.663Z</time></trkpt><trkpt lat="43.1119501" lon="12.506188"><ele>212.83333333333334</ele><time>2026-04-26T10:41:34.575Z</time></trkpt><trkpt lat="43.1118892" lon="12.5061113"><ele>212.66666666666669</ele><time>2026-04-26T10:41:36.551Z</time></trkpt><trkpt lat="43.1118242" lon="12.5060416"><ele>212.5</ele><time>2026-04-26T10:41:38.545Z</time></trkpt><trkpt lat="43.1117602" lon="12.5059609"><ele>212.33333333333334</ele><time>2026-04-26T10:41:40.546Z</time></trkpt><trkpt lat="43.1116819" lon="12.5058745"><ele>212.16666666666669</ele><time>2026-04-26T10:41:42.867Z</time></trkpt><trkpt lat="43.1116269" lon="12.5058052"><ele>212.0</ele><time>2026-04-26T10:41:44.538Z</time></trkpt><trkpt lat="43.1115618" lon="12.5057249"><ele>212.00000000000003</ele><time>2026-04-26T10:41:46.564Z</time></trkpt><trkpt lat="43.1115012" lon="12.5056513"><ele>212.0</ele><time>2026-04-26T10:41:48.56Z</time></trkpt><trkpt lat="43.1114413" lon="12.5055781"><ele>212.0</ele><time>2026-04-26T10:41:50.547Z</time></trkpt><trkpt lat="43.1113783" lon="12.5055045"><ele>212.0</ele><time>2026-04-26T10:41:52.538Z</time></trkpt><trkpt lat="43.1113202" lon="12.5054302"><ele>212.00000000000003</ele><time>2026-04-26T10:41:54.569Z</time></trkpt><trkpt lat="43.1112699" lon="12.5053631"><ele>212.0</ele><time>2026-04-26T10:41:56.562Z</time></trkpt><trkpt lat="43.1112195" lon="12.5052737"><ele>212.66666666666669</ele><time>2026-04-26T10:41:59.529Z</time></trkpt><trkpt lat="43.1111814" lon="12.505202"><ele>213.33333333333334</ele><time>2026-04-26T10:42:02.545Z</time></trkpt><trkpt lat="43.1111153" lon="12.5051312"><ele>214.0</ele><time>2026-04-26T10:42:06.542Z</time></trkpt><trkpt lat="43.111048" lon="12.5050995"><ele>214.66666666666669</ele><time>2026-04-26T10:42:09.546Z</time></trkpt><trkpt lat="43.1109546" lon="12.5050709"><ele>215.33333333333334</ele><time>2026-04-26T10:42:12.654Z</time></trkpt><trkpt lat="43.1108987" lon="12.5050263"><ele>216.0</ele><time>2026-04-26T10:42:14.536Z</time></trkpt><trkpt lat="43.1108373" lon="12.504966"><ele>216.0</ele><time>2026-04-26T10:42:16.568Z</time></trkpt><trkpt lat="43.1107831" lon="12.5049018"><ele>216.0</ele><time>2026-04-26T10:42:18.575Z</time></trkpt><trkpt lat="43.1107246" lon="12.5048445"><ele>216.0</ele><time>2026-04-26T10:42:20.542Z</time></trkpt><trkpt lat="43.1106666" lon="12.5047786"><ele>216.0</ele><time>2026-04-26T10:42:22.572Z</time></trkpt><trkpt lat="43.1106114" lon="12.5047111"><ele>216.0</ele><time>2026-04-26T10:42:24.557Z</time></trkpt><trkpt lat="43.1105436" lon="12.5046423"><ele>216.0</ele><time>2026-04-26T10:42:26.756Z</time></trkpt><trkpt lat="43.1104833" lon="12.5045937"><ele>216.0</ele><time>2026-04-26T10:42:28.565Z</time></trkpt><trkpt lat="43.1104218" lon="12.504541"><ele>216.16666666666666</ele><time>2026-04-26T10:42:30.555Z</time></trkpt><trkpt lat="43.1103555" lon="12.5045036"><ele>216.33333333333331</ele><time>2026-04-26T10:42:32.534Z</time></trkpt><trkpt lat="43.1102825" lon="12.5044563"><ele>216.5</ele><time>2026-04-26T10:42:34.557Z</time></trkpt><trkpt lat="43.1102048" lon="12.5044241"><ele>216.66666666666666</ele><time>2026-04-26T10:42:36.563Z</time></trkpt><trkpt lat="43.1101209" lon="12.504409"><ele>216.83333333333331</ele><time>2026-04-26T10:42:38.672Z</time></trkpt><trkpt lat="43.1100445" lon="12.5043847"><ele>217.0</ele><time>2026-04-26T10:42:40.568Z</time></trkpt><trkpt lat="43.1099615" lon="12.5043643"><ele>216.39999999999998</ele><time>2026-04-26T10:42:42.564Z</time></trkpt><trkpt lat="43.1098377" lon="12.5043407"><ele>215.79999999999998</ele><time>2026-04-26T10:42:45.571Z</time></trkpt><trkpt lat="43.1097564" lon="12.5043143"><ele>215.2</ele><time>2026-04-26T10:42:47.554Z</time></trkpt><trkpt lat="43.1096737" lon="12.504289"><ele>214.6</ele><time>2026-04-26T10:42:49.542Z</time></trkpt><trkpt lat="43.109593" lon="12.5042606"><ele>214.0</ele><time>2026-04-26T10:42:51.546Z</time></trkpt><trkpt lat="43.109511" lon="12.5042313"><ele>213.99999999999997</ele><time>2026-04-26T10:42:53.558Z</time></trkpt><trkpt lat="43.1094308" lon="12.5042013"><ele>214.0</ele><time>2026-04-26T10:42:55.579Z</time></trkpt><trkpt lat="43.1093543" lon="12.5041724"><ele>214.0</ele><time>2026-04-26T10:42:57.56Z</time></trkpt><trkpt lat="43.1092792" lon="12.5041415"><ele>214.0</ele><time>2026-04-26T10:42:59.563Z</time></trkpt><trkpt lat="43.1092001" lon="12.5041133"><ele>213.99999999999997</ele><time>2026-04-26T10:43:01.554Z</time></trkpt><trkpt lat="43.1091138" lon="12.5040829"><ele>214.0</ele><time>2026-04-26T10:43:03.54Z</time></trkpt><trkpt lat="43.1090282" lon="12.504055"><ele>213.99999999999997</ele><time>2026-04-26T10:43:05.556Z</time></trkpt><trkpt lat="43.1089442" lon="12.504024"><ele>214.0</ele><time>2026-04-26T10:43:07.651Z</time></trkpt><trkpt lat="43.1088631" lon="12.5039947"><ele>214.0</ele><time>2026-04-26T10:43:09.655Z</time></trkpt><trkpt lat="43.108787" lon="12.5039684"><ele>214.0</ele><time>2026-04-26T10:43:11.56Z</time></trkpt><trkpt lat="43.1087101" lon="12.5039431"><ele>213.99999999999997</ele><time>2026-04-26T10:43:13.552Z</time></trkpt><trkpt lat="43.1086342" lon="12.5039225"><ele>214.0</ele><time>2026-04-26T10:43:15.566Z</time></trkpt><trkpt lat="43.1085608" lon="12.5038992"><ele>213.99999999999997</ele><time>2026-04-26T10:43:17.564Z</time></trkpt><trkpt lat="43.1084866" lon="12.5038702"><ele>214.0</ele><time>2026-04-26T10:43:19.516Z</time></trkpt><trkpt lat="43.1083997" lon="12.5038312"><ele>214.0</ele><time>2026-04-26T10:43:21.768Z</time></trkpt><trkpt lat="43.1083348" lon="12.5037989"><ele>214.0</ele><time>2026-04-26T10:43:23.566Z</time></trkpt><trkpt lat="43.1082642" lon="12.503775"><ele>213.99999999999997</ele><time>2026-04-26T10:43:25.517Z</time></trkpt><trkpt lat="43.108198" lon="12.5037412"><ele>214.0</ele><time>2026-04-26T10:43:27.554Z</time></trkpt><trkpt lat="43.1081323" lon="12.5037102"><ele>214.33333333333331</ele><time>2026-04-26T10:43:29.555Z</time></trkpt><trkpt lat="43.1080607" lon="12.5036887"><ele>214.66666666666666</ele><time>2026-04-26T10:43:31.546Z</time></trkpt><trkpt lat="43.1079859" lon="12.5036576"><ele>215.0</ele><time>2026-04-26T10:43:33.535Z</time></trkpt><trkpt lat="43.1079112" lon="12.5036246"><ele>215.33333333333331</ele><time>2026-04-26T10:43:35.553Z</time></trkpt><trkpt lat="43.1078305" lon="12.5035925"><ele>215.66666666666666</ele><time>2026-04-26T10:43:37.646Z</time></trkpt><trkpt lat="43.107759" lon="12.5035574"><ele>216.0</ele><time>2026-04-26T10:43:39.571Z</time></trkpt><trkpt lat="43.1076875" lon="12.5035192"><ele>216.0</ele><time>2026-04-26T10:43:41.561Z</time></trkpt><trkpt lat="43.1076132" lon="12.5034901"><ele>216.0</ele><time>2026-04-26T10:43:43.52Z</time></trkpt><trkpt lat="43.1075371" lon="12.5034515"><ele>216.0</ele><time>2026-04-26T10:43:45.56Z</time></trkpt><trkpt lat="43.1074532" lon="12.5034125"><ele>216.0</ele><time>2026-04-26T10:43:47.724Z</time></trkpt><trkpt lat="43.1073851" lon="12.5033754"><ele>216.0</ele><time>2026-04-26T10:43:49.542Z</time></trkpt><trkpt lat="43.1072981" lon="12.5033465"><ele>216.0</ele><time>2026-04-26T10:43:51.56Z</time></trkpt><trkpt lat="43.1072133" lon="12.5033001"><ele>215.8</ele><time>2026-04-26T10:43:53.569Z</time></trkpt><trkpt lat="43.1071276" lon="12.5032645"><ele>215.60000000000002</ele><time>2026-04-26T10:43:55.552Z</time></trkpt><trkpt lat="43.1070495" lon="12.5032189"><ele>215.4</ele><time>2026-04-26T10:43:57.572Z</time></trkpt><trkpt lat="43.1069655" lon="12.5031778"><ele>215.2</ele><time>2026-04-26T10:43:59.669Z</time></trkpt><trkpt lat="43.1068731" lon="12.5030583"><ele>215.0</ele><time>2026-04-26T10:44:02.587Z</time></trkpt><trkpt lat="43.1068368" lon="12.5029729"><ele>215.42857142857142</ele><time>2026-04-26T10:44:04.539Z</time></trkpt><trkpt lat="43.1068361" lon="12.5028665"><ele>215.85714285714286</ele><time>2026-04-26T10:44:07.564Z</time></trkpt><trkpt lat="43.1068512" lon="12.5027773"><ele>216.28571428571428</ele><time>2026-04-26T10:44:12.56Z</time></trkpt><trkpt lat="43.1068806" lon="12.5026824"><ele>216.71428571428572</ele><time>2026-04-26T10:44:17.558Z</time></trkpt><trkpt lat="43.1069035" lon="12.5025984"><ele>217.14285714285717</ele><time>2026-04-26T10:44:21.547Z</time></trkpt><trkpt lat="43.1069274" lon="12.5025104"><ele>217.57142857142858</ele><time>2026-04-26T10:44:25.793Z</time></trkpt><trkpt lat="43.1069635" lon="12.5024149"><ele>218.0</ele><time>2026-04-26T10:44:30.56Z</time></trkpt><trkpt lat="43.1069946" lon="12.5023315"><ele>218.0</ele><time>2026-04-26T10:44:34.573Z</time></trkpt><trkpt lat="43.107025" lon="12.5022541"><ele>218.0</ele><time>2026-04-26T10:44:38.544Z</time></trkpt><trkpt lat="43.1070537" lon="12.5021691"><ele>218.0</ele><time>2026-04-26T10:44:42.552Z</time></trkpt><trkpt lat="43.107086" lon="12.5020776"><ele>218.0</ele><time>2026-04-26T10:44:46.582Z</time></trkpt><trkpt lat="43.1071224" lon="12.5019952"><ele>218.0</ele><time>2026-04-26T10:44:50.56Z</time></trkpt><trkpt lat="43.107168" lon="12.5019136"><ele>218.0</ele><time>2026-04-26T10:44:54.542Z</time></trkpt><trkpt lat="43.107204" lon="12.5018205"><ele>218.0</ele><time>2026-04-26T10:44:58.578Z</time></trkpt><trkpt lat="43.1072426" lon="12.5017318"><ele>218.14285714285714</ele><time>2026-04-26T10:45:02.589Z</time></trkpt><trkpt lat="43.1072745" lon="12.5016454"><ele>218.28571428571428</ele><time>2026-04-26T10:45:06.553Z</time></trkpt><trkpt lat="43.1073104" lon="12.5015539"><ele>218.42857142857144</ele><time>2026-04-26T10:45:10.536Z</time></trkpt><trkpt lat="43.1073544" lon="12.5014659"><ele>218.57142857142856</ele><time>2026-04-26T10:45:14.604Z</time></trkpt><trkpt lat="43.107391" lon="12.5013758"><ele>218.7142857142857</ele><time>2026-04-26T10:45:18.559Z</time></trkpt><trkpt lat="43.1074353" lon="12.5012765"><ele>218.85714285714286</ele><time>2026-04-26T10:45:22.614Z</time></trkpt><trkpt lat="43.1074677" lon="12.5012018"><ele>219.0</ele><time>2026-04-26T10:45:25.54Z</time></trkpt><trkpt lat="43.1075058" lon="12.501092"><ele>219.85714285714286</ele><time>2026-04-26T10:45:30.559Z</time></trkpt><trkpt lat="43.1075348" lon="12.5010118"><ele>220.71428571428572</ele><time>2026-04-26T10:45:35.526Z</time></trkpt><trkpt lat="43.1075695" lon="12.5009389"><ele>221.57142857142858</ele><time>2026-04-26T10:45:40.66Z</time></trkpt><trkpt lat="43.107594" lon="12.5008458"><ele>222.42857142857144</ele><time>2026-04-26T10:45:45.579Z</time></trkpt><trkpt lat="43.1076326" lon="12.500764"><ele>223.28571428571428</ele><time>2026-04-26T10:45:50.585Z</time></trkpt><trkpt lat="43.1076753" lon="12.5006814"><ele>224.14285714285717</ele><time>2026-04-26T10:45:55.562Z</time></trkpt><trkpt lat="43.1077183" lon="12.5005821"><ele>225.00000000000003</ele><time>2026-04-26T10:46:01.543Z</time></trkpt><trkpt lat="43.1077532" lon="12.5005012"><ele>225.00000000000003</ele><time>2026-04-26T10:46:06.551Z</time></trkpt><trkpt lat="43.1077842" lon="12.5004186"><ele>225.0</ele><time>2026-04-26T10:46:11.579Z</time></trkpt><trkpt lat="43.107816" lon="12.5003345"><ele>225.00000000000003</ele><time>2026-04-26T10:46:16.56Z</time></trkpt><trkpt lat="43.1078499" lon="12.5002485"><ele>225.00000000000003</ele><time>2026-04-26T10:46:21.567Z</time></trkpt><trkpt lat="43.107887" lon="12.5001581"><ele>225.0</ele><time>2026-04-26T10:46:26.583Z</time></trkpt><trkpt lat="43.1079269" lon="12.5000685"><ele>225.00000000000003</ele><time>2026-04-26T10:46:31.575Z</time></trkpt><trkpt lat="43.1079604" lon="12.4999937"><ele>225.00000000000003</ele><time>2026-04-26T10:46:35.599Z</time></trkpt><trkpt lat="43.1079981" lon="12.4998998"><ele>225.42857142857144</ele><time>2026-04-26T10:46:40.609Z</time></trkpt><trkpt lat="43.1080311" lon="12.4998253"><ele>225.85714285714286</ele><time>2026-04-26T10:46:44.568Z</time></trkpt><trkpt lat="43.1080671" lon="12.4997387"><ele>226.28571428571428</ele><time>2026-04-26T10:46:49.53Z</time></trkpt><trkpt lat="43.108102" lon="12.4996482"><ele>226.71428571428572</ele><time>2026-04-26T10:46:54.556Z</time></trkpt><trkpt lat="43.1081417" lon="12.4995621"><ele>227.1428571428571</ele><time>2026-04-26T10:46:59.555Z</time></trkpt><trkpt lat="43.1081784" lon="12.4994753"><ele>227.57142857142856</ele><time>2026-04-26T10:47:04.548Z</time></trkpt><trkpt lat="43.1082118" lon="12.4994017"><ele>228.0</ele><time>2026-04-26T10:47:08.587Z</time></trkpt><trkpt lat="43.108247" lon="12.4993097"><ele>229.42857142857142</ele><time>2026-04-26T10:47:13.547Z</time></trkpt><trkpt lat="43.1082788" lon="12.4992351"><ele>230.85714285714283</ele><time>2026-04-26T10:47:17.562Z</time></trkpt><trkpt lat="43.1083188" lon="12.4991455"><ele>232.28571428571428</ele><time>2026-04-26T10:47:22.599Z</time></trkpt><trkpt lat="43.1083516" lon="12.4990541"><ele>233.71428571428572</ele><time>2026-04-26T10:47:27.578Z</time></trkpt><trkpt lat="43.1083837" lon="12.4989785"><ele>235.14285714285714</ele><time>2026-04-26T10:47:31.571Z</time></trkpt><trkpt lat="43.1084177" lon="12.4989026"><ele>236.57142857142856</ele><time>2026-04-26T10:47:35.574Z</time></trkpt><trkpt lat="43.108451" lon="12.4988255"><ele>238.0</ele><time>2026-04-26T10:47:39.59Z</time></trkpt><trkpt lat="43.1084879" lon="12.4987344"><ele>238.85714285714286</ele><time>2026-04-26T10:47:44.543Z</time></trkpt><trkpt lat="43.1085301" lon="12.4986464"><ele>239.71428571428572</ele><time>2026-04-26T10:47:49.578Z</time></trkpt><trkpt lat="43.1085651" lon="12.4985515"><ele>240.57142857142856</ele><time>2026-04-26T10:47:54.567Z</time></trkpt><trkpt lat="43.1085766" lon="12.4984569"><ele>241.42857142857142</ele><time>2026-04-26T10:47:59.59Z</time></trkpt><trkpt lat="43.1086095" lon="12.4983616"><ele>242.28571428571428</ele><time>2026-04-26T10:48:04.666Z</time></trkpt><trkpt lat="43.1086438" lon="12.4982822"><ele>243.1428571428571</ele><time>2026-04-26T10:48:08.558Z</time></trkpt><trkpt lat="43.1086933" lon="12.4982267"><ele>243.99999999999997</ele><time>2026-04-26T10:48:13.559Z</time></trkpt><trkpt lat="43.1087377" lon="12.4981597"><ele>243.99999999999997</ele><time>2026-04-26T10:49:16.567Z</time></trkpt><trkpt lat="43.1087726" lon="12.4980843"><ele>244.0</ele><time>2026-04-26T10:49:23.545Z</time></trkpt><trkpt lat="43.1087882" lon="12.4980006"><ele>243.99999999999997</ele><time>2026-04-26T10:49:54.696Z</time></trkpt><trkpt lat="43.1088097" lon="12.4979139"><ele>243.99999999999997</ele><time>2026-04-26T10:50:00.666Z</time></trkpt><trkpt lat="43.1088463" lon="12.4978254"><ele>244.0</ele><time>2026-04-26T10:50:06.563Z</time></trkpt><trkpt lat="43.1088671" lon="12.4977418"><ele>243.99999999999997</ele><time>2026-04-26T10:50:11.555Z</time></trkpt><trkpt lat="43.1089017" lon="12.4976617"><ele>243.99999999999997</ele><time>2026-04-26T10:50:16.571Z</time></trkpt><trkpt lat="43.1089331" lon="12.4975839"><ele>244.71428571428567</ele><time>2026-04-26T10:50:21.574Z</time></trkpt><trkpt lat="43.1089717" lon="12.4975001"><ele>245.42857142857142</ele><time>2026-04-26T10:50:27.686Z</time></trkpt><trkpt lat="43.1090087" lon="12.4974028"><ele>246.1428571428571</ele><time>2026-04-26T10:50:33.669Z</time></trkpt><trkpt lat="43.1090444" lon="12.4973243"><ele>246.85714285714283</ele><time>2026-04-26T10:50:38.561Z</time></trkpt><trkpt lat="43.1090798" lon="12.4972519"><ele>247.57142857142856</ele><time>2026-04-26T10:50:43.566Z</time></trkpt><trkpt lat="43.1091055" lon="12.4971683"><ele>248.28571428571428</ele><time>2026-04-26T10:50:48.552Z</time></trkpt><trkpt lat="43.1091417" lon="12.4970891"><ele>249.0</ele><time>2026-04-26T10:50:53.541Z</time></trkpt><trkpt lat="43.109173" lon="12.497008"><ele>250.14285714285714</ele><time>2026-04-26T10:50:58.557Z</time></trkpt><trkpt lat="43.1092135" lon="12.4969214"><ele>251.28571428571428</ele><time>2026-04-26T10:51:03.651Z</time></trkpt><trkpt lat="43.1092495" lon="12.4968284"><ele>252.42857142857142</ele><time>2026-04-26T10:51:08.558Z</time></trkpt><trkpt lat="43.1092876" lon="12.4967522"><ele>253.57142857142856</ele><time>2026-04-26T10:51:12.562Z</time></trkpt><trkpt lat="43.1093224" lon="12.49668"><ele>254.71428571428572</ele><time>2026-04-26T10:51:16.666Z</time></trkpt><trkpt lat="43.1093596" lon="12.4965878"><ele>255.85714285714283</ele><time>2026-04-26T10:51:21.568Z</time></trkpt><trkpt lat="43.1094051" lon="12.4965062"><ele>257.0</ele><time>2026-04-26T10:51:26.581Z</time></trkpt><trkpt lat="43.1094302" lon="12.4964245"><ele>257.0</ele><time>2026-04-26T10:51:32.575Z</time></trkpt><trkpt lat="43.1094335" lon="12.4963206"><ele>257.0</ele><time>2026-04-26T10:51:37.563Z</time></trkpt><trkpt lat="43.109436" lon="12.4962055"><ele>257.0</ele><time>2026-04-26T10:51:42.569Z</time></trkpt><trkpt lat="43.1093867" lon="12.4961374"><ele>257.0</ele><time>2026-04-26T10:51:46.769Z</time></trkpt><trkpt lat="43.1093431" lon="12.4960674"><ele>257.0</ele><time>2026-04-26T10:51:49.667Z</time></trkpt><trkpt lat="43.1092803" lon="12.4959738"><ele>257.0</ele><time>2026-04-26T10:51:52.575Z</time></trkpt><trkpt lat="43.1092279" lon="12.4958944"><ele>256.8</ele><time>2026-04-26T10:51:54.576Z</time></trkpt><trkpt lat="43.1091682" lon="12.4958041"><ele>256.6</ele><time>2026-04-26T10:51:56.561Z</time></trkpt><trkpt lat="43.1091008" lon="12.4957021"><ele>256.40000000000003</ele><time>2026-04-26T10:51:58.563Z</time></trkpt><trkpt lat="43.1090374" lon="12.4955866"><ele>256.2</ele><time>2026-04-26T10:52:00.591Z</time></trkpt><trkpt lat="43.1089717" lon="12.4954695"><ele>256.0</ele><time>2026-04-26T10:52:02.579Z</time></trkpt><trkpt lat="43.1089041" lon="12.4953451"><ele>255.8</ele><time>2026-04-26T10:52:04.571Z</time></trkpt><trkpt lat="43.1088283" lon="12.4952182"><ele>255.60000000000002</ele><time>2026-04-26T10:52:06.56Z</time></trkpt><trkpt lat="43.1087875" lon="12.4951496"><ele>255.4</ele><time>2026-04-26T10:52:07.588Z</time></trkpt><trkpt lat="43.1087078" lon="12.4950172"><ele>255.2</ele><time>2026-04-26T10:52:09.53Z</time></trkpt><trkpt lat="43.1086617" lon="12.4949481"><ele>255.0</ele><time>2026-04-26T10:52:10.568Z</time></trkpt><trkpt lat="43.1086103" lon="12.4948758"><ele>255.0</ele><time>2026-04-26T10:52:11.66Z</time></trkpt><trkpt lat="43.108513" lon="12.4947549"><ele>255.0</ele><time>2026-04-26T10:52:13.553Z</time></trkpt><trkpt lat="43.1084567" lon="12.4946918"><ele>255.0</ele><time>2026-04-26T10:52:14.578Z</time></trkpt><trkpt lat="43.1084021" lon="12.4946331"><ele>255.0</ele><time>2026-04-26T10:52:15.539Z</time></trkpt><trkpt lat="43.1083417" lon="12.494572"><ele>255.0</ele><time>2026-04-26T10:52:16.544Z</time></trkpt><trkpt lat="43.108281" lon="12.4945066"><ele>255.0</ele><time>2026-04-26T10:52:17.559Z</time></trkpt><trkpt lat="43.1082079" lon="12.4944295"><ele>253.6</ele><time>2026-04-26T10:52:18.753Z</time></trkpt><trkpt lat="43.1080879" lon="12.4943143"><ele>252.2</ele><time>2026-04-26T10:52:20.549Z</time></trkpt><trkpt lat="43.1080209" lon="12.4942514"><ele>250.8</ele><time>2026-04-26T10:52:21.528Z</time></trkpt><trkpt lat="43.1079502" lon="12.4941863"><ele>249.4</ele><time>2026-04-26T10:52:22.561Z</time></trkpt><trkpt lat="43.1078825" lon="12.4941187"><ele>248.0</ele><time>2026-04-26T10:52:23.572Z</time></trkpt><trkpt lat="43.1078165" lon="12.4940511"><ele>248.00000000000003</ele><time>2026-04-26T10:52:24.548Z</time></trkpt><trkpt lat="43.107748" lon="12.4939847"><ele>248.0</ele><time>2026-04-26T10:52:25.553Z</time></trkpt><trkpt lat="43.1076816" lon="12.4939197"><ele>248.0</ele><time>2026-04-26T10:52:26.574Z</time></trkpt><trkpt lat="43.1076169" lon="12.493857"><ele>248.0</ele><time>2026-04-26T10:52:27.571Z</time></trkpt><trkpt lat="43.1075564" lon="12.4937906"><ele>248.00000000000003</ele><time>2026-04-26T10:52:28.56Z</time></trkpt><trkpt lat="43.107497" lon="12.493725"><ele>248.0</ele><time>2026-04-26T10:52:29.564Z</time></trkpt><trkpt lat="43.1074335" lon="12.4936532"><ele>248.4</ele><time>2026-04-26T10:52:30.684Z</time></trkpt><trkpt lat="43.1073367" lon="12.4935284"><ele>248.8</ele><time>2026-04-26T10:52:32.569Z</time></trkpt><trkpt lat="43.1072894" lon="12.4934654"><ele>249.2</ele><time>2026-04-26T10:52:33.577Z</time></trkpt><trkpt lat="43.1072037" lon="12.4933533"><ele>249.6</ele><time>2026-04-26T10:52:35.57Z</time></trkpt><trkpt lat="43.1071237" lon="12.493248"><ele>250.0</ele><time>2026-04-26T10:52:37.557Z</time></trkpt><trkpt lat="43.1070453" lon="12.4931411"><ele>250.0</ele><time>2026-04-26T10:52:39.558Z</time></trkpt><trkpt lat="43.1069674" lon="12.4930368"><ele>250.0</ele><time>2026-04-26T10:52:41.568Z</time></trkpt><trkpt lat="43.106891" lon="12.4929346"><ele>250.0</ele><time>2026-04-26T10:52:43.555Z</time></trkpt><trkpt lat="43.1068104" lon="12.4928218"><ele>250.0</ele><time>2026-04-26T10:52:45.578Z</time></trkpt><trkpt lat="43.1067228" lon="12.4927119"><ele>249.8</ele><time>2026-04-26T10:52:47.671Z</time></trkpt><trkpt lat="43.1066475" lon="12.4926135"><ele>249.6</ele><time>2026-04-26T10:52:49.56Z</time></trkpt><trkpt lat="43.1065664" lon="12.4925073"><ele>249.39999999999998</ele><time>2026-04-26T10:52:51.558Z</time></trkpt><trkpt lat="43.106488" lon="12.4924028"><ele>249.2</ele><time>2026-04-26T10:52:53.557Z</time></trkpt><trkpt lat="43.1064103" lon="12.4923023"><ele>249.0</ele><time>2026-04-26T10:52:55.573Z</time></trkpt><trkpt lat="43.106331" lon="12.4922033"><ele>249.39999999999998</ele><time>2026-04-26T10:52:57.565Z</time></trkpt><trkpt lat="43.1062534" lon="12.4921018"><ele>249.79999999999998</ele><time>2026-04-26T10:52:59.529Z</time></trkpt><trkpt lat="43.1061727" lon="12.4919926"><ele>250.20000000000002</ele><time>2026-04-26T10:53:01.683Z</time></trkpt><trkpt lat="43.1061002" lon="12.4918928"><ele>250.60000000000002</ele><time>2026-04-26T10:53:03.569Z</time></trkpt><trkpt lat="43.1060198" lon="12.4917891"><ele>251.0</ele><time>2026-04-26T10:53:05.569Z</time></trkpt><trkpt lat="43.105935" lon="12.4917013"><ele>251.4</ele><time>2026-04-26T10:53:07.542Z</time></trkpt><trkpt lat="43.1058465" lon="12.4916264"><ele>251.8</ele><time>2026-04-26T10:53:09.529Z</time></trkpt><trkpt lat="43.105752" lon="12.4915708"><ele>252.20000000000002</ele><time>2026-04-26T10:53:11.553Z</time></trkpt><trkpt lat="43.1056636" lon="12.491536"><ele>252.60000000000002</ele><time>2026-04-26T10:53:13.572Z</time></trkpt><trkpt lat="43.1055826" lon="12.4915083"><ele>253.0</ele><time>2026-04-26T10:53:15.557Z</time></trkpt><trkpt lat="43.1055025" lon="12.4914816"><ele>253.0</ele><time>2026-04-26T10:53:17.527Z</time></trkpt><trkpt lat="43.1053752" lon="12.4914444"><ele>253.0</ele><time>2026-04-26T10:53:20.557Z</time></trkpt><trkpt lat="43.1052535" lon="12.4914133"><ele>253.0</ele><time>2026-04-26T10:53:23.559Z</time></trkpt><trkpt lat="43.10518" lon="12.4913896"><ele>253.0</ele><time>2026-04-26T10:53:25.571Z</time></trkpt><trkpt lat="43.1050974" lon="12.4913672"><ele>253.0</ele><time>2026-04-26T10:53:27.793Z</time></trkpt><trkpt lat="43.1050295" lon="12.4913467"><ele>252.99999999999997</ele><time>2026-04-26T10:53:29.566Z</time></trkpt><trkpt lat="43.1049542" lon="12.4913125"><ele>253.0</ele><time>2026-04-26T10:53:31.579Z</time></trkpt><trkpt lat="43.1048741" lon="12.4912841"><ele>253.0</ele><time>2026-04-26T10:53:33.606Z</time></trkpt><trkpt lat="43.104801" lon="12.4912619"><ele>253.0</ele><time>2026-04-26T10:53:35.568Z</time></trkpt><trkpt lat="43.10473" lon="12.4912455"><ele>252.99999999999997</ele><time>2026-04-26T10:53:37.555Z</time></trkpt><trkpt lat="43.1046576" lon="12.4912189"><ele>253.0</ele><time>2026-04-26T10:53:39.56Z</time></trkpt><trkpt lat="43.1045932" lon="12.4911968"><ele>254.16666666666666</ele><time>2026-04-26T10:53:41.566Z</time></trkpt><trkpt lat="43.1045023" lon="12.4911606"><ele>255.33333333333331</ele><time>2026-04-26T10:53:44.557Z</time></trkpt><trkpt lat="43.1044304" lon="12.4911417"><ele>256.5</ele><time>2026-04-26T10:53:46.551Z</time></trkpt><trkpt lat="43.1043508" lon="12.4911121"><ele>257.6666666666667</ele><time>2026-04-26T10:53:48.778Z</time></trkpt><trkpt lat="43.104292" lon="12.4910575"><ele>258.83333333333337</ele><time>2026-04-26T10:53:50.587Z</time></trkpt><trkpt lat="43.1042386" lon="12.4909828"><ele>260.0</ele><time>2026-04-26T10:53:52.58Z</time></trkpt><trkpt lat="43.104197" lon="12.4908931"><ele>260.0</ele><time>2026-04-26T10:53:54.594Z</time></trkpt><trkpt lat="43.1041595" lon="12.4907914"><ele>260.0</ele><time>2026-04-26T10:53:56.572Z</time></trkpt><trkpt lat="43.1041448" lon="12.490662"><ele>260.0</ele><time>2026-04-26T10:53:58.557Z</time></trkpt><trkpt lat="43.1041566" lon="12.4905286"><ele>260.0</ele><time>2026-04-26T10:54:00.553Z</time></trkpt><trkpt lat="43.1041539" lon="12.490381"><ele>260.0</ele><time>2026-04-26T10:54:02.57Z</time></trkpt><trkpt lat="43.1041357" lon="12.4902252"><ele>258.1666666666667</ele><time>2026-04-26T10:54:04.561Z</time></trkpt><trkpt lat="43.1040674" lon="12.4900847"><ele>256.33333333333337</ele><time>2026-04-26T10:54:06.561Z</time></trkpt><trkpt lat="43.1040134" lon="12.4900272"><ele>254.5</ele><time>2026-04-26T10:54:07.563Z</time></trkpt><trkpt lat="43.1039563" lon="12.4899747"><ele>252.66666666666669</ele><time>2026-04-26T10:54:08.544Z</time></trkpt><trkpt lat="43.1038886" lon="12.4899173"><ele>250.83333333333334</ele><time>2026-04-26T10:54:09.569Z</time></trkpt><trkpt lat="43.1038157" lon="12.4898581"><ele>249.0</ele><time>2026-04-26T10:54:10.556Z</time></trkpt><trkpt lat="43.1037444" lon="12.489798"><ele>249.0</ele><time>2026-04-26T10:54:11.539Z</time></trkpt><trkpt lat="43.1036768" lon="12.4897266"><ele>249.0</ele><time>2026-04-26T10:54:12.541Z</time></trkpt><trkpt lat="43.1036089" lon="12.4896626"><ele>249.0</ele><time>2026-04-26T10:54:13.532Z</time></trkpt><trkpt lat="43.1035284" lon="12.489623"><ele>249.0</ele><time>2026-04-26T10:54:14.531Z</time></trkpt><trkpt lat="43.1034324" lon="12.4896186"><ele>249.0</ele><time>2026-04-26T10:54:15.578Z</time></trkpt><trkpt lat="43.1033372" lon="12.4896179"><ele>249.0</ele><time>2026-04-26T10:54:16.536Z</time></trkpt><trkpt lat="43.1032616" lon="12.4896012"><ele>248.16666666666666</ele><time>2026-04-26T10:54:17.547Z</time></trkpt><trkpt lat="43.1031926" lon="12.4895425"><ele>247.33333333333331</ele><time>2026-04-26T10:54:18.558Z</time></trkpt><trkpt lat="43.10316" lon="12.4894449"><ele>246.5</ele><time>2026-04-26T10:54:19.513Z</time></trkpt><trkpt lat="43.1031388" lon="12.4893354"><ele>245.66666666666666</ele><time>2026-04-26T10:54:20.515Z</time></trkpt><trkpt lat="43.1031171" lon="12.4892238"><ele>244.83333333333331</ele><time>2026-04-26T10:54:21.551Z</time></trkpt><trkpt lat="43.103089" lon="12.4891106"><ele>244.0</ele><time>2026-04-26T10:54:22.537Z</time></trkpt><trkpt lat="43.1030292" lon="12.4889817"><ele>243.99999999999997</ele><time>2026-04-26T10:54:23.541Z</time></trkpt><trkpt lat="43.1029714" lon="12.4888407"><ele>244.0</ele><time>2026-04-26T10:54:24.542Z</time></trkpt><trkpt lat="43.1029334" lon="12.4887142"><ele>244.0</ele><time>2026-04-26T10:54:25.543Z</time></trkpt><trkpt lat="43.1028986" lon="12.4886169"><ele>244.0</ele><time>2026-04-26T10:54:26.532Z</time></trkpt><trkpt lat="43.1028782" lon="12.488531"><ele>243.99999999999997</ele><time>2026-04-26T10:54:27.515Z</time></trkpt><trkpt lat="43.1028562" lon="12.4884488"><ele>244.0</ele><time>2026-04-26T10:54:28.531Z</time></trkpt><trkpt lat="43.1028161" lon="12.4883254"><ele>243.79999999999998</ele><time>2026-04-26T10:54:30.557Z</time></trkpt><trkpt lat="43.1028116" lon="12.4881813"><ele>243.59999999999997</ele><time>2026-04-26T10:54:32.572Z</time></trkpt><trkpt lat="43.1028266" lon="12.4880865"><ele>243.4</ele><time>2026-04-26T10:54:33.513Z</time></trkpt><trkpt lat="43.1028839" lon="12.4880049"><ele>243.2</ele><time>2026-04-26T10:54:34.549Z</time></trkpt><trkpt lat="43.1029828" lon="12.4879647"><ele>243.0</ele><time>2026-04-26T10:54:35.663Z</time></trkpt><trkpt lat="43.1031859" lon="12.4879396"><ele>240.5</ele><time>2026-04-26T10:54:37.662Z</time></trkpt><trkpt lat="43.1033826" lon="12.4879188"><ele>238.0</ele><time>2026-04-26T10:54:39.533Z</time></trkpt><trkpt lat="43.1034895" lon="12.4879038"><ele>235.5</ele><time>2026-04-26T10:54:40.511Z</time></trkpt><trkpt lat="43.1036108" lon="12.4878877"><ele>233.0</ele><time>2026-04-26T10:54:41.553Z</time></trkpt><trkpt lat="43.1037423" lon="12.4878673"><ele>233.0</ele><time>2026-04-26T10:54:42.659Z</time></trkpt><trkpt lat="43.1039532" lon="12.4878375"><ele>233.0</ele><time>2026-04-26T10:54:44.526Z</time></trkpt><trkpt lat="43.1040751" lon="12.4878229"><ele>233.0</ele><time>2026-04-26T10:54:45.563Z</time></trkpt><trkpt lat="43.1041841" lon="12.487805"><ele>233.0</ele><time>2026-04-26T10:54:46.538Z</time></trkpt><trkpt lat="43.1042784" lon="12.4877921"><ele>230.5</ele><time>2026-04-26T10:54:47.528Z</time></trkpt><trkpt lat="43.1043727" lon="12.4877943"><ele>228.0</ele><time>2026-04-26T10:54:48.648Z</time></trkpt><trkpt lat="43.104497" lon="12.4876614"><ele>225.5</ele><time>2026-04-26T10:54:50.531Z</time></trkpt><trkpt lat="43.1045084" lon="12.4875303"><ele>223.0</ele><time>2026-04-26T10:54:51.545Z</time></trkpt><trkpt lat="43.1044742" lon="12.4873863"><ele>223.0</ele><time>2026-04-26T10:54:52.549Z</time></trkpt><trkpt lat="43.1044325" lon="12.4872657"><ele>223.0</ele><time>2026-04-26T10:54:53.555Z</time></trkpt><trkpt lat="43.1043899" lon="12.4871501"><ele>223.0</ele><time>2026-04-26T10:54:54.529Z</time></trkpt><trkpt lat="43.104361" lon="12.4870092"><ele>223.0</ele><time>2026-04-26T10:54:55.535Z</time></trkpt><trkpt lat="43.1043236" lon="12.4868543"><ele>223.0</ele><time>2026-04-26T10:54:56.573Z</time></trkpt><trkpt lat="43.1042911" lon="12.4867272"><ele>221.33333333333331</ele><time>2026-04-26T10:54:57.53Z</time></trkpt><trkpt lat="43.1042574" lon="12.4865762"><ele>219.66666666666669</ele><time>2026-04-26T10:54:58.528Z</time></trkpt><trkpt lat="43.1042136" lon="12.486394"><ele>218.0</ele><time>2026-04-26T10:54:59.523Z</time></trkpt><trkpt lat="43.1041532" lon="12.4861322"><ele>219.25</ele><time>2026-04-26T10:55:00.562Z</time></trkpt><trkpt lat="43.1041222" lon="12.4859613"><ele>220.5</ele><time>2026-04-26T10:55:01.59Z</time></trkpt><trkpt lat="43.1040939" lon="12.485801"><ele>221.75</ele><time>2026-04-26T10:55:02.551Z</time></trkpt><trkpt lat="43.1040714" lon="12.4856373"><ele>223.0</ele><time>2026-04-26T10:55:03.527Z</time></trkpt><trkpt lat="43.1040447" lon="12.4854554"><ele>220.25</ele><time>2026-04-26T10:55:04.562Z</time></trkpt><trkpt lat="43.1040248" lon="12.485281"><ele>217.5</ele><time>2026-04-26T10:55:05.531Z</time></trkpt><trkpt lat="43.1040112" lon="12.4850922"><ele>214.75</ele><time>2026-04-26T10:55:06.544Z</time></trkpt><trkpt lat="43.1039976" lon="12.4849052"><ele>212.0</ele><time>2026-04-26T10:55:07.521Z</time></trkpt><trkpt lat="43.103987" lon="12.4847111"><ele>210.5</ele><time>2026-04-26T10:55:08.531Z</time></trkpt><trkpt lat="43.1039829" lon="12.4845033"><ele>209.0</ele><time>2026-04-26T10:55:09.548Z</time></trkpt><trkpt lat="43.1039616" lon="12.4843186"><ele>207.5</ele><time>2026-04-26T10:55:10.492Z</time></trkpt><trkpt lat="43.1039786" lon="12.4841157"><ele>206.0</ele><time>2026-04-26T10:55:11.519Z</time></trkpt><trkpt lat="43.1040127" lon="12.483923"><ele>205.0</ele><time>2026-04-26T10:55:12.536Z</time></trkpt><trkpt lat="43.1040578" lon="12.4837246"><ele>204.0</ele><time>2026-04-26T10:55:13.52Z</time></trkpt><trkpt lat="43.1041102" lon="12.483547"><ele>203.0</ele><time>2026-04-26T10:55:14.542Z</time></trkpt><trkpt lat="43.1041509" lon="12.4833866"><ele>202.0</ele><time>2026-04-26T10:55:15.523Z</time></trkpt><trkpt lat="43.1041777" lon="12.4831668"><ele>200.66666666666666</ele><time>2026-04-26T10:55:16.549Z</time></trkpt><trkpt lat="43.1042067" lon="12.4829347"><ele>199.33333333333331</ele><time>2026-04-26T10:55:17.575Z</time></trkpt><trkpt lat="43.1042016" lon="12.4827201"><ele>198.0</ele><time>2026-04-26T10:55:18.59Z</time></trkpt><trkpt lat="43.1041765" lon="12.4824984"><ele>197.66666666666669</ele><time>2026-04-26T10:55:19.533Z</time></trkpt><trkpt lat="43.1041699" lon="12.4822919"><ele>197.33333333333334</ele><time>2026-04-26T10:55:20.532Z</time></trkpt><trkpt lat="43.104143" lon="12.482009"><ele>197.0</ele><time>2026-04-26T10:55:21.654Z</time></trkpt><trkpt lat="43.1043541" lon="12.482336"><ele>197.0</ele><time>2026-04-26T10:55:23.51Z</time></trkpt><trkpt lat="43.1043642" lon="12.4822237"><ele>197.0</ele><time>2026-04-26T10:55:24.562Z</time></trkpt><trkpt lat="43.1043671" lon="12.4821201"><ele>197.0</ele><time>2026-04-26T10:55:25.563Z</time></trkpt><trkpt lat="43.1043706" lon="12.4820224"><ele>197.0</ele><time>2026-04-26T10:55:26.547Z</time></trkpt><trkpt lat="43.1043679" lon="12.4819277"><ele>197.0</ele><time>2026-04-26T10:55:27.517Z</time></trkpt><trkpt lat="43.1043671" lon="12.4818238"><ele>197.0</ele><time>2026-04-26T10:55:28.567Z</time></trkpt><trkpt lat="43.1043692" lon="12.4817289"><ele>197.0</ele><time>2026-04-26T10:55:29.551Z</time></trkpt><trkpt lat="43.1043761" lon="12.4816339"><ele>196.85714285714286</ele><time>2026-04-26T10:55:30.546Z</time></trkpt><trkpt lat="43.1043765" lon="12.4815327"><ele>196.71428571428572</ele><time>2026-04-26T10:55:31.551Z</time></trkpt><trkpt lat="43.1043761" lon="12.4814324"><ele>196.57142857142856</ele><time>2026-04-26T10:55:32.548Z</time></trkpt><trkpt lat="43.1043772" lon="12.4813335"><ele>196.42857142857144</ele><time>2026-04-26T10:55:33.546Z</time></trkpt><trkpt lat="43.1043763" lon="12.4812326"><ele>196.28571428571428</ele><time>2026-04-26T10:55:34.57Z</time></trkpt><trkpt lat="43.104378" lon="12.4811364"><ele>196.14285714285714</ele><time>2026-04-26T10:55:35.545Z</time></trkpt><trkpt lat="43.1043794" lon="12.4810368"><ele>196.0</ele><time>2026-04-26T10:55:36.549Z</time></trkpt><trkpt lat="43.1043809" lon="12.4809373"><ele>196.33333333333331</ele><time>2026-04-26T10:55:37.562Z</time></trkpt><trkpt lat="43.1043804" lon="12.4808428"><ele>196.66666666666666</ele><time>2026-04-26T10:55:38.533Z</time></trkpt><trkpt lat="43.1043807" lon="12.4807478"><ele>197.0</ele><time>2026-04-26T10:55:39.524Z</time></trkpt><trkpt lat="43.1043821" lon="12.4806494"><ele>197.33333333333331</ele><time>2026-04-26T10:55:40.548Z</time></trkpt><trkpt lat="43.1043822" lon="12.4805547"><ele>197.66666666666666</ele><time>2026-04-26T10:55:41.561Z</time></trkpt><trkpt lat="43.1043849" lon="12.4804417"><ele>198.0</ele><time>2026-04-26T10:55:42.755Z</time></trkpt><trkpt lat="43.1043872" lon="12.4802738"><ele>198.14285714285714</ele><time>2026-04-26T10:55:44.53Z</time></trkpt><trkpt lat="43.1043879" lon="12.4801783"><ele>198.28571428571428</ele><time>2026-04-26T10:55:45.548Z</time></trkpt><trkpt lat="43.1043857" lon="12.4800868"><ele>198.42857142857142</ele><time>2026-04-26T10:55:46.536Z</time></trkpt><trkpt lat="43.1043836" lon="12.4799897"><ele>198.57142857142856</ele><time>2026-04-26T10:55:47.622Z</time></trkpt><trkpt lat="43.1043857" lon="12.4799026"><ele>198.71428571428572</ele><time>2026-04-26T10:55:48.571Z</time></trkpt><trkpt lat="43.1043932" lon="12.4798115"><ele>198.85714285714283</ele><time>2026-04-26T10:55:49.593Z</time></trkpt><trkpt lat="43.1044006" lon="12.4797246"><ele>199.0</ele><time>2026-04-26T10:55:50.567Z</time></trkpt><trkpt lat="43.1044028" lon="12.479635"><ele>199.0</ele><time>2026-04-26T10:55:51.551Z</time></trkpt><trkpt lat="43.1044192" lon="12.4795449"><ele>199.0</ele><time>2026-04-26T10:55:52.567Z</time></trkpt><trkpt lat="43.1044444" lon="12.479373"><ele>199.0</ele><time>2026-04-26T10:55:54.56Z</time></trkpt><trkpt lat="43.1044714" lon="12.4792105"><ele>199.0</ele><time>2026-04-26T10:55:56.542Z</time></trkpt><trkpt lat="43.1045066" lon="12.4790531"><ele>199.0</ele><time>2026-04-26T10:55:58.542Z</time></trkpt><trkpt lat="43.1045477" lon="12.4788993"><ele>198.5</ele><time>2026-04-26T10:56:00.535Z</time></trkpt><trkpt lat="43.1045859" lon="12.4787399"><ele>198.0</ele><time>2026-04-26T10:56:02.553Z</time></trkpt><trkpt lat="43.104625" lon="12.4785859"><ele>197.5</ele><time>2026-04-26T10:56:04.554Z</time></trkpt><trkpt lat="43.1046621" lon="12.4784243"><ele>197.0</ele><time>2026-04-26T10:56:06.541Z</time></trkpt><trkpt lat="43.1047033" lon="12.4782593"><ele>197.00000000000003</ele><time>2026-04-26T10:56:08.551Z</time></trkpt><trkpt lat="43.1047233" lon="12.4781759"><ele>197.0</ele><time>2026-04-26T10:56:09.555Z</time></trkpt><trkpt lat="43.1047419" lon="12.4780896"><ele>197.0</ele><time>2026-04-26T10:56:10.566Z</time></trkpt><trkpt lat="43.1047824" lon="12.4779296"><ele>197.0</ele><time>2026-04-26T10:56:12.505Z</time></trkpt><trkpt lat="43.1048055" lon="12.4778415"><ele>197.00000000000003</ele><time>2026-04-26T10:56:13.562Z</time></trkpt><trkpt lat="43.1048286" lon="12.4777481"><ele>197.0</ele><time>2026-04-26T10:56:14.661Z</time></trkpt><trkpt lat="43.1048495" lon="12.4776626"><ele>196.83333333333334</ele><time>2026-04-26T10:56:15.66Z</time></trkpt><trkpt lat="43.1048954" lon="12.4775009"><ele>196.66666666666669</ele><time>2026-04-26T10:56:17.541Z</time></trkpt><trkpt lat="43.1049194" lon="12.4774115"><ele>196.5</ele><time>2026-04-26T10:56:18.578Z</time></trkpt><trkpt lat="43.1049422" lon="12.4773241"><ele>196.33333333333331</ele><time>2026-04-26T10:56:19.555Z</time></trkpt><trkpt lat="43.1049706" lon="12.4772336"><ele>196.16666666666666</ele><time>2026-04-26T10:56:20.561Z</time></trkpt><trkpt lat="43.1050024" lon="12.4771447"><ele>196.0</ele><time>2026-04-26T10:56:21.552Z</time></trkpt><trkpt lat="43.10504" lon="12.4770592"><ele>195.49999999999997</ele><time>2026-04-26T10:56:22.528Z</time></trkpt><trkpt lat="43.1050874" lon="12.4769764"><ele>195.0</ele><time>2026-04-26T10:56:23.525Z</time></trkpt><trkpt lat="43.1051406" lon="12.4768903"><ele>194.5</ele><time>2026-04-26T10:56:24.586Z</time></trkpt><trkpt lat="43.1051927" lon="12.4768151"><ele>194.0</ele><time>2026-04-26T10:56:25.558Z</time></trkpt><trkpt lat="43.1052473" lon="12.4767398"><ele>193.49999999999997</ele><time>2026-04-26T10:56:26.572Z</time></trkpt><trkpt lat="43.1053008" lon="12.4766742"><ele>193.0</ele><time>2026-04-26T10:56:27.526Z</time></trkpt><trkpt lat="43.1053589" lon="12.4766098"><ele>193.00000000000003</ele><time>2026-04-26T10:56:28.524Z</time></trkpt><trkpt lat="43.1054189" lon="12.4765435"><ele>193.0</ele><time>2026-04-26T10:56:29.565Z</time></trkpt><trkpt lat="43.1054799" lon="12.4764889"><ele>193.0</ele><time>2026-04-26T10:56:30.552Z</time></trkpt><trkpt lat="43.1055365" lon="12.4764319"><ele>193.0</ele><time>2026-04-26T10:56:31.539Z</time></trkpt><trkpt lat="43.1055924" lon="12.4763713"><ele>193.0</ele><time>2026-04-26T10:56:32.571Z</time></trkpt><trkpt lat="43.1056493" lon="12.4763198"><ele>193.00000000000003</ele><time>2026-04-26T10:56:33.569Z</time></trkpt><trkpt lat="43.1057059" lon="12.4762727"><ele>193.0</ele><time>2026-04-26T10:56:34.577Z</time></trkpt><trkpt lat="43.1057602" lon="12.4762104"><ele>192.66666666666666</ele><time>2026-04-26T10:56:35.652Z</time></trkpt><trkpt lat="43.1058674" lon="12.4761174"><ele>192.33333333333331</ele><time>2026-04-26T10:56:37.566Z</time></trkpt><trkpt lat="43.1059209" lon="12.4760639"><ele>192.0</ele><time>2026-04-26T10:56:38.565Z</time></trkpt><trkpt lat="43.1059721" lon="12.4760098"><ele>191.66666666666666</ele><time>2026-04-26T10:56:39.541Z</time></trkpt><trkpt lat="43.106026" lon="12.4759535"><ele>191.33333333333331</ele><time>2026-04-26T10:56:40.582Z</time></trkpt><trkpt lat="43.106076" lon="12.475899"><ele>191.0</ele><time>2026-04-26T10:56:41.555Z</time></trkpt><trkpt lat="43.106128" lon="12.4758464"><ele>191.0</ele><time>2026-04-26T10:56:42.526Z</time></trkpt><trkpt lat="43.1061797" lon="12.4757906"><ele>191.0</ele><time>2026-04-26T10:56:43.555Z</time></trkpt><trkpt lat="43.1062762" lon="12.4756853"><ele>191.0</ele><time>2026-04-26T10:56:45.545Z</time></trkpt><trkpt lat="43.1063727" lon="12.4755817"><ele>191.0</ele><time>2026-04-26T10:56:47.513Z</time></trkpt><trkpt lat="43.10642" lon="12.4755242"><ele>191.0</ele><time>2026-04-26T10:56:48.53Z</time></trkpt><trkpt lat="43.1064732" lon="12.4754725"><ele>191.0</ele><time>2026-04-26T10:56:49.559Z</time></trkpt><trkpt lat="43.1065263" lon="12.4754071"><ele>191.5</ele><time>2026-04-26T10:56:50.666Z</time></trkpt><trkpt lat="43.1066214" lon="12.475305"><ele>192.0</ele><time>2026-04-26T10:56:52.523Z</time></trkpt><trkpt lat="43.1066773" lon="12.4752514"><ele>192.5</ele><time>2026-04-26T10:56:53.54Z</time></trkpt><trkpt lat="43.1067328" lon="12.4752"><ele>193.0</ele><time>2026-04-26T10:56:54.547Z</time></trkpt><trkpt lat="43.1067881" lon="12.4751554"><ele>193.50000000000003</ele><time>2026-04-26T10:56:55.537Z</time></trkpt><trkpt lat="43.1068498" lon="12.4751115"><ele>194.0</ele><time>2026-04-26T10:56:56.564Z</time></trkpt><trkpt lat="43.1069086" lon="12.4750797"><ele>194.0</ele><time>2026-04-26T10:56:57.553Z</time></trkpt><trkpt lat="43.1070258" lon="12.4750451"><ele>194.0</ele><time>2026-04-26T10:56:59.552Z</time></trkpt><trkpt lat="43.1071268" lon="12.475002"><ele>194.0</ele><time>2026-04-26T10:57:01.549Z</time></trkpt><trkpt lat="43.1072185" lon="12.4749673"><ele>194.0</ele><time>2026-04-26T10:57:03.514Z</time></trkpt><trkpt lat="43.1073066" lon="12.474943"><ele>194.0</ele><time>2026-04-26T10:57:05.578Z</time></trkpt><trkpt lat="43.1073814" lon="12.4749265"><ele>194.28571428571428</ele><time>2026-04-26T10:57:07.576Z</time></trkpt><trkpt lat="43.107443" lon="12.4749038"><ele>194.57142857142858</ele><time>2026-04-26T10:57:09.553Z</time></trkpt><trkpt lat="43.1075255" lon="12.4748723"><ele>194.85714285714286</ele><time>2026-04-26T10:57:12.565Z</time></trkpt><trkpt lat="43.1076141" lon="12.4748463"><ele>195.14285714285714</ele><time>2026-04-26T10:57:15.541Z</time></trkpt><trkpt lat="43.1076782" lon="12.4748269"><ele>195.42857142857144</ele><time>2026-04-26T10:57:17.562Z</time></trkpt><trkpt lat="43.1077397" lon="12.4748074"><ele>195.71428571428572</ele><time>2026-04-26T10:57:19.559Z</time></trkpt><trkpt lat="43.1078022" lon="12.4747864"><ele>196.0</ele><time>2026-04-26T10:57:21.552Z</time></trkpt><trkpt lat="43.107889" lon="12.4747544"><ele>195.99999999999997</ele><time>2026-04-26T10:57:24.562Z</time></trkpt><trkpt lat="43.1079666" lon="12.4747135"><ele>196.0</ele><time>2026-04-26T10:57:27.523Z</time></trkpt><trkpt lat="43.1080419" lon="12.4746488"><ele>196.0</ele><time>2026-04-26T10:57:30.565Z</time></trkpt><trkpt lat="43.1081014" lon="12.4745721"><ele>196.0</ele><time>2026-04-26T10:57:33.666Z</time></trkpt><trkpt lat="43.1081492" lon="12.4744879"><ele>195.99999999999997</ele><time>2026-04-26T10:57:36.586Z</time></trkpt><trkpt lat="43.1081836" lon="12.4743866"><ele>196.0</ele><time>2026-04-26T10:57:39.562Z</time></trkpt><trkpt lat="43.108217" lon="12.4742807"><ele>195.66666666666666</ele><time>2026-04-26T10:57:42.586Z</time></trkpt><trkpt lat="43.1082376" lon="12.4741682"><ele>195.33333333333331</ele><time>2026-04-26T10:57:45.534Z</time></trkpt><trkpt lat="43.108243" lon="12.474045"><ele>195.0</ele><time>2026-04-26T10:57:48.564Z</time></trkpt><trkpt lat="43.1082293" lon="12.4739214"><ele>194.66666666666669</ele><time>2026-04-26T10:57:51.581Z</time></trkpt><trkpt lat="43.1082056" lon="12.473802"><ele>194.33333333333334</ele><time>2026-04-26T10:57:54.588Z</time></trkpt><trkpt lat="43.1081744" lon="12.4736836"><ele>194.0</ele><time>2026-04-26T10:57:57.564Z</time></trkpt><trkpt lat="43.1081592" lon="12.4735953"><ele>193.79999999999998</ele><time>2026-04-26T10:57:59.558Z</time></trkpt><trkpt lat="43.1081418" lon="12.4734938"><ele>193.6</ele><time>2026-04-26T10:58:01.585Z</time></trkpt><trkpt lat="43.1081143" lon="12.4733854"><ele>193.4</ele><time>2026-04-26T10:58:03.551Z</time></trkpt><trkpt lat="43.108092" lon="12.4732602"><ele>193.2</ele><time>2026-04-26T10:58:05.559Z</time></trkpt><trkpt lat="43.1080609" lon="12.4731328"><ele>193.0</ele><time>2026-04-26T10:58:07.565Z</time></trkpt><trkpt lat="43.1080325" lon="12.4729993"><ele>193.4</ele><time>2026-04-26T10:58:09.564Z</time></trkpt><trkpt lat="43.108013" lon="12.4728551"><ele>193.8</ele><time>2026-04-26T10:58:11.587Z</time></trkpt><trkpt lat="43.1079824" lon="12.472708"><ele>194.2</ele><time>2026-04-26T10:58:13.566Z</time></trkpt><trkpt lat="43.1079671" lon="12.4726224"><ele>194.6</ele><time>2026-04-26T10:58:14.643Z</time></trkpt><trkpt lat="43.1079356" lon="12.4724529"><ele>195.0</ele><time>2026-04-26T10:58:16.549Z</time></trkpt><trkpt lat="43.1079203" lon="12.4723607"><ele>195.0</ele><time>2026-04-26T10:58:17.524Z</time></trkpt><trkpt lat="43.1079011" lon="12.4722611"><ele>195.0</ele><time>2026-04-26T10:58:18.546Z</time></trkpt><trkpt lat="43.1078855" lon="12.4721612"><ele>195.0</ele><time>2026-04-26T10:58:19.535Z</time></trkpt><trkpt lat="43.107873" lon="12.4720593"><ele>195.0</ele><time>2026-04-26T10:58:20.519Z</time></trkpt><trkpt lat="43.1078559" lon="12.4719505"><ele>195.0</ele><time>2026-04-26T10:58:21.539Z</time></trkpt><trkpt lat="43.1078467" lon="12.4718401"><ele>195.0</ele><time>2026-04-26T10:58:22.532Z</time></trkpt><trkpt lat="43.1078335" lon="12.4717155"><ele>194.8</ele><time>2026-04-26T10:58:23.662Z</time></trkpt><trkpt lat="43.1078108" lon="12.4714919"><ele>194.6</ele><time>2026-04-26T10:58:25.584Z</time></trkpt><trkpt lat="43.1078008" lon="12.4713748"><ele>194.39999999999998</ele><time>2026-04-26T10:58:26.558Z</time></trkpt><trkpt lat="43.107789" lon="12.4712529"><ele>194.2</ele><time>2026-04-26T10:58:27.56Z</time></trkpt><trkpt lat="43.1077769" lon="12.4711277"><ele>194.0</ele><time>2026-04-26T10:58:28.567Z</time></trkpt><trkpt lat="43.1077696" lon="12.4710039"><ele>193.0</ele><time>2026-04-26T10:58:29.525Z</time></trkpt><trkpt lat="43.1077605" lon="12.4708682"><ele>192.0</ele><time>2026-04-26T10:58:30.555Z</time></trkpt><trkpt lat="43.1077491" lon="12.4707329"><ele>191.0</ele><time>2026-04-26T10:58:31.565Z</time></trkpt><trkpt lat="43.1077377" lon="12.4706006"><ele>190.0</ele><time>2026-04-26T10:58:32.552Z</time></trkpt><trkpt lat="43.1077242" lon="12.4704698"><ele>189.0</ele><time>2026-04-26T10:58:33.522Z</time></trkpt><trkpt lat="43.1077079" lon="12.47033"><ele>188.79999999999998</ele><time>2026-04-26T10:58:34.554Z</time></trkpt><trkpt lat="43.1076953" lon="12.4701971"><ele>188.6</ele><time>2026-04-26T10:58:35.522Z</time></trkpt><trkpt lat="43.1076771" lon="12.4700617"><ele>188.4</ele><time>2026-04-26T10:58:36.559Z</time></trkpt><trkpt lat="43.1076605" lon="12.4699335"><ele>188.2</ele><time>2026-04-26T10:58:37.554Z</time></trkpt><trkpt lat="43.1076428" lon="12.4698073"><ele>188.0</ele><time>2026-04-26T10:58:38.551Z</time></trkpt><trkpt lat="43.1076237" lon="12.4696864"><ele>188.16666666666666</ele><time>2026-04-26T10:58:39.548Z</time></trkpt><trkpt lat="43.1076077" lon="12.4695673"><ele>188.33333333333331</ele><time>2026-04-26T10:58:40.558Z</time></trkpt><trkpt lat="43.1075904" lon="12.4694529"><ele>188.5</ele><time>2026-04-26T10:58:41.55Z</time></trkpt><trkpt lat="43.1075644" lon="12.4693421"><ele>188.66666666666666</ele><time>2026-04-26T10:58:42.55Z</time></trkpt><trkpt lat="43.1075498" lon="12.4692307"><ele>188.83333333333334</ele><time>2026-04-26T10:58:43.557Z</time></trkpt><trkpt lat="43.1075322" lon="12.4691194"><ele>189.0</ele><time>2026-04-26T10:58:44.561Z</time></trkpt><trkpt lat="43.1075168" lon="12.4690104"><ele>189.0</ele><time>2026-04-26T10:58:45.57Z</time></trkpt><trkpt lat="43.1074969" lon="12.4688975"><ele>189.0</ele><time>2026-04-26T10:58:46.638Z</time></trkpt><trkpt lat="43.1074755" lon="12.4688024"><ele>189.0</ele><time>2026-04-26T10:58:47.557Z</time></trkpt><trkpt lat="43.1074532" lon="12.468699"><ele>189.0</ele><time>2026-04-26T10:58:48.552Z</time></trkpt><trkpt lat="43.1074293" lon="12.4685947"><ele>189.0</ele><time>2026-04-26T10:58:49.558Z</time></trkpt><trkpt lat="43.1074081" lon="12.4684823"><ele>189.0</ele><time>2026-04-26T10:58:50.651Z</time></trkpt><trkpt lat="43.1073644" lon="12.4682984"><ele>189.0</ele><time>2026-04-26T10:58:52.521Z</time></trkpt><trkpt lat="43.1073415" lon="12.4682023"><ele>189.0</ele><time>2026-04-26T10:58:53.516Z</time></trkpt><trkpt lat="43.107321" lon="12.4681067"><ele>189.0</ele><time>2026-04-26T10:58:54.5Z</time></trkpt><trkpt lat="43.107294" lon="12.4680113"><ele>189.0</ele><time>2026-04-26T10:58:55.537Z</time></trkpt><trkpt lat="43.107268" lon="12.4679229"><ele>189.0</ele><time>2026-04-26T10:58:56.497Z</time></trkpt><trkpt lat="43.1072453" lon="12.4678299"><ele>189.0</ele><time>2026-04-26T10:58:57.503Z</time></trkpt><trkpt lat="43.1072221" lon="12.4677378"><ele>189.0</ele><time>2026-04-26T10:58:58.499Z</time></trkpt><trkpt lat="43.1071999" lon="12.4676445"><ele>189.0</ele><time>2026-04-26T10:58:59.515Z</time></trkpt><trkpt lat="43.1071757" lon="12.4675504"><ele>189.0</ele><time>2026-04-26T10:59:00.53Z</time></trkpt><trkpt lat="43.1071594" lon="12.4674585"><ele>189.0</ele><time>2026-04-26T10:59:01.508Z</time></trkpt><trkpt lat="43.1071391" lon="12.4673634"><ele>189.0</ele><time>2026-04-26T10:59:02.526Z</time></trkpt><trkpt lat="43.1071202" lon="12.467273"><ele>189.0</ele><time>2026-04-26T10:59:03.501Z</time></trkpt><trkpt lat="43.1071021" lon="12.4671765"><ele>189.0</ele><time>2026-04-26T10:59:04.533Z</time></trkpt><trkpt lat="43.1070881" lon="12.4670877"><ele>189.0</ele><time>2026-04-26T10:59:05.485Z</time></trkpt><trkpt lat="43.1070721" lon="12.4669984"><ele>188.85714285714286</ele><time>2026-04-26T10:59:06.495Z</time></trkpt><trkpt lat="43.107055" lon="12.4669102"><ele>188.71428571428572</ele><time>2026-04-26T10:59:07.49Z</time></trkpt><trkpt lat="43.1070396" lon="12.4668227"><ele>188.57142857142856</ele><time>2026-04-26T10:59:08.486Z</time></trkpt><trkpt lat="43.1070235" lon="12.4667345"><ele>188.42857142857144</ele><time>2026-04-26T10:59:09.493Z</time></trkpt><trkpt lat="43.1070032" lon="12.4666512"><ele>188.28571428571428</ele><time>2026-04-26T10:59:10.494Z</time></trkpt><trkpt lat="43.1069893" lon="12.4665658"><ele>188.14285714285714</ele><time>2026-04-26T10:59:11.489Z</time></trkpt><trkpt lat="43.1069745" lon="12.4664744"><ele>188.0</ele><time>2026-04-26T10:59:12.517Z</time></trkpt><trkpt lat="43.1069598" lon="12.4663892"><ele>188.0</ele><time>2026-04-26T10:59:13.486Z</time></trkpt><trkpt lat="43.1069429" lon="12.4662924"><ele>188.0</ele><time>2026-04-26T10:59:14.607Z</time></trkpt><trkpt lat="43.1069103" lon="12.4661243"><ele>188.0</ele><time>2026-04-26T10:59:16.58Z</time></trkpt><trkpt lat="43.1068944" lon="12.4660405"><ele>188.0</ele><time>2026-04-26T10:59:17.591Z</time></trkpt><trkpt lat="43.1068648" lon="12.465876"><ele>188.0</ele><time>2026-04-26T10:59:19.586Z</time></trkpt><trkpt lat="43.1068447" lon="12.4657235"><ele>187.8</ele><time>2026-04-26T10:59:21.539Z</time></trkpt><trkpt lat="43.1068286" lon="12.4655672"><ele>187.60000000000002</ele><time>2026-04-26T10:59:23.606Z</time></trkpt><trkpt lat="43.1068137" lon="12.4654182"><ele>187.39999999999998</ele><time>2026-04-26T10:59:25.564Z</time></trkpt><trkpt lat="43.1067997" lon="12.4652659"><ele>187.2</ele><time>2026-04-26T10:59:27.58Z</time></trkpt><trkpt lat="43.1067877" lon="12.4651206"><ele>187.0</ele><time>2026-04-26T10:59:29.536Z</time></trkpt><trkpt lat="43.106772" lon="12.4649727"><ele>187.0</ele><time>2026-04-26T10:59:31.574Z</time></trkpt><trkpt lat="43.1067592" lon="12.4648342"><ele>187.0</ele><time>2026-04-26T10:59:33.576Z</time></trkpt><trkpt lat="43.1067524" lon="12.4646983"><ele>187.0</ele><time>2026-04-26T10:59:35.557Z</time></trkpt><trkpt lat="43.1067471" lon="12.4645661"><ele>187.0</ele><time>2026-04-26T10:59:37.555Z</time></trkpt><trkpt lat="43.1067451" lon="12.4644297"><ele>187.0</ele><time>2026-04-26T10:59:39.577Z</time></trkpt><trkpt lat="43.1067573" lon="12.4642889"><ele>187.39999999999998</ele><time>2026-04-26T10:59:41.659Z</time></trkpt><trkpt lat="43.1067785" lon="12.4641642"><ele>187.79999999999998</ele><time>2026-04-26T10:59:43.566Z</time></trkpt><trkpt lat="43.1068076" lon="12.4640378"><ele>188.2</ele><time>2026-04-26T10:59:45.539Z</time></trkpt><trkpt lat="43.106846" lon="12.4639117"><ele>188.6</ele><time>2026-04-26T10:59:47.565Z</time></trkpt><trkpt lat="43.1068928" lon="12.4637947"><ele>189.0</ele><time>2026-04-26T10:59:49.536Z</time></trkpt><trkpt lat="43.1069416" lon="12.4636769"><ele>189.0</ele><time>2026-04-26T10:59:51.576Z</time></trkpt><trkpt lat="43.1069949" lon="12.4635568"><ele>189.0</ele><time>2026-04-26T10:59:53.661Z</time></trkpt><trkpt lat="43.1070418" lon="12.4634513"><ele>189.0</ele><time>2026-04-26T10:59:55.526Z</time></trkpt><trkpt lat="43.1070893" lon="12.4633349"><ele>189.0</ele><time>2026-04-26T10:59:57.562Z</time></trkpt><trkpt lat="43.1071387" lon="12.4632276"><ele>189.0</ele><time>2026-04-26T10:59:59.557Z</time></trkpt><trkpt lat="43.1071921" lon="12.4631175"><ele>189.0</ele><time>2026-04-26T11:00:01.559Z</time></trkpt><trkpt lat="43.1072425" lon="12.4630048"><ele>189.0</ele><time>2026-04-26T11:00:03.538Z</time></trkpt><trkpt lat="43.1072919" lon="12.4628925"><ele>189.0</ele><time>2026-04-26T11:00:05.554Z</time></trkpt><trkpt lat="43.1073404" lon="12.4627787"><ele>189.0</ele><time>2026-04-26T11:00:07.557Z</time></trkpt><trkpt lat="43.1073839" lon="12.4626689"><ele>189.0</ele><time>2026-04-26T11:00:09.538Z</time></trkpt><trkpt lat="43.1074339" lon="12.4625518"><ele>189.42857142857142</ele><time>2026-04-26T11:00:11.633Z</time></trkpt><trkpt lat="43.1074753" lon="12.4624501"><ele>189.85714285714286</ele><time>2026-04-26T11:00:13.662Z</time></trkpt><trkpt lat="43.107513" lon="12.4623622"><ele>190.28571428571428</ele><time>2026-04-26T11:00:15.556Z</time></trkpt><trkpt lat="43.1075506" lon="12.4622729"><ele>190.71428571428572</ele><time>2026-04-26T11:00:17.586Z</time></trkpt><trkpt lat="43.1075792" lon="12.462186"><ele>191.14285714285714</ele><time>2026-04-26T11:00:19.549Z</time></trkpt><trkpt lat="43.1076201" lon="12.4621135"><ele>191.57142857142856</ele><time>2026-04-26T11:00:21.574Z</time></trkpt><trkpt lat="43.1076627" lon="12.4620371"><ele>192.0</ele><time>2026-04-26T11:00:23.554Z</time></trkpt><trkpt lat="43.1077007" lon="12.4619494"><ele>192.0</ele><time>2026-04-26T11:00:25.563Z</time></trkpt><trkpt lat="43.1077312" lon="12.4618561"><ele>192.0</ele><time>2026-04-26T11:00:27.561Z</time></trkpt><trkpt lat="43.1077591" lon="12.4617554"><ele>192.0</ele><time>2026-04-26T11:00:29.541Z</time></trkpt><trkpt lat="43.1077978" lon="12.4616466"><ele>192.0</ele><time>2026-04-26T11:00:31.581Z</time></trkpt><trkpt lat="43.1078261" lon="12.4614994"><ele>192.0</ele><time>2026-04-26T11:00:34.566Z</time></trkpt><trkpt lat="43.107844" lon="12.4613928"><ele>192.0</ele><time>2026-04-26T11:00:36.58Z</time></trkpt><trkpt lat="43.107884" lon="12.4612429"><ele>191.83333333333334</ele><time>2026-04-26T11:00:39.576Z</time></trkpt><trkpt lat="43.1079049" lon="12.4611426"><ele>191.66666666666666</ele><time>2026-04-26T11:00:41.568Z</time></trkpt><trkpt lat="43.1079349" lon="12.4610412"><ele>191.5</ele><time>2026-04-26T11:00:43.587Z</time></trkpt><trkpt lat="43.1079619" lon="12.4609395"><ele>191.33333333333331</ele><time>2026-04-26T11:00:45.563Z</time></trkpt><trkpt lat="43.1079867" lon="12.4608271"><ele>191.16666666666666</ele><time>2026-04-26T11:00:47.55Z</time></trkpt><trkpt lat="43.108012" lon="12.4607107"><ele>191.0</ele><time>2026-04-26T11:00:49.577Z</time></trkpt><trkpt lat="43.1080358" lon="12.460599"><ele>191.0</ele><time>2026-04-26T11:00:51.569Z</time></trkpt><trkpt lat="43.1080599" lon="12.460485"><ele>191.0</ele><time>2026-04-26T11:00:53.578Z</time></trkpt><trkpt lat="43.1080875" lon="12.4603707"><ele>191.0</ele><time>2026-04-26T11:00:55.546Z</time></trkpt><trkpt lat="43.1081065" lon="12.4602537"><ele>191.0</ele><time>2026-04-26T11:00:57.57Z</time></trkpt><trkpt lat="43.1081325" lon="12.4601406"><ele>191.0</ele><time>2026-04-26T11:00:59.558Z</time></trkpt><trkpt lat="43.1081622" lon="12.4600222"><ele>191.0</ele><time>2026-04-26T11:01:01.558Z</time></trkpt><trkpt lat="43.10819" lon="12.4599097"><ele>191.0</ele><time>2026-04-26T11:01:03.567Z</time></trkpt><trkpt lat="43.1082097" lon="12.4597873"><ele>191.0</ele><time>2026-04-26T11:01:05.567Z</time></trkpt><trkpt lat="43.1082348" lon="12.4596721"><ele>191.0</ele><time>2026-04-26T11:01:07.572Z</time></trkpt><trkpt lat="43.108262" lon="12.4595609"><ele>191.0</ele><time>2026-04-26T11:01:09.588Z</time></trkpt><trkpt lat="43.1082847" lon="12.459453"><ele>191.0</ele><time>2026-04-26T11:01:11.577Z</time></trkpt><trkpt lat="43.1083153" lon="12.4592931"><ele>191.0</ele><time>2026-04-26T11:01:14.566Z</time></trkpt><trkpt lat="43.1083296" lon="12.4591864"><ele>191.0</ele><time>2026-04-26T11:01:16.565Z</time></trkpt><trkpt lat="43.108327" lon="12.4590744"><ele>191.0</ele><time>2026-04-26T11:01:18.571Z</time></trkpt><trkpt lat="43.1083253" lon="12.4589075"><ele>191.0</ele><time>2026-04-26T11:01:21.55Z</time></trkpt><trkpt lat="43.1083113" lon="12.4587389"><ele>191.0</ele><time>2026-04-26T11:01:24.586Z</time></trkpt><trkpt lat="43.108302" lon="12.4586296"><ele>191.0</ele><time>2026-04-26T11:01:26.554Z</time></trkpt><trkpt lat="43.1082833" lon="12.4585202"><ele>191.0</ele><time>2026-04-26T11:01:28.543Z</time></trkpt><trkpt lat="43.108267" lon="12.4584068"><ele>191.0</ele><time>2026-04-26T11:01:30.589Z</time></trkpt><trkpt lat="43.1082617" lon="12.4582921"><ele>191.0</ele><time>2026-04-26T11:01:32.571Z</time></trkpt><trkpt lat="43.1082461" lon="12.4581865"><ele>191.0</ele><time>2026-04-26T11:01:34.542Z</time></trkpt><trkpt lat="43.1082552" lon="12.4580726"><ele>191.0</ele><time>2026-04-26T11:01:36.536Z</time></trkpt><trkpt lat="43.1082705" lon="12.4579703"><ele>190.66666666666666</ele><time>2026-04-26T11:01:38.592Z</time></trkpt><trkpt lat="43.1082817" lon="12.4578628"><ele>190.33333333333331</ele><time>2026-04-26T11:01:40.669Z</time></trkpt><trkpt lat="43.1083058" lon="12.4577669"><ele>190.0</ele><time>2026-04-26T11:01:42.561Z</time></trkpt><trkpt lat="43.1083206" lon="12.4576722"><ele>189.66666666666666</ele><time>2026-04-26T11:01:44.535Z</time></trkpt><trkpt lat="43.1083324" lon="12.4575695"><ele>189.33333333333334</ele><time>2026-04-26T11:01:46.566Z</time></trkpt><trkpt lat="43.1083561" lon="12.4574669"><ele>189.0</ele><time>2026-04-26T11:01:48.593Z</time></trkpt><trkpt lat="43.1083794" lon="12.4573318"><ele>189.0</ele><time>2026-04-26T11:01:51.588Z</time></trkpt><trkpt lat="43.1083933" lon="12.45724"><ele>189.0</ele><time>2026-04-26T11:01:53.537Z</time></trkpt><trkpt lat="43.1084124" lon="12.4571297"><ele>189.0</ele><time>2026-04-26T11:01:55.712Z</time></trkpt><trkpt lat="43.1084244" lon="12.4570384"><ele>189.0</ele><time>2026-04-26T11:01:57.572Z</time></trkpt><trkpt lat="43.1084386" lon="12.456945"><ele>189.0</ele><time>2026-04-26T11:01:59.531Z</time></trkpt><trkpt lat="43.1084528" lon="12.4568498"><ele>189.0</ele><time>2026-04-26T11:02:01.558Z</time></trkpt><trkpt lat="43.1084716" lon="12.4567495"><ele>189.0</ele><time>2026-04-26T11:02:03.656Z</time></trkpt><trkpt lat="43.1084893" lon="12.4566578"><ele>189.16666666666666</ele><time>2026-04-26T11:02:05.565Z</time></trkpt><trkpt lat="43.1085062" lon="12.456551"><ele>189.33333333333334</ele><time>2026-04-26T11:02:07.666Z</time></trkpt><trkpt lat="43.1085192" lon="12.4564474"><ele>189.5</ele><time>2026-04-26T11:02:09.546Z</time></trkpt><trkpt lat="43.1085417" lon="12.4563438"><ele>189.66666666666669</ele><time>2026-04-26T11:02:11.575Z</time></trkpt><trkpt lat="43.1085592" lon="12.4562396"><ele>189.83333333333334</ele><time>2026-04-26T11:02:13.559Z</time></trkpt><trkpt lat="43.1085856" lon="12.4561271"><ele>190.0</ele><time>2026-04-26T11:02:15.572Z</time></trkpt><trkpt lat="43.108603" lon="12.4560287"><ele>190.0</ele><time>2026-04-26T11:02:17.528Z</time></trkpt><trkpt lat="43.1086131" lon="12.4559182"><ele>190.0</ele><time>2026-04-26T11:02:19.555Z</time></trkpt><trkpt lat="43.1086364" lon="12.455813"><ele>190.0</ele><time>2026-04-26T11:02:21.567Z</time></trkpt><trkpt lat="43.108653" lon="12.4557062"><ele>190.0</ele><time>2026-04-26T11:02:23.53Z</time></trkpt><trkpt lat="43.1086637" lon="12.4555957"><ele>190.0</ele><time>2026-04-26T11:02:25.564Z</time></trkpt><trkpt lat="43.1086835" lon="12.4554952"><ele>190.0</ele><time>2026-04-26T11:02:27.539Z</time></trkpt><trkpt lat="43.1087003" lon="12.4553958"><ele>190.0</ele><time>2026-04-26T11:02:29.564Z</time></trkpt><trkpt lat="43.1087347" lon="12.4553193"><ele>190.0</ele><time>2026-04-26T11:02:31.561Z</time></trkpt><trkpt lat="43.108799" lon="12.4552821"><ele>190.0</ele><time>2026-04-26T11:02:33.593Z</time></trkpt><trkpt lat="43.1088624" lon="12.4553039"><ele>190.0</ele><time>2026-04-26T11:02:35.576Z</time></trkpt><trkpt lat="43.108926" lon="12.4553046"><ele>190.0</ele><time>2026-04-26T11:02:37.561Z</time></trkpt><trkpt lat="43.1089932" lon="12.4553019"><ele>190.0</ele><time>2026-04-26T11:02:39.541Z</time></trkpt><trkpt lat="43.1090685" lon="12.4553132"><ele>190.0</ele><time>2026-04-26T11:02:41.561Z</time></trkpt><trkpt lat="43.1091471" lon="12.4553208"><ele>190.0</ele><time>2026-04-26T11:02:43.678Z</time></trkpt><trkpt lat="43.1092201" lon="12.4553274"><ele>190.0</ele><time>2026-04-26T11:02:45.579Z</time></trkpt><trkpt lat="43.1092968" lon="12.4553267"><ele>190.0</ele><time>2026-04-26T11:02:47.571Z</time></trkpt><trkpt lat="43.109373" lon="12.4553267"><ele>190.0</ele><time>2026-04-26T11:02:49.577Z</time></trkpt><trkpt lat="43.1094549" lon="12.4553304"><ele>190.0</ele><time>2026-04-26T11:02:51.674Z</time></trkpt><trkpt lat="43.1095279" lon="12.4553309"><ele>190.0</ele><time>2026-04-26T11:02:53.576Z</time></trkpt><trkpt lat="43.1096008" lon="12.4553201"><ele>190.0</ele><time>2026-04-26T11:02:55.563Z</time></trkpt><trkpt lat="43.1096846" lon="12.455324"><ele>190.0</ele><time>2026-04-26T11:02:57.563Z</time></trkpt><trkpt lat="43.1097664" lon="12.4553233"><ele>190.0</ele><time>2026-04-26T11:02:59.567Z</time></trkpt><trkpt lat="43.1098456" lon="12.4553204"><ele>190.0</ele><time>2026-04-26T11:03:01.577Z</time></trkpt><trkpt lat="43.1099271" lon="12.4553078"><ele>190.0</ele><time>2026-04-26T11:03:03.568Z</time></trkpt><trkpt lat="43.1100456" lon="12.4553044"><ele>190.0</ele><time>2026-04-26T11:03:06.554Z</time></trkpt><trkpt lat="43.1101279" lon="12.455311"><ele>190.33333333333334</ele><time>2026-04-26T11:03:08.567Z</time></trkpt><trkpt lat="43.110215" lon="12.455307"><ele>190.66666666666669</ele><time>2026-04-26T11:03:10.643Z</time></trkpt><trkpt lat="43.1102919" lon="12.4553118"><ele>191.0</ele><time>2026-04-26T11:03:12.526Z</time></trkpt><trkpt lat="43.110407" lon="12.4552972"><ele>191.33333333333334</ele><time>2026-04-26T11:03:15.56Z</time></trkpt><trkpt lat="43.1104886" lon="12.4552885"><ele>191.66666666666666</ele><time>2026-04-26T11:03:17.576Z</time></trkpt><trkpt lat="43.1105676" lon="12.4552798"><ele>192.0</ele><time>2026-04-26T11:03:19.546Z</time></trkpt><trkpt lat="43.1106447" lon="12.4552631"><ele>192.0</ele><time>2026-04-26T11:03:21.554Z</time></trkpt><trkpt lat="43.1107238" lon="12.4552474"><ele>192.0</ele><time>2026-04-26T11:03:23.543Z</time></trkpt><trkpt lat="43.1108059" lon="12.4552359"><ele>192.0</ele><time>2026-04-26T11:03:25.521Z</time></trkpt><trkpt lat="43.1108915" lon="12.4552334"><ele>192.0</ele><time>2026-04-26T11:03:27.541Z</time></trkpt><trkpt lat="43.1109753" lon="12.4552324"><ele>192.0</ele><time>2026-04-26T11:03:29.61Z</time></trkpt><trkpt lat="43.111054" lon="12.4552275"><ele>192.0</ele><time>2026-04-26T11:03:31.655Z</time></trkpt><trkpt lat="43.1111321" lon="12.4552265"><ele>192.0</ele><time>2026-04-26T11:03:33.609Z</time></trkpt><trkpt lat="43.1112095" lon="12.4552215"><ele>192.0</ele><time>2026-04-26T11:03:35.567Z</time></trkpt><trkpt lat="43.1112929" lon="12.455219"><ele>192.0</ele><time>2026-04-26T11:03:37.58Z</time></trkpt><trkpt lat="43.1113785" lon="12.4552122"><ele>192.0</ele><time>2026-04-26T11:03:39.683Z</time></trkpt><trkpt lat="43.1114558" lon="12.4552011"><ele>192.0</ele><time>2026-04-26T11:03:41.577Z</time></trkpt><trkpt lat="43.1115357" lon="12.4551967"><ele>192.0</ele><time>2026-04-26T11:03:43.589Z</time></trkpt><trkpt lat="43.1116124" lon="12.4552008"><ele>192.16666666666666</ele><time>2026-04-26T11:03:45.543Z</time></trkpt><trkpt lat="43.1116902" lon="12.4551952"><ele>192.33333333333331</ele><time>2026-04-26T11:03:47.566Z</time></trkpt><trkpt lat="43.1117634" lon="12.4551951"><ele>192.5</ele><time>2026-04-26T11:03:49.694Z</time></trkpt><trkpt lat="43.1118492" lon="12.4551859"><ele>192.66666666666666</ele><time>2026-04-26T11:03:52.56Z</time></trkpt><trkpt lat="43.1119305" lon="12.4551601"><ele>192.83333333333331</ele><time>2026-04-26T11:03:55.568Z</time></trkpt><trkpt lat="43.1119995" lon="12.4551343"><ele>193.0</ele><time>2026-04-26T11:03:58.568Z</time></trkpt><trkpt lat="43.112062" lon="12.4550816"><ele>193.00000000000003</ele><time>2026-04-26T11:04:01.574Z</time></trkpt><trkpt lat="43.1121384" lon="12.4550305"><ele>193.0</ele><time>2026-04-26T11:04:04.554Z</time></trkpt><trkpt lat="43.1121962" lon="12.4549833"><ele>193.0</ele><time>2026-04-26T11:04:06.573Z</time></trkpt><trkpt lat="43.1122629" lon="12.4549309"><ele>193.0</ele><time>2026-04-26T11:04:08.663Z</time></trkpt><trkpt lat="43.11228" lon="12.4548406"><ele>193.0</ele><time>2026-04-26T11:04:10.566Z</time></trkpt><trkpt lat="43.1122827" lon="12.4547429"><ele>193.00000000000003</ele><time>2026-04-26T11:04:12.567Z</time></trkpt><trkpt lat="43.1122529" lon="12.4546559"><ele>193.0</ele><time>2026-04-26T11:04:14.556Z</time></trkpt><trkpt lat="43.112232" lon="12.454562"><ele>193.16666666666666</ele><time>2026-04-26T11:04:16.574Z</time></trkpt><trkpt lat="43.1122147" lon="12.4544623"><ele>193.33333333333331</ele><time>2026-04-26T11:04:18.721Z</time></trkpt><trkpt lat="43.1121817" lon="12.4543767"><ele>193.5</ele><time>2026-04-26T11:04:20.61Z</time></trkpt><trkpt lat="43.1121405" lon="12.4542839"><ele>193.66666666666669</ele><time>2026-04-26T11:04:22.55Z</time></trkpt><trkpt lat="43.1121091" lon="12.4541893"><ele>193.83333333333334</ele><time>2026-04-26T11:04:24.55Z</time></trkpt><trkpt lat="43.1120726" lon="12.4540858"><ele>194.0</ele><time>2026-04-26T11:04:26.676Z</time></trkpt><trkpt lat="43.1120323" lon="12.4539962"><ele>194.00000000000003</ele><time>2026-04-26T11:04:28.576Z</time></trkpt><trkpt lat="43.1119992" lon="12.4539018"><ele>194.0</ele><time>2026-04-26T11:04:30.563Z</time></trkpt><trkpt lat="43.1119633" lon="12.4538032"><ele>194.0</ele><time>2026-04-26T11:04:32.554Z</time></trkpt><trkpt lat="43.1119168" lon="12.4537034"><ele>194.0</ele><time>2026-04-26T11:04:34.548Z</time></trkpt><trkpt lat="43.1118729" lon="12.453603"><ele>194.00000000000003</ele><time>2026-04-26T11:04:36.538Z</time></trkpt><trkpt lat="43.1118351" lon="12.4535155"><ele>194.0</ele><time>2026-04-26T11:04:38.573Z</time></trkpt><trkpt lat="43.1117938" lon="12.4534138"><ele>194.00000000000003</ele><time>2026-04-26T11:04:40.562Z</time></trkpt><trkpt lat="43.1117519" lon="12.4533123"><ele>194.0</ele><time>2026-04-26T11:04:42.568Z</time></trkpt><trkpt lat="43.1117066" lon="12.4532084"><ele>194.0</ele><time>2026-04-26T11:04:44.578Z</time></trkpt><trkpt lat="43.1116633" lon="12.4531113"><ele>194.0</ele><time>2026-04-26T11:04:46.54Z</time></trkpt><trkpt lat="43.1116233" lon="12.4530165"><ele>194.00000000000003</ele><time>2026-04-26T11:04:48.558Z</time></trkpt><trkpt lat="43.1115927" lon="12.4529335"><ele>194.0</ele><time>2026-04-26T11:04:50.613Z</time></trkpt><trkpt lat="43.111572" lon="12.452852"><ele>193.83333333333334</ele><time>2026-04-26T11:04:52.604Z</time></trkpt><trkpt lat="43.1116076" lon="12.4527367"><ele>193.66666666666669</ele><time>2026-04-26T11:04:55.562Z</time></trkpt><trkpt lat="43.1116656" lon="12.4526821"><ele>193.5</ele><time>2026-04-26T11:04:57.571Z</time></trkpt><trkpt lat="43.1117206" lon="12.452622"><ele>193.33333333333331</ele><time>2026-04-26T11:04:59.607Z</time></trkpt><trkpt lat="43.1117773" lon="12.4525633"><ele>193.16666666666666</ele><time>2026-04-26T11:05:01.575Z</time></trkpt><trkpt lat="43.1118367" lon="12.4525056"><ele>193.0</ele><time>2026-04-26T11:05:03.6Z</time></trkpt><trkpt lat="43.1118937" lon="12.4524408"><ele>192.99999999999997</ele><time>2026-04-26T11:05:05.56Z</time></trkpt><trkpt lat="43.1119592" lon="12.452381"><ele>193.0</ele><time>2026-04-26T11:05:07.55Z</time></trkpt><trkpt lat="43.1120229" lon="12.4523167"><ele>193.0</ele><time>2026-04-26T11:05:09.613Z</time></trkpt><trkpt lat="43.1120818" lon="12.4522558"><ele>193.0</ele><time>2026-04-26T11:05:11.559Z</time></trkpt><trkpt lat="43.1121437" lon="12.4521851"><ele>192.99999999999997</ele><time>2026-04-26T11:05:13.594Z</time></trkpt><trkpt lat="43.1122056" lon="12.4521162"><ele>193.0</ele><time>2026-04-26T11:05:15.572Z</time></trkpt><trkpt lat="43.1122717" lon="12.4520491"><ele>193.14285714285717</ele><time>2026-04-26T11:05:17.587Z</time></trkpt><trkpt lat="43.1123383" lon="12.4519869"><ele>193.28571428571428</ele><time>2026-04-26T11:05:19.588Z</time></trkpt><trkpt lat="43.1123978" lon="12.4519256"><ele>193.42857142857144</ele><time>2026-04-26T11:05:21.582Z</time></trkpt><trkpt lat="43.1124529" lon="12.4518638"><ele>193.57142857142858</ele><time>2026-04-26T11:05:23.573Z</time></trkpt><trkpt lat="43.1125072" lon="12.4518079"><ele>193.71428571428572</ele><time>2026-04-26T11:05:25.583Z</time></trkpt><trkpt lat="43.112561" lon="12.4517488"><ele>193.85714285714286</ele><time>2026-04-26T11:05:27.59Z</time></trkpt><trkpt lat="43.1126217" lon="12.4516986"><ele>194.0</ele><time>2026-04-26T11:05:29.605Z</time></trkpt><trkpt lat="43.1126765" lon="12.4516276"><ele>193.85714285714286</ele><time>2026-04-26T11:05:31.616Z</time></trkpt><trkpt lat="43.1127348" lon="12.451572"><ele>193.71428571428572</ele><time>2026-04-26T11:05:33.583Z</time></trkpt><trkpt lat="43.1127991" lon="12.4515199"><ele>193.57142857142858</ele><time>2026-04-26T11:05:35.587Z</time></trkpt><trkpt lat="43.1128576" lon="12.4514736"><ele>193.42857142857144</ele><time>2026-04-26T11:05:37.611Z</time></trkpt><trkpt lat="43.1129193" lon="12.4514496"><ele>193.28571428571428</ele><time>2026-04-26T11:05:39.641Z</time></trkpt><trkpt lat="43.1129827" lon="12.4514102"><ele>193.14285714285717</ele><time>2026-04-26T11:05:41.617Z</time></trkpt><trkpt lat="43.1130255" lon="12.4513349"><ele>193.0</ele><time>2026-04-26T11:05:43.582Z</time></trkpt><trkpt lat="43.1129892" lon="12.4512022"><ele>192.99999999999997</ele><time>2026-04-26T11:05:46.577Z</time></trkpt><trkpt lat="43.1129203" lon="12.451156"><ele>193.0</ele><time>2026-04-26T11:05:48.599Z</time></trkpt><trkpt lat="43.1128472" lon="12.4511085"><ele>193.0</ele><time>2026-04-26T11:05:50.579Z</time></trkpt><trkpt lat="43.1127735" lon="12.4510475"><ele>193.0</ele><time>2026-04-26T11:05:52.581Z</time></trkpt><trkpt lat="43.1127009" lon="12.4509796"><ele>192.99999999999997</ele><time>2026-04-26T11:05:54.694Z</time></trkpt><trkpt lat="43.1126292" lon="12.450917"><ele>193.0</ele><time>2026-04-26T11:05:56.61Z</time></trkpt><trkpt lat="43.1125579" lon="12.4508433"><ele>193.0</ele><time>2026-04-26T11:05:58.613Z</time></trkpt><trkpt lat="43.1124838" lon="12.4507778"><ele>193.0</ele><time>2026-04-26T11:06:00.606Z</time></trkpt><trkpt lat="43.1123762" lon="12.4506791"><ele>193.0</ele><time>2026-04-26T11:06:03.635Z</time></trkpt><trkpt lat="43.112298" lon="12.4506145"><ele>193.0</ele><time>2026-04-26T11:06:05.923Z</time></trkpt><trkpt lat="43.112206" lon="12.4505611"><ele>193.0</ele><time>2026-04-26T11:06:08.57Z</time></trkpt><trkpt lat="43.1121451" lon="12.4505088"><ele>192.83333333333331</ele><time>2026-04-26T11:06:10.581Z</time></trkpt><trkpt lat="43.112049" lon="12.4504244"><ele>192.66666666666666</ele><time>2026-04-26T11:06:13.575Z</time></trkpt><trkpt lat="43.1119854" lon="12.4503623"><ele>192.5</ele><time>2026-04-26T11:06:15.546Z</time></trkpt><trkpt lat="43.1119156" lon="12.4503022"><ele>192.33333333333331</ele><time>2026-04-26T11:06:17.56Z</time></trkpt><trkpt lat="43.1118478" lon="12.4502268"><ele>192.16666666666666</ele><time>2026-04-26T11:06:19.602Z</time></trkpt><trkpt lat="43.1117793" lon="12.4501574"><ele>192.0</ele><time>2026-04-26T11:06:21.582Z</time></trkpt><trkpt lat="43.1117203" lon="12.4500776"><ele>192.0</ele><time>2026-04-26T11:06:23.582Z</time></trkpt><trkpt lat="43.1116695" lon="12.4499847"><ele>192.0</ele><time>2026-04-26T11:06:25.58Z</time></trkpt><trkpt lat="43.1116153" lon="12.4498994"><ele>192.0</ele><time>2026-04-26T11:06:27.578Z</time></trkpt><trkpt lat="43.1115661" lon="12.4498102"><ele>192.0</ele><time>2026-04-26T11:06:29.582Z</time></trkpt><trkpt lat="43.1115202" lon="12.4497194"><ele>192.0</ele><time>2026-04-26T11:06:31.567Z</time></trkpt><trkpt lat="43.1114724" lon="12.4496322"><ele>192.0</ele><time>2026-04-26T11:06:33.571Z</time></trkpt><trkpt lat="43.1114034" lon="12.449493"><ele>192.5</ele><time>2026-04-26T11:06:36.586Z</time></trkpt><trkpt lat="43.111357" lon="12.4494037"><ele>193.0</ele><time>2026-04-26T11:06:38.598Z</time></trkpt><trkpt lat="43.1113087" lon="12.4493118"><ele>193.5</ele><time>2026-04-26T11:06:40.671Z</time></trkpt><trkpt lat="43.1112667" lon="12.4492272"><ele>194.0</ele><time>2026-04-26T11:06:42.581Z</time></trkpt><trkpt lat="43.1112269" lon="12.4491404"><ele>194.5</ele><time>2026-04-26T11:06:44.483Z</time></trkpt><trkpt lat="43.1111852" lon="12.4490392"><ele>195.0</ele><time>2026-04-26T11:06:46.583Z</time></trkpt><trkpt lat="43.1111411" lon="12.4489442"><ele>195.0</ele><time>2026-04-26T11:06:48.698Z</time></trkpt><trkpt lat="43.1110998" lon="12.4488688"><ele>195.0</ele><time>2026-04-26T11:06:50.582Z</time></trkpt><trkpt lat="43.1110577" lon="12.4487892"><ele>195.0</ele><time>2026-04-26T11:06:52.584Z</time></trkpt><trkpt lat="43.1110169" lon="12.4487045"><ele>195.0</ele><time>2026-04-26T11:06:54.632Z</time></trkpt><trkpt lat="43.1109783" lon="12.4486234"><ele>195.0</ele><time>2026-04-26T11:06:56.596Z</time></trkpt><trkpt lat="43.1109336" lon="12.4485464"><ele>195.0</ele><time>2026-04-26T11:06:58.601Z</time></trkpt><trkpt lat="43.1108868" lon="12.448473"><ele>195.0</ele><time>2026-04-26T11:07:00.577Z</time></trkpt><trkpt lat="43.1108484" lon="12.4483907"><ele>195.0</ele><time>2026-04-26T11:07:02.577Z</time></trkpt><trkpt lat="43.1108062" lon="12.4483051"><ele>195.0</ele><time>2026-04-26T11:07:04.581Z</time></trkpt><trkpt lat="43.1107657" lon="12.4482147"><ele>195.0</ele><time>2026-04-26T11:07:06.601Z</time></trkpt><trkpt lat="43.1107203" lon="12.4481285"><ele>195.0</ele><time>2026-04-26T11:07:08.598Z</time></trkpt><trkpt lat="43.1106747" lon="12.4480404"><ele>195.0</ele><time>2026-04-26T11:07:10.607Z</time></trkpt><trkpt lat="43.1106244" lon="12.4479602"><ele>195.0</ele><time>2026-04-26T11:07:12.572Z</time></trkpt><trkpt lat="43.1105849" lon="12.4478668"><ele>195.0</ele><time>2026-04-26T11:07:14.571Z</time></trkpt><trkpt lat="43.1105393" lon="12.4477853"><ele>195.0</ele><time>2026-04-26T11:07:16.504Z</time></trkpt><trkpt lat="43.1104896" lon="12.4477013"><ele>195.0</ele><time>2026-04-26T11:07:18.602Z</time></trkpt><trkpt lat="43.110448" lon="12.4476178"><ele>195.0</ele><time>2026-04-26T11:07:20.571Z</time></trkpt><trkpt lat="43.1104094" lon="12.4475317"><ele>195.0</ele><time>2026-04-26T11:07:22.597Z</time></trkpt><trkpt lat="43.1103698" lon="12.4474465"><ele>195.0</ele><time>2026-04-26T11:07:24.58Z</time></trkpt><trkpt lat="43.1103214" lon="12.447364"><ele>195.0</ele><time>2026-04-26T11:07:26.612Z</time></trkpt><trkpt lat="43.1102827" lon="12.4472753"><ele>195.0</ele><time>2026-04-26T11:07:28.568Z</time></trkpt><trkpt lat="43.1102387" lon="12.4471908"><ele>195.0</ele><time>2026-04-26T11:07:30.598Z</time></trkpt><trkpt lat="43.1101992" lon="12.4471004"><ele>195.0</ele><time>2026-04-26T11:07:32.595Z</time></trkpt><trkpt lat="43.1101568" lon="12.4470164"><ele>195.0</ele><time>2026-04-26T11:07:34.568Z</time></trkpt><trkpt lat="43.1101092" lon="12.4469352"><ele>195.0</ele><time>2026-04-26T11:07:36.613Z</time></trkpt><trkpt lat="43.110068" lon="12.4468507"><ele>195.0</ele><time>2026-04-26T11:07:38.591Z</time></trkpt><trkpt lat="43.1100289" lon="12.446764"><ele>195.0</ele><time>2026-04-26T11:07:40.61Z</time></trkpt><trkpt lat="43.1099862" lon="12.4466959"><ele>195.0</ele><time>2026-04-26T11:07:42.602Z</time></trkpt><trkpt lat="43.1099378" lon="12.446604"><ele>195.0</ele><time>2026-04-26T11:07:45.585Z</time></trkpt><trkpt lat="43.1098635" lon="12.446472"><ele>195.0</ele><time>2026-04-26T11:07:49.785Z</time></trkpt><trkpt lat="43.1098236" lon="12.4463652"><ele>195.0</ele><time>2026-04-26T11:07:52.624Z</time></trkpt><trkpt lat="43.1097794" lon="12.4462669"><ele>194.66666666666666</ele><time>2026-04-26T11:07:55.567Z</time></trkpt><trkpt lat="43.1097231" lon="12.4461802"><ele>194.33333333333331</ele><time>2026-04-26T11:07:58.675Z</time></trkpt><trkpt lat="43.1096705" lon="12.446099"><ele>194.0</ele><time>2026-04-26T11:08:02.597Z</time></trkpt><trkpt lat="43.1096383" lon="12.4460174"><ele>193.66666666666666</ele><time>2026-04-26T11:08:05.595Z</time></trkpt><trkpt lat="43.1095779" lon="12.4459592"><ele>193.33333333333331</ele><time>2026-04-26T11:08:09.704Z</time></trkpt><trkpt lat="43.1095138" lon="12.4459091"><ele>193.0</ele><time>2026-04-26T11:08:13.623Z</time></trkpt><trkpt lat="43.1094548" lon="12.4458452"><ele>192.99999999999997</ele><time>2026-04-26T11:08:17.619Z</time></trkpt><trkpt lat="43.109404" lon="12.4457934"><ele>193.0</ele><time>2026-04-26T11:08:20.637Z</time></trkpt><trkpt lat="43.1093374" lon="12.4457345"><ele>193.0</ele><time>2026-04-26T11:08:24.579Z</time></trkpt><trkpt lat="43.1092686" lon="12.4456752"><ele>193.0</ele><time>2026-04-26T11:08:28.576Z</time></trkpt><trkpt lat="43.1092008" lon="12.4456137"><ele>192.99999999999997</ele><time>2026-04-26T11:08:32.584Z</time></trkpt><trkpt lat="43.1091297" lon="12.445556"><ele>193.0</ele><time>2026-04-26T11:08:36.582Z</time></trkpt><trkpt lat="43.1090755" lon="12.4455051"><ele>192.85714285714286</ele><time>2026-04-26T11:08:39.641Z</time></trkpt><trkpt lat="43.1090203" lon="12.4454603"><ele>192.71428571428572</ele><time>2026-04-26T11:08:42.594Z</time></trkpt><trkpt lat="43.1089657" lon="12.4454151"><ele>192.57142857142856</ele><time>2026-04-26T11:08:45.61Z</time></trkpt><trkpt lat="43.1088954" lon="12.4453607"><ele>192.42857142857144</ele><time>2026-04-26T11:08:49.588Z</time></trkpt><trkpt lat="43.1088393" lon="12.4453109"><ele>192.28571428571428</ele><time>2026-04-26T11:08:52.691Z</time></trkpt><trkpt lat="43.1087681" lon="12.4452481"><ele>192.14285714285714</ele><time>2026-04-26T11:08:56.614Z</time></trkpt><trkpt lat="43.1087115" lon="12.4452005"><ele>192.0</ele><time>2026-04-26T11:08:59.649Z</time></trkpt><trkpt lat="43.1086397" lon="12.4451387"><ele>191.99999999999997</ele><time>2026-04-26T11:09:03.639Z</time></trkpt><trkpt lat="43.108584" lon="12.4450927"><ele>192.0</ele><time>2026-04-26T11:09:06.577Z</time></trkpt><trkpt lat="43.108528" lon="12.4450457"><ele>192.0</ele><time>2026-04-26T11:09:09.613Z</time></trkpt><trkpt lat="43.1084739" lon="12.444992"><ele>192.0</ele><time>2026-04-26T11:09:13.623Z</time></trkpt><trkpt lat="43.1084106" lon="12.4449439"><ele>192.0</ele><time>2026-04-26T11:09:18.509Z</time></trkpt><trkpt lat="43.1083483" lon="12.4448926"><ele>191.99999999999997</ele><time>2026-04-26T11:09:23.731Z</time></trkpt><trkpt lat="43.1082883" lon="12.4448379"><ele>192.0</ele><time>2026-04-26T11:09:27.623Z</time></trkpt><trkpt lat="43.10823" lon="12.4447954"><ele>193.0</ele><time>2026-04-26T11:09:31.593Z</time></trkpt><trkpt lat="43.1081641" lon="12.4447321"><ele>194.0</ele><time>2026-04-26T11:09:36.613Z</time></trkpt><trkpt lat="43.1080994" lon="12.4446741"><ele>195.0</ele><time>2026-04-26T11:09:40.55Z</time></trkpt><trkpt lat="43.1080314" lon="12.4446144"><ele>196.0</ele><time>2026-04-26T11:09:44.593Z</time></trkpt><trkpt lat="43.1079633" lon="12.4445595"><ele>197.0</ele><time>2026-04-26T11:09:48.651Z</time></trkpt><trkpt lat="43.1078958" lon="12.4445039"><ele>198.0</ele><time>2026-04-26T11:09:52.612Z</time></trkpt><trkpt lat="43.107824" lon="12.4444554"><ele>199.2857142857143</ele><time>2026-04-26T11:09:56.706Z</time></trkpt><trkpt lat="43.107765" lon="12.444401"><ele>200.57142857142856</ele><time>2026-04-26T11:10:00.589Z</time></trkpt><trkpt lat="43.1077329" lon="12.4443212"><ele>201.85714285714286</ele><time>2026-04-26T11:10:05.56Z</time></trkpt><trkpt lat="43.107729" lon="12.4442344"><ele>203.14285714285717</ele><time>2026-04-26T11:10:12.624Z</time></trkpt><trkpt lat="43.10767" lon="12.4442645"><ele>204.42857142857144</ele><time>2026-04-26T11:10:16.608Z</time></trkpt><trkpt lat="43.1076105" lon="12.4442185"><ele>205.71428571428572</ele><time>2026-04-26T11:10:22.563Z</time></trkpt><trkpt lat="43.1075868" lon="12.4441217"><ele>207.0</ele><time>2026-04-26T11:10:28.705Z</time></trkpt><trkpt lat="43.1075524" lon="12.444033"><ele>207.00000000000003</ele><time>2026-04-26T11:10:34.574Z</time></trkpt><trkpt lat="43.1075497" lon="12.4439354"><ele>207.0</ele><time>2026-04-26T11:10:39.631Z</time></trkpt><trkpt lat="43.1075381" lon="12.4438348"><ele>207.0</ele><time>2026-04-26T11:10:45.58Z</time></trkpt><trkpt lat="43.1075316" lon="12.4437445"><ele>207.0</ele><time>2026-04-26T11:10:50.578Z</time></trkpt><trkpt lat="43.1075232" lon="12.4436514"><ele>207.0</ele><time>2026-04-26T11:10:55.577Z</time></trkpt><trkpt lat="43.1075209" lon="12.4435651"><ele>207.00000000000003</ele><time>2026-04-26T11:11:07.563Z</time></trkpt><trkpt lat="43.1075216" lon="12.4434679"><ele>207.0</ele><time>2026-04-26T11:11:15.626Z</time></trkpt><trkpt lat="43.1075149" lon="12.4433815"><ele>208.71428571428572</ele><time>2026-04-26T11:11:22.572Z</time></trkpt><trkpt lat="43.1075097" lon="12.4432912"><ele>210.42857142857144</ele><time>2026-04-26T11:11:29.603Z</time></trkpt><trkpt lat="43.1075148" lon="12.443193"><ele>212.14285714285717</ele><time>2026-04-26T11:11:36.598Z</time></trkpt><trkpt lat="43.107528" lon="12.4430986"><ele>213.85714285714286</ele><time>2026-04-26T11:11:43.588Z</time></trkpt><trkpt lat="43.1075561" lon="12.4430191"><ele>215.57142857142856</ele><time>2026-04-26T11:11:49.891Z</time></trkpt><trkpt lat="43.1075879" lon="12.4429446"><ele>217.2857142857143</ele><time>2026-04-26T11:11:56.636Z</time></trkpt><trkpt lat="43.107629" lon="12.4428663"><ele>219.0</ele><time>2026-04-26T11:12:03.594Z</time></trkpt><trkpt lat="43.1076722" lon="12.442792"><ele>221.14285714285717</ele><time>2026-04-26T11:12:10.595Z</time></trkpt><trkpt lat="43.1077194" lon="12.4427163"><ele>223.28571428571428</ele><time>2026-04-26T11:12:17.581Z</time></trkpt><trkpt lat="43.1077649" lon="12.4426507"><ele>225.42857142857144</ele><time>2026-04-26T11:12:24.748Z</time></trkpt><trkpt lat="43.107823" lon="12.4426"><ele>227.57142857142858</ele><time>2026-04-26T11:13:26.643Z</time></trkpt><trkpt lat="43.1078636" lon="12.4425327"><ele>229.71428571428572</ele><time>2026-04-26T11:13:33.574Z</time></trkpt><trkpt lat="43.1079122" lon="12.442468"><ele>231.85714285714286</ele><time>2026-04-26T11:13:41.575Z</time></trkpt><trkpt lat="43.1079601" lon="12.4424064"><ele>234.0</ele><time>2026-04-26T11:13:49.609Z</time></trkpt><trkpt lat="43.1080048" lon="12.4423428"><ele>234.0</ele><time>2026-04-26T11:13:56.578Z</time></trkpt><trkpt lat="43.1080557" lon="12.442285"><ele>234.00000000000003</ele><time>2026-04-26T11:14:03.616Z</time></trkpt><trkpt lat="43.1081155" lon="12.4422309"><ele>234.0</ele><time>2026-04-26T11:14:11.567Z</time></trkpt><trkpt lat="43.1081687" lon="12.4421639"><ele>234.0</ele><time>2026-04-26T11:14:19.596Z</time></trkpt><trkpt lat="43.1082359" lon="12.442104"><ele>234.00000000000003</ele><time>2026-04-26T11:14:27.615Z</time></trkpt><trkpt lat="43.1082739" lon="12.4420332"><ele>234.0</ele><time>2026-04-26T11:14:33.712Z</time></trkpt><trkpt lat="43.1083143" lon="12.4419627"><ele>234.0</ele><time>2026-04-26T11:14:39.611Z</time></trkpt><trkpt lat="43.1083785" lon="12.4419477"><ele>243.0</ele><time>2026-04-26T11:14:46.638Z</time></trkpt></trkseg></trk></gpx>